# Wetter Temperatur Luftdruck Luftfeuchtigkeit Sichtweite Windgeschwindigkeit Windrichtung Zeit
1 Clouds 13 1018 90 0 0.45 210 08:44 14.07.2020
2 Clouds 13 1018 90 0 0.45 210 08:25 14.07.2020
3 Clouds 12 1018 90 0 0.45 210 07:59 14.07.2020
4 Clouds 11 1018 87 0 0.51 231 07:38 14.07.2020
5 Clouds 12 1018 87 0 1.21 186 07:18 14.07.2020
6 Clouds 10 1018 90 0 0.45 219 06:47 14.07.2020
7 Clouds 10 1018 90 0 0.45 219 06:24 14.07.2020
8 Clouds 9 1018 87 0 0.45 142 05:36 14.07.2020
9 Clouds 11 1019 86 0 0.45 206 04:37 14.07.2020
10 Clouds 11 1019 84 0 1.52 187 03:47 14.07.2020
11 Clouds 11 1019 84 0 1.5 187 02:51 14.07.2020
12 Clouds 10 1019 86 0 1.14 193 02:25 14.07.2020
13 Clouds 11 1020 81 0 1.14 193 01:36 14.07.2020
14 Clouds 12 1020 81 0 1.03 192 00:55 14.07.2020
15 Clouds 13 1020 80 0 1.03 192 00:36 14.07.2020
16 Clouds 13 1020 80 0 1.01 186 00:18 14.07.2020
17 Clouds 14 939 63 0 1.01 186 23:37 13.07.2020
18 Clouds 14 939 61 0 0.78 181 23:19 13.07.2020
19 Clouds 14 939 57 0 0.78 181 22:42 13.07.2020
20 Clouds 14 1019 35 0 0.35 165 22:22 13.07.2020
21 Clouds 15 1019 34 0 0.35 165 21:57 13.07.2020
22 Clouds 17 938 52 0 0.45 127 21:39 13.07.2020
23 Clouds 17 938 50 0 0.76 28 21:20 13.07.2020
24 Clouds 19 916 50 0 0.76 28 20:58 13.07.2020
25 Clouds 19 1019 25 0 0.76 28 20:39 13.07.2020
26 Clouds 20 1019 23 0 1.67 8 20:21 13.07.2020
27 Clouds 21 1019 22 0 1.67 8 19:45 13.07.2020
28 Clouds 21 938 40 0 2.21 4 19:26 13.07.2020
29 Clouds 22 938 37 0 1.34 180 18:59 13.07.2020
30 Clouds 23 1019 46 0 1.34 341 18:40 13.07.2020
31 Clouds 23 1019 46 0 1.34 341 18:40 13.07.2020
32 Clouds 22 1019 46 0 1.34 341 18:21 13.07.2020
33 Clouds 22 1019 46 0 1.34 341 17:56 13.07.2020
34 Clouds 22 1020 46 0 0.89 322 17:38 13.07.2020
35 Clouds 22 1020 46 0 0.89 322 17:20 13.07.2020
36 Clouds 22 1020 46 0 0.89 322 16:55 13.07.2020
37 Clouds 22 1020 48 0 2.24 306 16:37 13.07.2020
38 Clouds 22 1020 48 0 2.24 306 16:18 13.07.2020
39 Clouds 22 1020 48 0 2.24 306 15:55 13.07.2020
40 Clouds 22 1020 49 0 3.13 2 15:37 13.07.2020
41 Clouds 22 1020 49 0 3.13 2 15:18 13.07.2020
42 Clouds 22 1020 49 0 3.13 2 14:55 13.07.2020
43 Clouds 21 1020 53 0 2.68 346 14:36 13.07.2020
44 Clouds 21 1020 53 0 2.68 346 14:18 13.07.2020
45 Clouds 21 1021 54 0 2.24 332 13:41 13.07.2020
46 Clouds 21 1021 54 0 2.24 332 13:21 13.07.2020
47 Clouds 21 1021 54 0 2.24 332 12:54 13.07.2020
48 Clouds 20 1021 62 0 1.34 17 12:36 13.07.2020
49 Clouds 20 1021 62 0 1.34 17 12:18 13.07.2020
50 Clouds 19 1021 65 0 1.79 22 11:40 13.07.2020
51 Clouds 19 1021 65 0 1.79 22 11:22 13.07.2020
52 Clouds 18 1022 69 0 0.45 13 10:42 13.07.2020
53 Clouds 17 1022 69 0 0.45 13 10:20 13.07.2020
54 Clouds 16 1022 78 0 0.45 68 09:47 13.07.2020
55 Clouds 14 1022 78 0 0.45 68 09:27 13.07.2020
56 Clouds 13 1022 78 0 0.45 68 09:00 13.07.2020
57 Clouds 13 1022 87 0 0.45 76 08:40 13.07.2020
58 Clouds 12 1022 87 0 0.45 76 08:20 13.07.2020
59 Clouds 10 1022 91 0 1.15 167 07:21 13.07.2020
60 Clouds 9 1022 95 0 0.89 173 06:46 13.07.2020
61 Clouds 9 1022 95 0 0.89 173 06:25 13.07.2020
62 Clear 9 1022 92 0 0.45 226 04:57 13.07.2020
63 Clear 9 1023 90 0 1.46 148 02:42 13.07.2020
64 Clear 11 1023 89 0 1.44 146 01:40 13.07.2020
65 Clear 11 1023 89 0 1.42 149 01:20 13.07.2020
66 Clear 12 1024 84 0 0.45 245 00:38 13.07.2020
67 Clear 12 1024 84 0 0.45 245 00:19 13.07.2020
68 Clear 14 943 64 0 1.52 137 23:41 12.07.2020
69 Clear 14 1023 28 0 1.79 24 23:22 12.07.2020
70 Clear 14 943 62 0 1.44 128 22:56 12.07.2020
71 Clear 14 943 62 0 1.44 128 22:36 12.07.2020
72 Clear 14 943 62 0 1.44 128 22:36 12.07.2020
73 Clear 15 1023 30 0 1.34 59 22:18 12.07.2020
74 Clear 16 1023 59 0 0.89 51 21:42 12.07.2020
75 Clear 16 1023 59 0 0.89 51 21:20 12.07.2020
76 Clear 17 1023 59 0 0.89 51 20:59 12.07.2020
77 Clear 18 1023 23 0 2.24 65 20:41 12.07.2020
78 Clouds 19 1024 42 0 0.45 292 20:20 12.07.2020
79 Clouds 19 943 47 0 2.24 180 19:59 12.07.2020
80 Clouds 20 1023 52 0 1.79 348 19:39 12.07.2020
81 Clouds 20 1023 52 0 1.79 348 19:39 12.07.2020
82 Clouds 20 1023 52 0 1.79 348 19:18 12.07.2020
83 Clouds 20 1023 49 0 3.13 308 18:43 12.07.2020
84 Clouds 20 1023 49 0 3.13 308 18:43 12.07.2020
85 Clouds 21 1023 49 0 3.13 308 18:21 12.07.2020
86 Clouds 21 1023 49 0 3.13 308 17:58 12.07.2020
87 Clouds 20 1023 49 0 1.79 3 17:37 12.07.2020
88 Clouds 21 1023 49 0 1.79 3 17:19 12.07.2020
89 Clouds 22 1021 49 0 2.68 318 16:45 12.07.2020
90 Clear 22 1021 51 0 2.68 350 16:21 12.07.2020
91 Clear 22 1021 51 0 2.68 350 16:21 12.07.2020
92 Clear 21 1021 60 0 3.06 15 15:46 12.07.2020
93 Clear 21 1021 60 0 2.77 16 15:27 12.07.2020
94 Clear 21 1021 60 0 2.77 16 14:57 12.07.2020
95 Clear 20 1021 60 0 2.77 16 14:38 12.07.2020
96 Clouds 20 1024 54 0 1.79 312 14:18 12.07.2020
97 Clouds 20 1024 54 0 1.79 312 13:39 12.07.2020
98 Clouds 20 1024 54 0 1.79 312 13:20 12.07.2020
99 Clouds 20 1024 54 0 1.79 312 12:55 12.07.2020
100 Clouds 19 1024 65 0 1.79 45 12:36 12.07.2020
101 Clouds 19 1024 65 0 1.79 45 12:18 12.07.2020
102 Clouds 19 1024 65 0 1.79 45 12:18 12.07.2020
103 Clouds 18 1024 70 0 0.45 61 11:44 12.07.2020
104 Clouds 18 1024 70 0 0.45 61 11:20 12.07.2020
105 Clouds 15 1024 68 0 0.45 319 10:42 12.07.2020
106 Clouds 15 1024 68 0 0.45 319 10:22 12.07.2020
107 Clouds 15 1024 68 0 0.45 319 09:55 12.07.2020
108 Clouds 13 1024 87 0 0.45 25 09:37 12.07.2020
109 Clear 13 1024 87 0 0.45 25 09:18 12.07.2020
110 Clear 11 1024 99 0 0.45 153 08:42 12.07.2020
111 Clear 11 1024 99 0 0.45 153 08:23 12.07.2020
112 Clear 11 1024 99 0 0.45 153 07:57 12.07.2020
113 Clear 10 1024 100 0 0.89 168 07:37 12.07.2020
114 Clear 10 1024 100 0 0.89 168 07:18 12.07.2020
115 Clear 9 1024 100 0 0.89 168 06:49 12.07.2020
116 Clear 8 1024 100 0 0.45 189 06:20 12.07.2020
117 Clear 8 1024 100 0 0.45 189 06:20 12.07.2020
118 Clear 9 1024 100 0 0.45 198 05:23 12.07.2020
119 Clear 9 1024 99 0 0.45 198 04:42 12.07.2020
120 Clear 9 1024 99 0 0.45 198 04:23 12.07.2020
121 Clear 9 1024 100 0 0.45 226 03:31 12.07.2020
122 Clouds 10 1024 97 0 0.89 203 02:46 12.07.2020
123 Clouds 11 943 88 0 1.03 110 01:36 12.07.2020
124 Clouds 11 943 87 0 1.07 111 00:42 12.07.2020
125 Clouds 11 1024 71 0 0.84 103 00:22 12.07.2020
126 Clouds 12 943 87 0 0.84 103 23:56 11.07.2020
127 Clouds 13 943 86 0 0.84 103 23:38 11.07.2020
128 Clouds 13 943 86 0 0.67 81 23:18 11.07.2020
129 Clouds 13 943 86 0 0.67 81 22:45 11.07.2020
130 Clouds 13 943 86 0 0.73 58 22:26 11.07.2020
131 Clouds 13 1023 62 0 0.73 58 21:58 11.07.2020
132 Clouds 13 1024 97 0 0.75 36 21:40 11.07.2020
133 Rain 13 1024 97 0 1.19 13 21:21 11.07.2020
134 Rain 14 1024 97 0 1.11 359 20:56 11.07.2020
135 Rain 14 1023 95 0 1.11 359 20:37 11.07.2020
136 Rain 14 1023 95 0 1.73 349 20:19 11.07.2020
137 Rain 14 1023 95 0 1.73 349 19:55 11.07.2020
138 Rain 14 1023 89 0 0.45 131 19:37 11.07.2020
139 Rain 14 1023 89 0 0.45 131 19:19 11.07.2020
140 Rain 14 1023 93 0 1.34 132 18:41 11.07.2020
141 Rain 14 1023 93 0 1.34 132 18:41 11.07.2020
142 Rain 14 1023 93 0 1.34 132 18:22 11.07.2020
143 Rain 14 1023 93 0 1.34 132 17:59 11.07.2020
144 Rain 14 1023 94 0 0.45 152 17:39 11.07.2020
145 Rain 14 1023 94 0 0.45 152 17:19 11.07.2020
146 Rain 14 1023 94 0 0.45 152 16:56 11.07.2020
147 Rain 14 1023 93 0 0.45 310 16:38 11.07.2020
148 Rain 14 1023 93 0 0.45 310 16:18 11.07.2020
149 Rain 14 1023 91 0 1.34 151 15:42 11.07.2020
150 Rain 14 1023 91 0 1.34 151 15:21 11.07.2020
151 Rain 14 1021 93 0 1.18 345 14:58 11.07.2020
152 Rain 14 1020 93 0 1.18 345 14:39 11.07.2020
153 Rain 15 1020 93 0 0.94 352 14:21 11.07.2020
154 Rain 15 1020 93 0 0.94 352 13:44 11.07.2020
155 Rain 15 1020 93 0 0.52 305 13:22 11.07.2020
156 Rain 14 1020 93 0 0.52 305 12:59 11.07.2020
157 Rain 14 1020 93 0 0.52 305 12:40 11.07.2020
158 Rain 14 1019 93 0 0.39 29 12:21 11.07.2020
159 Rain 14 1019 93 0 0.39 29 11:57 11.07.2020
160 Rain 14 1019 93 0 0.39 29 11:38 11.07.2020
161 Rain 14 1019 93 0 0.28 305 11:19 11.07.2020
162 Rain 14 1018 93 0 0.28 305 10:43 11.07.2020
163 Rain 14 1018 95 0 0.88 208 10:25 11.07.2020
164 Rain 14 940 89 0 0.88 208 09:45 11.07.2020
165 Rain 14 939 89 0 0.56 174 09:21 11.07.2020
166 Rain 14 939 89 0 0.56 174 08:59 11.07.2020
167 Rain 14 939 90 0 0.56 174 08:37 11.07.2020
168 Rain 14 1020 89 0 0.45 180 08:18 11.07.2020
169 Rain 14 939 89 0 2.68 315 07:41 11.07.2020
170 Rain 15 1016 97 0 0.89 157 07:20 11.07.2020
171 Rain 14 1019 90 0 1.82 308 06:55 11.07.2020
172 Rain 14 938 89 0 2.28 332 06:22 11.07.2020
173 Rain 14 938 89 0 2.86 324 05:22 11.07.2020
174 Rain 14 1015 97 0 2.86 324 04:55 11.07.2020
175 Rain 14 938 89 0 2.86 324 04:32 11.07.2020
176 Rain 15 1017 93 0 1.36 5 02:59 11.07.2020
177 Rain 15 1017 93 0 1.36 5 02:37 11.07.2020
178 Rain 15 1016 93 0 2.03 5 01:32 11.07.2020
179 Rain 15 1016 93 0 0.89 297 00:59 11.07.2020
180 Rain 16 1016 92 0 0.89 328 00:40 11.07.2020
181 Rain 16 1016 93 0 2.68 316 00:21 11.07.2020
182 Rain 16 1015 93 0 0.89 336 23:57 10.07.2020
183 Rain 16 1015 93 0 0.89 347 23:39 10.07.2020
184 Rain 16 1015 73 0 1.03 332 23:18 10.07.2020
185 Rain 16 1016 73 0 1.03 332 22:43 10.07.2020
186 Rain 16 1016 73 0 0.98 305 22:20 10.07.2020
187 Rain 17 1015 73 0 0.98 305 21:55 10.07.2020
188 Rain 17 1014 73 0 0.98 305 21:36 10.07.2020
189 Rain 17 1014 73 0 1.24 211 21:18 10.07.2020
190 Rain 17 1014 73 0 1.24 211 21:18 10.07.2020
191 Rain 17 1013 73 0 1.24 211 20:41 10.07.2020
192 Rain 17 1013 73 0 1.18 224 20:22 10.07.2020
193 Rain 18 1013 73 0 1.18 224 19:57 10.07.2020
194 Rain 17 1012 73 0 1.18 224 19:39 10.07.2020
195 Rain 18 1013 73 0 0.82 251 19:20 10.07.2020
196 Rain 19 1012 73 0 0.82 251 18:41 10.07.2020
197 Rain 22 1015 60 0 1.34 180 18:20 10.07.2020
198 Rain 22 1015 36 0 2.24 201 17:57 10.07.2020
199 Rain 25 1015 51 0 1.34 108 17:38 10.07.2020
200 Rain 24 1015 51 0 1.34 108 17:20 10.07.2020
201 Rain 25 934 46 0 2.61 281 16:43 10.07.2020
202 Rain 23 1016 44 0 0.45 292 16:20 10.07.2020
203 Rain 26 1011 63 0 1.79 276 15:48 10.07.2020
204 Clear 26 1015 20 0 0.89 182 15:26 10.07.2020
205 Clear 27 1015 20 0 1.34 176 14:56 10.07.2020
206 Clear 27 1016 36 0 2.24 292 14:38 10.07.2020
207 Clouds 27 1017 37 0 1.34 292 14:20 10.07.2020
208 Clouds 27 1017 39 0 1.34 292 13:57 10.07.2020
209 Clouds 27 1015 20 0 2.24 248 13:38 10.07.2020
210 Clouds 27 1016 39 0 0.89 292 13:20 10.07.2020
211 Clouds 26 1011 57 0 2.68 216 12:55 10.07.2020
212 Clouds 27 1015 35 0 0.45 7 12:37 10.07.2020
213 Clouds 27 1015 35 0 0.45 7 12:18 10.07.2020
214 Clouds 26 1015 46 0 1.79 347 11:39 10.07.2020
215 Clouds 25 1015 46 0 1.79 347 11:19 10.07.2020
216 Clouds 25 1015 46 0 1.79 347 10:55 10.07.2020
217 Clouds 25 1015 46 0 0.89 5 10:37 10.07.2020
218 Clouds 25 1015 46 0 0.89 5 10:18 10.07.2020
219 Clouds 23 1015 53 0 0.92 287 09:39 10.07.2020
220 Clouds 22 1015 53 0 0.53 214 09:20 10.07.2020
221 Clouds 23 1015 53 0 0.53 214 08:58 10.07.2020
222 Clouds 18 1016 68 0 0.45 96 08:40 10.07.2020
223 Clear 15 1016 68 0 0.45 96 08:21 10.07.2020
224 Clear 14 1017 74 0 1.56 176 07:43 10.07.2020
225 Clear 14 1017 74 0 2.16 174 07:23 10.07.2020
226 Clear 14 1017 74 0 2.16 174 06:51 10.07.2020
227 Clear 14 1017 75 0 0.45 168 06:27 10.07.2020
228 Clouds 14 1017 74 0 0.89 191 05:19 10.07.2020
229 Clouds 14 1017 80 0 2.6 181 03:42 10.07.2020
230 Clouds 14 1017 80 0 2.35 182 02:53 10.07.2020
231 Clear 15 1017 78 0 0.89 175 01:53 10.07.2020
232 Clear 16 1018 74 0 0.45 212 00:49 10.07.2020
233 Clear 17 1018 71 0 1.92 178 00:21 10.07.2020
234 Clear 17 1018 71 0 1.92 178 23:55 09.07.2020
235 Clear 17 936 64 0 1.92 178 23:36 09.07.2020
236 Clear 17 936 62 0 1.75 178 23:18 09.07.2020
237 Clear 18 936 58 0 1.75 178 22:41 09.07.2020
238 Clear 19 936 57 0 1.29 178 22:21 09.07.2020
239 Clear 20 936 53 0 1.29 178 21:59 09.07.2020
240 Clear 20 1012 65 0 1.29 178 21:39 09.07.2020
241 Clear 21 936 48 0 0.53 211 21:19 09.07.2020
242 Clear 23 1016 25 0 1.34 180 20:58 09.07.2020
243 Clear 24 936 42 0 0.53 211 20:39 09.07.2020
244 Clouds 25 936 40 0 0.93 314 20:21 09.07.2020
245 Clouds 26 936 37 0 0.93 314 19:42 09.07.2020
246 Clouds 26 936 36 0 1.71 316 19:21 09.07.2020
247 Clouds 27 1015 45 10000 1.5 0 18:43 09.07.2020
248 Clouds 27 1012 47 0 2.24 221 18:25 09.07.2020
249 Clouds 27 1012 46 0 2.68 244 17:56 09.07.2020
250 Clouds 27 1016 39 10000 2.6 50 17:38 09.07.2020
251 Clouds 28 1018 28 0 0.89 292 17:20 09.07.2020
252 Clouds 27 1013 46 0 3.13 180 16:56 09.07.2020
253 Clouds 27 1017 34 0 3.07 297 16:38 09.07.2020
254 Clouds 27 1017 34 0 3.19 298 16:19 09.07.2020
255 Clouds 27 1017 34 0 3.19 298 15:55 09.07.2020
256 Clouds 27 1018 35 0 2.24 35 15:36 09.07.2020
257 Clouds 27 1018 35 0 2.24 35 15:18 09.07.2020
258 Clouds 27 1018 35 0 2.24 35 14:57 09.07.2020
259 Clouds 26 1018 17 0 2.24 185 14:38 09.07.2020
260 Clouds 26 1020 36 0 0.89 292 14:19 09.07.2020
261 Clouds 25 1018 40 0 1.34 323 13:41 09.07.2020
262 Clouds 26 1018 40 0 1.34 323 13:21 09.07.2020
263 Clouds 25 1018 40 0 1.34 323 12:58 09.07.2020
264 Clouds 26 1015 37 0 2.24 331 12:39 09.07.2020
265 Clouds 25 1020 36 0 0.89 292 12:20 09.07.2020
266 Clouds 25 1015 45 0 0.89 9 11:55 09.07.2020
267 Clouds 24 1019 49 0 0.45 317 11:36 09.07.2020
268 Clouds 24 1019 49 0 0.45 317 11:18 09.07.2020
269 Clouds 22 1020 50 0 0.45 6 10:42 09.07.2020
270 Clouds 22 1020 50 0 0.45 6 10:23 09.07.2020
271 Clouds 22 1020 50 0 0.45 6 09:58 09.07.2020
272 Clouds 19 1020 60 0 0.89 69 09:40 09.07.2020
273 Clouds 19 1020 60 0 0.89 69 09:40 09.07.2020
274 Clear 19 1020 60 0 0.89 69 09:21 09.07.2020
275 Clear 15 1020 78 0 0.87 275 08:44 09.07.2020
276 Clouds 14 1020 78 0 0.94 218 08:25 09.07.2020
277 Clouds 13 1020 84 0 0.89 213 07:47 09.07.2020
278 Clouds 12 1020 84 0 0.89 213 07:22 09.07.2020
279 Clouds 12 1020 84 0 0.89 213 06:53 09.07.2020
280 Clouds 12 1020 81 0 1.81 189 06:19 09.07.2020
281 Clouds 12 1020 81 0 0.45 213 04:29 09.07.2020
282 Clouds 13 1020 76 0 2.02 190 03:48 09.07.2020
283 Clouds 13 1020 80 0 1.34 193 02:20 09.07.2020
284 Clouds 14 1020 78 0 0.89 221 01:32 09.07.2020
285 Clouds 14 1020 78 0 0.89 221 01:32 09.07.2020
286 Clouds 15 939 61 0 1.16 192 00:47 09.07.2020
287 Clouds 17 939 61 0 1.21 196 00:24 09.07.2020
288 Clouds 17 939 62 0 1.21 196 23:46 08.07.2020
289 Clouds 17 1019 29 0 1.24 203 23:27 08.07.2020
290 Clouds 17 1019 26 0 1.24 203 22:58 08.07.2020
291 Clouds 16 1019 31 0 1.24 203 22:39 08.07.2020
292 Clouds 17 938 57 0 1.16 204 22:21 08.07.2020
293 Clouds 18 938 55 0 1.16 204 21:58 08.07.2020
294 Clouds 18 938 55 0 1.16 204 21:58 08.07.2020
295 Clouds 18 938 55 0 1.16 204 21:58 08.07.2020
296 Clouds 19 1019 26 0 1.16 204 21:38 08.07.2020
297 Clouds 20 938 48 0 0.9 241 21:20 08.07.2020
298 Clouds 21 1019 22 0 0.89 181 20:54 08.07.2020
299 Clouds 22 938 43 0 1.04 251 20:36 08.07.2020
300 Clouds 22 938 42 0 1.56 278 20:18 08.07.2020
301 Clouds 22 1018 19 0 1.34 159 19:42 08.07.2020
302 Clouds 23 938 39 0 2.24 22 19:22 08.07.2020
303 Clouds 23 937 36 0 2.37 287 18:56 08.07.2020
304 Clouds 23 1018 16 0 2.68 155 18:38 08.07.2020
305 Clouds 23 1018 16 0 1.79 164 18:19 08.07.2020
306 Clouds 24 1015 52 0 2.24 253 17:55 08.07.2020
307 Clouds 24 1020 33 0 1.79 292 17:36 08.07.2020
308 Clouds 24 1020 32 0 1.34 292 17:18 08.07.2020
309 Clouds 24 1015 48 0 3.13 252 16:39 08.07.2020
310 Clouds 24 1015 42 0 1.34 241 16:20 08.07.2020
311 Clouds 24 1015 46 0 3.13 256 15:58 08.07.2020
312 Clouds 24 1018 16 0 2.68 164 15:39 08.07.2020
313 Clouds 23 1015 30 0 2.68 272 15:19 08.07.2020
314 Clouds 23 1015 47 0 2.68 237 14:46 08.07.2020
315 Clouds 23 1015 44 0 2.68 29 14:28 08.07.2020
316 Clouds 23 1015 44 0 2.68 29 13:58 08.07.2020
317 Clouds 23 1018 41 0 0.45 273 13:40 08.07.2020
318 Clouds 23 1018 41 0 0.45 273 13:19 08.07.2020
319 Clouds 22 1018 44 0 0.89 21 12:42 08.07.2020
320 Clouds 21 1018 44 0 0.89 21 12:20 08.07.2020
321 Clouds 21 1018 44 0 0.89 21 11:56 08.07.2020
322 Clouds 20 1018 51 0 2.24 6 11:38 08.07.2020
323 Clouds 20 1018 51 0 2.24 6 11:20 08.07.2020
324 Clouds 19 1019 59 0 1.81 306 10:43 08.07.2020
325 Clouds 19 1019 59 0 1.65 306 10:24 08.07.2020
326 Clouds 17 1019 64 0 0.45 14 09:46 08.07.2020
327 Clouds 16 1019 64 0 0.45 14 09:25 08.07.2020
328 Clouds 15 1019 64 0 0.45 14 08:56 08.07.2020
329 Clouds 12 1019 86 0 0.89 107 08:38 08.07.2020
330 Clouds 12 1019 86 0 0.89 107 08:19 08.07.2020
331 Clouds 10 1019 84 0 0.45 218 07:42 08.07.2020
332 Clouds 10 1019 84 0 0.45 218 07:19 08.07.2020
333 Clouds 10 1019 86 0 0.89 192 06:45 08.07.2020
334 Clouds 9 1019 86 0 0.89 192 06:25 08.07.2020
335 Clouds 10 1019 84 0 1.8 193 05:45 08.07.2020
336 Clouds 10 1019 87 0 0.45 219 04:44 08.07.2020
337 Clouds 10 1019 83 0 0.45 157 03:33 08.07.2020
338 Clear 11 1020 79 0 1.73 196 02:19 08.07.2020
339 Clear 11 1020 80 0 0.45 208 01:38 08.07.2020
340 Clear 10 1020 80 0 0.45 208 00:50 08.07.2020
341 Clear 11 1019 50 0 1.37 195 00:19 08.07.2020
342 Clear 12 1017 79 0 1.37 195 23:43 07.07.2020
343 Clear 12 938 67 0 1.18 183 23:22 07.07.2020
344 Clear 12 938 67 0 1.18 183 23:22 07.07.2020
345 Clear 13 938 63 0 1.18 183 22:55 07.07.2020
346 Clear 13 938 63 0 1.18 183 22:55 07.07.2020
347 Clear 13 938 61 0 1.18 183 22:37 07.07.2020
348 Clear 13 938 59 0 0.75 151 22:18 07.07.2020
349 Clear 16 938 54 0 0.75 151 21:41 07.07.2020
350 Clear 16 938 52 0 0.87 10 21:22 07.07.2020
351 Clear 18 1018 23 0 0.87 10 20:59 07.07.2020
352 Clear 18 938 45 0 0.87 10 20:41 07.07.2020
353 Clear 19 938 43 0 1.83 349 20:23 07.07.2020
354 Clear 20 1018 14 0 1.83 349 19:55 07.07.2020
355 Clear 20 1016 46 0 0.89 294 19:36 07.07.2020
356 Clear 20 1016 46 0 0.89 294 19:18 07.07.2020
357 Clear 21 1018 28 10000 2.6 280 18:55 07.07.2020
358 Clear 21 1018 41 0 2.68 360 18:36 07.07.2020
359 Clear 21 1018 41 0 2.68 360 18:18 07.07.2020
360 Clear 21 1019 42 0 3.13 358 17:43 07.07.2020
361 Clear 21 1019 42 0 3.13 358 17:23 07.07.2020
362 Clear 21 1019 42 0 3.13 358 16:58 07.07.2020
363 Clear 20 1019 43 0 1.79 272 16:40 07.07.2020
364 Clear 21 1019 43 0 1.79 272 16:21 07.07.2020
365 Clear 21 1019 43 0 1.79 272 15:55 07.07.2020
366 Clear 20 1019 43 0 1.34 295 15:36 07.07.2020
367 Clear 20 1019 43 0 1.34 295 15:18 07.07.2020
368 Clear 20 1019 43 0 0.89 344 14:42 07.07.2020
369 Clear 20 1019 43 0 0.89 344 14:23 07.07.2020
370 Clear 19 1019 42 0 1.34 15 13:40 07.07.2020
371 Clear 18 1019 42 0 1.34 15 13:19 07.07.2020
372 Clear 18 1020 47 0 0.45 353 12:47 07.07.2020
373 Clear 18 1020 47 0 0.45 353 12:27 07.07.2020
374 Clear 17 1020 47 0 0.45 353 11:59 07.07.2020
375 Clear 17 1020 53 0 0.89 2 11:41 07.07.2020
376 Clear 17 1020 53 0 0.89 2 11:21 07.07.2020
377 Clear 16 1020 53 0 0.89 2 10:58 07.07.2020
378 Clear 16 1021 56 0 0.45 86 10:38 07.07.2020
379 Clear 15 1021 56 0 0.45 86 10:19 07.07.2020
380 Clear 16 1019 63 0 1.34 359 09:42 07.07.2020
381 Clear 14 1022 72 10000 1.5 290 09:21 07.07.2020
382 Clear 11 1022 85 0 0.45 207 08:43 07.07.2020
383 Clouds 10 1022 85 0 0.45 207 08:25 07.07.2020
384 Clouds 10 1022 85 0 0.45 207 07:58 07.07.2020
385 Clouds 9 1022 91 0 0.45 220 07:37 07.07.2020
386 Clouds 9 1022 91 0 0.45 220 07:19 07.07.2020
387 Clouds 9 1020 89 0 1.22 120 06:40 07.07.2020
388 Clouds 7 941 81 0 1.21 129 06:22 07.07.2020
389 Clouds 7 1019 90 0 0.92 133 05:24 07.07.2020
390 Clouds 8 1019 90 0 0.92 133 04:43 07.07.2020
391 Clouds 9 1019 82 0 0.89 87 03:42 07.07.2020
392 Clouds 10 1019 82 0 0.89 87 02:41 07.07.2020
393 Clouds 12 1022 39 0 1.06 305 01:28 07.07.2020
394 Clouds 12 941 64 0 1.06 305 00:56 07.07.2020
395 Clouds 12 941 63 0 1.06 305 00:38 07.07.2020
396 Clouds 12 941 59 0 1.18 309 00:19 07.07.2020
397 Clouds 13 941 58 0 1.18 309 23:42 06.07.2020
398 Rain 14 1022 45 0 1.37 325 23:23 06.07.2020
399 Rain 14 1021 38 0 1.37 325 22:55 06.07.2020
400 Rain 14 1021 37 0 1.37 325 22:37 06.07.2020
401 Rain 14 941 56 0 1.55 328 22:18 06.07.2020
402 Rain 14 940 56 0 1.55 328 21:55 06.07.2020
403 Rain 14 940 56 0 1.55 328 21:36 06.07.2020
404 Rain 15 940 54 0 1.53 298 21:18 06.07.2020
405 Rain 16 939 53 0 0.89 157 20:40 06.07.2020
406 Rain 16 1020 29 0 0.89 113 20:20 06.07.2020
407 Rain 17 939 54 0 1.46 265 19:58 06.07.2020
408 Rain 17 939 54 0 1.46 265 19:58 06.07.2020
409 Rain 17 1019 34 0 0.89 271 19:39 06.07.2020
410 Rain 17 1019 34 0 1.6 255 19:21 06.07.2020
411 Clouds 18 1018 49 10000 3.1 250 18:56 06.07.2020
412 Clouds 18 1018 49 10000 3.1 250 18:56 06.07.2020
413 Clouds 18 1018 49 10000 3.6 240 18:38 06.07.2020
414 Rain 15 1018 38 0 2.24 178 18:19 06.07.2020
415 Clouds 16 1018 49 10000 4.1 250 17:42 06.07.2020
416 Rain 15 1018 48 0 1.34 167 17:24 06.07.2020
417 Rain 15 1018 51 0 1.79 183 16:58 06.07.2020
418 Rain 14 1018 49 0 1.34 253 16:40 06.07.2020
419 Rain 14 1015 100 0 2.15 293 16:21 06.07.2020
420 Clouds 15 1018 77 10000 3.6 270 15:42 06.07.2020
421 Clouds 15 1018 77 10000 3.6 270 15:42 06.07.2020
422 Clouds 15 1018 77 10000 3.6 270 15:42 06.07.2020
423 Clouds 15 1018 77 10000 3.6 270 15:42 06.07.2020
424 Clouds 15 1018 77 10000 3.6 270 15:24 06.07.2020
425 Clouds 15 1018 77 10000 3.6 270 15:24 06.07.2020
426 Rain 14 1015 100 0 1.34 2 14:57 06.07.2020
427 Clouds 15 1018 82 10000 5.7 300 14:38 06.07.2020
428 Clouds 15 1018 82 10000 5.7 300 14:38 06.07.2020
429 Rain 15 1017 50 0 2.24 201 14:19 06.07.2020
430 Clouds 16 1017 77 10000 6.7 300 13:55 06.07.2020
431 Clouds 17 1017 77 10000 6.7 300 13:36 06.07.2020
432 Clouds 17 1017 77 10000 6.7 300 13:36 06.07.2020
433 Rain 17 1018 66 0 0.89 292 13:18 06.07.2020
434 Clouds 18 1017 77 10000 7.2 290 12:42 06.07.2020
435 Rain 19 1016 68 10000 8.2 290 12:19 06.07.2020
436 Clouds 19 1016 68 10000 6.2 300 11:57 06.07.2020
437 Clouds 18 1016 68 10000 6.2 300 11:38 06.07.2020
438 Rain 20 913 55 0 2.25 298 11:19 06.07.2020
439 Clouds 21 1016 64 10000 5.1 290 10:43 06.07.2020
440 Clouds 21 1016 64 10000 4.6 280 10:22 06.07.2020
441 Clouds 21 1016 64 10000 4.6 280 09:59 06.07.2020
442 Rain 19 1017 74 0 2.09 305 09:41 06.07.2020
443 Rain 19 1017 74 0 1.82 293 09:21 06.07.2020
444 Rain 19 1017 74 0 1.82 293 08:55 06.07.2020
445 Rain 17 1017 89 0 1.82 293 08:37 06.07.2020
446 Rain 17 1017 89 0 1.51 274 08:19 06.07.2020
447 Rain 17 1017 89 0 1.51 274 08:19 06.07.2020
448 Rain 16 1017 89 0 1.51 274 07:43 06.07.2020
449 Rain 16 1017 89 0 1.28 249 07:23 06.07.2020
450 Rain 16 1017 89 0 0.45 227 06:39 06.07.2020
451 Rain 16 1017 89 0 0.45 227 06:21 06.07.2020
452 Rain 16 1017 85 0 0.89 132 05:38 06.07.2020
453 Rain 17 1017 85 0 0.89 132 04:52 06.07.2020
454 Rain 16 1018 90 0 0.45 214 03:26 06.07.2020
455 Clouds 16 1019 87 0 0.45 148 02:22 06.07.2020
456 Clouds 17 1019 87 0 0.89 200 01:26 06.07.2020
457 Clouds 18 1018 86 0 0.45 225 00:33 06.07.2020
458 Clouds 18 1018 86 0 0.45 225 23:59 05.07.2020
459 Clouds 19 1014 88 0 1.33 230 23:40 05.07.2020
460 Clouds 19 937 76 0 1.3 231 23:22 05.07.2020
461 Clouds 19 1018 43 0 1.34 187 22:59 05.07.2020
462 Clouds 20 1018 41 0 1.34 187 22:39 05.07.2020
463 Clouds 20 937 68 0 1.08 247 22:19 05.07.2020
464 Clouds 20 937 67 0 1.08 247 21:57 05.07.2020
465 Clouds 21 1014 80 0 1.08 247 21:37 05.07.2020
466 Clouds 21 937 62 0 1.13 278 21:18 05.07.2020
467 Clouds 22 1017 33 0 1.13 278 20:56 05.07.2020
468 Clouds 23 937 58 0 1.13 278 20:38 05.07.2020
469 Clouds 24 1014 72 0 1.64 302 20:19 05.07.2020
470 Clouds 24 937 53 0 1.64 302 19:42 05.07.2020
471 Clouds 25 937 52 0 1.34 337 19:21 05.07.2020
472 Clouds 25 1014 65 0 2.24 245 18:55 05.07.2020
473 Clouds 24 915 53 0 2.17 305 18:37 05.07.2020
474 Clouds 25 1020 45 0 0.89 292 18:18 05.07.2020
475 Clouds 24 1018 23 0 1.34 202 17:42 05.07.2020
476 Clouds 26 1020 43 0 0.89 202 17:19 05.07.2020
477 Clouds 26 1015 64 0 2.68 229 16:58 05.07.2020
478 Clouds 26 1018 22 0 2.24 189 16:40 05.07.2020
479 Clouds 26 1020 42 0 1.34 292 16:20 05.07.2020
480 Clouds 25 1015 60 0 3.13 222 15:40 05.07.2020
481 Clouds 25 1021 43 0 1.79 292 15:20 05.07.2020
482 Clouds 25 1019 22 0 2.68 208 14:55 05.07.2020
483 Clouds 23 917 49 0 2.56 310 14:36 05.07.2020
484 Clouds 23 917 52 0 2.49 310 14:18 05.07.2020
485 Clouds 24 1020 42 0 0.45 50 13:40 05.07.2020
486 Clouds 25 1020 42 0 0.45 50 13:22 05.07.2020
487 Clouds 24 1016 53 0 3.13 333 12:44 05.07.2020
488 Clouds 23 1017 51 0 1.34 343 12:20 05.07.2020
489 Clouds 23 1016 55 0 2.24 329 11:55 05.07.2020
490 Clouds 23 1020 55 0 0.45 24 11:37 05.07.2020
491 Clouds 22 1020 55 0 0.45 24 11:18 05.07.2020
492 Clouds 23 1020 55 0 0.45 24 10:54 05.07.2020
493 Clouds 21 1020 61 0 1.34 23 10:36 05.07.2020
494 Clear 21 1020 61 0 1.34 23 10:18 05.07.2020
495 Clear 19 1021 69 0 0.89 69 09:41 05.07.2020
496 Clear 19 1021 69 0 0.89 69 09:41 05.07.2020
497 Clear 18 1021 69 0 0.89 69 09:20 05.07.2020
498 Clear 17 1021 69 0 0.89 69 08:55 05.07.2020
499 Clear 15 1021 90 0 0.89 117 08:37 05.07.2020
500 Clear 13 1021 90 0 0.89 117 07:56 05.07.2020
501 Clear 13 1021 91 0 0.89 205 07:30 05.07.2020
502 Clear 12 1021 91 0 0.89 205 06:55 05.07.2020
503 Clear 11 1021 91 0 1.78 190 06:25 05.07.2020
504 Clear 12 1022 91 0 0.45 255 03:55 05.07.2020
505 Clear 13 1022 87 0 0.45 219 02:57 05.07.2020
506 Clear 13 1022 86 0 0.89 231 02:33 05.07.2020
507 Clouds 13 1022 90 0 0.89 220 01:43 05.07.2020
508 Clouds 14 1022 90 0 0.89 220 01:20 05.07.2020
509 Clouds 13 1022 86 0 0.45 216 00:43 05.07.2020
510 Clouds 13 1022 86 0 0.45 216 00:24 05.07.2020
511 Clouds 14 1022 86 0 0.45 216 23:53 04.07.2020
512 Clouds 15 1022 87 0 0.45 222 23:31 04.07.2020
513 Clouds 14 1022 87 0 0.45 222 22:58 04.07.2020
514 Clouds 17 940 70 0 1.46 192 22:40 04.07.2020
515 Clouds 17 940 70 0 1.46 192 22:40 04.07.2020
516 Clouds 17 940 68 0 0.98 224 22:21 04.07.2020
517 Clouds 17 1018 74 0 0.98 224 21:55 04.07.2020
518 Clouds 19 1021 65 0 0.89 194 21:36 04.07.2020
519 Clouds 18 1021 65 0 0.89 194 21:18 04.07.2020
520 Clouds 20 939 55 0 1.01 285 20:41 04.07.2020
521 Clouds 20 1020 25 0 0.89 251 20:20 04.07.2020
522 Clouds 21 939 52 0 1.32 317 19:55 04.07.2020
523 Clouds 22 939 50 0 1.32 317 19:36 04.07.2020
524 Clouds 22 1022 45 0 0.45 292 19:18 04.07.2020
525 Clouds 22 939 44 0 2.18 319 18:42 04.07.2020
526 Clouds 23 1022 43 0 0.89 292 18:22 04.07.2020
527 Clouds 22 1020 53 0 0.45 344 17:44 04.07.2020
528 Clouds 22 1020 53 0 0.45 344 17:44 04.07.2020
529 Clouds 22 1020 53 0 0.45 344 17:26 04.07.2020
530 Clouds 23 1020 53 0 0.45 344 16:58 04.07.2020
531 Clouds 22 1018 54 0 3.13 327 16:39 04.07.2020
532 Clouds 23 1023 42 0 0.89 292 16:20 04.07.2020
533 Clouds 22 1022 43 0 0.89 202 15:56 04.07.2020
534 Clouds 22 1020 50 0 1.79 320 15:37 04.07.2020
535 Clouds 22 1020 50 0 1.79 320 15:19 04.07.2020
536 Clouds 22 1021 25 0 1.93 326 14:38 04.07.2020
537 Clouds 22 1023 36 0 1.34 292 14:20 04.07.2020
538 Clouds 22 1018 58 0 1.79 254 13:59 04.07.2020
539 Clouds 21 1021 53 0 0.45 55 13:40 04.07.2020
540 Clouds 21 1021 53 0 0.45 55 13:18 04.07.2020
541 Clouds 21 1021 53 0 0.45 55 13:18 04.07.2020
542 Clouds 20 1022 61 0 0.89 36 12:43 04.07.2020
543 Clouds 20 1022 61 0 0.89 36 12:21 04.07.2020
544 Clouds 19 1022 61 0 0.89 36 11:56 04.07.2020
545 Clouds 19 1021 62 0 0.89 323 11:38 04.07.2020
546 Clouds 19 1021 62 0 0.89 323 11:19 04.07.2020
547 Clouds 18 1021 66 0 0.45 342 10:42 04.07.2020
548 Clouds 18 1021 66 0 0.45 342 10:22 04.07.2020
549 Clouds 17 1021 66 0 0.45 342 09:59 04.07.2020
550 Clouds 16 1021 76 0 1.22 318 09:37 04.07.2020
551 Clouds 15 1021 76 0 0.59 283 09:19 04.07.2020
552 Clouds 12 1021 88 0 0.89 129 08:47 04.07.2020
553 Clouds 12 1021 88 0 0.89 129 08:28 04.07.2020
554 Clouds 11 1021 91 0 0.45 203 07:49 04.07.2020
555 Clouds 11 1021 91 0 0.45 203 07:31 04.07.2020
556 Clouds 10 1021 91 0 0.45 203 06:55 04.07.2020
557 Clouds 10 1021 95 0 0.73 184 06:23 04.07.2020
558 Clouds 10 1021 97 0 0.73 184 05:36 04.07.2020
559 Clouds 10 1021 96 0 0.45 202 04:44 04.07.2020
560 Clouds 11 1021 97 0 0.45 209 03:18 04.07.2020
561 Clouds 12 1021 93 0 0.45 300 02:26 04.07.2020
562 Clouds 11 940 84 0 0.84 151 01:32 04.07.2020
563 Clouds 12 940 82 0 0.67 145 00:44 04.07.2020
564 Clouds 13 1019 93 0 0.78 143 00:24 04.07.2020
565 Clouds 13 940 80 0 0.78 143 23:40 03.07.2020
566 Clouds 14 1021 66 0 0.61 108 23:19 03.07.2020
567 Clouds 14 940 79 0 0.61 108 22:58 03.07.2020
568 Clouds 14 1021 89 0 0.45 267 22:39 03.07.2020
569 Rain 14 1021 89 0 0.45 267 22:20 03.07.2020
570 Rain 15 1021 81 0 0.45 208 21:41 03.07.2020
571 Rain 15 1021 81 0 0.45 208 21:20 03.07.2020
572 Clouds 15 1021 81 0 0.45 208 20:55 03.07.2020
573 Clouds 15 1021 81 0 0.45 208 20:55 03.07.2020
574 Clouds 15 1020 75 0 0.89 210 20:37 03.07.2020
575 Rain 15 1020 75 0 0.89 210 20:19 03.07.2020
576 Rain 16 1020 75 0 2.24 140 19:41 03.07.2020
577 Rain 16 1020 75 0 2.24 140 19:20 03.07.2020
578 Rain 16 1020 75 0 2.24 140 18:56 03.07.2020
579 Rain 16 1020 68 0 1.29 15 18:38 03.07.2020
580 Rain 16 1020 68 0 1.87 355 18:19 03.07.2020
581 Rain 16 1020 72 0 0.89 27 17:42 03.07.2020
582 Rain 16 1020 72 0 0.89 27 17:22 03.07.2020
583 Rain 16 1020 68 0 1.34 299 16:46 03.07.2020
584 Rain 16 1020 68 0 1.34 299 16:27 03.07.2020
585 Rain 17 1020 68 0 0.45 302 15:48 03.07.2020
586 Rain 17 1020 68 0 0.45 302 15:26 03.07.2020
587 Rain 17 1020 68 0 0.45 302 14:59 03.07.2020
588 Rain 17 1020 69 0 1.34 137 14:41 03.07.2020
589 Rain 17 1020 69 0 1.34 137 14:22 03.07.2020
590 Rain 17 1020 71 0 0.45 242 13:48 03.07.2020
591 Rain 16 1020 71 0 0.45 242 13:29 03.07.2020
592 Rain 16 1020 71 0 0.45 242 12:59 03.07.2020
593 Rain 16 1017 76 0 0.89 151 12:40 03.07.2020
594 Clouds 16 1020 72 10000 0.5 0 12:20 03.07.2020
595 Rain 14 1020 87 0 1.76 343 11:44 03.07.2020
596 Rain 14 1020 87 0 1.66 337 11:25 03.07.2020
597 Rain 13 1020 87 0 1.66 337 10:59 03.07.2020
598 Rain 13 1020 97 0 0.89 297 10:40 03.07.2020
599 Rain 13 1020 97 0 0.89 297 10:21 03.07.2020
600 Rain 13 1020 97 0 0.89 297 09:56 03.07.2020
601 Rain 12 1019 99 0 0.45 329 09:37 03.07.2020
602 Rain 12 1019 99 0 0.45 329 09:18 03.07.2020
603 Rain 13 1019 98 0 0.45 10 08:40 03.07.2020
604 Rain 13 1019 98 0 0.45 10 08:19 03.07.2020
605 Rain 13 1019 98 0 0.45 10 08:19 03.07.2020
606 Rain 13 1019 98 0 0.45 10 07:49 03.07.2020
607 Rain 13 1019 97 0 0.45 6 07:27 03.07.2020
608 Rain 13 1019 97 0 0.45 6 06:54 03.07.2020
609 Rain 13 1018 94 0 0.89 148 06:20 03.07.2020
610 Rain 14 1018 98 0 0.89 193 04:55 03.07.2020
611 Rain 14 937 83 0 0.25 270 03:32 03.07.2020
612 Rain 14 936 81 0 0.5 221 02:47 03.07.2020
613 Rain 14 936 80 0 1.06 286 02:27 03.07.2020
614 Rain 15 1017 63 0 1.09 242 01:28 03.07.2020
615 Rain 16 1019 73 0 0.89 180 00:50 03.07.2020
616 Rain 16 1019 71 0 0.89 157 00:32 03.07.2020
617 Rain 15 1017 96 0 0.45 212 23:47 02.07.2020
618 Rain 15 1017 96 0 0.45 212 23:20 02.07.2020
619 Rain 15 1017 96 0 0.45 212 22:58 02.07.2020
620 Rain 16 1013 89 0 1.34 116 22:40 02.07.2020
621 Rain 16 1013 88 0 0.45 172 22:20 02.07.2020
622 Rain 16 1013 86 0 0.89 203 21:56 02.07.2020
623 Rain 17 1016 94 0 0.45 250 21:38 02.07.2020
624 Rain 17 1016 94 0 0.45 250 21:18 02.07.2020
625 Rain 17 1016 94 0 0.45 250 20:57 02.07.2020
626 Rain 17 1016 97 0 0.89 73 20:39 02.07.2020
627 Rain 18 1016 97 0 0.89 73 20:18 02.07.2020
628 Rain 18 1015 96 0 1.8 291 19:41 02.07.2020
629 Rain 18 1015 96 0 1.95 303 19:22 02.07.2020
630 Rain 18 1015 96 0 1.95 303 18:57 02.07.2020
631 Rain 19 1015 81 0 1.34 200 18:39 02.07.2020
632 Rain 19 1015 81 0 1.34 200 18:21 02.07.2020
633 Rain 20 1014 84 0 2.24 113 17:41 02.07.2020
634 Rain 20 1014 84 0 2.24 113 17:20 02.07.2020
635 Rain 21 1014 84 0 2.24 113 16:58 02.07.2020
636 Rain 22 1014 65 0 1.79 127 16:40 02.07.2020
637 Rain 22 1014 65 0 1.79 127 16:20 02.07.2020
638 Rain 23 1014 65 0 1.79 127 15:55 02.07.2020
639 Rain 22 1014 60 0 1.34 334 15:36 02.07.2020
640 Rain 23 1014 60 0 1.34 334 15:18 02.07.2020
641 Rain 24 1010 62 0 3.13 349 14:43 02.07.2020
642 Rain 24 1016 51 0 1.34 292 14:19 02.07.2020
643 Rain 23 1010 65 0 2.24 38 13:56 02.07.2020
644 Rain 23 1015 58 0 1.34 321 13:36 02.07.2020
645 Rain 23 1015 58 0 1.34 321 13:18 02.07.2020
646 Rain 22 1015 67 0 0.45 357 12:41 02.07.2020
647 Rain 22 1015 67 0 0.45 357 12:22 02.07.2020
648 Rain 22 1015 71 0 1.34 11 11:45 02.07.2020
649 Rain 22 1015 71 0 1.34 11 11:27 02.07.2020
650 Rain 21 1015 71 0 1.34 11 10:58 02.07.2020
651 Rain 20 1015 82 0 0.45 180 10:39 02.07.2020
652 Rain 20 1015 82 0 0.45 180 10:21 02.07.2020
653 Rain 17 1015 90 0 0.45 208 09:43 02.07.2020
654 Rain 16 1015 90 0 0.45 208 09:22 02.07.2020
655 Rain 16 1015 90 0 0.45 208 08:58 02.07.2020
656 Rain 15 1016 98 0 0.89 231 08:39 02.07.2020
657 Rain 15 1016 98 0 0.89 231 08:19 02.07.2020
658 Rain 15 1016 94 0 0.45 209 07:41 02.07.2020
659 Rain 15 1016 94 0 0.45 209 07:20 02.07.2020
660 Rain 15 1011 93 0 0.89 140 06:41 02.07.2020
661 Rain 15 1011 93 0 0.89 140 06:20 02.07.2020
662 Rain 15 1015 90 0 0.45 141 05:47 02.07.2020
663 Rain 15 1015 90 0 0.45 141 04:50 02.07.2020
664 Rain 15 1016 96 0 0.89 326 03:33 02.07.2020
665 Clouds 16 1015 94 0 1.53 179 01:49 02.07.2020
666 Rain 15 1014 87 0 0.45 70 00:28 02.07.2020
667 Rain 15 1014 87 0 0.45 70 23:57 01.07.2020
668 Rain 16 1015 89 0 1.93 178 23:38 01.07.2020
669 Rain 16 1015 89 0 2.03 178 23:20 01.07.2020
670 Rain 16 1015 89 0 2.03 178 22:54 01.07.2020
671 Rain 16 1013 90 0 0.45 231 22:36 01.07.2020
672 Rain 17 1013 90 0 0.45 231 22:18 01.07.2020
673 Rain 17 1013 90 0 0.45 231 22:18 01.07.2020
674 Rain 17 1013 90 0 0.45 231 21:54 01.07.2020
675 Rain 18 1013 80 0 1.79 216 21:36 01.07.2020
676 Rain 18 1013 80 0 1.79 216 21:18 01.07.2020
677 Rain 20 1013 70 0 0.89 81 20:43 01.07.2020
678 Rain 19 1013 70 0 0.89 81 20:25 01.07.2020
679 Rain 21 1013 70 0 0.89 81 19:56 01.07.2020
680 Rain 20 1012 70 0 1.34 210 19:38 01.07.2020
681 Rain 23 1012 70 0 1.34 210 19:19 01.07.2020
682 Rain 24 1011 24 0 1.34 199 18:42 01.07.2020
683 Rain 25 909 53 0 0.86 150 18:21 01.07.2020
684 Rain 25 1011 21 0 0.89 194 17:59 01.07.2020
685 Rain 25 1013 63 0 2.24 116 17:40 01.07.2020
686 Rain 24 1013 63 0 2.24 116 17:19 01.07.2020
687 Rain 21 1014 76 0 4.02 147 16:47 01.07.2020
688 Rain 20 1014 76 0 4.02 147 16:28 01.07.2020
689 Rain 21 1014 76 0 4.02 147 15:56 01.07.2020
690 Rain 26 1013 49 0 0.89 181 15:38 01.07.2020
691 Rain 26 1013 49 0 0.89 181 15:20 01.07.2020
692 Rain 26 1013 48 0 2.24 8 14:44 01.07.2020
693 Rain 26 1013 48 0 2.24 8 14:22 01.07.2020
694 Rain 26 1013 48 0 2.24 8 13:58 01.07.2020
695 Rain 25 1013 47 0 2.24 24 13:39 01.07.2020
696 Rain 26 1013 47 0 2.24 24 13:20 01.07.2020
697 Rain 25 1013 47 0 2.24 24 12:57 01.07.2020
698 Rain 25 1013 53 0 1.79 359 12:38 01.07.2020
699 Clouds 25 1013 53 0 1.79 359 12:20 01.07.2020
700 Clouds 25 1014 48 0 2.52 315 11:42 01.07.2020
701 Clouds 25 1014 48 0 1.96 316 11:23 01.07.2020
702 Clouds 24 1014 48 0 1.96 316 10:58 01.07.2020
703 Clouds 24 1014 50 0 0.45 55 10:40 01.07.2020
704 Clouds 24 1014 50 0 0.45 55 10:21 01.07.2020
705 Clouds 21 1010 72 0 1.43 323 09:40 01.07.2020
706 Clouds 20 1010 81 0 0.45 142 09:21 01.07.2020
707 Clouds 19 1010 78 0 1.34 134 08:59 01.07.2020
708 Clouds 18 1014 88 0 0.39 344 08:40 01.07.2020
709 Clear 17 1014 88 0 0.27 156 08:21 01.07.2020
710 Clear 15 1014 94 0 0.27 156 07:45 01.07.2020
711 Clear 15 1014 94 0 0.83 157 07:27 01.07.2020
712 Clear 14 1014 94 0 0.83 157 06:59 01.07.2020
713 Clear 14 1014 94 0 0.83 157 06:59 01.07.2020
714 Clear 14 1014 96 0 0.83 157 06:41 01.07.2020
715 Clear 14 1014 96 0 1.02 158 06:21 01.07.2020
716 Clear 14 1014 93 0 1.09 170 04:30 01.07.2020
717 Clear 14 1015 95 0 0.45 188 03:44 01.07.2020
718 Clear 14 1015 95 0 0.45 188 03:26 01.07.2020
719 Clear 14 1015 89 0 0.45 224 02:33 01.07.2020
720 Clear 14 1015 91 0 0.45 223 01:25 01.07.2020
721 Clear 15 934 75 0 1.52 179 00:38 01.07.2020
722 Clear 15 1014 62 0 1.57 178 00:20 01.07.2020
723 Clear 16 934 72 0 1.57 178 23:40 30.06.2020
724 Clear 16 934 72 0 1.57 178 23:40 30.06.2020
725 Rain 16 1014 52 0 1.34 187 23:20 30.06.2020
726 Rain 16 1014 51 0 0.89 72 22:42 30.06.2020
727 Clear 17 1014 47 0 0.82 197 22:19 30.06.2020
728 Clear 18 1014 47 0 1.34 72 21:55 30.06.2020
729 Clear 18 933 60 0 0.82 197 21:37 30.06.2020
730 Clouds 19 1014 41 0 0.89 72 21:18 30.06.2020
731 Clouds 21 933 52 0 0.4 281 20:42 30.06.2020
732 Clouds 22 1010 66 0 1.05 324 20:21 30.06.2020
733 Clouds 23 1010 64 0 0.45 246 19:44 30.06.2020
734 Clouds 23 933 46 0 1.68 324 19:22 30.06.2020
735 Clouds 23 1014 21 0 1.79 194 18:59 30.06.2020
736 Clouds 23 1014 54 0 1.34 39 18:40 30.06.2020
737 Clouds 23 1014 54 0 1.34 39 18:20 30.06.2020
738 Clouds 24 1014 53 0 1.34 337 17:40 30.06.2020
739 Clouds 24 1014 53 0 1.34 337 17:21 30.06.2020
740 Clouds 23 1014 53 0 1.34 337 16:58 30.06.2020
741 Clouds 23 1014 53 0 2.24 4 16:40 30.06.2020
742 Clouds 24 1014 53 0 2.24 4 16:21 30.06.2020
743 Clouds 24 1014 53 0 2.24 4 15:56 30.06.2020
744 Clouds 23 1014 55 0 2.68 337 15:37 30.06.2020
745 Clouds 23 1014 55 0 2.68 337 15:19 30.06.2020
746 Clouds 23 1014 54 0 0.89 356 14:43 30.06.2020
747 Clouds 23 1014 54 0 0.89 356 14:21 30.06.2020
748 Clouds 23 1014 54 0 0.89 356 13:54 30.06.2020
749 Clouds 23 1015 61 0 1.34 332 13:36 30.06.2020
750 Clouds 22 1015 61 0 1.34 332 13:18 30.06.2020
751 Clouds 22 1015 61 0 1.34 332 12:54 30.06.2020
752 Clouds 21 1015 61 0 2.24 334 12:36 30.06.2020
753 Clouds 21 1015 61 0 2.24 334 12:18 30.06.2020
754 Clouds 21 1015 61 0 2.24 334 11:56 30.06.2020
755 Clouds 20 1015 61 0 3.13 349 11:37 30.06.2020
756 Clouds 20 1015 61 0 3.13 349 11:18 30.06.2020
757 Rain 22 1014 75 0 2.68 25 16:46 28.06.2020
758 Rain 22 1014 71 0 2.68 260 16:27 28.06.2020
759 Rain 23 1018 32 0 0.89 192 15:59 28.06.2020
760 Rain 22 1014 68 0 3.13 353 15:39 28.06.2020
761 Rain 22 1014 68 0 2.68 346 15:20 28.06.2020
762 Rain 23 1014 68 0 2.68 346 14:55 28.06.2020
763 Rain 23 1014 68 0 2.68 346 14:37 28.06.2020
764 Rain 23 1014 67 0 3.13 341 14:19 28.06.2020
765 Rain 23 1018 62 0 4.02 14 13:39 28.06.2020
766 Rain 23 1018 62 0 4.02 14 13:21 28.06.2020
767 Rain 23 1018 62 0 4.02 14 12:57 28.06.2020
768 Rain 23 1018 56 0 1.34 333 12:38 28.06.2020
769 Rain 23 1018 56 0 1.34 333 12:19 28.06.2020
770 Rain 24 1018 56 0 1.34 333 11:58 28.06.2020
771 Rain 23 1014 62 0 3.13 350 11:39 28.06.2020
772 Rain 23 1014 61 0 0.89 345 11:20 28.06.2020
773 Rain 22 1015 60 0 0.45 5 10:56 28.06.2020
774 Rain 23 1018 64 0 0.45 303 10:38 28.06.2020
775 Clouds 23 1018 64 0 0.45 303 10:19 28.06.2020
776 Clouds 20 1018 74 0 1.4 332 09:40 28.06.2020
777 Clouds 18 1018 74 0 0.59 339 09:21 28.06.2020
778 Clouds 15 1018 94 0 0.89 106 08:48 28.06.2020
779 Clouds 15 1018 94 0 0.89 106 08:28 28.06.2020
780 Clouds 13 1018 94 0 0.89 106 07:50 28.06.2020
781 Clouds 13 1018 96 0 0.56 162 07:30 28.06.2020
782 Clouds 12 1018 97 0 1.2 163 06:44 28.06.2020
783 Clouds 11 1018 97 0 1.4 165 06:24 28.06.2020
784 Clouds 12 1018 97 0 1.45 162 05:26 28.06.2020
785 Clouds 12 1018 97 0 1.55 156 03:33 28.06.2020
786 Clouds 13 1018 96 0 0.89 184 02:40 28.06.2020
787 Clouds 13 1018 96 0 0.89 184 01:53 28.06.2020
788 Clouds 14 1018 100 0 0.45 143 01:26 28.06.2020
789 Clouds 14 1018 99 0 1.34 210 00:48 28.06.2020
790 Rain 14 1018 99 0 1.34 210 00:24 28.06.2020
791 Rain 16 1019 96 0 1.3 180 23:42 27.06.2020
792 Rain 16 1019 96 0 1.49 203 23:23 27.06.2020
793 Rain 16 1019 96 0 1.49 203 22:58 27.06.2020
794 Rain 16 1018 94 0 0.89 166 22:40 27.06.2020
795 Rain 17 1018 94 0 0.89 166 22:20 27.06.2020
796 Rain 18 1018 90 0 0.45 311 21:54 27.06.2020
797 Rain 18 1018 90 0 0.45 311 21:36 27.06.2020
798 Rain 18 1018 90 0 0.45 311 21:18 27.06.2020
799 Rain 19 1018 95 0 1.79 222 20:41 27.06.2020
800 Rain 18 1018 95 0 1.79 222 20:18 27.06.2020
801 Rain 18 1018 95 0 1.79 222 19:54 27.06.2020
802 Rain 18 1018 91 0 0.89 209 19:36 27.06.2020
803 Rain 19 1018 91 0 0.89 209 19:18 27.06.2020
804 Rain 21 1016 71 0 0.59 240 18:43 27.06.2020
805 Rain 21 1016 71 0 1.16 305 18:22 27.06.2020
806 Rain 22 1016 71 0 1.16 305 17:55 27.06.2020
807 Rain 23 1012 53 0 2.68 334 17:37 27.06.2020
808 Rain 23 1012 53 0 2.68 334 17:19 27.06.2020
809 Rain 25 1016 51 0 2.68 321 16:43 27.06.2020
810 Rain 25 1016 51 0 2.68 321 16:24 27.06.2020
811 Rain 25 1016 51 0 2.68 321 15:54 27.06.2020
812 Rain 25 1016 58 0 2.68 328 15:36 27.06.2020
813 Rain 25 1016 58 0 2.68 328 15:18 27.06.2020
814 Rain 24 1016 55 0 2.68 358 14:41 27.06.2020
815 Rain 24 1016 55 0 2.68 358 14:22 27.06.2020
816 Rain 24 1016 55 0 2.68 358 13:57 27.06.2020
817 Rain 23 1013 65 0 2.68 331 13:37 27.06.2020
818 Rain 23 1013 70 0 2.68 328 13:19 27.06.2020
819 Rain 23 1013 69 0 2.24 314 12:56 27.06.2020
820 Rain 24 1017 50 0 0.45 228 12:37 27.06.2020
821 Rain 23 1017 50 0 0.45 228 12:19 27.06.2020
822 Rain 22 1018 60 0 0.45 124 11:41 27.06.2020
823 Clear 21 1018 60 0 0.45 124 11:23 27.06.2020
824 Clear 20 1018 60 0 0.45 124 10:55 27.06.2020
825 Clear 20 1017 66 0 1.79 317 10:37 27.06.2020
826 Clear 20 1017 66 0 1.79 317 10:18 27.06.2020
827 Clear 20 1017 68 0 0.45 68 09:40 27.06.2020
828 Clear 20 1017 68 0 0.45 68 09:21 27.06.2020
829 Clear 16 1017 94 0 0.45 112 08:46 27.06.2020
830 Clear 14 1017 94 0 0.45 112 08:23 27.06.2020
831 Clear 14 1017 94 0 0.45 112 07:50 27.06.2020
832 Clear 13 1017 98 0 1.05 183 07:30 27.06.2020
833 Clear 12 1017 98 0 2.04 181 06:55 27.06.2020
834 Clear 12 1017 100 0 0.45 172 06:34 27.06.2020
835 Clear 12 1016 97 0 2.44 179 05:31 27.06.2020
836 Clear 13 1017 97 0 0.45 248 04:19 27.06.2020
837 Clear 13 1017 97 0 0.45 248 03:51 27.06.2020
838 Clear 14 1017 96 0 0.45 212 02:47 27.06.2020
839 Clouds 14 1017 96 0 0.45 212 02:27 27.06.2020
840 Clouds 14 1017 96 0 2.25 177 01:39 27.06.2020
841 Clouds 15 1017 96 0 2.16 175 00:52 27.06.2020
842 Clouds 15 1017 97 0 0.45 178 23:57 26.06.2020
843 Clouds 16 1017 91 0 0.45 100 23:38 26.06.2020
844 Clouds 16 1017 91 0 0.45 100 23:20 26.06.2020
845 Clouds 16 1017 92 0 3.13 217 22:43 26.06.2020
846 Rain 16 1017 92 0 3.13 217 22:24 26.06.2020
847 Rain 16 1017 92 0 3.13 217 21:58 26.06.2020
848 Rain 16 1018 94 0 1.79 226 21:40 26.06.2020
849 Rain 16 1018 94 0 1.79 226 21:40 26.06.2020
850 Rain 16 1018 94 0 1.79 226 21:40 26.06.2020
851 Rain 16 1018 94 0 1.79 226 21:21 26.06.2020
852 Rain 16 1018 94 0 1.79 226 20:58 26.06.2020
853 Rain 17 1018 68 0 1.34 65 20:39 26.06.2020
854 Rain 17 1018 68 0 1.34 65 20:18 26.06.2020
855 Rain 19 1016 82 0 0.45 49 19:40 26.06.2020
856 Rain 23 1016 82 0 0.45 49 19:20 26.06.2020
857 Rain 24 1015 61 0 0.45 282 18:43 26.06.2020
858 Rain 24 1015 61 0 0.45 282 18:25 26.06.2020
859 Rain 25 1015 61 0 0.45 282 17:54 26.06.2020
860 Rain 25 1016 61 0 0.89 293 17:36 26.06.2020
861 Rain 24 1016 61 0 0.89 293 17:18 26.06.2020
862 Rain 22 1017 72 0 0.45 129 16:42 26.06.2020
863 Clouds 22 1017 72 0 0.45 129 16:23 26.06.2020
864 Clouds 22 1017 72 0 0.45 129 16:23 26.06.2020
865 Clouds 23 1013 76 0 0.89 147 15:41 26.06.2020
866 Clouds 23 1013 76 0 0.89 147 15:41 26.06.2020
867 Clouds 24 935 51 0 5.36 315 15:22 26.06.2020
868 Clouds 24 936 54 0 2.68 315 14:58 26.06.2020
869 Clouds 23 936 56 0 3.42 290 14:40 26.06.2020
870 Clouds 22 936 63 0 4.92 315 14:21 26.06.2020
871 Clouds 21 936 69 0 3.13 337 13:47 26.06.2020
872 Clouds 21 1016 100 0 3.17 282 13:25 26.06.2020
873 Clouds 20 936 63 0 3.17 282 12:59 26.06.2020
874 Clouds 20 936 57 0 1.79 337 12:40 26.06.2020
875 Clouds 22 936 53 0 3.3 282 12:22 26.06.2020
876 Clouds 21 914 47 0 3.3 282 11:57 26.06.2020
877 Clouds 21 936 54 0 4.92 315 11:38 26.06.2020
878 Clouds 21 936 58 0 3.08 280 11:20 26.06.2020
879 Clouds 21 935 58 0 1.79 315 10:57 26.06.2020
880 Clouds 18 1014 90 0 1.34 107 10:37 26.06.2020
881 Clouds 18 1014 90 0 1.34 107 10:18 26.06.2020
882 Clouds 16 1017 100 0 1.34 214 09:42 26.06.2020
883 Clouds 16 1017 100 0 1.34 214 09:22 26.06.2020
884 Clouds 15 1017 100 0 1.34 214 08:51 26.06.2020
885 Rain 15 1017 100 0 1.34 157 08:28 26.06.2020
886 Rain 15 1017 100 0 1.34 157 07:52 26.06.2020
887 Clear 13 1016 90 0 1.94 193 07:24 26.06.2020
888 Clear 13 1016 90 0 2.12 186 06:57 26.06.2020
889 Clear 12 1016 89 0 1.94 193 06:35 26.06.2020
890 Clear 12 1016 89 0 2.38 184 05:58 26.06.2020
891 Clear 12 1017 89 0 0.45 173 05:31 26.06.2020
892 Clear 13 1017 90 0 0.89 218 02:42 26.06.2020
893 Clear 13 1017 90 0 0.89 218 02:21 26.06.2020
894 Clear 14 1018 85 0 2.16 180 00:56 26.06.2020
895 Clear 15 1018 82 0 0.45 216 00:38 26.06.2020
896 Clear 16 937 71 0 2.1 178 23:48 25.06.2020
897 Clear 15 937 70 0 1.81 183 23:23 25.06.2020
898 Clear 17 937 67 0 1.81 183 22:59 25.06.2020
899 Clear 17 937 66 0 1.81 183 22:40 25.06.2020
900 Clear 16 937 64 0 1.36 187 22:21 25.06.2020
901 Clear 16 937 64 0 1.36 187 22:21 25.06.2020
902 Clear 17 937 62 0 1.36 187 21:58 25.06.2020
903 Clear 20 1017 35 0 0.89 28 21:40 25.06.2020
904 Clear 18 1017 34 0 1.79 17 21:40 25.06.2020
905 Clear 19 937 60 0 0.66 190 21:21 25.06.2020
906 Clear 20 914 47 0 0.66 190 20:59 25.06.2020
907 Clear 20 937 59 0 0.66 190 20:41 25.06.2020
908 Rain 20 1017 32 0 2.24 14 20:22 25.06.2020
909 Rain 20 937 56 0 1.34 225 19:56 25.06.2020
910 Rain 23 937 55 0 0.71 344 19:37 25.06.2020
911 Rain 23 937 54 0 2.24 202 19:18 25.06.2020
912 Rain 23 1017 49 0 2.68 324 18:40 25.06.2020
913 Rain 23 1017 49 0 2.68 324 18:21 25.06.2020
914 Rain 24 1017 49 0 2.68 324 17:55 25.06.2020
915 Rain 23 1017 47 0 1.34 273 17:37 25.06.2020
916 Clear 24 1017 47 0 1.34 273 17:18 25.06.2020
917 Clear 24 1018 47 0 4.02 356 16:40 25.06.2020
918 Clear 24 1018 47 0 4.02 356 16:19 25.06.2020
919 Clear 24 1018 47 0 2.24 332 15:44 25.06.2020
920 Clear 24 1018 47 0 2.24 332 15:26 25.06.2020
921 Clear 24 1018 47 0 2.24 332 14:56 25.06.2020
922 Clear 23 1018 49 0 2.68 307 14:37 25.06.2020
923 Clear 23 1018 49 0 2.68 307 14:19 25.06.2020
924 Clear 23 1018 45 0 3.13 351 13:42 25.06.2020
925 Clear 23 1018 45 0 3.13 351 13:22 25.06.2020
926 Clear 23 1018 45 0 3.13 351 12:59 25.06.2020
927 Clear 22 1018 53 0 0.89 321 12:41 25.06.2020
928 Clear 22 1018 53 0 0.89 321 12:20 25.06.2020
929 Clear 22 1018 51 0 0.45 19 11:43 25.06.2020
930 Clear 22 1018 51 0 0.45 19 11:23 25.06.2020
931 Clear 20 1019 61 0 1.79 119 10:46 25.06.2020
932 Clear 19 1019 61 0 1.79 119 10:27 25.06.2020
933 Clear 19 1019 61 0 1.79 119 09:59 25.06.2020
934 Clear 17 1019 72 0 0.45 343 09:40 25.06.2020
935 Clear 17 1019 72 0 0.45 343 09:20 25.06.2020
936 Clear 14 1020 87 0 0.89 150 08:45 25.06.2020
937 Clear 14 1020 87 0 0.89 150 08:20 25.06.2020
938 Clear 12 1020 90 0 0.45 209 07:45 25.06.2020
939 Clear 11 1020 90 0 0.45 209 07:26 25.06.2020
940 Clear 11 1020 91 0 0.45 346 06:48 25.06.2020
941 Clear 10 1020 91 0 0.45 346 06:27 25.06.2020
942 Clear 10 1020 91 0 0.45 346 05:51 25.06.2020
943 Clouds 11 1020 89 0 0.86 198 03:57 25.06.2020
944 Clouds 12 1020 87 0 0.91 191 03:29 25.06.2020
945 Clouds 12 1020 87 0 0.91 191 02:42 25.06.2020
946 Clear 13 1020 87 0 0.85 177 01:55 25.06.2020
947 Clear 13 1021 81 0 1.25 170 01:19 25.06.2020
948 Clear 14 940 68 0 1.25 170 00:42 25.06.2020
949 Clear 15 1020 25 0 2.68 43 00:20 25.06.2020
950 Clear 15 1020 25 0 2.24 343 23:44 24.06.2020
951 Clear 15 1020 24 0 1.79 42 23:25 24.06.2020
952 Clear 17 1020 24 0 1.34 43 22:58 24.06.2020
953 Clear 17 1020 24 0 1.34 36 22:40 24.06.2020
954 Clear 17 1020 25 0 1.34 5 22:19 24.06.2020
955 Clear 17 940 54 0 0.97 105 21:55 24.06.2020
956 Clear 18 1020 23 0 0.89 67 21:36 24.06.2020
957 Clear 19 940 51 0 0.91 55 21:18 24.06.2020
958 Clear 20 917 47 0 0.91 55 20:56 24.06.2020
959 Clear 21 1016 45 0 2.24 360 20:38 24.06.2020
960 Clear 21 1016 45 0 2.24 360 20:19 24.06.2020
961 Clear 22 1016 45 0 2.24 360 19:55 24.06.2020
962 Clear 22 1016 45 0 2.24 360 19:36 24.06.2020
963 Clear 23 1016 45 0 2.24 360 19:18 24.06.2020
964 Clear 22 917 47 0 2.87 15 18:56 24.06.2020
965 Clear 24 1020 42 0 2.24 336 18:37 24.06.2020
966 Clear 25 1020 42 0 2.24 336 18:19 24.06.2020
967 Clear 25 1020 37 0 3.13 341 17:43 24.06.2020
968 Clear 25 1020 37 0 3.13 341 17:19 24.06.2020
969 Clear 25 1020 37 0 3.13 341 16:58 24.06.2020
970 Clear 25 1020 35 0 3.13 4 16:40 24.06.2020
971 Clear 25 1020 35 0 3.13 4 16:21 24.06.2020
972 Clear 25 1020 35 0 3.13 4 15:57 24.06.2020
973 Clear 25 1020 37 0 1.79 8 15:38 24.06.2020
974 Clear 25 1020 37 0 1.79 8 15:20 24.06.2020
975 Clear 25 1020 43 0 1.79 340 14:43 24.06.2020
976 Clear 25 1020 43 0 1.79 340 14:25 24.06.2020
977 Clear 24 1020 43 0 1.79 340 13:57 24.06.2020
978 Clear 24 1021 48 0 1.79 347 13:38 24.06.2020
979 Clear 24 1021 48 0 1.79 347 13:18 24.06.2020
980 Clear 22 1021 54 0 2.24 347 12:41 24.06.2020
981 Clear 23 1021 54 0 2.24 347 12:20 24.06.2020
982 Clear 22 1021 54 0 2.24 347 11:56 24.06.2020
983 Clear 21 1021 62 0 1.34 31 11:38 24.06.2020
984 Clear 21 1021 62 0 1.34 31 11:18 24.06.2020
985 Clear 19 1021 65 0 1.34 344 10:43 24.06.2020
986 Clear 19 1021 65 0 1.34 344 10:19 24.06.2020
987 Clear 18 1022 72 0 0.45 11 09:43 24.06.2020
988 Clear 17 1022 72 0 0.45 11 09:22 24.06.2020
989 Clear 15 1022 88 0 0.45 109 08:44 24.06.2020
990 Clear 15 1022 88 0 0.45 109 08:26 24.06.2020
991 Clear 12 1022 88 0 0.45 109 07:55 24.06.2020
992 Clear 11 1022 91 0 0.68 77 07:37 24.06.2020
993 Clear 11 1022 91 0 1.14 143 07:18 24.06.2020
994 Clear 11 1022 90 0 1.14 143 06:39 24.06.2020
995 Clear 11 1022 90 0 1.51 148 06:21 24.06.2020
996 Clear 11 1022 93 0 0.45 208 05:30 24.06.2020
997 Clear 11 1022 92 0 0.45 151 04:36 24.06.2020
998 Clear 12 1023 90 0 0.45 211 03:35 24.06.2020
999 Clear 13 1023 90 0 0.45 211 02:51 24.06.2020
1000 Clear 13 1023 86 0 0.45 192 01:45 24.06.2020
1001 Clear 15 1022 77 10000 1.5 0 00:48 24.06.2020
1002 Clear 16 1023 31 0 3.58 19 00:27 24.06.2020
1003 Clear 16 1023 31 0 3.13 57 23:46 23.06.2020
1004 Clouds 16 1023 34 0 2.24 29 23:20 23.06.2020
1005 Clouds 16 943 62 0 1.45 113 22:57 23.06.2020
1006 Clouds 17 1023 35 0 1.45 113 22:36 23.06.2020
1007 Clouds 18 942 60 0 1.48 94 22:18 23.06.2020
1008 Clouds 19 942 56 0 1.48 94 21:41 23.06.2020
1009 Clouds 20 1024 46 0 0.45 292 21:20 23.06.2020
1010 Clouds 20 1022 23 0 1.34 46 20:56 23.06.2020
1011 Clouds 20 1022 23 0 1.34 46 20:56 23.06.2020
1012 Clouds 21 942 50 0 0.45 157 20:37 23.06.2020
1013 Clouds 22 942 50 0 0.89 180 20:19 23.06.2020
1014 Clouds 22 942 48 0 2.5 34 19:45 23.06.2020
1015 Clouds 23 942 47 0 2.98 28 19:27 23.06.2020
1016 Clouds 24 942 45 0 0.89 202 18:42 23.06.2020
1017 Clear 24 1022 20 0 2.24 50 18:19 23.06.2020
1018 Clouds 23 1022 50 10000 3.1 270 17:58 23.06.2020
1019 Clear 23 1022 51 0 3.58 333 17:39 23.06.2020
1020 Clear 25 1022 51 0 3.58 333 17:20 23.06.2020
1021 Clear 24 1022 51 0 3.58 333 16:55 23.06.2020
1022 Clear 24 1022 49 0 4.92 320 16:37 23.06.2020
1023 Clear 25 1022 49 0 4.92 320 16:18 23.06.2020
1024 Clear 25 1022 51 0 1.34 294 15:45 23.06.2020
1025 Clear 25 1022 51 0 1.34 294 15:25 23.06.2020
1026 Clear 25 1022 51 0 1.34 294 14:58 23.06.2020
1027 Clear 24 1023 51 0 1.34 335 14:40 23.06.2020
1028 Clear 23 1023 51 0 1.34 335 14:18 23.06.2020
1029 Clear 24 1023 51 0 1.34 335 13:54 23.06.2020
1030 Clear 24 1023 51 0 1.34 335 13:54 23.06.2020
1031 Clear 24 1023 53 0 1.79 3 13:36 23.06.2020
1032 Clear 24 1023 53 0 1.79 3 13:18 23.06.2020
1033 Clear 23 1023 63 0 1.34 32 12:40 23.06.2020
1034 Clear 22 1023 63 0 1.34 32 12:22 23.06.2020
1035 Clear 21 1023 58 0 2.87 25 11:44 23.06.2020
1036 Clear 21 1023 58 0 2.87 25 11:44 23.06.2020
1037 Clear 21 1023 58 0 2.38 28 11:23 23.06.2020
1038 Clear 21 1023 58 0 2.38 28 10:59 23.06.2020
1039 Clear 20 1024 63 0 0.89 336 10:41 23.06.2020
1040 Clear 20 1024 63 0 0.89 336 10:22 23.06.2020
1041 Clear 20 1024 63 0 0.89 336 09:57 23.06.2020
1042 Clear 20 1024 63 0 0.89 336 09:57 23.06.2020
1043 Clear 20 1021 69 0 0.89 298 09:38 23.06.2020
1044 Clear 16 1026 63 0 0.45 157 09:20 23.06.2020
1045 Clear 14 1024 90 0 0.45 121 08:47 23.06.2020
1046 Clear 13 1024 90 0 0.45 121 08:26 23.06.2020
1047 Clear 12 1024 90 0 0.45 121 07:51 23.06.2020
1048 Clear 11 1024 93 0 1.56 155 07:25 23.06.2020
1049 Clear 11 1024 93 0 1.56 155 06:53 23.06.2020
1050 Clear 10 1024 94 0 0.45 164 06:32 23.06.2020
1051 Clear 11 1024 94 0 0.45 164 05:59 23.06.2020
1052 Clear 11 1024 96 0 0.45 196 05:26 23.06.2020
1053 Clear 12 1024 93 0 0.45 206 03:22 23.06.2020
1054 Clear 12 1024 93 0 0.45 206 02:49 23.06.2020
1055 Clouds 12 1024 74 0 1.34 47 02:29 23.06.2020
1056 Clouds 13 943 86 0 1.89 148 01:46 23.06.2020
1057 Clouds 13 943 86 0 1.89 148 01:46 23.06.2020
1058 Clouds 13 943 85 0 1.59 140 01:24 23.06.2020
1059 Clouds 14 1022 92 0 1.59 140 00:41 23.06.2020
1060 Clouds 14 943 84 0 1.4 127 00:20 23.06.2020
1061 Clouds 14 943 83 0 1.4 127 23:54 22.06.2020
1062 Clouds 14 1022 91 0 0.45 13 23:54 22.06.2020
1063 Clouds 14 1022 90 0 1.4 127 23:36 22.06.2020
1064 Clouds 14 943 80 0 1.14 107 23:18 22.06.2020
1065 Clouds 15 1021 89 0 1.14 107 22:54 22.06.2020
1066 Clouds 15 943 78 0 1.14 107 22:36 22.06.2020
1067 Clouds 16 943 76 0 0.99 78 22:18 22.06.2020
1068 Clouds 16 943 76 0 0.99 78 22:18 22.06.2020
1069 Clouds 17 1024 40 0 0.99 78 21:40 22.06.2020
1070 Clouds 19 1023 38 0 1.13 45 21:22 22.06.2020
1071 Clouds 20 1023 33 0 1.13 45 20:58 22.06.2020
1072 Clouds 20 1023 33 0 1.13 45 20:40 22.06.2020
1073 Rain 20 942 62 0 1.64 22 20:20 22.06.2020
1074 Rain 21 942 58 0 1.64 22 19:44 22.06.2020
1075 Rain 22 943 55 0 1.95 15 19:19 22.06.2020
1076 Rain 22 943 51 0 1.95 15 18:57 22.06.2020
1077 Rain 23 1024 22 0 1.95 15 18:37 22.06.2020
1078 Rain 20 1021 60 0 1.34 323 18:18 22.06.2020
1079 Rain 23 920 43 0 2.33 6 17:55 22.06.2020
1080 Rain 23 1024 22 0 0.89 316 17:37 22.06.2020
1081 Rain 22 1022 60 0 0.45 309 17:18 22.06.2020
1082 Rain 22 1025 54 0 0.45 139 16:42 22.06.2020
1083 Rain 21 1025 54 0 0.45 139 16:18 22.06.2020
1084 Rain 21 1025 54 0 0.45 139 15:57 22.06.2020
1085 Rain 20 1025 58 0 0.45 227 15:39 22.06.2020
1086 Rain 20 1025 58 0 0.45 227 15:21 22.06.2020
1087 Rain 19 1025 62 0 0.45 223 14:39 22.06.2020
1088 Rain 19 1025 62 0 0.45 223 14:20 22.06.2020
1089 Rain 19 1025 62 0 0.45 223 13:56 22.06.2020
1090 Rain 18 1025 76 0 3.13 132 13:38 22.06.2020
1091 Rain 18 1025 76 0 3.13 132 13:20 22.06.2020
1092 Rain 16 1025 91 0 0.89 205 12:42 22.06.2020
1093 Rain 16 1025 91 0 0.89 205 12:42 22.06.2020
1094 Rain 16 1025 91 0 0.89 205 12:23 22.06.2020
1095 Rain 15 1025 91 0 0.89 205 11:57 22.06.2020
1096 Rain 15 1025 91 0 0.45 166 11:37 22.06.2020
1097 Clouds 14 1025 91 0 0.45 166 11:18 22.06.2020
1098 Clouds 14 1025 91 0 0.45 166 10:54 22.06.2020
1099 Clouds 14 1025 88 0 0.89 345 10:36 22.06.2020
1100 Clouds 14 1025 88 0 0.89 345 10:18 22.06.2020
1101 Clouds 14 1023 90 0 0.89 353 09:41 22.06.2020
1102 Clouds 14 1023 89 0 0.45 355 09:20 22.06.2020
1103 Clouds 14 1023 89 0 0.45 355 09:20 22.06.2020
1104 Clouds 14 1023 87 0 0.89 152 08:58 22.06.2020
1105 Clouds 14 1024 81 0 0.78 322 08:38 22.06.2020
1106 Clouds 14 1024 81 0 0.55 310 08:20 22.06.2020
1107 Clouds 14 1024 81 0 0.55 310 07:50 22.06.2020
1108 Rain 13 1024 85 0 0.56 258 07:31 22.06.2020
1109 Rain 13 1024 88 0 0.45 254 06:44 22.06.2020
1110 Rain 13 1024 88 0 0.45 254 06:26 22.06.2020
1111 Rain 13 1024 88 0 0.45 254 05:53 22.06.2020
1112 Clouds 13 1022 89 0 0.85 232 04:59 22.06.2020
1113 Clouds 13 1023 71 0 1.27 186 02:54 22.06.2020
1114 Clouds 14 1023 66 0 1.29 197 01:25 22.06.2020
1115 Clouds 16 1023 63 0 1.29 197 00:41 22.06.2020
1116 Clouds 16 1023 59 0 1.47 190 23:58 21.06.2020
1117 Clouds 16 1023 67 0 1.47 190 23:39 21.06.2020
1118 Clouds 17 1023 49 0 1.34 194 23:21 21.06.2020
1119 Clouds 17 1023 49 0 1.34 194 22:57 21.06.2020
1120 Clouds 16 1023 68 0 2.68 67 22:37 21.06.2020
1121 Clouds 16 1022 44 0 1.02 203 22:19 21.06.2020
1122 Clouds 16 941 68 0 1.02 203 21:56 21.06.2020
1123 Clouds 16 1022 74 0 0.45 196 21:38 21.06.2020
1124 Rain 16 1022 74 0 0.45 196 21:20 21.06.2020
1125 Rain 17 1022 74 0 0.45 196 20:57 21.06.2020
1126 Rain 18 1022 70 0 0.89 223 20:36 21.06.2020
1127 Rain 18 1022 70 0 0.89 223 20:18 21.06.2020
1128 Rain 20 1022 63 0 0.45 205 19:41 21.06.2020
1129 Rain 18 1022 63 0 0.45 205 19:23 21.06.2020
1130 Rain 19 1022 63 0 0.45 205 18:59 21.06.2020
1131 Rain 19 1022 55 0 1.49 328 18:40 21.06.2020
1132 Rain 19 1022 55 0 2.06 331 18:21 21.06.2020
1133 Rain 19 1022 55 0 2.06 331 17:57 21.06.2020
1134 Rain 19 1020 71 0 2.06 331 17:38 21.06.2020
1135 Rain 19 1020 71 0 2.02 346 17:19 21.06.2020
1136 Rain 19 1020 71 0 2.02 346 17:19 21.06.2020
1137 Rain 18 1022 55 0 0.45 102 16:41 21.06.2020
1138 Rain 18 1022 55 0 0.45 102 16:22 21.06.2020
1139 Rain 18 1022 55 0 0.45 102 15:56 21.06.2020
1140 Rain 18 1022 68 0 0.45 258 15:36 21.06.2020
1141 Rain 18 1022 68 0 0.45 258 15:18 21.06.2020
1142 Rain 18 1022 60 0 0.45 315 14:39 21.06.2020
1143 Rain 18 1022 60 0 0.45 315 14:20 21.06.2020
1144 Rain 18 1022 60 0 0.45 315 13:56 21.06.2020
1145 Rain 18 1022 55 0 2.08 344 13:38 21.06.2020
1146 Rain 18 1022 55 0 2.37 334 13:19 21.06.2020
1147 Rain 17 1022 60 0 0.45 196 12:44 21.06.2020
1148 Rain 17 1022 60 0 0.45 196 12:25 21.06.2020
1149 Rain 17 1022 60 0 0.45 196 12:25 21.06.2020
1150 Rain 17 1022 60 0 0.45 196 12:25 21.06.2020
1151 Rain 17 1022 60 0 0.45 196 11:58 21.06.2020
1152 Rain 17 1022 59 0 1.34 204 11:39 21.06.2020
1153 Rain 17 1022 59 0 1.34 204 11:21 21.06.2020
1154 Rain 17 1022 59 0 1.34 204 10:55 21.06.2020
1155 Rain 16 1022 72 0 0.89 29 10:36 21.06.2020
1156 Rain 16 1022 72 0 0.89 29 10:18 21.06.2020
1157 Rain 14 1022 80 0 1.73 338 09:41 21.06.2020
1158 Clear 14 1022 80 0 1.39 334 09:19 21.06.2020
1159 Clear 14 1022 80 0 1.39 334 08:56 21.06.2020
1160 Clear 13 1022 89 0 0.89 131 08:37 21.06.2020
1161 Clear 13 1022 89 0 0.89 131 08:19 21.06.2020
1162 Clear 12 1021 89 0 0.74 298 07:41 21.06.2020
1163 Clear 12 1021 89 0 0.98 190 07:22 21.06.2020
1164 Clear 12 1021 89 0 0.98 190 06:49 21.06.2020
1165 Clear 11 1021 75 0 1.53 181 05:59 21.06.2020
1166 Clear 13 1021 84 0 4.47 112 05:31 21.06.2020
1167 Clear 13 1015 67 0 0.45 169 03:40 21.06.2020
1168 Clear 13 1022 80 0 2.68 45 03:18 21.06.2020
1169 Clouds 12 1021 72 0 1.05 183 02:19 21.06.2020
1170 Clouds 12 941 84 0 1.03 184 01:24 21.06.2020
1171 Clouds 12 940 84 0 1.03 184 00:56 21.06.2020
1172 Clouds 12 1022 65 0 1.03 184 00:38 21.06.2020
1173 Clouds 12 940 83 0 0.86 178 00:19 21.06.2020
1174 Clouds 12 1020 94 0 0.86 178 23:44 20.06.2020
1175 Clouds 12 940 83 0 0.8 190 23:22 20.06.2020
1176 Clouds 13 940 82 0 0.8 190 22:56 20.06.2020
1177 Clouds 14 1021 57 0 0.89 56 22:37 20.06.2020
1178 Clouds 13 1021 57 0 0.5 220 22:18 20.06.2020
1179 Clouds 14 1021 50 0 0.5 220 21:56 20.06.2020
1180 Clouds 14 1021 84 0 0.45 196 21:38 20.06.2020
1181 Rain 15 1021 84 0 0.45 196 21:19 20.06.2020
1182 Rain 15 1021 84 0 0.45 196 20:56 20.06.2020
1183 Rain 15 1021 74 0 0.89 130 20:38 20.06.2020
1184 Rain 15 1021 74 0 0.89 130 20:19 20.06.2020
1185 Rain 16 1021 80 0 0.45 195 19:43 20.06.2020
1186 Rain 16 1021 80 0 0.45 195 19:23 20.06.2020
1187 Rain 16 1021 80 0 0.45 195 18:55 20.06.2020
1188 Rain 15 1021 85 0 0.89 76 18:37 20.06.2020
1189 Rain 15 1021 85 0 0.89 76 18:19 20.06.2020
1190 Rain 15 1021 85 0 0.89 76 17:56 20.06.2020
1191 Rain 16 1021 61 0 0.45 302 17:37 20.06.2020
1192 Rain 17 1021 61 0 0.45 302 17:18 20.06.2020
1193 Rain 17 1020 71 0 2.24 338 16:40 20.06.2020
1194 Rain 16 940 74 0 2.34 336 16:18 20.06.2020
1195 Rain 16 1021 44 0 2.34 336 15:55 20.06.2020
1196 Rain 17 1021 49 0 0.89 259 15:37 20.06.2020
1197 Rain 18 1021 49 0 0.89 259 15:18 20.06.2020
1198 Rain 17 1022 63 0 0.45 125 14:42 20.06.2020
1199 Rain 16 1022 63 0 0.45 125 14:19 20.06.2020
1200 Rain 15 1022 71 0 2.77 351 13:41 20.06.2020
1201 Clouds 15 1022 71 0 2.27 356 13:20 20.06.2020
1202 Clouds 15 1022 71 0 2.27 356 12:55 20.06.2020
1203 Clouds 14 1022 79 0 0.89 346 12:37 20.06.2020
1204 Clouds 13 1022 79 0 0.89 346 12:18 20.06.2020
1205 Clouds 13 1022 87 0 0.45 261 11:39 20.06.2020
1206 Rain 13 1022 87 0 0.45 261 11:20 20.06.2020
1207 Rain 13 1022 87 0 0.45 261 10:57 20.06.2020
1208 Rain 12 1022 87 0 1.34 13 10:38 20.06.2020
1209 Rain 12 1022 87 0 1.34 13 10:38 20.06.2020
1210 Clouds 12 1022 87 0 1.34 13 10:18 20.06.2020
1211 Clouds 12 1022 86 0 0.45 176 09:41 20.06.2020
1212 Clouds 12 1022 86 0 0.45 176 09:23 20.06.2020
1213 Clouds 12 1022 86 0 0.45 176 08:57 20.06.2020
1214 Clouds 11 1022 88 0 0.45 162 08:38 20.06.2020
1215 Clouds 11 1022 88 0 0.45 162 08:20 20.06.2020
1216 Clouds 11 1021 92 0 1 332 07:50 20.06.2020
1217 Clouds 11 1021 92 0 0.6 213 07:25 20.06.2020
1218 Clouds 11 1021 92 0 0.6 213 07:25 20.06.2020
1219 Clouds 10 1020 92 0 0.45 144 06:40 20.06.2020
1220 Clouds 10 1020 78 0 1.01 178 06:18 20.06.2020
1221 Clouds 9 940 82 0 0.45 337 05:47 20.06.2020
1222 Clouds 10 1021 92 0 0.45 161 03:22 20.06.2020
1223 Clouds 11 1021 91 0 0.45 122 01:53 20.06.2020
1224 Clouds 11 1021 93 0 0.45 247 01:35 20.06.2020
1225 Clouds 11 1021 93 0 0.89 207 00:40 20.06.2020
1226 Clouds 11 1021 93 0 0.89 207 00:19 20.06.2020
1227 Clouds 11 1021 90 0 0.89 177 23:40 19.06.2020
1228 Clouds 11 1021 90 0 0.89 177 23:19 19.06.2020
1229 Clouds 11 1021 90 0 0.89 177 22:54 19.06.2020
1230 Clouds 12 1021 92 0 0.45 120 22:36 19.06.2020
1231 Clouds 12 1021 92 0 0.45 120 22:18 19.06.2020
1232 Clouds 12 1020 87 0 0.45 203 21:41 19.06.2020
1233 Clouds 12 1020 87 0 0.45 203 21:19 19.06.2020
1234 Clouds 12 1020 87 0 0.45 203 20:59 19.06.2020
1235 Clouds 12 1020 87 0 0.45 203 20:59 19.06.2020
1236 Clouds 12 1020 84 0 0.45 148 20:40 19.06.2020
1237 Clouds 13 1020 84 0 0.45 148 20:22 19.06.2020
1238 Clouds 13 1020 84 0 0.45 148 19:59 19.06.2020
1239 Clouds 13 1019 71 0 0.45 136 19:41 19.06.2020
1240 Clouds 14 1019 71 0 0.45 136 19:23 19.06.2020
1241 Clouds 14 1019 71 0 0.45 136 18:58 19.06.2020
1242 Clouds 14 1018 72 0 1.06 303 18:38 19.06.2020
1243 Rain 14 1021 76 0 0.89 292 18:20 19.06.2020
1244 Rain 14 938 63 0 0.92 276 17:42 19.06.2020
1245 Rain 14 1020 75 0 0.45 180 17:23 19.06.2020
1246 Rain 13 938 70 0 0.42 268 16:57 19.06.2020
1247 Rain 12 1019 78 0 0.45 163 16:38 19.06.2020
1248 Rain 12 1019 78 0 0.45 163 16:20 19.06.2020
1249 Rain 13 1019 75 0 0.89 189 15:44 19.06.2020
1250 Rain 13 1019 75 0 0.89 189 15:25 19.06.2020
1251 Rain 14 1019 75 0 0.89 189 14:57 19.06.2020
1252 Rain 14 1019 84 0 0.89 294 14:39 19.06.2020
1253 Rain 13 1019 84 0 0.89 294 14:21 19.06.2020
1254 Rain 13 1019 84 0 0.89 294 13:57 19.06.2020
1255 Rain 13 1019 84 0 0.89 294 13:57 19.06.2020
1256 Rain 12 1019 91 0 0.89 338 13:39 19.06.2020
1257 Clouds 12 1019 91 0 0.89 338 13:19 19.06.2020
1258 Clouds 12 1017 88 0 0.45 352 12:43 19.06.2020
1259 Rain 13 1018 87 0 0.65 347 12:20 19.06.2020
1260 Rain 12 937 87 0 0.65 347 11:41 19.06.2020
1261 Rain 12 1017 87 0 0.34 344 11:19 19.06.2020
1262 Rain 12 1017 87 0 0.34 344 10:59 19.06.2020
1263 Rain 12 937 87 0 0.34 344 10:41 19.06.2020
1264 Rain 12 937 87 0 0.34 344 10:41 19.06.2020
1265 Rain 12 937 87 0 0.34 344 10:41 19.06.2020
1266 Rain 12 1017 87 0 0.25 203 10:20 19.06.2020
1267 Rain 11 1016 92 0 0.25 203 09:44 19.06.2020
1268 Rain 11 1016 92 0 0.92 205 09:25 19.06.2020
1269 Rain 11 1016 93 0 0.92 205 08:58 19.06.2020
1270 Rain 11 1016 93 0 0.92 205 08:38 19.06.2020
1271 Rain 11 1016 93 0 0.89 147 08:20 19.06.2020
1272 Rain 10 1016 92 0 0.45 156 07:41 19.06.2020
1273 Rain 10 1015 92 0 0.45 140 07:21 19.06.2020
1274 Rain 11 1018 97 0 1.32 208 06:45 19.06.2020
1275 Rain 11 1018 97 0 1.55 222 06:21 19.06.2020
1276 Rain 11 1017 96 0 1.68 232 04:59 19.06.2020
1277 Rain 11 1017 97 0 1.43 239 03:31 19.06.2020
1278 Rain 12 1017 98 0 0.89 212 01:45 19.06.2020
1279 Rain 12 1015 93 0 1.15 276 00:43 19.06.2020
1280 Rain 11 1015 93 0 0.78 253 00:22 19.06.2020
1281 Rain 11 1015 93 0 0.78 253 23:56 18.06.2020
1282 Rain 11 1015 93 0 0.78 253 23:56 18.06.2020
1283 Rain 11 1015 93 0 0.45 113 23:37 18.06.2020
1284 Rain 11 1015 93 0 0.45 113 23:19 18.06.2020
1285 Rain 12 1016 96 0 0.66 240 22:39 18.06.2020
1286 Rain 13 1016 96 0 0.16 235 22:20 18.06.2020
1287 Rain 13 1016 96 0 0.16 235 21:56 18.06.2020
1288 Rain 13 1015 96 0 1.34 127 21:36 18.06.2020
1289 Rain 13 1015 96 0 1.34 127 21:18 18.06.2020
1290 Rain 14 1015 93 0 1.34 126 20:40 18.06.2020
1291 Rain 14 1015 93 0 1.34 126 20:20 18.06.2020
1292 Rain 15 1015 93 0 1.34 126 19:56 18.06.2020
1293 Rain 16 1014 78 0 1.34 135 19:38 18.06.2020
1294 Rain 16 1014 78 0 1.34 135 19:19 18.06.2020
1295 Rain 18 1013 54 0 1.34 296 18:38 18.06.2020
1296 Rain 19 1013 54 0 1.34 296 18:19 18.06.2020
1297 Rain 21 910 44 0 1.78 342 17:46 18.06.2020
1298 Rain 21 1010 53 0 1.79 69 17:26 18.06.2020
1299 Rain 18 1011 92 0 0.45 90 16:57 18.06.2020
1300 Rain 21 910 44 0 2.03 353 16:39 18.06.2020
1301 Clouds 21 1012 21 0 2.1 8 16:20 18.06.2020
1302 Clouds 22 910 40 0 2.1 8 15:57 18.06.2020
1303 Clouds 22 1012 21 0 0.89 172 15:39 18.06.2020
1304 Clouds 21 1012 22 0 2.25 8 15:19 18.06.2020
1305 Clouds 21 1013 19 0 1.34 167 14:55 18.06.2020
1306 Clouds 21 1015 49 0 1.34 292 14:37 18.06.2020
1307 Clouds 21 1015 50 0 1.34 292 14:18 18.06.2020
1308 Clouds 18 1014 51 0 1.34 10 13:47 18.06.2020
1309 Clouds 19 1014 51 0 1.34 10 13:27 18.06.2020
1310 Clouds 18 1014 51 0 1.34 10 12:56 18.06.2020
1311 Clouds 18 1015 55 0 1.79 358 12:38 18.06.2020
1312 Clouds 18 1015 55 0 1.79 358 12:19 18.06.2020
1313 Clouds 18 1014 63 0 1.34 360 11:47 18.06.2020
1314 Clear 18 1014 63 0 1.34 360 11:21 18.06.2020
1315 Clear 18 1014 63 0 1.34 360 10:58 18.06.2020
1316 Clear 17 1015 66 0 0.45 9 10:38 18.06.2020
1317 Clear 16 1015 66 0 0.45 9 10:18 18.06.2020
1318 Clear 15 1013 67 0 1.34 320 09:44 18.06.2020
1319 Clear 14 1011 92 0 0.45 90 09:24 18.06.2020
1320 Clear 11 1015 97 0 0.45 99 08:42 18.06.2020
1321 Clear 11 1015 97 0 0.45 99 08:24 18.06.2020
1322 Clear 10 1015 97 0 0.45 99 08:00 18.06.2020
1323 Clear 10 1015 98 0 0.58 290 07:41 18.06.2020
1324 Clear 9 1015 98 0 0.86 196 07:23 18.06.2020
1325 Clear 9 1015 100 0 0.89 192 06:29 18.06.2020
1326 Clear 9 933 89 0 1.26 198 04:27 18.06.2020
1327 Clear 9 933 89 0 1.4 201 03:26 18.06.2020
1328 Clouds 10 933 87 0 1.46 202 01:40 18.06.2020
1329 Clouds 10 1014 71 0 1.48 207 01:18 18.06.2020
1330 Clouds 10 933 87 0 1.48 207 01:18 18.06.2020
1331 Clouds 10 934 87 0 1.48 207 00:49 18.06.2020
1332 Clouds 11 1013 96 0 1.39 223 00:24 18.06.2020
1333 Clouds 11 934 87 0 1.39 223 23:47 17.06.2020
1334 Clouds 11 933 87 0 1.11 236 23:23 17.06.2020
1335 Clouds 11 933 86 0 1.34 0 22:59 17.06.2020
1336 Clouds 12 933 87 0 1.11 236 22:40 17.06.2020
1337 Rain 12 933 87 0 1.03 209 22:21 17.06.2020
1338 Rain 12 1013 72 0 1.79 153 21:58 17.06.2020
1339 Rain 12 1013 72 0 1.34 160 21:39 17.06.2020
1340 Rain 12 932 85 0 1.32 248 21:20 17.06.2020
1341 Rain 13 932 84 0 1.32 248 20:39 17.06.2020
1342 Clouds 13 932 84 0 1.54 266 20:20 17.06.2020
1343 Clouds 13 932 85 0 1.54 266 19:59 17.06.2020
1344 Clouds 13 932 85 0 1.54 266 19:59 17.06.2020
1345 Clouds 13 1012 73 0 1.34 212 19:39 17.06.2020
1346 Rain 12 932 87 0 1.81 271 19:19 17.06.2020
1347 Rain 12 931 86 0 1.81 271 18:46 17.06.2020
1348 Rain 12 931 86 0 1.87 281 18:27 17.06.2020
1349 Rain 12 931 84 0 1.87 281 17:47 17.06.2020
1350 Rain 13 1012 80 0 2.24 171 17:23 17.06.2020
1351 Rain 13 932 80 0 2.24 337 16:58 17.06.2020
1352 Rain 13 1013 89 0 1.34 102 16:40 17.06.2020
1353 Rain 13 1013 89 0 1.34 102 16:21 17.06.2020
1354 Rain 13 1013 89 0 1.34 102 15:58 17.06.2020
1355 Rain 13 1012 85 0 0.45 257 15:39 17.06.2020
1356 Rain 13 1012 85 0 0.45 257 15:20 17.06.2020
1357 Rain 14 1012 85 0 0.45 257 14:58 17.06.2020
1358 Rain 15 1011 81 0 1.79 230 14:39 17.06.2020
1359 Rain 15 1011 81 0 1.79 230 14:19 17.06.2020
1360 Rain 15 1011 81 0 1.79 230 13:56 17.06.2020
1361 Rain 16 1011 74 0 0.89 285 13:38 17.06.2020
1362 Rain 16 1011 74 0 0.89 285 13:19 17.06.2020
1363 Rain 17 1010 46 0 1.34 204 12:42 17.06.2020
1364 Rain 16 1008 81 0 1.79 288 12:23 17.06.2020
1365 Rain 18 1010 33 0 0.89 272 11:57 17.06.2020
1366 Rain 18 1010 33 0 0.89 272 11:57 17.06.2020
1367 Rain 18 1010 41 0 1.53 314 11:38 17.06.2020
1368 Rain 17 1012 76 0 0.45 292 11:20 17.06.2020
1369 Rain 15 1012 76 0 0.45 81 10:38 17.06.2020
1370 Rain 14 1012 76 0 0.45 81 10:19 17.06.2020
1371 Rain 14 1012 76 0 0.45 81 09:58 17.06.2020
1372 Rain 14 1012 79 0 1.34 64 09:40 17.06.2020
1373 Clouds 14 1012 79 0 1.34 64 09:20 17.06.2020
1374 Clouds 13 1012 86 0 1.46 346 08:45 17.06.2020
1375 Clouds 13 1012 86 0 1.46 346 08:45 17.06.2020
1376 Clouds 13 1012 86 0 0.79 326 08:21 17.06.2020
1377 Clouds 13 1012 86 0 0.79 326 07:56 17.06.2020
1378 Clouds 12 1012 95 0 0.79 326 07:37 17.06.2020
1379 Clouds 12 1012 95 0 0.6 188 07:19 17.06.2020
1380 Clouds 12 1012 95 0 0.6 188 06:55 17.06.2020
1381 Clouds 11 1009 95 0 0.89 355 06:36 17.06.2020
1382 Clouds 11 930 90 0 0.84 166 06:18 17.06.2020
1383 Clouds 10 931 89 0 0.93 161 04:39 17.06.2020
1384 Clouds 11 932 89 0 0.78 139 02:48 17.06.2020
1385 Clouds 11 1013 80 0 0.83 164 01:28 17.06.2020
1386 Clouds 11 1015 97 0 0.45 226 00:37 17.06.2020
1387 Clouds 11 1015 97 0 0.45 226 00:19 17.06.2020
1388 Clouds 11 1015 97 0 0.45 226 23:55 16.06.2020
1389 Clouds 12 933 86 0 0.87 173 23:37 16.06.2020
1390 Clouds 12 933 86 0 0.68 138 23:18 16.06.2020
1391 Clouds 12 933 85 0 0.68 138 22:39 16.06.2020
1392 Clouds 13 933 84 0 0.59 89 22:19 16.06.2020
1393 Clouds 13 933 82 0 0.59 89 21:58 16.06.2020
1394 Clouds 15 1015 84 0 0.59 89 21:40 16.06.2020
1395 Clouds 15 1015 84 0 0.76 16 21:22 16.06.2020
1396 Clouds 15 1015 84 0 1.1 12 20:55 16.06.2020
1397 Clouds 15 1015 79 0 0.45 176 20:36 16.06.2020
1398 Clouds 15 1015 79 0 0.45 176 20:18 16.06.2020
1399 Clouds 15 1015 79 0 0.45 176 19:56 16.06.2020
1400 Clouds 15 1015 82 0 1.8 359 19:37 16.06.2020
1401 Clouds 15 1015 82 0 1.93 1 19:18 16.06.2020
1402 Clouds 15 1015 81 0 1.93 1 18:41 16.06.2020
1403 Clouds 15 1015 81 0 1.93 1 18:41 16.06.2020
1404 Clouds 16 1015 81 0 1.81 11 18:21 16.06.2020
1405 Clouds 16 1015 81 0 1.81 11 17:58 16.06.2020
1406 Clouds 16 1016 84 0 1.34 276 17:38 16.06.2020
1407 Clouds 15 1016 84 0 1.34 276 17:20 16.06.2020
1408 Clouds 15 1016 84 0 1.34 276 16:56 16.06.2020
1409 Clouds 15 1016 83 0 0.89 28 16:38 16.06.2020
1410 Clouds 15 1016 83 0 0.89 28 16:19 16.06.2020
1411 Clouds 15 1016 83 0 0.89 28 15:56 16.06.2020
1412 Clouds 16 1014 86 0 1.34 319 15:38 16.06.2020
1413 Clouds 16 1014 86 0 1.34 319 15:38 16.06.2020
1414 Clouds 14 1015 63 0 0.85 35 15:20 16.06.2020
1415 Clouds 17 1009 67 0 0.45 232 14:43 16.06.2020
1416 Clouds 16 1009 66 0 0.45 294 14:25 16.06.2020
1417 Clouds 15 1015 69 0 0.89 39 13:59 16.06.2020
1418 Clouds 16 1009 66 0 0.9 7 13:41 16.06.2020
1419 Rain 16 1015 94 0 0.89 19 13:22 16.06.2020
1420 Rain 14 1010 69 0 0.95 351 12:42 16.06.2020
1421 Clouds 16 1017 77 10000 1 0 12:22 16.06.2020
1422 Rain 15 1016 73 0 0.89 176 11:57 16.06.2020
1423 Rain 14 1016 81 0 1.34 190 11:39 16.06.2020
1424 Rain 14 1010 75 0 0.78 295 11:20 16.06.2020
1425 Rain 12 1016 95 0 0.78 295 10:57 16.06.2020
1426 Rain 12 1018 96 0 0.45 317 10:38 16.06.2020
1427 Rain 12 1018 96 0 0.45 317 10:18 16.06.2020
1428 Rain 13 936 89 0 0.89 337 09:43 16.06.2020
1429 Rain 12 1016 96 0 1.14 229 09:22 16.06.2020
1430 Rain 12 1016 96 0 1.14 229 08:51 16.06.2020
1431 Rain 12 1018 99 0 1.34 174 08:32 16.06.2020
1432 Rain 11 1018 99 0 1.34 174 07:51 16.06.2020
1433 Rain 11 1018 99 0 0.45 222 07:29 16.06.2020
1434 Rain 11 1018 99 0 0.45 222 06:56 16.06.2020
1435 Rain 12 1018 98 0 0.45 138 06:29 16.06.2020
1436 Rain 12 1018 98 0 0.45 138 05:50 16.06.2020
1437 Rain 12 1018 97 0 0.45 180 04:54 16.06.2020
1438 Rain 11 1018 98 0 0.45 147 03:53 16.06.2020
1439 Rain 12 1019 98 0 1.34 136 02:28 16.06.2020
1440 Rain 12 1019 97 0 0.45 73 01:32 16.06.2020
1441 Rain 12 1019 97 0 0.45 73 00:52 16.06.2020
1442 Rain 12 1019 97 0 0.45 73 00:52 16.06.2020
1443 Rain 12 1020 97 0 0.45 197 00:22 16.06.2020
1444 Rain 12 1020 99 0 0.89 170 23:43 15.06.2020
1445 Rain 12 1020 99 0 0.89 170 23:24 15.06.2020
1446 Rain 12 1020 99 0 0.89 170 22:58 15.06.2020
1447 Rain 12 1020 96 0 0.45 51 22:39 15.06.2020
1448 Rain 12 1020 96 0 0.45 51 22:21 15.06.2020
1449 Rain 12 1020 96 0 0.45 51 21:56 15.06.2020
1450 Rain 12 1019 95 0 0.89 145 21:37 15.06.2020
1451 Rain 12 1019 95 0 0.89 145 21:19 15.06.2020
1452 Rain 12 1019 95 0 0.89 145 20:56 15.06.2020
1453 Rain 13 1019 94 0 0.89 141 20:38 15.06.2020
1454 Rain 13 1019 94 0 0.89 141 20:19 15.06.2020
1455 Rain 13 1019 94 0 0.89 141 19:55 15.06.2020
1456 Rain 13 1017 91 0 0.83 179 19:37 15.06.2020
1457 Rain 13 1017 91 0 0.92 162 19:19 15.06.2020
1458 Rain 13 1020 78 0 0.45 90 18:47 15.06.2020
1459 Rain 14 937 86 0 0.89 315 18:22 15.06.2020
1460 Rain 14 1012 58 0 0.87 152 17:59 15.06.2020
1461 Rain 14 937 85 0 0.87 152 17:41 15.06.2020
1462 Rain 14 1020 77 0 0.45 180 17:20 15.06.2020
1463 Rain 15 937 85 0 0.57 107 16:58 15.06.2020
1464 Rain 15 1013 54 0 0.57 107 16:40 15.06.2020
1465 Rain 15 1017 89 0 0.45 89 16:18 15.06.2020
1466 Rain 15 1017 85 0 0.67 55 15:56 15.06.2020
1467 Rain 15 1017 85 0 0.67 55 15:36 15.06.2020
1468 Rain 15 1017 85 0 0.73 8 15:18 15.06.2020
1469 Rain 16 1013 50 0 1.79 194 14:41 15.06.2020
1470 Clouds 15 1019 78 0 0.89 45 14:20 15.06.2020
1471 Rain 15 1013 64 0 0.31 224 13:58 15.06.2020
1472 Rain 15 1013 64 0 0.31 224 13:58 15.06.2020
1473 Rain 17 1019 79 0 0.31 224 13:38 15.06.2020
1474 Rain 17 1012 65 0 0.39 255 13:19 15.06.2020
1475 Rain 17 1017 93 0 0.45 261 12:43 15.06.2020
1476 Rain 16 1012 67 0 0.54 289 12:23 15.06.2020
1477 Rain 15 1012 69 0 0.54 289 12:00 15.06.2020
1478 Rain 15 1012 68 0 0.54 289 11:41 15.06.2020
1479 Rain 15 1012 70 0 0.81 294 11:23 15.06.2020
1480 Rain 13 1019 96 0 0.81 294 10:43 15.06.2020
1481 Rain 13 1019 96 0 0.78 281 10:22 15.06.2020
1482 Rain 12 1019 100 0 0.45 175 09:45 15.06.2020
1483 Rain 12 1019 100 0 0.45 175 09:25 15.06.2020
1484 Rain 12 1019 100 0 0.45 175 08:56 15.06.2020
1485 Rain 12 1019 100 0 0.89 128 08:37 15.06.2020
1486 Rain 11 1019 100 0 0.89 128 08:18 15.06.2020
1487 Rain 11 1018 99 0 0.45 196 07:41 15.06.2020
1488 Rain 11 1018 99 0 0.45 196 07:20 15.06.2020
1489 Rain 11 1018 99 0 1.34 175 06:38 15.06.2020
1490 Rain 11 1018 99 0 1.34 175 06:19 15.06.2020
1491 Rain 11 1018 99 0 0.45 142 05:39 15.06.2020
1492 Rain 11 1018 99 0 0.45 142 05:20 15.06.2020
1493 Rain 11 1018 98 0 0.89 191 04:18 15.06.2020
1494 Rain 12 1018 95 0 0.89 100 03:37 15.06.2020
1495 Rain 12 1018 100 0 0.45 146 02:34 15.06.2020
1496 Rain 12 1018 100 0 0.45 146 01:51 15.06.2020
1497 Rain 12 1018 99 0 0.89 148 01:30 15.06.2020
1498 Rain 12 1018 99 0 0.89 148 00:56 15.06.2020
1499 Rain 12 1018 99 0 0.89 140 00:38 15.06.2020
1500 Rain 12 1018 99 0 0.89 140 00:18 15.06.2020
1501 Rain 11 1016 93 0 1.34 171 23:42 14.06.2020
1502 Rain 11 1016 93 0 1.34 171 23:24 14.06.2020
1503 Rain 12 937 89 0 1.17 229 22:58 14.06.2020
1504 Rain 12 937 89 0 1.17 229 22:38 14.06.2020
1505 Rain 13 1019 90 0 1.19 233 22:19 14.06.2020
1506 Rain 12 937 89 0 1.19 233 21:57 14.06.2020
1507 Rain 13 936 89 0 1.34 337 21:38 14.06.2020
1508 Rain 13 1018 90 0 5.36 67 21:19 14.06.2020
1509 Rain 13 936 88 0 0.94 242 20:58 14.06.2020
1510 Rain 13 1016 98 0 1.34 220 20:38 14.06.2020
1511 Rain 13 936 88 0 0.92 244 20:19 14.06.2020
1512 Rain 13 936 88 0 0.92 244 19:56 14.06.2020
1513 Rain 13 1016 98 0 0.89 225 19:37 14.06.2020
1514 Rain 12 936 87 0 0.92 247 19:19 14.06.2020
1515 Rain 13 936 87 0 2.24 337 18:56 14.06.2020
1516 Rain 13 1015 98 0 1.34 192 18:37 14.06.2020
1517 Rain 12 936 88 0 1.18 266 18:19 14.06.2020
1518 Rain 12 1015 94 0 0.45 35 17:55 14.06.2020
1519 Rain 12 1015 94 0 0.45 35 17:37 14.06.2020
1520 Rain 13 1015 94 0 0.45 35 17:19 14.06.2020
1521 Rain 12 1015 94 0 1.47 279 16:40 14.06.2020
1522 Rain 12 1015 94 0 1.74 285 16:20 14.06.2020
1523 Rain 12 1015 94 0 1.74 285 15:58 14.06.2020
1524 Rain 12 1015 94 0 1.74 285 15:58 14.06.2020
1525 Rain 12 1015 94 0 1.74 285 15:40 14.06.2020
1526 Clouds 12 1015 94 0 1.79 283 15:18 14.06.2020
1527 Clouds 12 1015 94 0 1.79 283 14:57 14.06.2020
1528 Clouds 12 1015 94 0 1.79 283 14:57 14.06.2020
1529 Clouds 12 1015 94 0 1.79 283 14:37 14.06.2020
1530 Clouds 12 1015 94 0 1.71 276 14:18 14.06.2020
1531 Rain 13 1014 93 0 0.89 28 13:41 14.06.2020
1532 Rain 13 936 83 0 0.89 22 13:22 14.06.2020
1533 Rain 13 935 84 0 3.13 337 12:59 14.06.2020
1534 Rain 12 1017 93 0 0.45 347 12:40 14.06.2020
1535 Rain 12 1017 93 0 0.45 347 12:22 14.06.2020
1536 Rain 12 1014 93 0 1.59 278 11:59 14.06.2020
1537 Rain 12 1014 93 0 1.59 278 11:40 14.06.2020
1538 Rain 12 1014 93 0 1.69 282 11:21 14.06.2020
1539 Rain 12 1013 94 0 1.69 282 10:43 14.06.2020
1540 Rain 12 1013 94 0 1.89 264 10:21 14.06.2020
1541 Rain 12 1013 94 0 1.89 264 09:58 14.06.2020
1542 Rain 12 1016 92 0 0.89 97 09:40 14.06.2020
1543 Rain 12 1016 92 0 0.89 97 09:21 14.06.2020
1544 Rain 12 1016 95 0 1.75 253 08:42 14.06.2020
1545 Rain 12 1016 95 0 1.65 259 08:21 14.06.2020
1546 Rain 12 1016 95 0 1.65 259 07:52 14.06.2020
1547 Rain 12 1016 88 0 0.89 262 07:34 14.06.2020
1548 Rain 12 1015 94 0 0.45 185 06:40 14.06.2020
1549 Rain 11 1015 94 0 0.45 185 05:49 14.06.2020
1550 Rain 11 1015 99 0 1.55 292 05:22 14.06.2020
1551 Rain 12 1015 100 0 0.45 100 04:37 14.06.2020
1552 Rain 12 1015 100 0 1.62 269 03:45 14.06.2020
1553 Rain 12 1015 94 0 1.91 282 02:35 14.06.2020
1554 Rain 12 1015 94 0 2.26 292 01:54 14.06.2020
1555 Rain 13 1015 94 0 0.45 92 01:26 14.06.2020
1556 Rain 13 1015 90 0 0.89 101 00:47 14.06.2020
1557 Rain 13 1015 90 0 0.89 101 00:20 14.06.2020
1558 Rain 13 1014 100 0 1.79 145 23:46 13.06.2020
1559 Rain 13 1014 100 0 1.79 145 23:25 13.06.2020
1560 Rain 13 1014 100 0 1.79 145 22:58 13.06.2020
1561 Rain 13 1014 100 0 1.34 128 22:38 13.06.2020
1562 Rain 14 1014 100 0 1.34 128 22:18 13.06.2020
1563 Rain 14 1014 100 0 1.34 128 21:57 13.06.2020
1564 Rain 14 1012 100 0 0.45 131 21:38 13.06.2020
1565 Rain 14 1012 100 0 0.45 131 21:20 13.06.2020
1566 Rain 15 1011 100 0 0.45 343 20:43 13.06.2020
1567 Rain 15 1011 100 0 0.45 343 20:19 13.06.2020
1568 Rain 15 1011 100 0 0.45 343 19:58 13.06.2020
1569 Rain 17 1010 77 0 0.45 133 19:36 13.06.2020
1570 Rain 19 1010 77 0 0.45 133 19:18 13.06.2020
1571 Rain 19 1010 77 0 0.45 133 18:55 13.06.2020
1572 Rain 19 1008 100 0 1.54 359 18:37 13.06.2020
1573 Rain 18 907 42 0 1.97 354 18:18 13.06.2020
1574 Clouds 20 1009 53 10000 4.1 270 17:42 13.06.2020
1575 Clouds 20 1009 53 10000 4.1 270 17:23 13.06.2020
1576 Clouds 21 1009 47 10000 4.1 280 16:58 13.06.2020
1577 Rain 23 1009 50 10000 4.1 270 16:40 13.06.2020
1578 Rain 21 1009 50 10000 4.1 270 16:19 13.06.2020
1579 Clouds 21 1009 57 10000 4.1 280 15:54 13.06.2020
1580 Clouds 21 1010 60 10000 4.1 280 15:36 13.06.2020
1581 Clouds 23 1010 60 10000 4.1 280 15:18 13.06.2020
1582 Clouds 22 1010 64 10000 5.1 280 14:43 13.06.2020
1583 Clouds 22 1010 64 10000 5.1 280 14:21 13.06.2020
1584 Clouds 22 1011 73 10000 5.1 280 13:45 13.06.2020
1585 Clouds 21 1012 39 0 0.89 292 13:26 13.06.2020
1586 Clouds 22 909 40 0 2.31 7 12:57 13.06.2020
1587 Clouds 23 1012 40 0 0.45 292 12:37 13.06.2020
1588 Clouds 19 1012 72 10000 5.1 280 12:19 13.06.2020
1589 Clouds 19 1012 72 10000 5.1 280 12:19 13.06.2020
1590 Clouds 18 1012 72 10000 4.1 270 11:40 13.06.2020
1591 Clouds 18 1012 72 10000 4.1 270 11:19 13.06.2020
1592 Clouds 19 1012 72 10000 3.6 330 10:58 13.06.2020
1593 Clouds 20 1012 68 10000 3.1 10 10:40 13.06.2020
1594 Clouds 19 1012 68 10000 3.1 10 10:22 13.06.2020
1595 Clouds 19 1014 52 0 0.45 270 09:52 13.06.2020
1596 Clouds 19 1012 72 10000 3.1 90 09:32 13.06.2020
1597 Clouds 15 1010 67 0 0.45 152 08:56 13.06.2020
1598 Clouds 13 1013 81 0 0.89 88 08:37 13.06.2020
1599 Clouds 13 1013 81 0 0.89 88 08:19 13.06.2020
1600 Clouds 11 1013 81 0 0.68 275 07:42 13.06.2020
1601 Clouds 10 1013 81 0 1.08 266 07:24 13.06.2020
1602 Clouds 10 1012 76 0 0.45 158 06:44 13.06.2020
1603 Clouds 9 1012 76 0 0.45 158 06:25 13.06.2020
1604 Clear 9 1012 79 0 0.89 151 05:28 13.06.2020
1605 Clear 10 1011 80 0 1.84 199 04:35 13.06.2020
1606 Clear 10 1011 78 0 0.45 107 03:33 13.06.2020
1607 Clear 11 1010 76 0 0.45 187 02:38 13.06.2020
1608 Clear 12 1010 72 0 0.45 288 01:48 13.06.2020
1609 Clear 13 1010 72 0 0.45 288 01:22 13.06.2020
1610 Clear 14 1009 64 0 0.89 164 00:48 13.06.2020
1611 Clear 14 1009 64 0 0.89 164 00:27 13.06.2020
1612 Clear 15 1009 64 0 0.89 164 23:57 12.06.2020
1613 Clear 16 1009 58 0 0.89 157 23:38 12.06.2020
1614 Clear 16 1009 58 0 0.89 157 23:18 12.06.2020
1615 Clear 18 1006 31 10000 6.2 150 22:41 12.06.2020
1616 Clear 18 927 65 0 1.59 173 22:19 12.06.2020
1617 Clear 20 1006 28 10000 6.7 150 21:50 12.06.2020
1618 Clear 21 926 59 0 0.22 143 21:27 12.06.2020
1619 Clear 22 998 26 0 2.24 160 20:59 12.06.2020
1620 Clear 23 905 41 0 0.22 143 20:41 12.06.2020
1621 Rain 24 926 46 0 0.65 332 20:22 12.06.2020
1622 Rain 23 926 45 0 0.65 332 19:57 12.06.2020
1623 Rain 23 926 45 0 0.65 332 19:57 12.06.2020
1624 Rain 24 904 41 0 0.65 332 19:38 12.06.2020
1625 Clear 23 1007 27 0 0.89 315 19:18 12.06.2020
1626 Clear 25 997 21 0 2.68 247 18:39 12.06.2020
1627 Clear 25 1007 24 0 1.34 292 18:19 12.06.2020
1628 Clear 25 997 23 0 3.13 220 17:58 12.06.2020
1629 Clear 25 997 23 0 3.13 208 17:38 12.06.2020
1630 Clear 26 1007 27 0 0.45 180 17:18 12.06.2020
1631 Clear 26 1003 37 0 2.24 5 16:41 12.06.2020
1632 Clear 26 1003 37 0 2.24 5 16:20 12.06.2020
1633 Clear 26 1007 25 0 3.58 177 15:48 12.06.2020
1634 Clear 27 1007 25 0 3.58 177 15:25 12.06.2020
1635 Clear 26 1007 25 0 3.58 177 14:56 12.06.2020
1636 Clear 26 1007 25 0 1.34 149 14:38 12.06.2020
1637 Clear 25 1007 25 0 1.34 149 14:20 12.06.2020
1638 Clear 25 1007 29 0 2.68 289 13:42 12.06.2020
1639 Clear 24 1007 29 0 2.68 289 13:21 12.06.2020
1640 Clear 24 1007 36 0 0.89 29 12:41 12.06.2020
1641 Clear 24 1007 36 0 0.89 29 12:41 12.06.2020
1642 Clear 24 1007 36 0 0.89 29 12:41 12.06.2020
1643 Clear 23 1007 36 0 0.89 29 12:20 12.06.2020
1644 Clear 23 1007 36 0 0.89 29 11:58 12.06.2020
1645 Clear 21 1008 44 0 1.34 8 11:39 12.06.2020
1646 Clear 21 1008 44 0 1.34 8 11:21 12.06.2020
1647 Clear 20 1008 55 0 0.45 21 10:45 12.06.2020
1648 Clear 19 1008 55 0 0.45 21 10:24 12.06.2020
1649 Clear 16 1009 71 0 0.45 13 09:46 12.06.2020
1650 Clear 15 1009 71 0 0.45 13 09:21 12.06.2020
1651 Clear 11 1009 95 0 0.45 78 08:45 12.06.2020
1652 Clear 10 1009 95 0 0.45 78 08:25 12.06.2020
1653 Clear 8 1009 97 0 0.45 215 07:44 12.06.2020
1654 Clear 8 1009 97 0 0.45 215 07:44 12.06.2020
1655 Clear 7 1009 97 0 0.45 215 07:26 12.06.2020
1656 Clear 7 1009 97 0 0.45 215 06:55 12.06.2020
1657 Clear 7 1009 97 0 0.45 166 06:30 12.06.2020
1658 Clear 7 1009 97 0 0.45 166 05:55 12.06.2020
1659 Clear 7 1009 98 0 0.45 186 05:31 12.06.2020
1660 Clear 7 1009 98 0 0.45 186 04:59 12.06.2020
1661 Clear 9 1010 97 0 0.45 221 03:24 12.06.2020
1662 Clouds 9 1010 98 0 0.45 202 01:55 12.06.2020
1663 Clouds 10 1010 95 0 2.28 161 01:27 12.06.2020
1664 Clouds 11 1010 95 0 2.28 161 00:43 12.06.2020
1665 Clouds 11 1010 95 0 1.94 158 00:24 12.06.2020
1666 Clouds 11 1010 95 0 1.94 158 23:59 11.06.2020
1667 Clouds 12 928 84 0 1.94 158 23:40 11.06.2020
1668 Clouds 12 928 82 0 1.73 151 23:21 11.06.2020
1669 Clouds 12 1009 60 0 1.73 151 22:57 11.06.2020
1670 Clouds 12 1010 90 0 0.45 236 22:38 11.06.2020
1671 Clouds 13 1010 90 0 0.45 236 22:19 11.06.2020
1672 Clouds 14 1010 90 0 0.45 236 21:55 11.06.2020
1673 Clouds 14 1009 85 0 1.4 153 21:37 11.06.2020
1674 Clouds 15 1009 85 0 0.93 121 21:19 11.06.2020
1675 Clouds 17 1009 67 0 1.34 289 20:43 11.06.2020
1676 Clouds 17 1009 67 0 1.34 289 20:21 11.06.2020
1677 Clouds 17 1009 66 0 0.45 255 19:45 11.06.2020
1678 Rain 17 1009 66 0 0.45 255 19:23 11.06.2020
1679 Rain 18 1009 66 0 0.45 255 18:59 11.06.2020
1680 Rain 17 1006 71 0 0.89 327 18:41 11.06.2020
1681 Rain 17 1006 71 0 0.89 327 18:20 11.06.2020
1682 Rain 17 1006 72 0 1.54 67 17:56 11.06.2020
1683 Rain 17 1009 69 0 0.89 318 17:37 11.06.2020
1684 Rain 17 1009 69 0 0.89 318 17:19 11.06.2020
1685 Rain 16 1009 76 0 0.89 320 16:46 11.06.2020
1686 Rain 16 1009 76 0 0.89 320 16:28 11.06.2020
1687 Rain 16 1009 76 0 0.89 320 15:59 11.06.2020
1688 Rain 16 1009 70 0 1.79 285 15:41 11.06.2020
1689 Clouds 16 1009 70 0 1.79 285 15:23 11.06.2020
1690 Clouds 16 1009 70 0 1.79 285 14:55 11.06.2020
1691 Clouds 17 1009 60 0 0.45 28 14:36 11.06.2020
1692 Clouds 17 1009 60 0 0.45 28 14:18 11.06.2020
1693 Clouds 17 1009 60 0 0.45 28 13:54 11.06.2020
1694 Clouds 15 1010 74 0 0.45 355 13:36 11.06.2020
1695 Clouds 16 1010 74 0 0.45 355 13:18 11.06.2020
1696 Clouds 14 1007 74 0 2.24 134 12:39 11.06.2020
1697 Clouds 12 1010 78 0 1.3 163 12:20 11.06.2020
1698 Clouds 12 1008 95 0 0.89 284 11:59 11.06.2020
1699 Clouds 12 1010 83 0 1.3 163 11:40 11.06.2020
1700 Rain 12 1010 88 0 0.45 292 11:22 11.06.2020
1701 Rain 11 1010 86 0 1.35 183 10:57 11.06.2020
1702 Rain 11 1010 87 0 1.35 183 10:39 11.06.2020
1703 Rain 11 1010 88 0 1.43 193 10:18 11.06.2020
1704 Rain 11 1010 88 0 1.43 193 10:18 11.06.2020
1705 Rain 10 1010 88 0 0.45 79 09:42 11.06.2020
1706 Rain 10 1010 88 0 0.45 79 09:24 11.06.2020
1707 Rain 10 1010 93 0 0.89 133 08:44 11.06.2020
1708 Rain 10 1010 93 0 0.89 133 08:21 11.06.2020
1709 Rain 10 1010 93 0 0.89 133 07:59 11.06.2020
1710 Rain 10 1010 95 0 0.45 202 07:41 11.06.2020
1711 Rain 10 1010 95 0 0.45 202 07:20 11.06.2020
1712 Rain 9 1010 97 0 1.34 174 06:29 11.06.2020
1713 Rain 10 1010 99 0 0.89 108 05:46 11.06.2020
1714 Rain 10 1010 98 0 0.45 217 03:56 11.06.2020
1715 Rain 10 1010 98 0 0.5 213 03:24 11.06.2020
1716 Rain 11 1010 99 0 0.45 155 02:32 11.06.2020
1717 Rain 10 1010 99 0 0.45 155 01:53 11.06.2020
1718 Rain 11 1011 99 0 0.89 143 01:31 11.06.2020
1719 Rain 11 1011 99 0 0.89 143 00:51 11.06.2020
1720 Rain 11 1011 98 0 0.45 44 00:30 11.06.2020
1721 Rain 11 1011 98 0 0.45 44 23:49 10.06.2020
1722 Rain 11 1011 100 0 0.45 282 23:27 10.06.2020
1723 Rain 11 1011 100 0 0.45 282 22:59 10.06.2020
1724 Rain 11 1011 100 0 0.45 9 22:38 10.06.2020
1725 Rain 11 1011 100 0 0.45 9 22:20 10.06.2020
1726 Rain 11 1011 100 0 0.45 9 21:58 10.06.2020
1727 Rain 11 1011 100 0 1.79 336 21:40 10.06.2020
1728 Rain 11 1011 100 0 1.79 336 21:18 10.06.2020
1729 Rain 11 1011 100 0 1.79 336 20:57 10.06.2020
1730 Rain 11 1011 100 0 1.79 336 20:57 10.06.2020
1731 Rain 12 1011 97 0 0.89 328 20:39 10.06.2020
1732 Rain 12 1011 97 0 0.89 328 20:21 10.06.2020
1733 Rain 12 1009 93 0 2.24 339 19:41 10.06.2020
1734 Rain 12 1012 89 0 0.89 292 19:20 10.06.2020
1735 Rain 12 1011 72 0 1.26 327 18:59 10.06.2020
1736 Rain 12 1011 95 0 1.26 327 18:41 10.06.2020
1737 Rain 12 1011 95 0 1.59 331 18:20 10.06.2020
1738 Rain 12 1011 95 0 1.59 331 18:20 10.06.2020
1739 Rain 12 1011 95 0 1.59 331 17:56 10.06.2020
1740 Rain 13 1011 95 0 2.68 324 17:37 10.06.2020
1741 Rain 13 1011 95 0 2.68 324 17:19 10.06.2020
1742 Rain 13 1011 95 0 2.68 324 16:57 10.06.2020
1743 Rain 13 1011 96 0 1.34 319 16:39 10.06.2020
1744 Rain 13 1011 96 0 1.34 319 16:20 10.06.2020
1745 Rain 12 1011 96 0 1.59 316 15:41 10.06.2020
1746 Rain 12 1011 96 0 1.55 310 15:22 10.06.2020
1747 Rain 12 1011 96 0 1.55 310 14:58 10.06.2020
1748 Rain 14 1012 85 0 0.45 247 14:39 10.06.2020
1749 Rain 13 1012 91 0 1.14 273 14:20 10.06.2020
1750 Rain 13 930 77 0 1.14 273 13:41 10.06.2020
1751 Rain 13 1009 91 0 1.34 346 13:21 10.06.2020
1752 Rain 13 1010 93 0 1.79 276 12:45 10.06.2020
1753 Rain 13 1012 81 0 1.09 306 12:23 10.06.2020
1754 Rain 13 1012 84 0 1.09 306 11:59 10.06.2020
1755 Rain 13 1012 85 0 1.09 306 11:40 10.06.2020
1756 Rain 13 1012 87 0 1.03 315 11:19 10.06.2020
1757 Rain 13 931 81 0 1.03 315 10:57 10.06.2020
1758 Rain 12 1010 97 0 0.89 355 10:39 10.06.2020
1759 Rain 12 931 82 0 1.13 320 10:20 10.06.2020
1760 Rain 12 931 85 0 1.13 320 09:42 10.06.2020
1761 Rain 12 1012 88 0 1.23 324 09:23 10.06.2020
1762 Rain 12 930 85 0 0.45 157 08:57 10.06.2020
1763 Rain 11 1012 99 0 0.89 348 08:38 10.06.2020
1764 Rain 11 1012 99 0 0.89 348 08:20 10.06.2020
1765 Rain 11 1012 100 0 0.89 310 07:39 10.06.2020
1766 Rain 11 1012 100 0 0.89 310 07:20 10.06.2020
1767 Rain 11 1012 98 0 0.89 311 06:44 10.06.2020
1768 Rain 11 1012 98 0 0.89 311 06:23 10.06.2020
1769 Rain 11 1012 98 0 0.89 311 05:56 10.06.2020
1770 Rain 11 1012 99 0 1.79 332 05:26 10.06.2020
1771 Rain 11 1012 100 0 0.45 341 04:35 10.06.2020
1772 Rain 11 1012 99 0 1.34 7 02:57 10.06.2020
1773 Rain 11 1013 98 0 1.34 355 02:21 10.06.2020
1774 Rain 11 1013 98 0 0.89 301 01:36 10.06.2020
1775 Rain 11 1013 98 0 1.34 352 00:40 10.06.2020
1776 Rain 11 1013 98 0 1.34 352 00:21 10.06.2020
1777 Rain 11 1013 98 0 1.34 352 00:21 10.06.2020
1778 Rain 11 1013 98 0 1.34 352 23:56 09.06.2020
1779 Rain 11 1013 98 0 0.45 336 23:38 09.06.2020
1780 Rain 11 1013 98 0 0.45 336 23:19 09.06.2020
1781 Rain 11 1013 98 0 0.45 336 22:55 09.06.2020
1782 Rain 11 1013 96 0 0.45 313 22:37 09.06.2020
1783 Rain 11 1013 96 0 0.45 313 22:19 09.06.2020
1784 Rain 11 1013 96 0 0.45 313 21:56 09.06.2020
1785 Rain 11 1013 96 0 1.34 352 21:37 09.06.2020
1786 Rain 12 1013 96 0 1.34 352 21:19 09.06.2020
1787 Clouds 12 1013 96 0 1.34 352 20:56 09.06.2020
1788 Rain 12 1012 93 0 0.45 338 20:38 09.06.2020
1789 Rain 12 1012 93 0 0.45 338 20:18 09.06.2020
1790 Rain 12 1012 93 0 0.45 338 19:55 09.06.2020
1791 Rain 13 1012 90 0 1.34 336 19:37 09.06.2020
1792 Rain 13 1012 90 0 1.34 336 19:18 09.06.2020
1793 Rain 13 1012 81 0 0.45 16 18:45 09.06.2020
1794 Rain 13 1012 81 0 0.45 16 18:26 09.06.2020
1795 Rain 13 1012 81 0 0.45 16 17:57 09.06.2020
1796 Rain 13 1012 85 0 1.97 1 17:39 09.06.2020
1797 Rain 13 1012 84 0 2.17 7 17:21 09.06.2020
1798 Rain 13 1010 88 0 2.68 348 16:56 09.06.2020
1799 Rain 13 1010 88 0 2.68 348 16:56 09.06.2020
1800 Rain 13 1010 86 0 1.79 360 16:37 09.06.2020
1801 Rain 14 1013 76 0 2.18 14 16:19 09.06.2020
1802 Rain 14 1012 86 0 2.18 14 15:40 09.06.2020
1803 Rain 13 1012 85 0 2.09 16 15:21 09.06.2020
1804 Rain 13 1013 83 0 2.09 16 14:57 09.06.2020
1805 Rain 13 1013 77 0 0.45 292 14:38 09.06.2020
1806 Rain 13 1013 78 0 0.45 292 14:19 09.06.2020
1807 Rain 13 1010 87 0 1.79 333 13:54 09.06.2020
1808 Rain 13 1012 77 0 1.34 10 13:36 09.06.2020
1809 Rain 13 1012 77 0 1.34 10 13:36 09.06.2020
1810 Rain 13 1012 77 0 1.34 10 13:18 09.06.2020
1811 Rain 13 1012 80 0 0.89 5 12:41 09.06.2020
1812 Rain 12 1012 80 0 0.89 5 12:20 09.06.2020
1813 Rain 12 1012 80 0 0.89 5 11:56 09.06.2020
1814 Rain 12 1012 79 0 0.45 311 11:38 09.06.2020
1815 Rain 12 1012 79 0 0.45 311 11:38 09.06.2020
1816 Clouds 12 1012 79 0 0.45 311 11:19 09.06.2020
1817 Clouds 12 1012 83 0 1.66 333 10:45 09.06.2020
1818 Clouds 12 1012 83 0 1.34 341 10:27 09.06.2020
1819 Clouds 11 1012 83 0 1.34 341 09:59 09.06.2020
1820 Clouds 11 1010 89 0 0.89 5 09:39 09.06.2020
1821 Clouds 10 1013 86 0 0.45 292 09:19 09.06.2020
1822 Clouds 10 1012 85 0 0.76 5 08:40 09.06.2020
1823 Clouds 10 931 88 0 0.56 28 08:21 09.06.2020
1824 Clouds 10 931 88 0 0.56 28 08:21 09.06.2020
1825 Clouds 10 930 88 0 0.56 28 07:43 09.06.2020
1826 Clouds 9 1010 93 0 0.45 309 07:23 09.06.2020
1827 Clouds 9 1010 93 0 0.45 317 06:56 09.06.2020
1828 Clouds 9 1010 93 0 0.54 38 06:36 09.06.2020
1829 Clouds 9 1010 93 0 0.45 323 05:48 09.06.2020
1830 Rain 10 1012 77 0 0.74 49 03:55 09.06.2020
1831 Rain 10 1012 94 0 0.5 12 02:22 09.06.2020
1832 Rain 10 1013 95 0 0.45 204 01:37 09.06.2020
1833 Rain 10 1013 95 0 0.45 204 01:18 09.06.2020
1834 Rain 10 1013 94 0 0.45 296 00:42 09.06.2020
1835 Rain 10 1013 94 0 0.45 296 00:19 09.06.2020
1836 Rain 10 1013 94 0 1.03 70 23:42 08.06.2020
1837 Rain 10 1013 94 0 0.87 80 23:21 08.06.2020
1838 Rain 10 1013 94 0 0.87 80 22:58 08.06.2020
1839 Rain 10 1012 93 0 0.87 80 22:38 08.06.2020
1840 Rain 11 1012 93 0 1.18 80 22:20 08.06.2020
1841 Rain 10 1012 93 0 1.18 80 21:55 08.06.2020
1842 Clouds 11 1012 84 0 0.45 157 21:37 08.06.2020
1843 Rain 12 1012 84 0 0.45 157 21:18 08.06.2020
1844 Rain 12 1012 84 0 0.45 157 20:55 08.06.2020
1845 Rain 14 1011 35 0 1.34 6 20:36 08.06.2020
1846 Rain 14 1011 35 0 1.79 19 20:18 08.06.2020
1847 Rain 14 1011 35 0 1.79 19 20:18 08.06.2020
1848 Rain 13 1011 67 0 0.45 335 19:43 08.06.2020
1849 Rain 13 1011 67 0 0.45 335 19:21 08.06.2020
1850 Rain 13 1011 70 0 1.38 94 18:43 08.06.2020
1851 Rain 13 1011 70 0 1.8 73 18:21 08.06.2020
1852 Rain 14 1011 70 0 1.8 73 17:58 08.06.2020
1853 Rain 14 1011 70 0 1.8 73 17:58 08.06.2020
1854 Rain 14 1011 67 0 0.45 283 17:40 08.06.2020
1855 Rain 14 1011 67 0 0.45 283 17:21 08.06.2020
1856 Rain 14 1011 67 0 0.45 283 16:58 08.06.2020
1857 Rain 14 1011 66 0 2.24 329 16:39 08.06.2020
1858 Rain 14 1011 66 0 2.24 329 16:39 08.06.2020
1859 Clouds 14 1011 66 0 2.24 329 16:21 08.06.2020
1860 Clouds 14 1011 65 0 1.34 298 15:42 08.06.2020
1861 Clouds 14 1011 65 0 1.34 298 15:21 08.06.2020
1862 Clouds 14 1011 65 0 1.34 298 14:58 08.06.2020
1863 Clouds 16 1012 56 0 0.45 225 14:38 08.06.2020
1864 Clouds 17 1012 63 10000 3.6 270 14:18 08.06.2020
1865 Clouds 17 1012 63 10000 3.6 270 14:18 08.06.2020
1866 Clouds 17 1012 63 10000 3.6 270 13:42 08.06.2020
1867 Clouds 17 1012 63 10000 3.6 270 13:42 08.06.2020
1868 Clouds 16 1012 59 10000 3.6 280 13:23 08.06.2020
1869 Clouds 16 1012 26 0 2.24 49 12:42 08.06.2020
1870 Clouds 15 1013 67 0 0.45 292 12:20 08.06.2020
1871 Clouds 15 1012 30 0 1.79 27 11:59 08.06.2020
1872 Clouds 13 1012 71 0 1.79 30 11:40 08.06.2020
1873 Clouds 13 1012 71 0 1.79 30 11:21 08.06.2020
1874 Clouds 12 1012 71 0 1.79 30 10:57 08.06.2020
1875 Clouds 12 1012 79 0 0.89 4 10:38 08.06.2020
1876 Clouds 12 1012 79 0 0.89 4 10:20 08.06.2020
1877 Clouds 10 1012 89 0 1.69 40 09:48 08.06.2020
1878 Clouds 9 1012 89 0 1.48 30 09:23 08.06.2020
1879 Clouds 9 1012 89 0 1.48 30 08:57 08.06.2020
1880 Clouds 8 1012 93 0 1.48 30 08:39 08.06.2020
1881 Clouds 8 1012 93 0 1 41 08:19 08.06.2020
1882 Clouds 7 1012 96 0 1 41 07:40 08.06.2020
1883 Clouds 7 1012 96 0 0.17 97 07:21 08.06.2020
1884 Clouds 7 1012 96 0 0.17 97 07:21 08.06.2020
1885 Clouds 7 1011 96 0 0.17 97 06:41 08.06.2020
1886 Clouds 7 1012 96 0 0.74 140 06:21 08.06.2020
1887 Clouds 7 1012 95 0 0.74 140 05:42 08.06.2020
1888 Clouds 6 1013 97 0 0.75 152 03:29 08.06.2020
1889 Clouds 6 1012 95 0 0.77 143 02:26 08.06.2020
1890 Clouds 6 1013 97 0 0.45 134 01:44 08.06.2020
1891 Clouds 6 1013 97 0 0.45 134 00:58 08.06.2020
1892 Clouds 6 1013 98 0 0.45 219 00:25 08.06.2020
1893 Clouds 7 1013 97 0 0.81 178 23:40 07.06.2020
1894 Clouds 7 1013 97 0 1.16 159 23:19 07.06.2020
1895 Clouds 7 1013 97 0 1.16 159 22:58 07.06.2020
1896 Clouds 7 1013 96 0 0.45 18 22:38 07.06.2020
1897 Clouds 7 1013 96 0 0.45 18 22:18 07.06.2020
1898 Clouds 7 1013 96 0 0.45 18 21:58 07.06.2020
1899 Clouds 8 1013 94 0 1.36 164 21:37 07.06.2020
1900 Clouds 8 1013 94 0 1.12 142 21:19 07.06.2020
1901 Rain 8 1013 92 0 0.81 133 20:40 07.06.2020
1902 Rain 8 1013 92 0 0.99 144 20:21 07.06.2020
1903 Rain 8 1013 92 0 0.99 144 19:59 07.06.2020
1904 Rain 8 1012 91 0 0.89 168 19:41 07.06.2020
1905 Rain 8 1012 91 0 0.89 168 19:21 07.06.2020
1906 Rain 8 1012 91 0 0.89 168 19:00 07.06.2020
1907 Rain 8 1012 94 0 0.45 146 18:39 07.06.2020
1908 Rain 8 1012 94 0 0.45 146 18:21 07.06.2020
1909 Rain 8 1012 94 0 0.45 146 17:58 07.06.2020
1910 Rain 8 1012 91 0 0.45 189 17:38 07.06.2020
1911 Rain 8 1012 91 0 0.45 189 17:20 07.06.2020
1912 Rain 8 1012 90 0 0.45 74 16:43 07.06.2020
1913 Rain 8 1012 90 0 0.45 74 16:22 07.06.2020
1914 Rain 8 1012 91 0 0.45 71 15:44 07.06.2020
1915 Rain 8 1012 91 0 0.45 71 15:44 07.06.2020
1916 Rain 8 1012 91 0 0.45 71 15:22 07.06.2020
1917 Rain 9 1011 95 0 0.14 315 14:41 07.06.2020
1918 Rain 9 1011 95 0 1.2 291 14:23 07.06.2020
1919 Rain 9 1011 95 0 1.47 329 13:59 07.06.2020
1920 Rain 9 1010 97 0 0.45 222 13:41 07.06.2020
1921 Rain 9 1010 97 0 0.45 222 13:41 07.06.2020
1922 Rain 9 1010 97 0 0.45 222 13:41 07.06.2020
1923 Rain 9 1010 97 0 0.45 222 13:41 07.06.2020
1924 Rain 9 1010 97 0 0.45 222 13:41 07.06.2020
1925 Rain 9 1010 97 0 0.45 222 13:19 07.06.2020
1926 Rain 10 1009 97 0 0.45 339 12:43 07.06.2020
1927 Rain 10 1009 97 0 0.45 339 12:43 07.06.2020
1928 Rain 10 1009 97 0 0.45 339 12:24 07.06.2020
1929 Rain 10 1009 97 0 0.45 339 11:55 07.06.2020
1930 Rain 10 1009 98 0 0.45 295 11:37 07.06.2020
1931 Rain 10 1009 98 0 0.45 295 11:19 07.06.2020
1932 Rain 10 1009 98 0 0.45 295 10:54 07.06.2020
1933 Rain 10 1008 98 0 0.45 273 10:36 07.06.2020
1934 Rain 10 1008 98 0 0.45 273 10:18 07.06.2020
1935 Rain 10 1008 99 0 1.34 354 09:41 07.06.2020
1936 Rain 10 1008 99 0 1.34 354 09:21 07.06.2020
1937 Rain 10 1008 99 0 1.34 354 08:59 07.06.2020
1938 Rain 10 1007 98 0 0.89 279 08:40 07.06.2020
1939 Rain 10 1007 98 0 0.89 279 08:22 07.06.2020
1940 Rain 11 1007 97 0 0.45 287 07:41 07.06.2020
1941 Clouds 12 1007 97 0 0.45 287 06:56 07.06.2020
1942 Clouds 12 1007 95 0 0.45 69 06:21 07.06.2020
1943 Clouds 12 1007 96 0 0.61 95 04:25 07.06.2020
1944 Clouds 12 1007 96 0 0.61 95 03:50 07.06.2020
1945 Rain 12 1008 98 0 0.89 223 02:26 07.06.2020
1946 Rain 12 1008 98 0 0.45 217 01:39 07.06.2020
1947 Rain 12 1008 98 0 0.45 217 01:21 07.06.2020
1948 Rain 12 1008 96 0 0.45 268 00:39 07.06.2020
1949 Rain 12 1008 96 0 0.45 268 00:18 07.06.2020
1950 Rain 13 1008 94 0 0.89 136 23:38 06.06.2020
1951 Rain 13 1008 94 0 0.89 136 23:20 06.06.2020
1952 Rain 13 1008 94 0 0.89 136 22:58 06.06.2020
1953 Rain 13 1008 95 0 0.45 241 22:40 06.06.2020
1954 Rain 13 1008 95 0 0.45 241 22:20 06.06.2020
1955 Rain 13 1008 95 0 0.45 241 21:58 06.06.2020
1956 Rain 13 1007 95 0 0.46 9 21:39 06.06.2020
1957 Rain 13 1007 95 0 0.89 293 21:20 06.06.2020
1958 Rain 13 1007 86 0 0.45 202 20:41 06.06.2020
1959 Rain 14 926 84 0 0.24 322 20:21 06.06.2020
1960 Rain 13 926 85 0 0.24 322 19:58 06.06.2020
1961 Rain 14 926 84 0 0.24 322 19:40 06.06.2020
1962 Rain 14 926 83 0 0.26 160 19:22 06.06.2020
1963 Rain 14 926 82 0 0.26 160 18:56 06.06.2020
1964 Rain 14 926 82 0 0.26 160 18:38 06.06.2020
1965 Rain 13 926 81 0 0.29 298 18:20 06.06.2020
1966 Rain 14 926 70 0 0.29 298 17:43 06.06.2020
1967 Rain 17 999 70 0 0.45 9 17:21 06.06.2020
1968 Rain 16 1006 41 0 1.34 197 16:57 06.06.2020
1969 Rain 17 1006 38 0 1.34 152 16:38 06.06.2020
1970 Clouds 17 1006 72 10000 4.1 340 16:20 06.06.2020
1971 Clouds 18 1006 72 10000 5.7 320 15:45 06.06.2020
1972 Clouds 19 1005 63 10000 5.1 310 15:20 06.06.2020
1973 Clouds 16 1005 64 10000 5.1 310 14:59 06.06.2020
1974 Clouds 17 1005 64 10000 5.1 310 14:38 06.06.2020
1975 Clouds 19 1005 56 10000 3.6 270 14:19 06.06.2020
1976 Rain 16 1006 33 0 3.13 180 13:47 06.06.2020
1977 Rain 16 1006 34 0 1.79 157 13:19 06.06.2020
1978 Rain 16 1006 34 0 1.79 157 13:19 06.06.2020
1979 Rain 17 1004 73 0 2.24 265 12:57 06.06.2020
1980 Rain 16 1004 73 0 2.24 265 12:57 06.06.2020
1981 Rain 15 1006 36 0 1.34 154 12:39 06.06.2020
1982 Rain 17 1008 63 0 0.45 292 12:19 06.06.2020
1983 Rain 16 1006 38 0 3.13 218 11:54 06.06.2020
1984 Rain 16 1007 59 0 0.89 174 11:36 06.06.2020
1985 Rain 16 1007 59 0 0.89 174 11:36 06.06.2020
1986 Rain 16 1007 59 0 0.89 174 11:18 06.06.2020
1987 Rain 16 1007 59 0 0.89 174 10:55 06.06.2020
1988 Rain 16 1007 63 0 0.45 104 10:36 06.06.2020
1989 Clouds 15 1007 63 0 0.45 104 10:18 06.06.2020
1990 Clouds 14 1007 78 0 0.45 166 09:41 06.06.2020
1991 Clouds 13 1007 78 0 0.45 166 09:22 06.06.2020
1992 Clouds 12 1006 84 0 1.28 307 08:47 06.06.2020
1993 Clouds 12 1006 84 0 0.96 288 08:24 06.06.2020
1994 Clouds 12 1006 84 0 0.96 288 07:56 06.06.2020
1995 Clouds 12 1006 84 0 0.96 288 07:56 06.06.2020
1996 Clouds 11 1006 85 0 0.45 162 07:37 06.06.2020
1997 Clouds 11 1006 85 0 0.45 162 07:19 06.06.2020
1998 Clouds 12 1003 85 0 0.45 94 06:43 06.06.2020
1999 Clouds 11 1006 77 0 0.45 112 06:24 06.06.2020
2000 Clouds 11 1005 42 0 1.79 155 05:32 06.06.2020
2001 Clouds 11 924 74 0 2.47 173 04:49 06.06.2020
2002 Clouds 11 1005 79 0 2.36 174 03:29 06.06.2020
2003 Rain 13 924 70 0 1.59 224 02:26 06.06.2020
2004 Clouds 12 925 69 0 2.16 216 01:23 06.06.2020
2005 Clouds 12 924 69 0 2.16 216 00:56 06.06.2020
2006 Clouds 12 924 69 0 2.16 216 00:38 06.06.2020
2007 Clouds 12 924 69 0 2.28 200 00:20 06.06.2020
2008 Clouds 12 1005 42 0 2.28 200 23:40 05.06.2020
2009 Clouds 12 924 67 0 1.81 208 23:19 05.06.2020
2010 Clouds 12 924 67 0 1.81 208 22:56 05.06.2020
2011 Clouds 12 924 67 0 1.81 208 22:38 05.06.2020
2012 Clouds 12 924 67 0 1.4 233 22:19 05.06.2020
2013 Clouds 12 924 67 0 1.4 233 22:19 05.06.2020
2014 Clouds 12 923 66 0 1.4 233 21:43 05.06.2020
2015 Clouds 13 923 65 0 0.45 337 21:23 05.06.2020
2016 Clouds 13 923 65 0 0.45 337 21:23 05.06.2020
2017 Clouds 13 923 65 0 0.89 315 20:58 05.06.2020
2018 Clouds 13 1004 35 0 4.47 179 20:40 05.06.2020
2019 Clouds 13 923 65 0 1.95 274 20:21 05.06.2020
2020 Clouds 14 1004 68 0 2.68 161 19:44 05.06.2020
2021 Clouds 14 1004 68 0 2.68 161 19:24 05.06.2020
2022 Clouds 14 1004 68 0 2.68 161 18:58 05.06.2020
2023 Clouds 14 1004 70 0 0.89 179 18:39 05.06.2020
2024 Rain 14 1004 70 0 0.89 179 18:20 05.06.2020
2025 Rain 13 1004 70 0 0.89 179 17:58 05.06.2020
2026 Rain 13 1004 69 0 1.79 163 17:39 05.06.2020
2027 Rain 13 1004 69 0 1.79 163 17:19 05.06.2020
2028 Rain 13 1003 67 0 0.89 213 16:39 05.06.2020
2029 Clouds 13 1003 67 0 0.89 213 16:21 05.06.2020
2030 Clouds 13 1003 67 0 0.89 213 15:56 05.06.2020
2031 Clouds 13 1003 70 0 1.34 218 15:37 05.06.2020
2032 Rain 13 1003 70 0 1.34 218 15:19 05.06.2020
2033 Rain 13 1003 70 0 1.34 218 15:19 05.06.2020
2034 Rain 12 1001 73 0 1.34 337 14:41 05.06.2020
2035 Rain 11 1000 69 0 2.24 304 14:22 05.06.2020
2036 Rain 12 1000 71 0 4.47 274 13:59 05.06.2020
2037 Rain 13 1002 71 0 0.45 257 13:41 05.06.2020
2038 Rain 13 1002 71 0 0.45 257 13:22 05.06.2020
2039 Rain 10 1003 78 0 2.68 160 12:43 05.06.2020
2040 Rain 11 1003 75 0 0.89 292 12:20 05.06.2020
2041 Rain 11 1002 76 0 1.34 224 11:57 05.06.2020
2042 Rain 11 1002 77 0 0.45 180 11:39 05.06.2020
2043 Rain 12 921 76 0 1.7 250 11:20 05.06.2020
2044 Rain 11 921 80 0 1.7 250 10:54 05.06.2020
2045 Rain 11 1002 80 0 0.45 180 10:36 05.06.2020
2046 Rain 11 1002 72 0 2.24 170 10:18 05.06.2020
2047 Rain 11 1002 73 0 0.89 162 09:54 05.06.2020
2048 Rain 10 999 89 0 0.45 163 09:36 05.06.2020
2049 Rain 10 1002 85 0 0.45 180 09:18 05.06.2020
2050 Rain 9 1002 96 0 0.45 157 08:41 05.06.2020
2051 Rain 9 1002 96 0 0.45 157 08:19 05.06.2020
2052 Rain 9 1002 96 0 0.45 157 07:55 05.06.2020
2053 Rain 9 1002 96 0 1.34 132 07:36 05.06.2020
2054 Rain 9 1002 96 0 1.34 132 06:54 05.06.2020
2055 Rain 9 1001 95 0 1.34 148 05:24 05.06.2020
2056 Rain 9 1001 95 0 1.34 217 04:44 05.06.2020
2057 Rain 9 1001 95 0 1.34 217 03:50 05.06.2020
2058 Rain 9 1001 93 0 0.45 108 02:39 05.06.2020
2059 Rain 9 1001 93 0 0.45 108 02:18 05.06.2020
2060 Clouds 9 1001 90 0 0.89 208 01:36 05.06.2020
2061 Clouds 9 1001 90 0 0.89 208 01:36 05.06.2020
2062 Rain 9 1001 90 0 0.89 208 00:56 05.06.2020
2063 Rain 9 1001 88 0 1.34 166 00:37 05.06.2020
2064 Rain 9 1001 88 0 1.34 166 00:18 05.06.2020
2065 Rain 10 1001 93 0 0.45 190 23:42 04.06.2020
2066 Rain 10 1001 93 0 0.45 190 23:24 04.06.2020
2067 Rain 10 1002 93 0 0.45 194 22:44 04.06.2020
2068 Rain 10 1002 93 0 0.45 194 22:22 04.06.2020
2069 Rain 10 1002 93 0 0.45 194 21:58 04.06.2020
2070 Rain 11 1001 91 0 0.89 132 21:39 04.06.2020
2071 Rain 11 1001 91 0 0.89 132 21:21 04.06.2020
2072 Rain 11 1001 91 0 0.89 132 20:57 04.06.2020
2073 Rain 11 999 73 0 3.13 228 20:39 04.06.2020
2074 Rain 11 997 93 0 1.79 156 20:20 04.06.2020
2075 Rain 11 919 86 0 1.79 337 19:55 04.06.2020
2076 Rain 12 919 86 0 1.11 254 19:37 04.06.2020
2077 Rain 12 918 85 0 1.34 337 19:19 04.06.2020
2078 Rain 11 918 81 0 0.99 236 18:39 04.06.2020
2079 Rain 12 999 83 0 0.89 212 18:21 04.06.2020
2080 Rain 12 999 80 0 0.89 185 17:59 04.06.2020
2081 Rain 12 1000 89 0 1.79 195 17:41 04.06.2020
2082 Rain 12 1000 89 0 1.79 195 17:20 04.06.2020
2083 Rain 13 1000 87 0 0.45 163 16:41 04.06.2020
2084 Rain 13 1000 87 0 0.45 163 16:20 04.06.2020
2085 Rain 14 1000 86 0 0.89 136 15:47 04.06.2020
2086 Rain 14 1000 86 0 0.89 136 15:27 04.06.2020
2087 Rain 14 1000 86 0 0.89 136 14:58 04.06.2020
2088 Rain 14 1000 90 0 1.79 83 14:38 04.06.2020
2089 Rain 14 1000 90 0 1.79 83 14:19 04.06.2020
2090 Rain 14 1000 72 0 0.45 272 13:42 04.06.2020
2091 Rain 15 1000 72 0 0.45 272 13:21 04.06.2020
2092 Rain 15 1000 72 0 0.45 272 12:59 04.06.2020
2093 Rain 15 1000 76 0 1.79 6 12:41 04.06.2020
2094 Rain 15 1000 76 0 1.79 6 12:23 04.06.2020
2095 Rain 15 1000 76 0 1.79 6 11:56 04.06.2020
2096 Rain 15 1000 75 0 1.65 300 11:38 04.06.2020
2097 Rain 15 1000 75 0 1.24 318 11:19 04.06.2020
2098 Rain 15 1001 78 0 0.45 15 10:43 04.06.2020
2099 Clouds 15 1001 78 0 0.45 15 10:23 04.06.2020
2100 Clouds 14 1001 78 0 0.45 15 09:58 04.06.2020
2101 Clouds 14 1001 79 0 0.45 66 09:40 04.06.2020
2102 Clouds 14 1001 79 0 0.45 66 09:22 04.06.2020
2103 Clouds 13 1001 83 0 0.68 301 08:44 04.06.2020
2104 Clouds 13 1001 83 0 0.46 219 08:25 04.06.2020
2105 Clouds 12 1001 88 0 0.46 219 07:47 04.06.2020
2106 Clouds 12 1001 88 0 1.24 178 07:26 04.06.2020
2107 Clouds 12 1002 89 0 0.45 207 06:43 04.06.2020
2108 Clouds 11 1002 89 0 0.45 207 06:24 04.06.2020
2109 Clouds 11 1002 91 0 1.5 157 05:34 04.06.2020
2110 Clouds 12 1002 92 0 1.34 128 04:31 04.06.2020
2111 Clouds 12 1003 91 0 0.89 143 03:23 04.06.2020
2112 Clouds 12 1003 89 0 1.25 226 01:56 04.06.2020
2113 Clouds 13 1005 90 0 0.45 152 01:19 04.06.2020
2114 Clouds 14 923 65 0 2.1 190 00:40 04.06.2020
2115 Clouds 14 1006 82 0 2.24 151 23:41 03.06.2020
2116 Clouds 14 1006 82 0 2.24 151 23:20 03.06.2020
2117 Clouds 14 1006 82 0 2.24 151 22:58 03.06.2020
2118 Clouds 14 1006 82 0 2.24 151 22:58 03.06.2020
2119 Rain 13 1007 85 0 0.89 197 22:39 03.06.2020
2120 Rain 14 1007 85 0 0.89 197 22:18 03.06.2020
2121 Rain 14 1007 85 0 0.89 197 21:56 03.06.2020
2122 Rain 16 1007 69 0 4.02 153 21:38 03.06.2020
2123 Rain 15 1007 69 0 4.02 153 21:20 03.06.2020
2124 Rain 17 1005 57 0 2.68 180 20:43 03.06.2020
2125 Rain 18 923 44 0 2.52 220 20:22 03.06.2020
2126 Rain 19 924 41 0 2.52 220 19:58 03.06.2020
2127 Rain 21 924 39 0 2.52 220 19:40 03.06.2020
2128 Rain 23 1000 50 0 1.06 245 19:22 03.06.2020
2129 Rain 23 1004 15 0 1.06 245 18:59 03.06.2020
2130 Rain 23 1005 40 0 1.79 358 18:41 03.06.2020
2131 Rain 23 1005 40 0 1.79 358 18:20 03.06.2020
2132 Rain 23 1005 40 0 1.79 358 17:54 03.06.2020
2133 Rain 23 1006 38 0 1.79 7 17:36 03.06.2020
2134 Rain 23 1006 38 0 1.79 7 17:18 03.06.2020
2135 Rain 23 1006 33 0 1.79 7 16:41 03.06.2020
2136 Rain 23 1006 33 0 1.79 7 16:20 03.06.2020
2137 Rain 23 1006 33 0 1.79 7 15:55 03.06.2020
2138 Rain 23 1002 39 0 2.68 297 15:37 03.06.2020
2139 Clouds 24 1006 27 0 0.45 292 15:18 03.06.2020
2140 Clouds 22 1008 35 0 2.65 322 14:44 03.06.2020
2141 Clouds 23 1008 35 0 2.61 316 14:24 03.06.2020
2142 Clouds 23 1008 32 0 0.45 333 13:41 03.06.2020
2143 Clouds 23 1008 32 0 0.45 333 13:22 03.06.2020
2144 Clouds 23 1008 32 0 0.45 333 12:57 03.06.2020
2145 Clouds 22 906 35 0 2.64 306 12:39 03.06.2020
2146 Clouds 21 1008 19 0 1.88 305 12:19 03.06.2020
2147 Clouds 21 1008 19 0 1.88 305 12:19 03.06.2020
2148 Clouds 20 1009 56 10000 2.1 310 11:44 03.06.2020
2149 Clouds 21 1009 22 0 1.49 304 11:25 03.06.2020
2150 Clouds 20 1010 43 0 0.45 63 10:44 03.06.2020
2151 Clouds 20 1010 43 0 0.45 63 10:44 03.06.2020
2152 Clouds 20 1010 43 0 0.45 63 10:25 03.06.2020
2153 Clouds 20 1010 43 0 0.45 63 09:58 03.06.2020
2154 Clouds 18 1006 58 0 0.45 144 09:37 03.06.2020
2155 Clouds 15 1007 63 0 0.89 145 09:18 03.06.2020
2156 Clouds 12 1011 80 0 0.45 203 08:47 03.06.2020
2157 Clouds 12 1011 80 0 0.45 203 08:22 03.06.2020
2158 Clouds 11 1011 80 0 0.45 203 07:50 03.06.2020
2159 Clouds 9 1011 80 0 0.45 222 07:24 03.06.2020
2160 Clouds 9 1011 80 0 0.45 222 06:59 03.06.2020
2161 Clouds 9 1012 83 0 0.45 222 06:41 03.06.2020
2162 Clouds 8 1012 83 0 0.45 222 06:21 03.06.2020
2163 Clouds 9 1012 82 0 0.45 232 05:44 03.06.2020
2164 Clouds 9 1012 81 0 0.45 149 04:20 03.06.2020
2165 Clouds 10 1013 82 0 0.89 208 03:41 03.06.2020
2166 Clouds 10 1013 79 0 1.75 183 02:34 03.06.2020
2167 Clouds 11 1014 70 0 1.85 166 01:42 03.06.2020
2168 Clouds 12 1013 37 0 1.78 160 00:38 03.06.2020
2169 Clouds 12 933 66 0 1.56 156 00:19 03.06.2020
2170 Clouds 13 1013 63 10000 1 0 23:43 02.06.2020
2171 Clouds 13 1013 67 10000 1.5 0 23:24 02.06.2020
2172 Clouds 14 1013 63 10000 1.5 200 22:40 02.06.2020
2173 Clouds 14 1013 63 10000 1.5 200 22:19 02.06.2020
2174 Clouds 15 1013 63 10000 1.5 210 21:57 02.06.2020
2175 Clouds 16 1013 63 10000 1.5 210 21:39 02.06.2020
2176 Rain 18 933 45 0 1 61 21:21 02.06.2020
2177 Rain 18 933 45 0 1 61 21:21 02.06.2020
2178 Rain 18 933 42 0 1 61 20:59 02.06.2020
2179 Rain 19 1013 17 0 1 61 20:41 02.06.2020
2180 Rain 20 933 40 0 1.88 21 20:22 02.06.2020
2181 Rain 20 911 35 0 1.88 21 19:46 02.06.2020
2182 Rain 21 933 37 0 2.69 14 19:27 02.06.2020
2183 Rain 22 1013 47 10000 2.6 280 18:59 02.06.2020
2184 Rain 22 1013 47 10000 2.6 280 18:41 02.06.2020
2185 Rain 22 1014 41 10000 3.6 270 18:21 02.06.2020
2186 Rain 22 1014 38 10000 4.1 280 17:59 02.06.2020
2187 Rain 22 1014 38 10000 4.1 280 17:40 02.06.2020
2188 Rain 22 1014 38 10000 4.1 280 17:21 02.06.2020
2189 Rain 22 1015 38 10000 4.6 280 16:56 02.06.2020
2190 Rain 22 1015 38 10000 4.6 280 16:38 02.06.2020
2191 Rain 22 1015 40 10000 4.1 270 16:19 02.06.2020
2192 Rain 23 1015 13 0 1.79 41 15:41 02.06.2020
2193 Clouds 22 1016 40 10000 4.1 270 15:22 02.06.2020
2194 Clouds 22 1016 40 10000 4.1 270 14:49 02.06.2020
2195 Rain 22 1013 38 0 2.68 336 14:30 02.06.2020
2196 Clear 24 1013 43 0 2.24 348 13:57 02.06.2020
2197 Clear 22 1017 35 0 3.13 331 13:37 02.06.2020
2198 Clear 22 1017 35 0 3.13 331 13:19 02.06.2020
2199 Clear 22 1017 35 0 3.13 331 12:57 02.06.2020
2200 Clear 21 1017 39 0 1.79 12 12:39 02.06.2020
2201 Clear 21 1017 39 0 1.79 12 12:20 02.06.2020
2202 Clear 21 1017 39 0 1.79 12 11:54 02.06.2020
2203 Clear 20 1017 50 0 1.79 13 11:36 02.06.2020
2204 Clear 20 1017 50 0 1.79 13 11:18 02.06.2020
2205 Clear 18 1018 61 0 1.34 12 10:44 02.06.2020
2206 Clear 17 1018 61 0 1.34 12 10:25 02.06.2020
2207 Clear 16 1015 62 0 1.34 332 09:44 02.06.2020
2208 Clear 12 1018 86 0 1.83 9 09:22 02.06.2020
2209 Clear 12 1018 86 0 1.73 3 08:57 02.06.2020
2210 Clear 11 1018 86 0 1.73 3 08:36 02.06.2020
2211 Clear 10 1018 86 0 0.82 5 08:18 02.06.2020
2212 Clear 8 1018 87 0 0.82 5 07:39 02.06.2020
2213 Clear 8 1018 87 0 0.29 139 07:19 02.06.2020
2214 Clear 8 1018 88 0 0.45 199 06:43 02.06.2020
2215 Clear 8 1018 85 0 0.45 226 05:45 02.06.2020
2216 Clear 8 1018 85 0 0.45 226 04:52 02.06.2020
2217 Clear 9 1018 86 0 0.89 208 03:19 02.06.2020
2218 Clear 10 1019 80 0 0.45 210 02:18 02.06.2020
2219 Clear 11 1019 81 0 0.45 212 00:53 02.06.2020
2220 Clear 12 1018 26 0 1.34 62 00:22 02.06.2020
2221 Clear 13 938 60 0 1.74 132 23:39 01.06.2020
2222 Clear 13 938 58 0 1.69 126 23:21 01.06.2020
2223 Clear 13 938 57 0 1.69 126 22:58 01.06.2020
2224 Clear 13 1018 25 0 1.79 51 22:58 01.06.2020
2225 Clear 14 938 55 0 1.69 126 22:39 01.06.2020
2226 Clear 13 938 56 0 1.69 126 22:39 01.06.2020
2227 Clear 13 938 56 0 1.69 126 22:39 01.06.2020
2228 Clear 15 1018 24 0 1.79 24 22:19 01.06.2020
2229 Clear 15 1018 24 0 1.79 24 22:19 01.06.2020
2230 Clear 15 938 52 0 1.53 107 21:55 01.06.2020
2231 Clear 15 938 51 0 1.53 107 21:36 01.06.2020
2232 Clear 17 938 49 0 1.39 75 21:18 01.06.2020
2233 Clear 17 1018 18 0 1.34 54 20:43 01.06.2020
2234 Clouds 19 937 45 0 1.93 33 20:21 01.06.2020
2235 Clouds 20 937 43 0 1.79 180 19:59 01.06.2020
2236 Clouds 20 937 42 0 2.68 180 19:41 01.06.2020
2237 Clouds 21 937 41 0 0.45 157 19:20 01.06.2020
2238 Clouds 21 937 41 0 0.45 157 19:20 01.06.2020
2239 Clouds 21 937 40 0 0.89 225 18:58 01.06.2020
2240 Clouds 22 937 36 0 1.34 157 18:39 01.06.2020
2241 Rain 22 1017 16 0 2.24 47 18:19 01.06.2020
2242 Rain 22 1017 46 10000 3.6 270 17:42 01.06.2020
2243 Clouds 22 1018 13 0 2.68 50 17:22 01.06.2020
2244 Clouds 22 1018 13 0 2.24 26 16:58 01.06.2020
2245 Clouds 22 915 33 0 3.15 16 16:39 01.06.2020
2246 Clear 22 1018 13 0 1.79 58 16:19 01.06.2020
2247 Clear 21 1018 13 0 2.24 61 15:54 01.06.2020
2248 Clear 22 1018 43 0 0.89 329 15:36 01.06.2020
2249 Clear 22 1018 43 0 0.89 329 15:18 01.06.2020
2250 Clear 22 1018 43 0 0.89 329 15:18 01.06.2020
2251 Clear 22 1018 43 0 0.89 329 14:54 01.06.2020
2252 Clear 22 1016 41 0 2.24 59 14:36 01.06.2020
2253 Clear 22 915 33 0 3.28 16 14:18 01.06.2020
2254 Clear 21 1018 47 0 1.34 336 13:41 01.06.2020
2255 Clear 21 1018 47 0 1.34 336 13:21 01.06.2020
2256 Clear 20 1018 47 0 1.34 336 12:58 01.06.2020
2257 Clear 20 1018 48 0 1.34 8 12:39 01.06.2020
2258 Clear 19 1018 48 0 1.34 8 12:20 01.06.2020
2259 Clear 18 1019 53 0 0.89 31 11:42 01.06.2020
2260 Clear 17 1019 53 0 0.89 31 11:23 01.06.2020
2261 Clear 17 1019 53 0 0.89 31 10:59 01.06.2020
2262 Clear 14 1019 54 0 1.34 359 10:39 01.06.2020
2263 Clear 14 1019 54 0 1.34 359 10:20 01.06.2020
2264 Clear 14 1019 54 0 1.34 359 09:57 01.06.2020
2265 Clear 12 1019 67 0 0.45 61 09:39 01.06.2020
2266 Clear 12 1019 67 0 0.45 61 09:20 01.06.2020
2267 Clear 11 1019 67 0 0.45 61 08:50 01.06.2020
2268 Clear 8 1019 84 0 0.8 96 08:25 01.06.2020
2269 Clear 6 1019 86 0 0.45 244 07:45 01.06.2020
2270 Clear 5 1019 86 0 0.45 244 07:27 01.06.2020
2271 Clear 5 1019 86 0 0.45 244 06:58 01.06.2020
2272 Clear 5 1019 86 0 1.85 147 06:24 01.06.2020
2273 Clear 5 1019 86 0 1.85 147 05:53 01.06.2020
2274 Clear 5 1019 84 0 1.92 144 04:25 01.06.2020
2275 Clear 7 1019 81 0 0.45 214 03:47 01.06.2020
2276 Clear 7 1019 81 0 0.45 214 03:24 01.06.2020
2277 Clouds 8 1020 80 0 0.45 233 01:50 01.06.2020
2278 Clouds 9 1020 75 0 1.88 132 01:30 01.06.2020
2279 Clouds 9 1020 75 0 1.87 130 00:57 01.06.2020
2280 Clouds 10 938 57 0 1.87 130 00:39 01.06.2020
2281 Clouds 10 939 57 0 1.9 129 00:21 01.06.2020
2282 Clouds 10 1019 27 0 2.24 42 23:56 31.05.2020
2283 Clouds 10 1019 26 0 3.13 58 23:37 31.05.2020
2284 Clouds 11 1019 26 0 2.68 53 23:19 31.05.2020
2285 Clouds 12 1019 51 10000 2.1 60 22:43 31.05.2020
2286 Clouds 12 1019 26 0 1.79 58 22:25 31.05.2020
2287 Clouds 11 939 53 0 1.79 112 21:58 31.05.2020
2288 Clouds 13 938 50 0 1.79 112 21:39 31.05.2020
2289 Clouds 13 1019 22 0 1.34 42 21:21 31.05.2020
2290 Clouds 12 1018 19 0 1.79 53 20:48 31.05.2020
2291 Clouds 15 938 44 0 2.45 41 20:26 31.05.2020
2292 Clouds 13 938 43 0 2.45 41 19:59 31.05.2020
2293 Clouds 16 938 42 0 2.45 41 19:40 31.05.2020
2294 Clouds 17 1017 48 0 2.68 53 19:22 31.05.2020
2295 Clouds 17 937 40 0 0.89 157 18:59 31.05.2020
2296 Clouds 17 1018 41 0 0.89 350 18:41 31.05.2020
2297 Clouds 17 1018 41 0 0.89 350 18:22 31.05.2020
2298 Clouds 17 1018 43 0 1.79 2 17:43 31.05.2020
2299 Clouds 17 1018 43 0 1.79 2 17:24 31.05.2020
2300 Clouds 17 1017 39 0 3.13 311 16:43 31.05.2020
2301 Clouds 17 1017 39 0 3.13 311 16:23 31.05.2020
2302 Clouds 17 1017 39 0 3.13 311 15:59 31.05.2020
2303 Clouds 17 1017 38 0 3.13 333 15:38 31.05.2020
2304 Clouds 17 1017 38 0 3.13 333 15:20 31.05.2020
2305 Clouds 17 1018 45 10000 3.6 300 14:45 31.05.2020
2306 Clouds 18 1019 33 0 0.89 292 14:20 31.05.2020
2307 Clouds 18 1019 35 0 0.89 292 13:56 31.05.2020
2308 Clouds 18 1019 30 0 0.45 270 13:37 31.05.2020
2309 Clouds 18 1019 30 0 0.45 270 13:37 31.05.2020
2310 Clouds 18 1018 15 0 1.79 52 13:19 31.05.2020
2311 Clouds 17 1018 15 0 1.79 55 12:55 31.05.2020
2312 Clouds 17 1019 35 0 0.45 292 12:37 31.05.2020
2313 Clouds 17 1018 51 10000 3.1 290 12:18 31.05.2020
2314 Clouds 17 1018 51 10000 3.1 290 12:18 31.05.2020
2315 Clouds 15 1018 59 0 1.34 348 11:44 31.05.2020
2316 Clouds 15 1018 59 0 1.34 348 11:21 31.05.2020
2317 Clouds 14 1018 59 0 1.34 348 10:55 31.05.2020
2318 Clouds 12 1018 62 0 1.34 58 10:37 31.05.2020
2319 Clouds 11 1018 62 0 1.34 58 10:18 31.05.2020
2320 Clouds 9 1018 77 0 0.89 350 09:42 31.05.2020
2321 Clouds 9 1018 77 0 0.89 350 09:22 31.05.2020
2322 Clouds 9 1018 77 0 0.89 350 08:56 31.05.2020
2323 Clouds 7 1018 85 0 1.53 25 08:36 31.05.2020
2324 Clouds 6 1018 85 0 0.56 63 08:18 31.05.2020
2325 Clouds 4 1018 86 0 0.56 63 07:39 31.05.2020
2326 Clouds 4 1018 86 0 0.84 136 07:18 31.05.2020
2327 Clouds 4 1018 86 0 0.84 136 06:49 31.05.2020
2328 Clouds 4 1018 90 0 0.45 188 06:31 31.05.2020
2329 Clouds 4 1018 85 0 1.2 155 05:40 31.05.2020
2330 Clouds 4 1018 87 0 1.22 139 04:22 31.05.2020
2331 Clouds 5 1018 85 0 0.45 154 03:47 31.05.2020
2332 Clouds 5 1018 85 0 0.45 154 02:58 31.05.2020
2333 Clouds 6 1019 83 0 0.45 250 01:47 31.05.2020
2334 Clouds 7 1019 83 0 0.45 250 00:52 31.05.2020
2335 Clouds 9 1018 40 0 1.34 50 00:28 31.05.2020
2336 Clouds 9 1017 70 0 1.48 121 23:43 30.05.2020
2337 Clouds 9 938 66 0 1.42 116 23:25 30.05.2020
2338 Clouds 9 938 63 0 1.42 116 22:58 30.05.2020
2339 Clouds 10 938 61 0 1.42 116 22:40 30.05.2020
2340 Clouds 10 938 60 0 1.43 103 22:21 30.05.2020
2341 Clouds 11 938 59 0 1.43 103 21:55 30.05.2020
2342 Clouds 12 1019 57 0 0.89 343 21:36 30.05.2020
2343 Clouds 12 1019 57 0 0.89 343 21:18 30.05.2020
2344 Clouds 12 1019 57 0 0.89 343 20:54 30.05.2020
2345 Clouds 13 1018 56 0 1.34 346 20:36 30.05.2020
2346 Rain 12 1018 56 0 1.34 346 20:18 30.05.2020
2347 Rain 13 1018 53 0 1.34 298 19:41 30.05.2020
2348 Rain 13 1018 53 0 1.34 298 19:21 30.05.2020
2349 Rain 14 1018 50 0 3.58 330 18:44 30.05.2020
2350 Rain 14 1018 50 0 3.58 330 18:21 30.05.2020
2351 Rain 14 1018 47 0 1.79 324 17:43 30.05.2020
2352 Rain 15 1018 47 0 1.79 324 17:25 30.05.2020
2353 Rain 15 1018 47 0 1.79 324 16:59 30.05.2020
2354 Rain 15 1018 44 0 1.79 10 16:40 30.05.2020
2355 Clouds 15 1018 44 0 1.79 10 16:21 30.05.2020
2356 Clouds 16 1017 41 0 3.13 322 15:44 30.05.2020
2357 Clouds 16 1017 41 0 3.13 322 15:26 30.05.2020
2358 Clouds 17 1017 40 0 3.13 348 14:45 30.05.2020
2359 Clouds 17 1017 40 0 3.13 348 14:26 30.05.2020
2360 Clouds 16 1018 44 0 0.45 282 13:44 30.05.2020
2361 Clouds 16 1018 44 0 0.45 282 13:25 30.05.2020
2362 Clouds 15 1018 45 0 2.24 10 12:42 30.05.2020
2363 Clouds 15 1018 45 0 2.24 10 12:22 30.05.2020
2364 Clouds 15 1018 45 0 2.24 10 11:58 30.05.2020
2365 Clouds 15 1018 57 0 1.34 59 11:40 30.05.2020
2366 Clouds 15 1018 57 0 1.34 59 11:22 30.05.2020
2367 Clouds 14 1018 57 0 1.34 59 10:54 30.05.2020
2368 Clouds 13 1019 67 0 0.89 356 10:36 30.05.2020
2369 Clear 13 1019 67 0 0.89 356 10:18 30.05.2020
2370 Clear 11 1019 75 0 0.89 60 09:41 30.05.2020
2371 Clouds 10 1019 75 0 0.89 60 09:23 30.05.2020
2372 Clouds 6 1019 86 0 0.45 90 08:40 30.05.2020
2373 Clouds 6 1019 86 0 0.45 90 08:21 30.05.2020
2374 Clouds 6 1019 86 0 0.45 90 08:21 30.05.2020
2375 Clouds 5 1019 89 0 1.35 47 07:38 30.05.2020
2376 Clouds 5 1019 89 0 1.06 107 07:18 30.05.2020
2377 Clouds 4 1019 89 0 1.29 135 06:25 30.05.2020
2378 Clouds 4 1019 89 0 1.29 135 05:49 30.05.2020
2379 Clouds 5 1020 87 0 1.43 140 04:33 30.05.2020
2380 Clear 7 1020 83 0 0.45 241 02:34 30.05.2020
2381 Clear 7 1020 83 0 0.45 241 01:56 30.05.2020
2382 Clear 10 1019 38 0 3.58 90 00:44 30.05.2020
2383 Clear 10 939 74 0 1.86 123 00:23 30.05.2020
2384 Clear 10 1020 40 0 4.02 84 23:59 29.05.2020
2385 Clear 10 1020 40 0 4.02 47 23:38 29.05.2020
2386 Clear 10 940 71 0 1.93 115 23:19 29.05.2020
2387 Clear 11 1019 70 0 1.79 91 22:42 29.05.2020
2388 Clear 11 940 68 0 2 102 22:21 29.05.2020
2389 Clear 12 940 67 0 1.79 202 22:00 29.05.2020
2390 Clear 12 1020 54 0 0.89 346 21:39 29.05.2020
2391 Clear 13 1020 54 0 0.89 346 21:20 29.05.2020
2392 Clear 13 1020 54 0 0.89 346 20:56 29.05.2020
2393 Clear 14 1020 49 0 0.45 308 20:37 29.05.2020
2394 Clear 14 1020 49 0 0.45 308 20:37 29.05.2020
2395 Clouds 14 1020 49 0 0.45 308 20:18 29.05.2020
2396 Clouds 15 1020 47 0 1.34 255 19:42 29.05.2020
2397 Clouds 15 1020 47 0 1.34 255 19:24 29.05.2020
2398 Clouds 16 1020 47 0 1.34 255 18:48 29.05.2020
2399 Clouds 16 1020 47 0 2.24 323 18:22 29.05.2020
2400 Clouds 16 1020 47 0 2.24 323 17:58 29.05.2020
2401 Clouds 16 1020 43 0 2.24 318 17:38 29.05.2020
2402 Clouds 16 1020 43 0 2.24 318 17:20 29.05.2020
2403 Clouds 17 1020 41 0 1.34 88 16:46 29.05.2020
2404 Clear 17 1020 41 0 1.34 88 16:28 29.05.2020
2405 Clear 17 1020 41 0 1.34 88 15:58 29.05.2020
2406 Clear 16 1021 42 0 0.89 357 15:40 29.05.2020
2407 Clear 16 1021 42 0 0.89 357 15:20 29.05.2020
2408 Clear 16 1021 42 0 0.89 357 14:52 29.05.2020
2409 Clear 17 1021 38 0 1.34 321 14:25 29.05.2020
2410 Clear 17 1021 38 0 1.34 321 13:59 29.05.2020
2411 Clear 16 1022 44 0 0.89 347 13:41 29.05.2020
2412 Clear 16 1022 44 0 0.89 347 13:21 29.05.2020
2413 Clear 15 1022 44 0 2.68 350 12:45 29.05.2020
2414 Clear 15 1022 44 0 2.68 350 12:26 29.05.2020
2415 Clear 15 1022 44 0 2.68 350 11:58 29.05.2020
2416 Clear 14 1023 54 0 1.34 226 11:40 29.05.2020
2417 Clear 14 1023 54 0 1.34 226 11:22 29.05.2020
2418 Clear 12 1023 70 0 0.89 86 10:42 29.05.2020
2419 Clear 12 1023 70 0 0.89 86 10:21 29.05.2020
2420 Clear 10 1023 70 0 0.89 86 09:56 29.05.2020
2421 Clear 8 1024 81 0 0.89 111 09:37 29.05.2020
2422 Clear 8 1024 81 0 0.89 111 09:18 29.05.2020
2423 Clear 7 1024 99 0 1.74 65 08:44 29.05.2020
2424 Clouds 6 1024 99 0 1.46 97 08:22 29.05.2020
2425 Clouds 5 1024 99 0 1.46 97 07:46 29.05.2020
2426 Clouds 4 1024 99 0 1.72 127 07:28 29.05.2020
2427 Clouds 4 1024 99 0 1.72 127 06:52 29.05.2020
2428 Clouds 4 1024 99 0 0.45 297 06:30 29.05.2020
2429 Clouds 4 1024 99 0 0.45 297 05:58 29.05.2020
2430 Clouds 5 1024 96 0 0.45 79 04:53 29.05.2020
2431 Clouds 9 1025 73 0 0.45 45 01:48 29.05.2020
2432 Clouds 7 945 73 0 1.47 115 01:26 29.05.2020
2433 Clouds 8 945 71 0 1.47 115 00:50 29.05.2020
2434 Clouds 11 945 74 0 0.89 202 00:23 29.05.2020
2435 Clouds 9 945 67 0 0.89 157 23:41 28.05.2020
2436 Clouds 9 944 63 0 1.15 107 23:20 28.05.2020
2437 Clouds 9 944 58 0 1.15 107 22:59 28.05.2020
2438 Clouds 11 944 53 0 1.03 82 22:40 28.05.2020
2439 Clouds 11 944 52 0 1.03 82 22:20 28.05.2020
2440 Clouds 12 1025 27 0 0.89 50 21:55 28.05.2020
2441 Clouds 12 1025 87 0 1.34 139 21:36 28.05.2020
2442 Clouds 11 1025 87 0 1.34 139 21:18 28.05.2020
2443 Rain 12 1025 76 0 1.13 39 20:41 28.05.2020
2444 Rain 13 1025 76 0 1.73 16 20:20 28.05.2020
2445 Rain 13 1025 76 0 1.73 16 19:58 28.05.2020
2446 Rain 13 1025 77 0 1.79 135 19:40 28.05.2020
2447 Rain 13 1025 77 0 1.79 135 19:20 28.05.2020
2448 Rain 13 1025 77 0 1.79 135 18:55 28.05.2020
2449 Rain 13 1026 84 0 2.68 144 18:36 28.05.2020
2450 Rain 13 1026 84 0 2.68 144 18:18 28.05.2020
2451 Rain 13 1025 79 0 1.34 199 17:40 28.05.2020
2452 Rain 14 1025 79 0 1.34 199 17:21 28.05.2020
2453 Rain 13 1026 49 0 0.45 180 16:46 28.05.2020
2454 Rain 16 1025 27 0 1.96 352 16:21 28.05.2020
2455 Rain 16 1026 31 0 1.79 166 15:55 28.05.2020
2456 Rain 16 1027 52 0 0.45 247 15:36 28.05.2020
2457 Rain 16 1025 59 0 0.89 356 15:18 28.05.2020
2458 Rain 14 1025 68 0 0.89 69 14:42 28.05.2020
2459 Rain 14 1025 72 0 0.45 39 14:22 28.05.2020
2460 Rain 14 1025 72 0 0.45 39 14:22 28.05.2020
2461 Rain 17 1027 52 10000 2.1 280 13:46 28.05.2020
2462 Rain 17 1027 52 10000 2.1 280 13:27 28.05.2020
2463 Rain 17 1028 35 0 1.34 292 12:44 28.05.2020
2464 Rain 16 1028 63 10000 2.1 330 12:20 28.05.2020
2465 Clouds 17 1028 63 10000 1.5 310 11:57 28.05.2020
2466 Rain 16 1027 50 0 0.89 39 11:39 28.05.2020
2467 Rain 16 1027 50 0 0.89 39 11:20 28.05.2020
2468 Rain 15 1027 59 0 0.45 9 10:46 28.05.2020
2469 Rain 14 1027 59 0 0.45 9 10:28 28.05.2020
2470 Rain 14 1027 59 0 0.45 9 09:57 28.05.2020
2471 Rain 13 1027 58 0 0.45 225 09:38 28.05.2020
2472 Clouds 12 1027 58 0 0.45 225 09:18 28.05.2020
2473 Clouds 10 1028 77 0 0.45 212 08:44 28.05.2020
2474 Clouds 9 1028 77 0 0.45 212 08:24 28.05.2020
2475 Clouds 8 1028 78 0 0.45 212 07:43 28.05.2020
2476 Clouds 8 1028 78 0 0.45 212 07:23 28.05.2020
2477 Clouds 7 1027 82 0 0.89 168 06:45 28.05.2020
2478 Clouds 7 1027 83 0 1.34 146 06:27 28.05.2020
2479 Clouds 6 1027 82 0 2.24 162 05:39 28.05.2020
2480 Clouds 7 1028 80 0 0.45 189 04:38 28.05.2020
2481 Clouds 6 1028 80 0 0.45 189 04:18 28.05.2020
2482 Clouds 6 1029 79 0 0.45 221 02:59 28.05.2020
2483 Clouds 7 1027 82 0 1.03 194 02:38 28.05.2020
2484 Clouds 8 1029 72 0 0.45 259 01:45 28.05.2020
2485 Clouds 8 1029 72 0 0.45 259 00:49 28.05.2020
2486 Clear 9 948 64 0 0.91 167 00:20 28.05.2020
2487 Clear 9 948 62 0 0.91 167 23:56 27.05.2020
2488 Clear 9 1029 40 0 0.91 167 23:37 27.05.2020
2489 Clear 9 948 61 0 0.96 155 23:19 27.05.2020
2490 Clear 10 948 55 0 0.96 155 22:41 27.05.2020
2491 Clear 11 948 53 0 0.63 130 22:23 27.05.2020
2492 Clear 13 1028 55 0 0.63 130 21:56 27.05.2020
2493 Clear 14 948 47 0 0.63 130 21:38 27.05.2020
2494 Clear 12 948 46 0 1.16 30 21:20 27.05.2020
2495 Clear 13 1029 24 0 1.16 30 20:58 27.05.2020
2496 Clear 13 1029 24 0 1.16 30 20:58 27.05.2020
2497 Clear 17 948 40 0 2.02 11 20:39 27.05.2020
2498 Clear 17 948 39 0 2.02 11 20:19 27.05.2020
2499 Clear 16 948 38 0 0.45 225 19:45 27.05.2020
2500 Clear 17 948 36 0 0.89 202 19:21 27.05.2020
2501 Clear 20 1029 42 10000 3.6 270 18:45 27.05.2020
2502 Clear 21 1027 41 0 2.68 355 18:21 27.05.2020
2503 Clear 21 925 35 0 2.98 10 17:59 27.05.2020
2504 Clear 21 1028 14 0 1.79 50 17:40 27.05.2020
2505 Clouds 21 1028 14 0 1.34 35 17:22 27.05.2020
2506 Clouds 21 1030 37 10000 3.6 280 16:56 27.05.2020
2507 Clouds 21 925 35 0 2.93 13 16:38 27.05.2020
2508 Clouds 20 1028 38 0 2.24 36 16:19 27.05.2020
2509 Clouds 19 1028 38 0 3.13 13 15:47 27.05.2020
2510 Clear 19 1029 37 0 3.13 270 15:22 27.05.2020
2511 Clear 19 1029 37 0 3.13 270 14:46 27.05.2020
2512 Clear 19 1029 37 0 3.13 270 14:22 27.05.2020
2513 Clear 19 1029 37 0 3.13 270 13:58 27.05.2020
2514 Clear 19 1029 42 0 1.79 34 13:39 27.05.2020
2515 Clear 19 1028 42 0 2.68 356 13:39 27.05.2020
2516 Clear 19 1029 42 0 2.24 302 13:21 27.05.2020
2517 Clear 18 1029 42 0 1.34 343 12:42 27.05.2020
2518 Clear 18 1029 45 0 2.68 355 12:23 27.05.2020
2519 Clear 17 1029 46 0 2.24 326 11:56 27.05.2020
2520 Clear 17 1030 51 0 2.68 309 11:36 27.05.2020
2521 Clear 16 1029 47 0 2.24 317 11:18 27.05.2020
2522 Clear 15 1030 51 0 1.34 303 10:43 27.05.2020
2523 Clouds 13 1030 65 0 0.89 121 10:24 27.05.2020
2524 Clouds 12 1030 65 0 0.89 121 09:57 27.05.2020
2525 Clouds 12 1030 65 0 0.89 121 09:57 27.05.2020
2526 Clouds 12 1030 65 0 0.89 121 09:39 27.05.2020
2527 Clouds 10 1030 65 0 0.89 121 09:20 27.05.2020
2528 Clouds 8 1030 70 0 0.45 142 08:42 27.05.2020
2529 Clouds 9 1030 77 0 0.45 142 08:24 27.05.2020
2530 Clouds 8 1030 85 0 0.89 142 07:53 27.05.2020
2531 Clouds 7 1030 86 0 0.89 143 07:34 27.05.2020
2532 Clouds 6 1030 88 0 0.89 149 06:55 27.05.2020
2533 Clouds 4 1030 88 0 1.34 143 06:30 27.05.2020
2534 Clouds 5 1031 87 0 0.89 137 05:50 27.05.2020
2535 Clouds 5 1030 87 0 0.45 137 05:25 27.05.2020
2536 Clouds 5 1031 84 0 0.89 207 03:39 27.05.2020
2537 Clouds 8 1032 70 0 2.68 45 02:30 27.05.2020
2538 Clouds 9 1032 67 0 1.79 45 01:32 27.05.2020
2539 Clouds 9 951 74 0 2.01 136 00:50 27.05.2020
2540 Clouds 9 951 72 0 1.84 125 00:24 27.05.2020
2541 Clouds 9 951 70 0 1.84 125 23:59 26.05.2020
2542 Clouds 10 1031 42 0 1.34 46 23:40 26.05.2020
2543 Clouds 10 1031 43 0 1.79 60 23:22 26.05.2020
2544 Clouds 10 1032 39 0 0.89 51 22:58 26.05.2020
2545 Clouds 9 1032 38 0 1.34 44 22:37 26.05.2020
2546 Clear 11 951 63 0 1.45 88 22:19 26.05.2020
2547 Clear 10 951 61 0 0.45 180 21:55 26.05.2020
2548 Clear 10 951 61 0 0.89 157 21:55 26.05.2020
2549 Clouds 12 951 59 0 1.79 157 21:36 26.05.2020
2550 Clear 13 950 57 0 1.73 52 21:18 26.05.2020
2551 Clear 14 1031 25 0 1.34 53 20:42 26.05.2020
2552 Clear 14 1031 25 0 1.34 53 20:42 26.05.2020
2553 Clouds 15 1030 45 0 0.89 348 20:20 26.05.2020
2554 Clouds 15 1030 45 0 0.89 348 19:55 26.05.2020
2555 Clouds 15 1030 45 0 0.89 348 19:55 26.05.2020
2556 Clouds 16 1030 45 0 0.89 348 19:36 26.05.2020
2557 Clouds 16 1030 45 0 0.89 348 19:18 26.05.2020
2558 Clouds 16 1030 45 0 0.89 348 19:18 26.05.2020
2559 Clouds 18 950 42 0 3.14 15 18:40 26.05.2020
2560 Clouds 17 1030 48 0 3.58 340 18:21 26.05.2020
2561 Clouds 18 1029 47 0 3.58 323 17:42 26.05.2020
2562 Clouds 18 1029 47 0 3.58 323 17:24 26.05.2020
2563 Clouds 18 1030 17 0 1.34 274 16:57 26.05.2020
2564 Clouds 17 1030 24 0 1.34 57 16:39 26.05.2020
2565 Clouds 18 1030 42 0 1.79 328 16:18 26.05.2020
2566 Clouds 18 1030 42 0 1.79 328 15:42 26.05.2020
2567 Clouds 17 1030 42 0 1.79 328 15:20 26.05.2020
2568 Clouds 17 1030 42 0 1.79 328 14:56 26.05.2020
2569 Clouds 18 1030 24 0 0.89 166 14:37 26.05.2020
2570 Clouds 19 927 36 0 3.08 8 14:19 26.05.2020
2571 Clouds 18 1031 23 0 3.08 8 13:41 26.05.2020
2572 Clouds 18 1030 23 0 1.34 138 13:23 26.05.2020
2573 Clouds 18 1030 23 0 1.34 46 12:56 26.05.2020
2574 Clouds 18 1025 37 0 1.34 25 12:37 26.05.2020
2575 Clouds 16 1030 50 0 2.24 13 12:19 26.05.2020
2576 Clouds 15 1030 50 0 2.24 13 11:41 26.05.2020
2577 Clouds 15 1030 50 0 2.24 13 11:20 26.05.2020
2578 Clouds 15 1030 50 0 2.24 13 10:57 26.05.2020
2579 Clouds 13 1031 70 0 2.25 6 10:37 26.05.2020
2580 Clear 13 1031 70 0 2.04 9 10:18 26.05.2020
2581 Clear 12 1031 83 0 0.45 83 09:38 26.05.2020
2582 Clear 9 1031 83 0 0.45 83 09:19 26.05.2020
2583 Clear 9 1031 87 0 1.6 13 08:41 26.05.2020
2584 Clear 8 1031 87 0 0.77 26 08:22 26.05.2020
2585 Clear 7 1030 89 0 0.45 215 07:43 26.05.2020
2586 Clear 7 1030 89 0 0.45 215 07:23 26.05.2020
2587 Clear 6 1030 89 0 0.45 215 06:54 26.05.2020
2588 Clear 6 1030 90 0 0.45 157 06:31 26.05.2020
2589 Clear 6 1030 87 0 1.12 166 05:44 26.05.2020
2590 Clear 5 1030 87 0 1.23 160 05:25 26.05.2020
2591 Clear 6 1030 87 0 1.23 160 04:49 26.05.2020
2592 Clear 6 949 83 0 1.23 160 04:30 26.05.2020
2593 Clouds 6 949 81 0 1.17 155 03:50 26.05.2020
2594 Clouds 7 1031 91 0 0.94 154 02:40 26.05.2020
2595 Clouds 7 1031 70 0 0.47 115 01:47 26.05.2020
2596 Clouds 9 1031 66 0 0.89 26 00:48 26.05.2020
2597 Clouds 9 950 75 0 0.5 53 00:29 26.05.2020
2598 Rain 9 1031 62 0 0.77 26 23:59 25.05.2020
2599 Rain 9 950 70 0 0.77 26 23:39 25.05.2020
2600 Rain 10 950 70 0 0.8 11 23:20 25.05.2020
2601 Rain 11 950 69 0 0.8 11 22:56 25.05.2020
2602 Rain 11 950 69 0 0.8 11 22:56 25.05.2020
2603 Rain 11 1031 49 0 0.89 30 22:38 25.05.2020
2604 Rain 11 950 66 0 0.73 357 22:20 25.05.2020
2605 Rain 12 950 63 0 0.73 357 21:59 25.05.2020
2606 Clouds 12 1031 67 10000 1 0 21:39 25.05.2020
2607 Rain 13 949 60 0 1.06 352 21:20 25.05.2020
2608 Rain 14 949 59 0 1.06 352 20:59 25.05.2020
2609 Rain 14 1030 57 0 2.68 344 20:41 25.05.2020
2610 Rain 14 1030 57 0 2.24 348 20:20 25.05.2020
2611 Rain 15 949 54 0 1.78 344 19:57 25.05.2020
2612 Rain 15 949 54 0 1.78 344 19:57 25.05.2020
2613 Rain 15 1029 53 0 1.34 26 19:38 25.05.2020
2614 Rain 15 1029 53 0 1.34 26 19:18 25.05.2020
2615 Rain 16 1029 59 0 0.89 5 18:43 25.05.2020
2616 Rain 16 1029 58 0 1.34 340 18:22 25.05.2020
2617 Rain 16 1029 55 0 2.68 290 17:56 25.05.2020
2618 Rain 16 1030 54 0 0.89 6 17:38 25.05.2020
2619 Rain 16 1030 54 0 0.89 6 17:19 25.05.2020
2620 Rain 15 1030 54 0 0.45 25 16:41 25.05.2020
2621 Rain 15 1030 54 0 0.45 25 16:23 25.05.2020
2622 Rain 15 1030 54 0 0.45 25 15:58 25.05.2020
2623 Rain 16 1030 53 0 1.79 55 15:40 25.05.2020
2624 Rain 16 1030 53 0 1.79 55 15:18 25.05.2020
2625 Rain 16 1030 53 0 1.79 55 15:18 25.05.2020
2626 Rain 15 1030 59 0 1.34 359 14:43 25.05.2020
2627 Rain 15 1030 59 0 1.34 359 14:24 25.05.2020
2628 Rain 15 1030 59 0 1.34 359 13:57 25.05.2020
2629 Rain 14 1030 59 0 1.34 1 13:38 25.05.2020
2630 Rain 14 1030 59 0 1.34 1 13:19 25.05.2020
2631 Rain 13 1030 59 0 1.34 1 12:54 25.05.2020
2632 Rain 13 1030 65 0 2.32 328 12:36 25.05.2020
2633 Rain 13 1030 65 0 2.33 330 12:18 25.05.2020
2634 Rain 12 1030 63 0 0.89 304 11:38 25.05.2020
2635 Rain 12 1030 63 0 0.89 304 11:19 25.05.2020
2636 Rain 13 1030 58 0 2.09 331 10:44 25.05.2020
2637 Clouds 12 1030 58 0 1.46 325 10:21 25.05.2020
2638 Clouds 12 1030 58 0 1.46 325 09:59 25.05.2020
2639 Clouds 12 1030 70 0 0.45 337 09:40 25.05.2020
2640 Clouds 11 1030 74 0 0.45 128 09:19 25.05.2020
2641 Clouds 11 1030 74 0 0.45 128 09:19 25.05.2020
2642 Clouds 10 1030 74 0 0.45 128 08:58 25.05.2020
2643 Clouds 10 1030 76 0 0.45 128 08:36 25.05.2020
2644 Clouds 11 1032 77 0 0.89 202 08:18 25.05.2020
2645 Clouds 9 1030 77 0 0.93 321 07:43 25.05.2020
2646 Clouds 9 1030 77 0 0.42 261 07:21 25.05.2020
2647 Clouds 9 1030 77 0 0.42 261 06:50 25.05.2020
2648 Clouds 9 1031 62 0 0.42 261 06:31 25.05.2020
2649 Clouds 10 1032 81 10000 0.5 0 04:18 25.05.2020
2650 Clouds 9 1030 54 0 0.46 193 03:23 25.05.2020
2651 Clouds 10 1030 55 0 0.46 193 02:45 25.05.2020
2652 Clouds 10 1032 81 10000 1.5 200 01:54 25.05.2020
2653 Clouds 10 1032 76 10000 1.5 230 01:28 25.05.2020
2654 Clouds 9 1031 51 0 0.86 212 00:38 25.05.2020
2655 Clouds 10 949 63 0 0.84 223 00:19 25.05.2020
2656 Clouds 11 1031 49 0 0.84 223 23:55 24.05.2020
2657 Clouds 10 1031 49 0 0.84 223 23:36 24.05.2020
2658 Clouds 11 1030 47 0 0.72 242 23:18 24.05.2020
2659 Clouds 11 1030 41 0 0.72 242 22:41 24.05.2020
2660 Rain 11 1032 65 0 8.05 112 22:19 24.05.2020
2661 Rain 11 1030 40 0 0.86 244 21:56 24.05.2020
2662 Rain 11 1030 40 0 0.86 244 21:56 24.05.2020
2663 Rain 11 1030 36 0 0.93 282 21:38 24.05.2020
2664 Rain 12 948 53 0 0.93 282 21:19 24.05.2020
2665 Rain 14 1030 47 0 1.34 203 20:44 24.05.2020
2666 Clouds 14 1030 47 0 1.34 203 20:23 24.05.2020
2667 Clouds 16 1029 24 0 0.89 197 19:59 24.05.2020
2668 Clouds 13 1029 22 0 1.34 170 19:41 24.05.2020
2669 Clouds 16 1029 19 0 1.34 251 19:19 24.05.2020
2670 Clouds 16 1029 19 0 1.34 251 19:19 24.05.2020
2671 Clouds 14 1029 22 0 3.13 227 18:57 24.05.2020
2672 Clouds 14 1029 21 0 1.79 239 18:38 24.05.2020
2673 Clouds 17 948 39 0 3.55 289 18:20 24.05.2020
2674 Clouds 16 1032 39 0 0.89 292 17:41 24.05.2020
2675 Clouds 16 1032 38 0 0.89 180 17:22 24.05.2020
2676 Clouds 16 1032 35 0 0.89 180 16:57 24.05.2020
2677 Clouds 16 1029 34 0 0.89 214 16:38 24.05.2020
2678 Clear 16 1029 34 0 0.89 214 16:20 24.05.2020
2679 Clear 16 1029 34 0 0.89 214 15:57 24.05.2020
2680 Clear 15 1029 34 0 2.24 235 15:38 24.05.2020
2681 Clear 15 1029 34 0 2.24 235 15:19 24.05.2020
2682 Clear 15 1029 36 0 1.34 225 14:46 24.05.2020
2683 Clouds 15 1029 36 0 1.34 225 14:24 24.05.2020
2684 Clouds 15 1029 36 0 1.34 225 13:59 24.05.2020
2685 Clouds 14 1030 39 0 1.34 234 13:41 24.05.2020
2686 Clouds 14 1030 39 0 1.34 234 13:21 24.05.2020
2687 Clouds 14 1030 39 0 1.34 234 12:59 24.05.2020
2688 Clouds 13 1030 43 0 0.45 149 12:40 24.05.2020
2689 Clouds 13 1030 43 0 0.45 149 12:22 24.05.2020
2690 Clouds 13 1030 43 0 0.45 149 11:59 24.05.2020
2691 Clouds 13 1030 48 0 0.45 157 11:41 24.05.2020
2692 Clouds 13 1030 48 0 0.45 157 11:41 24.05.2020
2693 Clouds 13 1030 48 0 0.45 157 11:22 24.05.2020
2694 Clouds 12 1030 48 0 0.45 157 10:56 24.05.2020
2695 Clouds 12 1030 48 0 0.45 157 10:56 24.05.2020
2696 Clouds 12 1030 55 0 0.45 150 10:37 24.05.2020
2697 Clouds 12 1030 55 0 0.45 150 10:19 24.05.2020
2698 Clouds 9 1031 81 0 1.85 288 09:41 24.05.2020
2699 Clouds 7 1031 81 0 1.4 293 09:18 24.05.2020
2700 Clouds 7 1031 81 0 1.39 294 08:56 24.05.2020
2701 Clouds 6 1030 91 0 0.45 193 08:38 24.05.2020
2702 Clouds 6 1030 91 0 0.45 193 08:19 24.05.2020
2703 Clouds 6 1030 91 0 1.06 241 07:44 24.05.2020
2704 Clouds 5 1030 91 0 1.38 208 07:25 24.05.2020
2705 Clouds 5 1030 91 0 1.38 208 06:49 24.05.2020
2706 Clouds 4 1030 95 0 0.45 227 06:29 24.05.2020
2707 Clouds 5 1030 94 0 0.89 96 04:54 24.05.2020
2708 Clouds 6 1029 91 0 0.95 229 03:41 24.05.2020
2709 Clouds 6 1029 90 0 1.14 256 02:42 24.05.2020
2710 Clouds 7 1030 90 0 1.24 286 01:46 24.05.2020
2711 Rain 8 1028 89 0 0.89 314 00:39 24.05.2020
2712 Rain 8 1028 90 0 2.24 342 00:21 24.05.2020
2713 Rain 9 1028 90 0 0.89 120 23:44 23.05.2020
2714 Rain 9 1028 90 0 0.89 120 23:24 23.05.2020
2715 Rain 9 1028 90 0 0.89 120 22:58 23.05.2020
2716 Rain 9 1028 95 0 1.79 298 22:38 23.05.2020
2717 Rain 9 1028 95 0 1.79 298 22:20 23.05.2020
2718 Rain 9 1028 95 0 1.79 298 21:57 23.05.2020
2719 Rain 9 1026 91 0 2.68 355 21:38 23.05.2020
2720 Rain 9 1026 91 0 4.02 347 21:20 23.05.2020
2721 Rain 9 1026 91 0 4.02 354 21:20 23.05.2020
2722 Rain 9 1026 90 0 3.58 346 21:20 23.05.2020
2723 Rain 9 1025 91 0 3.13 346 20:58 23.05.2020
2724 Rain 9 1028 87 0 1.86 305 20:38 23.05.2020
2725 Rain 10 1028 85 0 1.34 292 20:19 23.05.2020
2726 Rain 10 946 86 0 1.64 275 19:42 23.05.2020
2727 Rain 10 946 86 0 1.27 258 19:20 23.05.2020
2728 Rain 10 1027 86 0 1.27 258 18:58 23.05.2020
2729 Rain 9 1025 89 0 0.89 88 18:40 23.05.2020
2730 Rain 9 1025 89 0 0.89 88 18:21 23.05.2020
2731 Rain 9 1025 89 0 0.89 88 17:55 23.05.2020
2732 Rain 10 1028 95 0 4.02 183 17:37 23.05.2020
2733 Rain 10 1028 95 0 4.02 183 17:19 23.05.2020
2734 Rain 11 1028 95 0 4.02 183 16:56 23.05.2020
2735 Rain 12 1024 92 0 1.79 288 16:37 23.05.2020
2736 Rain 13 1024 92 0 1.79 288 16:18 23.05.2020
2737 Rain 13 1020 89 0 3.13 300 15:42 23.05.2020
2738 Rain 14 1019 86 0 4.02 324 15:23 23.05.2020
2739 Rain 17 1018 74 0 4.02 344 14:55 23.05.2020
2740 Rain 15 1022 66 0 1.34 300 14:37 23.05.2020
2741 Rain 19 1022 59 0 2.68 292 14:19 23.05.2020
2742 Rain 22 917 40 0 4.12 290 13:40 23.05.2020
2743 Rain 22 1021 43 0 1.34 292 13:19 23.05.2020
2744 Rain 23 1019 24 0 2.24 264 12:55 23.05.2020
2745 Rain 23 1020 47 0 2.68 350 12:36 23.05.2020
2746 Rain 22 1020 47 0 2.68 350 12:18 23.05.2020
2747 Rain 22 1021 45 0 0.45 189 11:42 23.05.2020
2748 Rain 22 1021 45 0 0.45 189 11:20 23.05.2020
2749 Rain 22 1021 45 0 0.45 189 10:56 23.05.2020
2750 Rain 20 1022 62 0 1.34 278 10:38 23.05.2020
2751 Rain 20 1022 62 0 1.34 278 10:19 23.05.2020
2752 Rain 19 1022 62 0 1.34 278 09:55 23.05.2020
2753 Rain 20 1018 64 0 1.34 357 09:37 23.05.2020
2754 Clouds 19 1022 34 0 1.4 174 09:18 23.05.2020
2755 Clouds 18 1022 37 0 1.4 174 08:41 23.05.2020
2756 Clouds 18 1022 40 0 1.81 175 08:19 23.05.2020
2757 Clouds 15 1022 65 0 1.81 175 07:45 23.05.2020
2758 Clouds 15 1022 65 0 1.84 188 07:27 23.05.2020
2759 Clouds 15 1023 68 0 0.45 227 06:44 23.05.2020
2760 Clouds 15 1023 68 0 0.45 227 05:59 23.05.2020
2761 Clouds 19 1022 56 10000 1 0 04:25 23.05.2020
2762 Rain 20 1023 56 10000 1 0 03:26 23.05.2020
2763 Rain 15 1024 60 0 0.45 278 02:40 23.05.2020
2764 Rain 15 1024 60 0 0.45 278 01:50 23.05.2020
2765 Clouds 20 1023 56 10000 2.6 240 01:18 23.05.2020
2766 Rain 19 942 47 0 2.41 204 00:42 23.05.2020
2767 Rain 18 942 45 0 3.04 169 00:19 23.05.2020
2768 Rain 18 1024 53 0 3.04 169 23:44 22.05.2020
2769 Rain 18 1024 53 0 2.43 191 23:22 22.05.2020
2770 Rain 18 1024 53 0 2.43 191 22:59 22.05.2020
2771 Rain 20 942 38 0 2.43 191 22:40 22.05.2020
2772 Clouds 20 1022 60 10000 1 0 22:20 22.05.2020
2773 Clouds 21 1022 52 10000 2.1 210 21:48 22.05.2020
2774 Clouds 21 942 38 0 1.36 251 21:24 22.05.2020
2775 Clouds 21 942 40 0 1.36 251 20:59 22.05.2020
2776 Clouds 21 1023 17 0 1.79 162 20:41 22.05.2020
2777 Clouds 21 1023 17 0 1.79 162 20:41 22.05.2020
2778 Clouds 21 941 39 0 1.18 234 20:20 22.05.2020
2779 Clouds 21 920 36 0 1.18 234 19:45 22.05.2020
2780 Clouds 22 1022 19 0 1.44 291 19:26 22.05.2020
2781 Clouds 22 1023 16 0 0.89 205 18:55 22.05.2020
2782 Clouds 23 920 37 0 2.73 288 18:37 22.05.2020
2783 Clouds 22 1020 53 0 0.45 245 18:37 22.05.2020
2784 Clouds 22 1023 13 0 1.79 174 18:19 22.05.2020
2785 Clouds 22 920 37 0 2.73 288 17:40 22.05.2020
2786 Clouds 23 1023 13 0 1.34 176 17:20 22.05.2020
2787 Clouds 23 920 38 0 3.11 292 16:57 22.05.2020
2788 Clouds 23 1023 15 0 0.89 284 16:39 22.05.2020
2789 Clouds 24 1023 15 0 1.79 232 16:19 22.05.2020
2790 Clouds 24 1023 18 0 1.34 236 15:42 22.05.2020
2791 Clouds 24 1021 29 0 1.79 225 15:22 22.05.2020
2792 Clouds 24 1021 30 0 3.13 271 14:56 22.05.2020
2793 Clouds 23 1025 34 0 0.45 292 14:38 22.05.2020
2794 Clouds 23 1023 19 0 1.34 207 14:20 22.05.2020
2795 Clouds 23 1025 37 0 0.89 292 13:41 22.05.2020
2796 Clouds 23 1023 21 0 1.34 194 13:19 22.05.2020
2797 Clouds 22 1023 21 0 1.34 174 12:43 22.05.2020
2798 Clouds 22 1023 21 0 1.34 174 12:43 22.05.2020
2799 Clouds 23 1021 51 0 1.34 284 12:24 22.05.2020
2800 Clouds 22 1025 37 0 0.45 292 11:45 22.05.2020
2801 Clouds 22 1020 59 0 2.24 295 11:22 22.05.2020
2802 Clouds 21 1023 22 0 1.33 290 10:59 22.05.2020
2803 Clouds 21 1023 54 0 0.45 344 10:39 22.05.2020
2804 Clouds 20 1023 54 0 0.45 344 10:20 22.05.2020
2805 Clouds 19 1023 54 0 0.45 344 09:55 22.05.2020
2806 Clouds 16 1023 60 0 0.88 280 09:36 22.05.2020
2807 Clouds 16 1023 60 0 0.65 222 09:18 22.05.2020
2808 Clouds 12 1023 79 0 0.45 169 08:41 22.05.2020
2809 Clouds 11 1023 79 0 0.45 169 08:19 22.05.2020
2810 Clouds 11 1023 79 0 0.45 169 07:52 22.05.2020
2811 Clouds 10 1023 84 0 0.45 225 07:23 22.05.2020
2812 Clouds 9 1023 84 0 0.45 225 06:52 22.05.2020
2813 Clear 9 1023 85 0 0.89 145 06:29 22.05.2020
2814 Clear 9 1023 85 0 0.89 209 05:37 22.05.2020
2815 Clear 9 1023 85 0 0.89 209 04:49 22.05.2020
2816 Clear 10 1023 82 0 0.45 190 03:52 22.05.2020
2817 Clear 10 1023 82 0 0.45 190 03:33 22.05.2020
2818 Clear 11 1023 81 0 0.45 178 02:35 22.05.2020
2819 Clear 11 1023 78 0 0.45 210 01:43 22.05.2020
2820 Clear 10 1023 78 0 0.45 210 01:21 22.05.2020
2821 Clear 12 942 73 0 2.05 187 00:34 22.05.2020
2822 Clear 12 942 69 0 1.65 191 23:57 21.05.2020
2823 Clear 12 1022 48 0 1.65 191 23:39 21.05.2020
2824 Clear 14 942 67 0 1.4 188 23:21 21.05.2020
2825 Clear 13 1022 72 10000 1 0 22:57 21.05.2020
2826 Clear 15 1022 55 10000 1 0 22:37 21.05.2020
2827 Clear 15 1021 63 10000 1.5 0 22:19 21.05.2020
2828 Clear 16 1021 63 10000 1.5 210 21:47 21.05.2020
2829 Rain 16 941 55 0 0.53 52 21:27 21.05.2020
2830 Rain 17 941 50 0 0.53 52 20:57 21.05.2020
2831 Rain 19 1021 27 0 1.34 52 20:39 21.05.2020
2832 Rain 19 1021 20 0 1.21 12 20:20 21.05.2020
2833 Rain 20 940 43 0 0.45 157 19:40 21.05.2020
2834 Rain 19 940 42 0 1.79 180 19:19 21.05.2020
2835 Rain 21 940 41 0 1.82 345 18:56 21.05.2020
2836 Rain 22 1021 43 10000 3.1 270 18:36 21.05.2020
2837 Rain 23 1021 43 10000 3.1 270 18:18 21.05.2020
2838 Rain 22 1020 38 0 2.24 317 17:43 21.05.2020
2839 Clear 22 1020 38 0 2.24 317 17:25 21.05.2020
2840 Clear 22 1020 38 0 2.68 343 16:48 21.05.2020
2841 Clear 22 1020 38 0 2.68 343 16:27 21.05.2020
2842 Clear 22 1020 38 0 2.68 343 15:58 21.05.2020
2843 Clear 22 1020 39 0 2.68 307 15:39 21.05.2020
2844 Clear 22 1020 39 0 2.68 307 15:20 21.05.2020
2845 Clear 21 1021 40 0 0.89 337 14:41 21.05.2020
2846 Clouds 21 1021 40 0 0.89 337 14:22 21.05.2020
2847 Clouds 21 1021 38 0 0.45 43 13:43 21.05.2020
2848 Clouds 21 1021 38 0 0.45 43 13:23 21.05.2020
2849 Clouds 21 1021 38 0 0.45 43 12:59 21.05.2020
2850 Clouds 21 1021 47 0 1.34 58 12:38 21.05.2020
2851 Clouds 21 1021 47 0 1.34 58 12:19 21.05.2020
2852 Clouds 21 1021 47 0 1.34 58 12:19 21.05.2020
2853 Clouds 20 1021 47 0 1.34 58 11:55 21.05.2020
2854 Clouds 19 1021 51 0 0.45 328 11:37 21.05.2020
2855 Clouds 19 1021 51 0 0.45 328 11:19 21.05.2020
2856 Clouds 17 1021 52 0 0.45 150 10:39 21.05.2020
2857 Clouds 17 1021 52 0 0.45 150 10:21 21.05.2020
2858 Clouds 17 1021 52 0 0.45 150 09:56 21.05.2020
2859 Clouds 15 1021 64 0 1.79 8 09:38 21.05.2020
2860 Clouds 15 1021 64 0 1.16 15 09:20 21.05.2020
2861 Clouds 11 1021 83 0 1.18 355 08:48 21.05.2020
2862 Clouds 10 1021 83 0 0.17 202 08:29 21.05.2020
2863 Clouds 8 1021 83 0 0.17 202 07:49 21.05.2020
2864 Clouds 8 1021 87 0 0.45 220 07:27 21.05.2020
2865 Clouds 7 1021 87 0 0.45 220 06:54 21.05.2020
2866 Clouds 7 1021 91 0 1.67 165 06:23 21.05.2020
2867 Clouds 7 1021 88 0 0.45 174 05:37 21.05.2020
2868 Clouds 8 1021 86 0 0.45 216 03:22 21.05.2020
2869 Clouds 8 1021 86 0 0.45 216 03:22 21.05.2020
2870 Clouds 8 1021 86 0 0.45 216 02:49 21.05.2020
2871 Clouds 9 1021 84 0 1.48 148 02:30 21.05.2020
2872 Clear 10 1021 78 0 0.45 215 01:47 21.05.2020
2873 Clear 10 1021 78 0 0.45 215 01:21 21.05.2020
2874 Clear 10 1021 78 0 0.45 215 00:52 21.05.2020
2875 Clear 11 1021 54 0 1.24 138 00:23 21.05.2020
2876 Clear 11 940 74 0 1.24 138 23:44 20.05.2020
2877 Clear 11 940 72 0 1.14 133 23:21 20.05.2020
2878 Clear 11 940 69 0 1.14 133 22:58 20.05.2020
2879 Clear 12 940 67 0 1.14 133 22:39 20.05.2020
2880 Clear 12 940 65 0 1.11 126 22:21 20.05.2020
2881 Clear 12 940 65 0 1.11 126 22:21 20.05.2020
2882 Clouds 14 1020 37 0 0.89 45 21:40 20.05.2020
2883 Clouds 15 1020 36 0 0.84 80 21:22 20.05.2020
2884 Clouds 14 939 55 0 0.84 80 20:45 20.05.2020
2885 Clouds 14 939 55 0 0.84 80 20:45 20.05.2020
2886 Clouds 17 1020 27 0 1.34 51 20:26 20.05.2020
2887 Clouds 18 939 51 0 1.59 26 19:58 20.05.2020
2888 Clouds 18 1020 46 0 0.45 320 19:38 20.05.2020
2889 Clouds 18 1020 46 0 0.45 320 19:20 20.05.2020
2890 Clouds 19 1020 49 0 0.89 326 18:47 20.05.2020
2891 Clouds 19 1020 49 0 0.89 326 18:28 20.05.2020
2892 Clouds 19 1020 47 0 1.79 21 17:46 20.05.2020
2893 Rain 19 1020 47 0 1.79 21 17:24 20.05.2020
2894 Rain 19 1020 47 0 1.79 21 16:59 20.05.2020
2895 Rain 20 1019 46 0 2.68 327 16:41 20.05.2020
2896 Rain 20 1019 46 0 2.68 327 16:22 20.05.2020
2897 Rain 20 1019 46 0 2.68 327 15:56 20.05.2020
2898 Rain 19 1020 48 0 0.45 77 15:36 20.05.2020
2899 Rain 19 1020 48 0 0.45 77 15:18 20.05.2020
2900 Rain 19 1020 45 0 1.79 294 14:41 20.05.2020
2901 Rain 19 1020 45 0 1.79 294 14:20 20.05.2020
2902 Rain 19 1020 52 0 1.34 333 13:40 20.05.2020
2903 Rain 18 1020 52 0 1.34 333 13:19 20.05.2020
2904 Rain 18 1020 52 0 1.34 333 13:19 20.05.2020
2905 Rain 18 1020 58 0 0.89 154 12:43 20.05.2020
2906 Rain 18 1020 58 0 0.89 154 12:21 20.05.2020
2907 Rain 17 1020 58 0 0.89 154 11:58 20.05.2020
2908 Rain 17 1017 63 0 1.34 339 11:36 20.05.2020
2909 Rain 18 1017 70 0 3.13 45 11:18 20.05.2020
2910 Rain 17 1020 69 0 0.45 63 10:42 20.05.2020
2911 Rain 15 1020 69 0 0.45 63 10:20 20.05.2020
2912 Rain 14 1020 74 0 2.67 24 09:44 20.05.2020
2913 Rain 14 1020 74 0 2.67 24 09:44 20.05.2020
2914 Clouds 13 1020 74 0 2.04 24 09:21 20.05.2020
2915 Clouds 13 1020 74 0 2.04 24 09:21 20.05.2020
2916 Clouds 13 1020 74 0 2.04 24 08:54 20.05.2020
2917 Clouds 13 1020 77 0 0.45 193 08:36 20.05.2020
2918 Clouds 13 1020 77 0 0.45 193 08:18 20.05.2020
2919 Clouds 12 1019 83 0 1.34 207 07:41 20.05.2020
2920 Clear 12 1019 83 0 1.34 207 07:19 20.05.2020
2921 Clouds 12 1019 76 10000 1.5 270 06:35 20.05.2020
2922 Clouds 13 1019 72 10000 2.1 270 05:22 20.05.2020
2923 Clouds 14 1019 63 10000 2.6 260 04:26 20.05.2020
2924 Clouds 13 1019 72 10000 1.5 0 03:38 20.05.2020
2925 Clouds 16 1020 55 10000 1 0 01:58 20.05.2020
2926 Clouds 15 1020 55 10000 1 0 01:26 20.05.2020
2927 Clouds 15 1019 63 10000 1 0 00:44 20.05.2020
2928 Clouds 15 1019 63 10000 1 0 00:23 20.05.2020
2929 Clouds 15 1019 59 10000 1 0 23:40 19.05.2020
2930 Clouds 15 1019 59 10000 1 0 23:19 19.05.2020
2931 Rain 15 1019 55 10000 1 0 22:56 19.05.2020
2932 Rain 16 1019 55 10000 1 0 22:38 19.05.2020
2933 Rain 16 1019 55 10000 1 0 22:18 19.05.2020
2934 Rain 16 1018 59 10000 1 220 21:55 19.05.2020
2935 Rain 17 1018 56 10000 1 0 21:37 19.05.2020
2936 Rain 17 1018 56 10000 1 0 21:37 19.05.2020
2937 Rain 17 1018 56 10000 1 0 21:37 19.05.2020
2938 Rain 16 938 47 0 1.59 38 21:18 19.05.2020
2939 Clouds 18 1018 49 10000 1.5 0 20:56 19.05.2020
2940 Rain 19 1018 56 10000 2.1 290 20:38 19.05.2020
2941 Rain 19 1018 56 10000 2.1 290 20:38 19.05.2020
2942 Rain 19 937 46 0 2 24 20:19 19.05.2020
2943 Rain 20 1018 49 10000 2.6 300 20:19 19.05.2020
2944 Clouds 21 1018 43 10000 2.1 10 19:39 19.05.2020
2945 Clouds 21 1018 43 10000 2.1 10 19:21 19.05.2020
2946 Rain 21 1018 53 10000 3.6 270 18:55 19.05.2020
2947 Clouds 20 1018 43 10000 2.6 290 18:36 19.05.2020
2948 Clouds 22 1018 43 10000 2.6 290 18:18 19.05.2020
2949 Clouds 20 1018 49 10000 4.1 270 17:40 19.05.2020
2950 Clouds 20 1018 49 10000 4.1 270 17:21 19.05.2020
2951 Clouds 20 1018 49 10000 4.1 270 16:56 19.05.2020
2952 Rain 20 1018 46 0 1.79 294 16:37 19.05.2020
2953 Rain 21 1018 46 0 1.79 294 16:19 19.05.2020
2954 Rain 22 916 35 0 3.67 13 15:44 19.05.2020
2955 Rain 21 1018 22 0 1.34 62 15:21 19.05.2020
2956 Rain 22 1019 19 0 1.34 35 14:55 19.05.2020
2957 Rain 21 1019 44 0 3.13 281 14:37 19.05.2020
2958 Clouds 21 1019 44 0 3.13 281 14:37 19.05.2020
2959 Clouds 21 1019 44 0 3.13 281 14:19 19.05.2020
2960 Clouds 22 1019 44 0 3.13 281 13:56 19.05.2020
2961 Clouds 21 1019 47 0 1.79 325 13:37 19.05.2020
2962 Clouds 20 1019 47 0 1.79 325 13:19 19.05.2020
2963 Clouds 20 1020 47 0 2.68 333 12:56 19.05.2020
2964 Clouds 20 1020 47 0 2.68 333 12:36 19.05.2020
2965 Clouds 20 1020 47 0 2.68 333 12:18 19.05.2020
2966 Clouds 19 1020 56 0 1.34 21 11:41 19.05.2020
2967 Clear 19 1020 56 0 1.34 21 11:22 19.05.2020
2968 Clear 18 1020 56 0 1.34 21 10:56 19.05.2020
2969 Clear 17 1020 59 0 0.45 85 10:38 19.05.2020
2970 Clear 17 1020 59 0 0.45 85 10:38 19.05.2020
2971 Clear 17 1020 59 0 0.45 85 10:18 19.05.2020
2972 Clear 17 1020 59 0 0.45 85 10:18 19.05.2020
2973 Clear 13 1021 69 0 0.89 13 09:43 19.05.2020
2974 Clear 13 1021 69 0 0.89 13 09:25 19.05.2020
2975 Clear 11 1021 87 0 0.89 112 08:47 19.05.2020
2976 Clear 9 1021 87 0 0.89 112 08:25 19.05.2020
2977 Clear 8 1021 87 0 0.89 112 07:49 19.05.2020
2978 Clear 8 1021 87 0 0.45 229 07:28 19.05.2020
2979 Clear 7 1021 87 0 0.45 229 06:55 19.05.2020
2980 Clear 7 1021 91 0 0.89 136 06:31 19.05.2020
2981 Clear 8 1021 88 0 1.52 150 05:43 19.05.2020
2982 Clear 8 1021 88 0 1.65 151 05:23 19.05.2020
2983 Clear 8 1021 82 0 0.45 198 04:36 19.05.2020
2984 Clear 9 1022 78 0 0.45 192 02:24 19.05.2020
2985 Clear 10 941 69 0 1.25 133 00:48 19.05.2020
2986 Clear 11 941 69 0 1.25 133 00:29 19.05.2020
2987 Clear 11 1022 71 10000 1 0 23:59 18.05.2020
2988 Clear 12 1022 71 10000 1 0 23:40 18.05.2020
2989 Clear 12 1022 71 10000 1 0 23:20 18.05.2020
2990 Clear 12 1022 67 10000 0.5 0 22:54 18.05.2020
2991 Clouds 13 1021 67 10000 1 0 22:36 18.05.2020
2992 Clouds 14 1021 67 10000 1 0 22:18 18.05.2020
2993 Clear 15 1021 59 10000 1 0 21:41 18.05.2020
2994 Clouds 17 1014 43 0 1.16 47 21:20 18.05.2020
2995 Clouds 15 1021 31 0 0.89 55 20:57 18.05.2020
2996 Clouds 18 1021 18 0 1.16 47 20:37 18.05.2020
2997 Clouds 19 1021 18 0 1.92 15 20:18 18.05.2020
2998 Clouds 21 940 38 0 1.79 180 19:41 18.05.2020
2999 Clouds 21 940 38 0 1.79 180 19:41 18.05.2020
3000 Rain 21 1021 16 0 2.74 12 19:20 18.05.2020
3001 Clouds 21 940 36 0 0.89 157 18:55 18.05.2020
3002 Clouds 22 1021 38 10000 3.6 290 18:37 18.05.2020
3003 Rain 22 1021 33 10000 3.6 280 18:19 18.05.2020
3004 Rain 21 1021 37 10000 3.6 270 17:38 18.05.2020
3005 Clouds 22 1021 37 10000 3.6 270 17:18 18.05.2020
3006 Clouds 22 1021 37 10000 3.6 270 17:18 18.05.2020
3007 Rain 21 1021 42 0 1.34 343 16:55 18.05.2020
3008 Clouds 22 1021 42 0 1.34 343 16:36 18.05.2020
3009 Rain 21 1021 42 0 1.34 343 16:18 18.05.2020
3010 Rain 21 1022 42 0 0.45 338 15:42 18.05.2020
3011 Clouds 22 1022 42 0 0.45 338 15:24 18.05.2020
3012 Clouds 22 1022 42 0 0.45 338 14:59 18.05.2020
3013 Clouds 21 1022 42 0 2.24 349 14:39 18.05.2020
3014 Clouds 21 1022 42 0 2.24 349 14:21 18.05.2020
3015 Clear 21 1022 46 0 0.89 357 13:42 18.05.2020
3016 Clear 21 1022 46 0 0.89 357 13:22 18.05.2020
3017 Clear 20 1022 46 0 0.89 357 12:58 18.05.2020
3018 Clear 19 1022 48 0 2.68 10 12:40 18.05.2020
3019 Clear 18 1022 48 0 2.68 10 12:20 18.05.2020
3020 Clear 18 1022 48 0 2.68 10 11:59 18.05.2020
3021 Clear 17 1023 48 0 2.24 309 11:41 18.05.2020
3022 Clear 17 1023 48 0 2.24 309 11:22 18.05.2020
3023 Clear 16 1023 57 0 0.45 22 10:47 18.05.2020
3024 Clear 15 1023 57 0 0.45 22 10:25 18.05.2020
3025 Clear 14 1023 70 0 0.45 71 09:46 18.05.2020
3026 Clear 13 1023 70 0 0.45 71 09:27 18.05.2020
3027 Clear 11 1023 70 0 0.45 71 08:59 18.05.2020
3028 Clear 9 1023 85 0 1.56 358 08:39 18.05.2020
3029 Clear 9 1023 85 0 0.53 348 08:21 18.05.2020
3030 Clear 7 1022 87 0 0.45 258 07:43 18.05.2020
3031 Clear 6 1022 87 0 0.45 258 07:23 18.05.2020
3032 Clear 6 1022 89 0 0.96 160 06:47 18.05.2020
3033 Clear 6 1022 89 0 1.43 162 06:23 18.05.2020
3034 Clear 6 1022 88 0 1.43 162 05:43 18.05.2020
3035 Clear 7 1023 84 0 0.45 239 03:39 18.05.2020
3036 Clear 7 1023 84 0 0.45 239 02:57 18.05.2020
3037 Clear 8 1023 79 0 0.45 211 01:45 18.05.2020
3038 Clear 9 1022 76 10000 1 230 00:45 18.05.2020
3039 Clear 9 941 65 0 1.38 150 00:19 18.05.2020
3040 Clear 10 1022 71 10000 1.5 0 23:55 17.05.2020
3041 Clear 11 941 63 0 1.38 150 23:36 17.05.2020
3042 Clear 10 1022 71 10000 0.5 0 23:18 17.05.2020
3043 Clear 11 1022 62 10000 1.5 0 22:40 17.05.2020
3044 Clear 11 1022 62 10000 1.5 0 22:40 17.05.2020
3045 Clear 11 1022 39 0 1.35 124 22:22 17.05.2020
3046 Clear 11 941 54 0 1.35 124 21:59 17.05.2020
3047 Clouds 11 940 51 0 0.45 157 21:41 17.05.2020
3048 Clouds 14 940 51 0 1.35 75 21:19 17.05.2020
3049 Clouds 13 940 47 0 1.35 75 20:56 17.05.2020
3050 Clouds 16 1021 19 0 1.35 75 20:37 17.05.2020
3051 Clouds 17 940 45 0 2.04 37 20:18 17.05.2020
3052 Clouds 15 940 42 0 2.04 37 19:42 17.05.2020
3053 Clouds 19 939 39 0 1.34 180 19:24 17.05.2020
3054 Clouds 17 939 38 0 2.62 31 18:56 17.05.2020
3055 Clouds 17 939 36 0 0.45 225 18:38 17.05.2020
3056 Clouds 18 917 31 0 2.6 26 18:20 17.05.2020
3057 Clouds 21 1021 40 10000 3.6 270 17:40 17.05.2020
3058 Clouds 18 1019 41 0 2.68 16 17:22 17.05.2020
3059 Clouds 18 1019 42 0 2.68 355 16:57 17.05.2020
3060 Clouds 18 1019 42 0 2.24 5 16:39 17.05.2020
3061 Clouds 18 1019 42 0 2.24 5 16:39 17.05.2020
3062 Clouds 20 1021 40 10000 3.6 280 16:19 17.05.2020
3063 Clouds 21 1021 40 10000 3.6 270 16:19 17.05.2020
3064 Clouds 20 1021 40 10000 3.6 280 16:19 17.05.2020
3065 Clouds 19 1020 42 0 2.24 347 15:46 17.05.2020
3066 Clouds 19 1020 42 0 2.24 347 15:24 17.05.2020
3067 Clouds 20 1020 42 0 2.24 347 14:58 17.05.2020
3068 Clouds 21 1020 17 0 2.48 20 14:39 17.05.2020
3069 Clouds 20 1020 17 0 2.24 21 14:20 17.05.2020
3070 Clouds 19 1021 43 0 2.24 355 13:42 17.05.2020
3071 Clouds 18 1021 43 0 2.24 355 13:21 17.05.2020
3072 Clouds 5 938 84 0 0.18 147 05:25 17.05.2020
3073 Clouds 6 937 82 0 0.49 172 03:34 17.05.2020
3074 Clouds 8 938 79 0 0.79 217 02:27 17.05.2020
3075 Clouds 10 1019 76 10000 1 0 01:54 17.05.2020
3076 Clouds 10 1019 87 10000 2.1 270 00:52 17.05.2020
3077 Clouds 9 1019 64 0 0.88 230 00:30 17.05.2020
3078 Clouds 9 937 77 0 0.95 210 23:56 16.05.2020
3079 Clouds 9 1019 66 0 0.95 210 23:38 16.05.2020
3080 Clouds 9 937 74 0 1.34 192 23:18 16.05.2020
3081 Clouds 10 1018 71 0 1.34 192 22:42 16.05.2020
3082 Clouds 11 1018 71 0 0.85 159 22:22 16.05.2020
3083 Clouds 12 1018 71 0 0.85 159 21:57 16.05.2020
3084 Clouds 13 1019 73 0 0.45 91 21:38 16.05.2020
3085 Clouds 14 1019 73 0 0.45 91 21:19 16.05.2020
3086 Clouds 14 1019 73 0 0.45 91 20:56 16.05.2020
3087 Clouds 14 1018 67 0 0.89 13 20:38 16.05.2020
3088 Clouds 14 1018 67 0 0.89 13 20:38 16.05.2020
3089 Clouds 14 1018 67 0 0.89 13 20:19 16.05.2020
3090 Clouds 15 1018 65 0 1.34 12 19:43 16.05.2020
3091 Clouds 15 1018 65 0 1.34 12 19:23 16.05.2020
3092 Clouds 15 1018 65 0 1.34 12 18:59 16.05.2020
3093 Clouds 15 1018 65 0 1.34 12 18:59 16.05.2020
3094 Clouds 16 1019 61 0 2.68 316 18:41 16.05.2020
3095 Clouds 16 1019 61 0 2.68 316 18:22 16.05.2020
3096 Clouds 16 1018 55 0 1.34 349 17:42 16.05.2020
3097 Clouds 16 1018 55 0 1.34 349 17:21 16.05.2020
3098 Clouds 16 1018 55 0 1.34 349 16:57 16.05.2020
3099 Clouds 16 1019 61 0 0.45 133 16:38 16.05.2020
3100 Clouds 16 1019 61 0 0.45 133 16:18 16.05.2020
3101 Clouds 15 1020 59 0 0.46 136 15:42 16.05.2020
3102 Clouds 14 1020 59 0 0.7 145 15:21 16.05.2020
3103 Clouds 14 1020 59 0 0.7 145 14:59 16.05.2020
3104 Clouds 14 1020 66 0 0.89 296 14:41 16.05.2020
3105 Clouds 14 1020 66 0 0.89 296 14:20 16.05.2020
3106 Clouds 13 1020 66 0 0.89 296 13:55 16.05.2020
3107 Clouds 12 1020 72 0 0.45 59 13:36 16.05.2020
3108 Rain 13 1020 72 0 0.45 59 13:18 16.05.2020
3109 Rain 11 1020 71 0 0.89 38 12:42 16.05.2020
3110 Rain 11 1020 71 0 0.89 38 12:19 16.05.2020
3111 Rain 11 1020 73 0 0.45 320 11:42 16.05.2020
3112 Rain 11 1020 73 0 0.45 320 11:23 16.05.2020
3113 Rain 12 1020 73 0 0.45 320 10:58 16.05.2020
3114 Rain 12 1020 76 0 0.89 13 10:40 16.05.2020
3115 Clouds 8 1020 76 0 0.89 13 10:21 16.05.2020
3116 Clouds 8 1020 76 0 0.89 13 09:56 16.05.2020
3117 Clouds 8 1020 85 0 1.34 151 09:38 16.05.2020
3118 Clouds 8 1020 85 0 1.34 151 09:18 16.05.2020
3119 Clouds 7 1020 84 0 0.45 13 08:42 16.05.2020
3120 Clouds 7 1020 84 0 0.45 13 08:19 16.05.2020
3121 Clouds 7 1019 90 0 0.38 110 07:43 16.05.2020
3122 Clouds 7 1019 90 0 0.94 145 07:23 16.05.2020
3123 Clouds 6 1020 92 0 0.94 145 06:48 16.05.2020
3124 Clouds 2 1020 96 0 1.16 140 06:24 16.05.2020
3125 Clouds 2 938 88 0 1.16 140 05:49 16.05.2020
3126 Clouds 2 938 87 0 1.11 130 05:27 16.05.2020
3127 Clouds 3 1019 96 0 1.15 136 03:33 16.05.2020
3128 Clouds 5 938 87 0 1.02 119 02:52 16.05.2020
3129 Clouds 4 938 87 0 0.96 113 02:20 16.05.2020
3130 Clouds 5 1020 95 0 0.45 86 01:43 16.05.2020
3131 Clouds 5 938 87 0 0.95 113 00:59 16.05.2020
3132 Clouds 5 1020 73 0 0.95 113 00:41 16.05.2020
3133 Clouds 4 938 86 0 0.91 105 00:20 16.05.2020
3134 Clouds 4 938 85 0 0.91 105 23:40 15.05.2020
3135 Clouds 5 1020 67 0 0.98 100 23:20 15.05.2020
3136 Clouds 5 938 83 0 0.98 100 22:42 15.05.2020
3137 Clouds 6 1020 65 0 1.79 57 22:23 15.05.2020
3138 Clouds 5 938 82 0 0.89 88 21:59 15.05.2020
3139 Clouds 7 1019 88 0 0.45 132 21:39 15.05.2020
3140 Clouds 8 1019 88 0 0.45 132 21:21 15.05.2020
3141 Clouds 8 1019 88 0 0.45 132 20:57 15.05.2020
3142 Clouds 8 1019 90 0 0.45 159 20:39 15.05.2020
3143 Clouds 8 1019 90 0 0.45 159 20:21 15.05.2020
3144 Clouds 8 1019 88 0 0.89 122 19:44 15.05.2020
3145 Clouds 8 1019 88 0 0.89 122 19:25 15.05.2020
3146 Clouds 8 1019 88 0 0.89 122 18:59 15.05.2020
3147 Clouds 8 1018 86 0 0.89 348 18:39 15.05.2020
3148 Clouds 8 1018 86 0 0.89 348 18:21 15.05.2020
3149 Clouds 8 1018 86 0 1.34 333 17:39 15.05.2020
3150 Clouds 8 1018 86 0 1.34 333 17:39 15.05.2020
3151 Clouds 8 1018 85 0 1.34 312 17:19 15.05.2020
3152 Clouds 8 1018 85 0 2.24 347 16:56 15.05.2020
3153 Clouds 9 1018 86 0 1.34 321 16:38 15.05.2020
3154 Clouds 9 1018 54 0 1.34 52 16:19 15.05.2020
3155 Clouds 9 1017 88 0 2.68 321 15:41 15.05.2020
3156 Clouds 9 936 78 0 1.34 202 15:21 15.05.2020
3157 Clouds 9 1017 66 0 1.34 49 14:58 15.05.2020
3158 Clouds 9 935 81 0 2.14 7 14:40 15.05.2020
3159 Clouds 8 1016 92 0 2.68 296 14:22 15.05.2020
3160 Clouds 8 1016 93 0 1.34 308 13:43 15.05.2020
3161 Clouds 8 1015 93 0 0.45 345 13:22 15.05.2020
3162 Clouds 8 1015 93 0 1.34 321 12:59 15.05.2020
3163 Clouds 7 1015 93 0 0.89 335 12:39 15.05.2020
3164 Clouds 7 1015 93 0 0.89 335 12:39 15.05.2020
3165 Rain 6 1015 73 0 0.89 32 12:18 15.05.2020
3166 Rain 7 1014 72 0 1.76 19 11:56 15.05.2020
3167 Rain 7 933 86 0 1.76 19 11:37 15.05.2020
3168 Rain 7 932 87 0 1.61 27 11:19 15.05.2020
3169 Rain 7 1013 76 0 0.89 44 10:56 15.05.2020
3170 Rain 7 1013 76 0 1.79 46 10:38 15.05.2020
3171 Rain 7 931 87 0 1.76 27 10:19 15.05.2020
3172 Rain 7 1012 81 0 1.79 34 09:40 15.05.2020
3173 Rain 6 930 88 0 1.59 18 09:20 15.05.2020
3174 Rain 7 930 88 0 1.59 18 08:58 15.05.2020
3175 Rain 7 1011 82 0 0.89 53 08:38 15.05.2020
3176 Rain 7 1011 82 0 0.89 53 08:38 15.05.2020
3177 Rain 7 1009 96 0 0.45 61 08:19 15.05.2020
3178 Rain 7 1009 96 0 0.45 61 07:46 15.05.2020
3179 Rain 7 1009 96 0 0.45 61 07:46 15.05.2020
3180 Rain 7 1009 96 0 0.45 61 07:27 15.05.2020
3181 Rain 7 1009 96 0 0.45 61 06:57 15.05.2020
3182 Rain 7 1009 97 0 1.34 28 05:55 15.05.2020
3183 Rain 7 1009 80 0 2.68 56 04:33 15.05.2020
3184 Clouds 8 1009 79 0 2.24 68 03:49 15.05.2020
3185 Clouds 8 1009 72 0 1.79 43 02:40 15.05.2020
3186 Clouds 8 1009 70 0 1.34 49 01:31 15.05.2020
3187 Clouds 9 928 86 0 1.79 180 00:57 15.05.2020
3188 Clouds 8 1010 94 0 0.45 63 00:38 15.05.2020
3189 Clouds 8 1010 94 0 0.45 63 00:20 15.05.2020
3190 Clouds 8 1011 94 0 0.45 67 23:40 14.05.2020
3191 Clouds 8 1011 94 0 0.45 67 23:40 14.05.2020
3192 Clouds 9 1011 94 0 0.45 67 23:18 14.05.2020
3193 Clouds 9 1011 92 0 1.4 87 22:41 14.05.2020
3194 Clouds 9 1011 92 0 1.46 76 22:20 14.05.2020
3195 Clouds 8 1011 92 0 1.46 76 21:58 14.05.2020
3196 Clouds 9 1011 88 0 0.45 63 21:39 14.05.2020
3197 Clouds 9 1011 88 0 0.45 63 21:19 14.05.2020
3198 Clouds 9 1011 88 0 0.45 63 20:55 14.05.2020
3199 Clouds 9 1011 86 0 1.85 61 20:37 14.05.2020
3200 Clouds 9 1011 86 0 1.85 61 20:37 14.05.2020
3201 Clouds 9 1011 86 0 2.23 50 20:18 14.05.2020
3202 Clouds 9 1011 89 0 0.89 347 19:41 14.05.2020
3203 Clouds 9 1011 89 0 0.89 347 19:22 14.05.2020
3204 Clouds 9 1011 89 0 0.89 347 18:59 14.05.2020
3205 Clouds 9 1012 90 0 2.52 42 18:38 14.05.2020
3206 Clouds 9 1012 90 0 2.52 39 18:20 14.05.2020
3207 Clouds 9 1012 90 0 2.52 39 17:59 14.05.2020
3208 Clouds 9 1011 87 0 0.89 286 17:38 14.05.2020
3209 Clouds 9 1011 87 0 0.89 286 17:19 14.05.2020
3210 Clouds 9 1011 87 0 0.89 286 16:59 14.05.2020
3211 Clouds 9 1011 84 0 0.89 38 16:39 14.05.2020
3212 Clouds 9 1011 84 0 0.89 38 16:20 14.05.2020
3213 Clouds 9 1011 84 0 0.89 38 15:56 14.05.2020
3214 Clouds 9 1012 83 0 2.92 23 15:38 14.05.2020
3215 Clouds 9 1012 83 0 2.69 22 15:19 14.05.2020
3216 Clouds 9 1012 83 0 2.69 22 14:55 14.05.2020
3217 Clouds 9 1012 81 0 0.89 31 14:37 14.05.2020
3218 Clouds 9 1012 81 0 0.89 31 14:19 14.05.2020
3219 Clouds 9 1012 88 0 1.34 348 13:44 14.05.2020
3220 Clouds 9 1012 88 0 1.34 348 13:20 14.05.2020
3221 Clouds 9 1012 88 0 1.34 348 12:59 14.05.2020
3222 Clouds 8 1013 91 0 0.89 3 12:40 14.05.2020
3223 Clouds 8 1013 91 0 0.89 3 12:21 14.05.2020
3224 Clouds 7 1013 91 0 0.89 3 11:59 14.05.2020
3225 Clouds 7 1013 91 0 0.89 3 11:59 14.05.2020
3226 Clouds 7 1012 95 0 0.89 309 11:40 14.05.2020
3227 Clouds 7 1012 95 0 0.89 309 11:21 14.05.2020
3228 Clouds 7 1012 95 0 0.89 309 10:56 14.05.2020
3229 Clouds 6 1012 98 0 1.34 357 10:38 14.05.2020
3230 Clouds 6 1012 98 0 1.34 357 10:20 14.05.2020
3231 Clouds 6 1012 100 0 1.34 359 09:42 14.05.2020
3232 Rain 6 1012 100 0 1.34 359 09:23 14.05.2020
3233 Rain 6 1011 100 0 1.21 45 08:42 14.05.2020
3234 Rain 6 1011 100 0 1.23 22 08:21 14.05.2020
3235 Rain 6 1011 100 0 0.89 358 07:47 14.05.2020
3236 Rain 6 1011 100 0 0.89 358 07:25 14.05.2020
3237 Rain 6 1011 100 0 0.89 358 06:55 14.05.2020
3238 Rain 6 1011 100 0 0.45 306 06:31 14.05.2020
3239 Rain 6 1011 100 0 0.45 306 05:57 14.05.2020
3240 Rain 6 1010 100 0 0.89 17 05:35 14.05.2020
3241 Rain 6 1010 100 0 0.89 6 04:32 14.05.2020
3242 Rain 6 1010 100 0 0.89 7 03:28 14.05.2020
3243 Rain 6 1009 100 0 1.79 311 02:43 14.05.2020
3244 Rain 6 1009 100 0 1.79 311 02:18 14.05.2020
3245 Clouds 7 1009 99 0 0.45 323 01:28 14.05.2020
3246 Clouds 7 1009 99 0 0.45 323 00:50 14.05.2020
3247 Clouds 7 1008 99 0 0.47 213 00:25 14.05.2020
3248 Clouds 7 1007 100 0 0.45 357 23:44 13.05.2020
3249 Clouds 7 1007 100 0 0.45 357 23:22 13.05.2020
3250 Clouds 7 1007 100 0 0.45 357 22:54 13.05.2020
3251 Clouds 7 1007 99 0 1.34 349 22:36 13.05.2020
3252 Clouds 7 1007 99 0 1.34 349 22:18 13.05.2020
3253 Clouds 7 1007 99 0 1.34 349 21:56 13.05.2020
3254 Clouds 8 1007 94 0 1.34 15 21:38 13.05.2020
3255 Rain 8 1007 94 0 1.34 15 21:18 13.05.2020
3256 Rain 9 1007 91 0 1.34 1 20:41 13.05.2020
3257 Clouds 9 1007 91 0 1.34 1 20:23 13.05.2020
3258 Clouds 10 1007 88 0 1.34 347 19:44 13.05.2020
3259 Clouds 10 1007 88 0 1.34 347 19:25 13.05.2020
3260 Clouds 10 1007 88 0 1.34 347 18:58 13.05.2020
3261 Clouds 11 1007 87 0 0.53 36 18:39 13.05.2020
3262 Clouds 11 1007 87 0 0.35 72 18:21 13.05.2020
3263 Clouds 11 1007 87 0 0.35 72 18:21 13.05.2020
3264 Clouds 11 1007 87 0 0.35 72 18:20 13.05.2020
3265 Clouds 11 1005 87 0 2.24 326 17:39 13.05.2020
3266 Rain 11 1005 88 0 1.34 325 17:20 13.05.2020
3267 Rain 10 1005 89 0 0.89 338 16:56 13.05.2020
3268 Rain 10 1006 88 0 2.68 342 16:37 13.05.2020
3269 Rain 10 1006 88 0 1.34 333 16:18 13.05.2020
3270 Rain 10 1006 86 0 2.24 344 15:42 13.05.2020
3271 Rain 10 1006 86 0 2.24 344 15:42 13.05.2020
3272 Clouds 11 1006 85 0 2.68 341 15:20 13.05.2020
3273 Clouds 11 1006 84 0 2.68 14 14:57 13.05.2020
3274 Clouds 10 1007 85 0 0.89 347 14:39 13.05.2020
3275 Rain 10 1007 85 0 1.34 249 14:21 13.05.2020
3276 Rain 10 1007 85 0 0.45 155 13:57 13.05.2020
3277 Rain 11 1008 84 0 0.45 273 13:39 13.05.2020
3278 Rain 10 1008 85 0 0.21 53 13:20 13.05.2020
3279 Rain 11 1009 61 0 0.21 53 12:43 13.05.2020
3280 Clouds 10 1009 56 0 1.52 65 12:23 13.05.2020
3281 Clouds 11 928 70 0 1.52 65 11:57 13.05.2020
3282 Clouds 10 1010 59 0 1.52 65 11:39 13.05.2020
3283 Clouds 9 1010 62 0 1.34 36 11:21 13.05.2020
3284 Clouds 9 1010 61 0 0.72 40 10:59 13.05.2020
3285 Clouds 8 1011 87 0 0.45 347 10:39 13.05.2020
3286 Clouds 8 1011 87 0 0.45 347 10:20 13.05.2020
3287 Clouds 8 1011 87 0 0.45 347 09:59 13.05.2020
3288 Clouds 8 1011 82 0 0.46 123 09:40 13.05.2020
3289 Clouds 8 1011 82 0 0.77 157 09:21 13.05.2020
3290 Clouds 8 1011 89 0 0.77 157 08:42 13.05.2020
3291 Clouds 8 1011 89 0 0.9 190 08:22 13.05.2020
3292 Clouds 7 1011 89 0 0.9 190 07:59 13.05.2020
3293 Clouds 7 1011 89 0 0.9 190 07:59 13.05.2020
3294 Clouds 7 1011 92 0 0.9 190 07:36 13.05.2020
3295 Rain 6 1011 92 0 1.27 154 06:59 13.05.2020
3296 Rain 6 1011 93 0 0.45 222 06:41 13.05.2020
3297 Rain 6 1011 93 0 0.45 222 05:50 13.05.2020
3298 Clouds 6 1011 88 0 1.11 183 04:22 13.05.2020
3299 Clouds 6 1011 91 0 1.4 192 02:59 13.05.2020
3300 Clouds 6 1011 90 0 1.21 170 02:22 13.05.2020
3301 Clouds 6 1011 89 0 0.45 107 01:21 13.05.2020
3302 Clouds 6 1012 86 0 0.45 355 00:41 13.05.2020
3303 Clouds 7 1012 86 0 0.45 355 00:19 13.05.2020
3304 Clouds 7 1013 85 0 1.27 167 23:40 12.05.2020
3305 Clouds 8 1012 50 0 1 158 23:21 12.05.2020
3306 Clouds 7 931 74 0 1 158 22:57 12.05.2020
3307 Clouds 7 931 73 0 1 158 22:38 12.05.2020
3308 Clouds 7 1012 48 0 1.34 41 22:19 12.05.2020
3309 Clouds 7 1013 79 0 1.01 151 21:54 12.05.2020
3310 Clouds 8 1013 75 0 0.45 311 21:36 12.05.2020
3311 Clouds 8 1013 75 0 0.45 311 21:36 12.05.2020
3312 Clouds 8 1013 75 0 0.45 311 21:18 12.05.2020
3313 Clouds 8 1013 75 0 0.45 311 20:55 12.05.2020
3314 Clouds 8 1013 74 0 0.89 41 20:36 12.05.2020
3315 Clouds 8 1013 74 0 0.89 41 20:18 12.05.2020
3316 Clouds 9 1013 72 0 0.45 48 19:41 12.05.2020
3317 Clouds 9 1013 72 0 0.45 48 19:23 12.05.2020
3318 Clouds 9 1013 72 0 0.45 48 18:58 12.05.2020
3319 Clouds 9 1013 70 0 0.89 72 18:40 12.05.2020
3320 Clouds 9 1013 70 0 0.89 72 18:21 12.05.2020
3321 Clouds 9 1014 76 0 1.34 21 17:44 12.05.2020
3322 Clouds 9 1014 76 0 0.89 310 17:25 12.05.2020
3323 Clouds 9 1014 76 0 1.34 333 16:58 12.05.2020
3324 Clouds 9 1014 73 0 2.24 321 16:40 12.05.2020
3325 Clouds 9 1014 73 0 1.34 326 16:19 12.05.2020
3326 Clouds 9 1014 73 0 0.89 322 15:54 12.05.2020
3327 Clouds 8 1015 73 0 1.34 346 15:36 12.05.2020
3328 Clouds 8 1015 73 0 2.24 351 15:18 12.05.2020
3329 Clouds 8 1015 74 0 1.34 356 14:54 12.05.2020
3330 Clouds 8 1015 74 0 1.34 274 14:36 12.05.2020
3331 Clouds 8 1015 74 0 1.64 30 14:18 12.05.2020
3332 Clouds 8 1015 75 0 0.89 20 13:54 12.05.2020
3333 Clouds 7 1015 76 0 0.45 354 13:36 12.05.2020
3334 Clouds 7 1015 77 0 0.89 14 13:18 12.05.2020
3335 Clouds 6 1015 79 0 1.34 306 12:54 12.05.2020
3336 Clouds 6 1015 77 0 1.34 0 12:36 12.05.2020
3337 Clouds 6 1015 78 0 2.24 321 12:18 12.05.2020
3338 Clouds 5 1015 80 0 0.89 307 11:55 12.05.2020
3339 Clouds 5 1015 80 0 2.24 330 11:36 12.05.2020
3340 Clouds 5 1015 81 0 2.24 303 11:18 12.05.2020
3341 Clouds 4 1015 83 0 2.24 302 10:42 12.05.2020
3342 Clouds 4 1015 83 0 2.68 317 10:23 12.05.2020
3343 Clouds 3 1015 85 0 1.34 355 09:59 12.05.2020
3344 Clouds 3 1015 86 0 1.34 321 09:40 12.05.2020
3345 Clouds 3 1015 87 0 1.34 357 09:21 12.05.2020
3346 Clouds 3 1015 88 0 2.68 295 08:59 12.05.2020
3347 Clouds 2 1015 89 0 1.34 319 08:38 12.05.2020
3348 Clouds 2 1014 91 0 1.34 315 08:19 12.05.2020
3349 Clouds 1 1014 91 0 0.89 280 07:42 12.05.2020
3350 Snow 1 1014 92 0 0.89 302 07:23 12.05.2020
3351 Snow 1 1013 92 0 0.89 321 06:49 12.05.2020
3352 Snow 1 1013 92 0 2.24 293 06:27 12.05.2020
3353 Snow 1 1013 93 0 1.46 55 05:51 12.05.2020
3354 Snow 1 1013 93 0 0.89 336 05:30 12.05.2020
3355 Snow 1 1012 94 0 1.34 343 03:27 12.05.2020
3356 Snow 1 1012 94 0 1.34 326 02:44 12.05.2020
3357 Snow 1 1011 94 0 0.45 339 02:24 12.05.2020
3358 Snow 1 1011 93 0 2.24 310 01:27 12.05.2020
3359 Rain 2 1010 93 0 2.68 7 00:28 12.05.2020
3360 Rain 3 1009 93 0 2.24 329 23:58 11.05.2020
3361 Rain 3 1009 92 0 2.24 322 23:40 11.05.2020
3362 Rain 3 1008 92 0 3.13 337 23:20 11.05.2020
3363 Rain 4 1008 92 0 2.68 349 22:59 11.05.2020
3364 Rain 5 1007 92 0 3.13 345 22:40 11.05.2020
3365 Rain 5 1006 92 0 2.68 345 22:20 11.05.2020
3366 Rain 5 1006 91 0 2.68 328 21:58 11.05.2020
3367 Rain 6 1005 92 0 2.24 337 21:40 11.05.2020
3368 Rain 7 1005 90 0 3.13 352 21:19 11.05.2020
3369 Rain 8 1005 90 0 3.13 352 20:58 11.05.2020
3370 Rain 8 1005 90 0 3.13 352 20:40 11.05.2020
3371 Rain 9 1005 90 0 3.13 352 20:20 11.05.2020
3372 Rain 9 1005 90 0 3.13 352 19:55 11.05.2020
3373 Rain 9 1005 90 0 3.13 352 19:55 11.05.2020
3374 Rain 8 924 85 0 5.36 180 19:36 11.05.2020
3375 Rain 8 1004 81 0 0.45 67 19:18 11.05.2020
3376 Rain 9 924 84 0 0.86 296 18:55 11.05.2020
3377 Rain 9 924 84 0 0.86 296 18:55 11.05.2020
3378 Rain 9 923 83 0 0.86 296 18:36 11.05.2020
3379 Rain 10 1003 83 0 0.45 292 18:18 11.05.2020
3380 Rain 11 1002 93 9000 5.7 260 17:41 11.05.2020
3381 Rain 11 1002 93 9000 5.7 260 17:41 11.05.2020
3382 Rain 11 1002 82 0 1.79 207 17:23 11.05.2020
3383 Rain 11 997 100 0 0.45 286 16:59 11.05.2020
3384 Rain 11 1002 84 0 1.79 213 16:40 11.05.2020
3385 Rain 12 920 73 0 2.98 282 16:21 11.05.2020
3386 Rain 12 1001 80 0 1.79 264 15:57 11.05.2020
3387 Rain 12 1002 81 0 1.79 212 15:39 11.05.2020
3388 Rain 14 996 66 0 5.81 263 15:18 11.05.2020
3389 Rain 14 996 74 0 3.58 239 14:42 11.05.2020
3390 Rain 16 1000 57 0 3.58 292 14:23 11.05.2020
3391 Clouds 15 997 77 10000 5.7 310 13:59 11.05.2020
3392 Thunderstorm 18 997 77 10000 6.2 320 13:41 11.05.2020
3393 Thunderstorm 15 997 77 10000 6.2 320 13:19 11.05.2020
3394 Rain 18 997 77 10000 6.2 310 12:58 11.05.2020
3395 Rain 17 997 82 10000 3.6 270 12:39 11.05.2020
3396 Rain 17 997 82 10000 3.6 270 12:21 11.05.2020
3397 Rain 17 996 77 10000 5.1 280 11:56 11.05.2020
3398 Rain 16 998 66 0 2.24 2 11:37 11.05.2020
3399 Rain 17 998 66 0 2.24 2 11:19 11.05.2020
3400 Rain 16 998 66 0 2.24 2 10:55 11.05.2020
3401 Rain 16 998 67 0 0.89 79 10:36 11.05.2020
3402 Clouds 17 998 67 0 0.89 79 10:18 11.05.2020
3403 Clouds 15 994 71 0 0.45 25 09:42 11.05.2020
3404 Clouds 14 1000 86 0 1.34 140 09:22 11.05.2020
3405 Clouds 13 1000 86 0 1.34 140 08:59 11.05.2020
3406 Clouds 13 999 77 0 0.45 229 08:39 11.05.2020
3407 Clouds 13 999 77 0 0.45 229 08:19 11.05.2020
3408 Clouds 13 999 77 0 0.45 229 07:50 11.05.2020
3409 Clouds 12 999 83 0 2.36 163 07:32 11.05.2020
3410 Clouds 12 999 83 0 2.94 165 06:54 11.05.2020
3411 Clouds 12 1000 81 0 0.45 77 06:26 11.05.2020
3412 Clouds 12 1001 82 0 0.45 121 05:30 11.05.2020
3413 Clouds 12 919 84 0 3.07 155 04:44 11.05.2020
3414 Clouds 12 920 84 0 3.14 152 03:46 11.05.2020
3415 Clouds 12 921 84 0 3.36 159 02:35 11.05.2020
3416 Clouds 12 1003 69 0 3.44 156 01:46 11.05.2020
3417 Clouds 13 1004 64 0 3.44 159 00:54 11.05.2020
3418 Clouds 12 1005 87 0 0.45 246 00:22 11.05.2020
3419 Clouds 15 1004 55 0 3.32 156 23:45 10.05.2020
3420 Clouds 14 924 74 0 3.22 160 23:26 10.05.2020
3421 Clouds 14 1004 51 0 3.22 160 22:57 10.05.2020
3422 Clouds 14 924 73 0 3.22 160 22:39 10.05.2020
3423 Clouds 15 924 69 0 3.13 158 22:20 10.05.2020
3424 Clouds 16 1006 75 0 3.13 158 21:44 10.05.2020
3425 Clouds 16 1006 75 0 3.16 165 21:20 10.05.2020
3426 Clouds 16 1006 75 0 3.11 163 20:56 10.05.2020
3427 Clouds 19 1001 63 0 3.11 163 20:38 10.05.2020
3428 Clouds 20 924 57 0 2.88 173 20:20 10.05.2020
3429 Clouds 22 925 52 0 2.88 173 19:41 10.05.2020
3430 Clouds 22 924 50 0 2.25 175 19:23 10.05.2020
3431 Clouds 23 1005 18 0 1.34 53 18:57 10.05.2020
3432 Clouds 22 1006 44 0 2.68 9 18:38 10.05.2020
3433 Clouds 23 1006 44 0 2.68 9 18:19 10.05.2020
3434 Clouds 22 1006 44 0 2.68 9 17:59 10.05.2020
3435 Clouds 22 1007 43 0 1.34 351 17:40 10.05.2020
3436 Clouds 23 1007 43 0 1.34 351 17:22 10.05.2020
3437 Clouds 22 1007 43 0 1.34 351 16:58 10.05.2020
3438 Clouds 22 1007 50 0 1.34 351 16:40 10.05.2020
3439 Clouds 22 1007 50 0 1.34 351 16:19 10.05.2020
3440 Clouds 22 1007 50 0 1.34 351 15:55 10.05.2020
3441 Clouds 22 1003 48 0 0.89 286 15:36 10.05.2020
3442 Clouds 22 1008 45 0 0.89 292 15:18 10.05.2020
3443 Clouds 22 1009 53 0 0.45 292 14:38 10.05.2020
3444 Clouds 22 1009 53 0 0.45 292 14:38 10.05.2020
3445 Clouds 21 1009 52 0 0.89 292 14:20 10.05.2020
3446 Clouds 21 1009 52 0 0.89 292 14:20 10.05.2020
3447 Clouds 21 1009 55 0 0.45 292 13:59 10.05.2020
3448 Clouds 20 1008 26 0 0.89 257 13:38 10.05.2020
3449 Clouds 20 1008 29 0 0.89 58 13:20 10.05.2020
3450 Clouds 19 1005 69 0 0.89 348 12:58 10.05.2020
3451 Clouds 19 1009 34 0 2.01 181 12:40 10.05.2020
3452 Clouds 15 1009 77 10000 3.1 30 12:21 10.05.2020
3453 Clouds 15 1009 82 10000 2.6 40 11:57 10.05.2020
3454 Clouds 14 1009 88 10000 1.5 100 11:39 10.05.2020
3455 Clouds 16 1009 88 10000 1.5 100 11:20 10.05.2020
3456 Clouds 15 1010 93 10000 1.5 120 10:47 10.05.2020
3457 -273 0 0 0 0 0 10:29 10.05.2020
3458 Rain 14 1006 97 0 1.28 211 09:59 10.05.2020
3459 Rain 14 929 86 0 1.28 211 09:40 10.05.2020
3460 Rain 13 929 87 0 1.5 241 09:21 10.05.2020
3461 Rain 12 929 87 0 1.49 222 08:51 10.05.2020
3462 Rain 13 929 87 0 1.88 202 08:24 10.05.2020
3463 Rain 13 1006 92 0 0.45 146 07:45 10.05.2020
3464 Rain 13 929 88 0 1.86 184 07:21 10.05.2020
3465 Rain 13 928 87 0 1.86 184 06:58 10.05.2020
3466 Rain 13 1009 83 0 1.86 184 06:35 10.05.2020
3467 Rain 12 928 87 0 1.8 165 05:52 10.05.2020
3468 Clouds 13 927 87 0 2.07 161 04:58 10.05.2020
3469 Clouds 13 927 86 0 2.07 161 04:38 10.05.2020
3470 Clouds 13 928 86 0 2.49 169 04:20 10.05.2020
3471 Clouds 13 928 86 0 2.49 169 03:39 10.05.2020
3472 Clouds 13 928 86 0 2.56 173 02:50 10.05.2020
3473 Rain 13 928 86 0 2.57 172 02:22 10.05.2020
3474 Rain 13 929 84 0 2.57 172 01:42 10.05.2020
3475 Rain 13 930 82 0 2.52 173 01:20 10.05.2020
3476 Rain 13 1011 73 0 2.52 173 00:55 10.05.2020
3477 Clouds 14 930 74 0 2.1 164 00:26 10.05.2020
3478 Clouds 14 929 67 0 2.1 164 23:59 09.05.2020
3479 Clouds 14 929 66 0 2.1 164 23:39 09.05.2020
3480 Clouds 15 929 64 0 2.01 166 23:20 09.05.2020
3481 Clouds 15 929 63 0 2.01 166 22:43 09.05.2020
3482 Clouds 16 1008 68 10000 1 180 22:24 09.05.2020
3483 Clouds 16 1009 72 10000 1.5 200 21:59 09.05.2020
3484 Clouds 17 1009 68 10000 1.5 210 21:41 09.05.2020
3485 Clouds 18 929 55 0 2.62 162 21:21 09.05.2020
3486 Clouds 18 929 51 0 2.62 162 20:58 09.05.2020
3487 Clouds 21 1009 53 10000 1.5 250 20:38 09.05.2020
3488 Clouds 20 1010 34 0 2.37 154 20:20 09.05.2020
3489 Clouds 22 1008 53 10000 0.5 0 19:56 09.05.2020
3490 Clouds 23 1009 49 10000 2.1 270 19:38 09.05.2020
3491 Rain 24 1009 15 0 2.47 160 19:19 09.05.2020
3492 Rain 23 1006 52 0 0.89 261 18:44 09.05.2020
3493 Rain 24 930 37 0 1.72 209 18:26 09.05.2020
3494 Rain 24 1007 49 0 1.34 238 17:46 09.05.2020
3495 Rain 25 1007 47 0 0.89 335 17:23 09.05.2020
3496 Rain 25 1007 47 0 0.89 335 17:23 09.05.2020
3497 Rain 25 1007 47 0 0.89 335 16:57 09.05.2020
3498 Rain 24 1012 46 0 0.89 352 16:39 09.05.2020
3499 Rain 23 1012 46 0 0.89 352 16:19 09.05.2020
3500 Rain 23 1012 46 0 0.89 352 16:19 09.05.2020
3501 Rain 24 1012 44 0 2.68 350 15:44 09.05.2020
3502 Rain 24 1012 44 0 2.68 350 15:26 09.05.2020
3503 Rain 24 1012 44 0 2.68 350 14:57 09.05.2020
3504 Rain 24 1013 44 0 1.34 305 14:39 09.05.2020
3505 Rain 24 1013 44 0 1.34 305 14:18 09.05.2020
3506 Rain 23 1013 44 0 1.34 305 13:56 09.05.2020
3507 Rain 23 1013 46 0 1.34 316 13:38 09.05.2020
3508 Rain 23 1013 46 0 1.34 316 13:18 09.05.2020
3509 Rain 23 1013 46 0 1.34 316 13:18 09.05.2020
3510 Rain 23 1010 52 0 2.24 354 12:41 09.05.2020
3511 Clouds 22 1015 43 0 0.45 292 12:22 09.05.2020
3512 Clouds 21 1014 56 0 1.79 8 11:45 09.05.2020
3513 Clouds 21 1014 56 0 1.79 8 11:20 09.05.2020
3514 Clouds 20 1014 56 0 1.79 8 10:56 09.05.2020
3515 Clouds 18 1015 63 0 1.79 348 10:38 09.05.2020
3516 Clouds 18 1015 63 0 1.79 348 10:20 09.05.2020
3517 Clouds 18 1015 63 0 1.79 348 09:54 09.05.2020
3518 Clouds 19 1011 70 0 1.43 162 09:36 09.05.2020
3519 Clouds 15 1012 76 0 0.45 163 09:18 09.05.2020
3520 Clouds 13 1015 80 0 0.45 176 08:43 09.05.2020
3521 Clouds 13 1015 80 0 0.45 176 08:25 09.05.2020
3522 Clouds 12 1015 84 0 0.45 224 07:48 09.05.2020
3523 Clouds 12 1015 84 0 0.45 224 07:30 09.05.2020
3524 Clouds 10 1015 87 0 0.45 136 06:45 09.05.2020
3525 Rain 10 1015 87 0 0.45 136 06:21 09.05.2020
3526 Rain 11 1015 82 0 2.21 180 05:44 09.05.2020
3527 Rain 11 1015 82 0 0.89 222 03:44 09.05.2020
3528 Rain 11 1015 82 0 0.89 222 02:55 09.05.2020
3529 Rain 13 934 71 0 2.11 192 02:30 09.05.2020
3530 Rain 13 1015 49 0 2.48 178 01:51 09.05.2020
3531 Rain 13 1012 80 0 2.49 181 01:23 09.05.2020
3532 Rain 13 934 68 0 2.49 181 00:44 09.05.2020
3533 Rain 13 934 66 0 2.31 174 00:24 09.05.2020
3534 Rain 14 934 64 0 2.31 174 23:48 08.05.2020
3535 Clouds 14 1015 43 0 2.21 171 23:28 08.05.2020
3536 Clouds 14 934 61 0 2.21 171 22:57 08.05.2020
3537 Clouds 14 934 59 0 2.21 171 22:39 08.05.2020
3538 Clouds 16 1015 60 10000 1.5 160 22:19 08.05.2020
3539 Clouds 16 1015 52 10000 1.5 0 21:58 08.05.2020
3540 Clouds 16 935 52 0 1.92 169 21:38 08.05.2020
3541 Clouds 17 935 52 0 1.54 172 21:18 08.05.2020
3542 Clouds 16 935 50 0 1.54 172 20:56 08.05.2020
3543 Clouds 18 1016 25 0 1.54 172 20:38 08.05.2020
3544 Rain 20 935 43 0 0.65 148 20:20 08.05.2020
3545 Rain 21 1015 17 0 0.65 148 19:42 08.05.2020
3546 Rain 22 1015 16 0 0.89 255 19:22 08.05.2020
3547 Rain 23 1017 34 0 0.45 292 18:50 08.05.2020
3548 Rain 22 1016 44 0 2.68 342 18:31 08.05.2020
3549 Clouds 22 1013 45 0 2.68 336 17:43 08.05.2020
3550 Clouds 23 1017 39 0 0.89 292 17:20 08.05.2020
3551 Clouds 24 1014 48 0 3.13 254 16:58 08.05.2020
3552 Clouds 23 1016 45 0 2.68 300 16:39 08.05.2020
3553 Clouds 23 1016 45 0 2.68 300 16:21 08.05.2020
3554 Clouds 22 1017 45 0 3.13 326 15:44 08.05.2020
3555 Clouds 22 1017 45 0 3.13 326 15:23 08.05.2020
3556 Clouds 22 1017 45 0 3.13 326 14:58 08.05.2020
3557 Clouds 22 1017 44 0 3.13 344 14:40 08.05.2020
3558 Clouds 22 1017 44 0 3.13 344 14:20 08.05.2020
3559 Clouds 22 1017 44 0 3.13 344 13:57 08.05.2020
3560 Clouds 22 1015 50 0 3.13 350 13:39 08.05.2020
3561 Clouds 22 1015 48 0 2.68 323 13:18 08.05.2020
3562 Clouds 22 1016 47 0 3.13 354 12:45 08.05.2020
3563 Clouds 21 1016 47 0 2.68 312 12:23 08.05.2020
3564 Clouds 21 1016 47 0 2.68 312 11:55 08.05.2020
3565 Clouds 20 1019 44 0 0.45 6 11:36 08.05.2020
3566 Clouds 20 1019 44 0 0.45 6 11:18 08.05.2020
3567 Clouds 19 1019 44 0 0.91 260 10:43 08.05.2020
3568 Clouds 19 1019 44 0 0.83 248 10:21 08.05.2020
3569 Clouds 18 1019 44 0 0.83 248 09:59 08.05.2020
3570 Clouds 17 1018 59 0 0.83 248 09:40 08.05.2020
3571 Clouds 16 1021 53 0 0.45 157 09:19 08.05.2020
3572 Clouds 11 1020 76 0 0.45 215 08:45 08.05.2020
3573 Clouds 9 1020 76 0 0.45 215 08:24 08.05.2020
3574 Clouds 7 1020 84 0 0.45 148 07:44 08.05.2020
3575 Clouds 7 1020 84 0 0.45 148 07:25 08.05.2020
3576 Clouds 7 1020 84 0 0.45 148 06:51 08.05.2020
3577 Clouds 7 1019 83 0 0.45 159 06:24 08.05.2020
3578 Clouds 7 1019 83 0 0.45 159 05:58 08.05.2020
3579 Clouds 7 1019 77 0 2.45 174 04:44 08.05.2020
3580 Clouds 8 1021 78 0 2.51 174 02:38 08.05.2020
3581 Clouds 9 1021 78 0 2.63 171 01:56 08.05.2020
3582 Clouds 9 1021 75 0 1.34 164 01:29 08.05.2020
3583 Clouds 9 1021 75 0 1.34 164 00:58 08.05.2020
3584 Clouds 9 1021 77 0 2.7 176 00:39 08.05.2020
3585 Clouds 8 1021 77 0 2.66 175 00:21 08.05.2020
3586 Clouds 9 1020 44 0 2.66 175 23:42 07.05.2020
3587 Clouds 9 1021 76 10000 1.5 260 23:23 07.05.2020
3588 Clouds 9 1021 76 10000 1.5 260 23:23 07.05.2020
3589 Clouds 10 1021 58 10000 0.5 0 22:57 07.05.2020
3590 Clouds 11 1021 39 10000 2.6 140 22:39 07.05.2020
3591 Clear 12 1021 39 10000 2.6 140 22:19 07.05.2020
3592 Clear 12 1020 47 10000 2.6 130 21:56 07.05.2020
3593 Clear 12 1021 63 0 0.45 235 21:37 07.05.2020
3594 Clear 12 1021 63 0 0.45 235 21:19 07.05.2020
3595 Clear 16 1019 44 0 0.73 178 20:42 07.05.2020
3596 Clear 17 1019 44 0 0.4 58 20:23 07.05.2020
3597 Clear 16 939 39 0 0.4 58 19:58 07.05.2020
3598 Clear 19 1020 34 0 1.79 316 19:38 07.05.2020
3599 Clear 19 1020 34 0 1.79 316 19:20 07.05.2020
3600 Clear 20 1020 32 0 0.89 295 18:45 07.05.2020
3601 Clear 21 1020 32 0 0.89 295 18:26 07.05.2020
3602 Clear 21 1020 32 0 0.89 295 17:57 07.05.2020
3603 Clear 21 1021 32 0 2.24 331 17:36 07.05.2020
3604 Clear 21 1021 32 0 2.24 331 17:18 07.05.2020
3605 Clear 20 1021 28 0 1.34 315 16:40 07.05.2020
3606 Clear 20 1021 28 0 1.34 315 16:18 07.05.2020
3607 Clear 20 1021 28 0 1.34 315 15:56 07.05.2020
3608 Clear 20 1021 30 0 2.68 317 15:37 07.05.2020
3609 Clear 20 1021 30 0 2.68 317 15:18 07.05.2020
3610 Clear 19 1021 27 0 2.24 323 14:44 07.05.2020
3611 Clear 19 1021 27 0 2.24 323 14:21 07.05.2020
3612 Clear 19 1022 27 0 0.89 335 13:45 07.05.2020
3613 Clear 18 1022 27 0 0.89 335 13:26 07.05.2020
3614 Clear 18 1022 27 0 0.89 335 12:55 07.05.2020
3615 Clear 17 1022 33 0 1.34 356 12:37 07.05.2020
3616 Clear 17 1022 33 0 1.34 356 12:18 07.05.2020
3617 Clear 15 1023 40 0 0.45 345 11:39 07.05.2020
3618 Clear 14 1023 40 0 0.45 345 11:21 07.05.2020
3619 Clear 12 1023 62 0 1.34 324 10:44 07.05.2020
3620 Clear 12 1023 62 0 1.34 324 10:26 07.05.2020
3621 Clear 11 1023 62 0 1.34 324 09:57 07.05.2020
3622 Clear 8 1024 72 0 0.56 113 09:38 07.05.2020
3623 Clear 8 1024 72 0 0.59 119 09:18 07.05.2020
3624 Clear 4 1024 91 0 0.59 119 08:43 07.05.2020
3625 Clear 3 1024 91 0 1.1 154 08:22 07.05.2020
3626 Clear 3 1024 91 0 1.1 154 07:58 07.05.2020
3627 Clear 2 1023 93 0 0.45 222 07:39 07.05.2020
3628 Clear 2 1023 93 0 0.45 222 07:19 07.05.2020
3629 Clear 2 1023 92 0 0.45 229 06:37 07.05.2020
3630 Clear 2 1023 92 0 0.45 229 05:56 07.05.2020
3631 Clear 2 1023 92 0 0.45 160 04:27 07.05.2020
3632 Clear 3 1023 91 0 0.45 158 03:29 07.05.2020
3633 Clear 3 1023 91 0 0.45 158 02:59 07.05.2020
3634 Clear 4 1023 87 0 1.34 168 02:26 07.05.2020
3635 Clear 4 1023 89 0 0.45 193 01:27 07.05.2020
3636 Clear 4 1023 89 0 0.45 193 00:52 07.05.2020
3637 Clear 4 1023 84 0 0.45 243 00:31 07.05.2020
3638 Clear 4 1023 84 0 0.45 243 23:58 06.05.2020
3639 Clear 3 941 70 0 1.63 168 23:39 06.05.2020
3640 Clear 4 941 68 0 1.82 166 23:21 06.05.2020
3641 Clear 5 941 65 0 1.82 166 22:55 06.05.2020
3642 Clear 5 941 64 0 1.82 166 22:37 06.05.2020
3643 Clear 5 941 61 0 1.31 151 22:18 06.05.2020
3644 Clear 6 941 55 0 1.31 151 21:42 06.05.2020
3645 Clear 7 1022 40 0 0.89 50 21:23 06.05.2020
3646 Clear 9 940 48 0 0.77 117 20:57 06.05.2020
3647 Clouds 11 1021 52 0 0.89 334 20:38 06.05.2020
3648 Clouds 12 1021 52 0 0.89 334 20:20 06.05.2020
3649 Clouds 12 1021 52 0 0.89 334 19:56 06.05.2020
3650 Clouds 12 1020 54 0 1.34 330 19:37 06.05.2020
3651 Clouds 13 1020 54 0 1.34 330 19:18 06.05.2020
3652 Clouds 13 1020 54 0 1.34 330 18:55 06.05.2020
3653 Clouds 14 1020 52 0 1.34 330 18:37 06.05.2020
3654 Clouds 14 1020 52 0 1.34 330 18:18 06.05.2020
3655 Clouds 14 1020 52 0 1.34 330 17:54 06.05.2020
3656 Clouds 14 1020 50 0 1.34 307 17:36 06.05.2020
3657 Clouds 14 1020 50 0 1.34 307 17:18 06.05.2020
3658 Clouds 14 1020 50 0 1.34 307 17:18 06.05.2020
3659 Clouds 14 1020 50 0 1.34 307 16:57 06.05.2020
3660 Clouds 14 1020 56 0 1.79 322 16:39 06.05.2020
3661 Clouds 14 1020 56 0 1.79 322 16:39 06.05.2020
3662 Clouds 14 1020 56 0 1.79 322 16:19 06.05.2020
3663 Clouds 13 1020 58 0 1.79 302 15:45 06.05.2020
3664 Clouds 13 1020 58 0 1.79 302 15:22 06.05.2020
3665 Clouds 12 1020 58 0 1.79 302 14:56 06.05.2020
3666 Clouds 12 1020 68 0 1.41 358 14:38 06.05.2020
3667 Clouds 12 1020 68 0 1.13 357 14:19 06.05.2020
3668 Clouds 11 1020 68 0 1.13 357 13:57 06.05.2020
3669 Clouds 10 1020 70 0 1.13 357 13:37 06.05.2020
3670 Clouds 10 1020 70 0 0.81 355 13:19 06.05.2020
3671 Clouds 9 1020 78 0 3.13 16 12:42 06.05.2020
3672 Clouds 9 1020 78 0 3.13 16 12:24 06.05.2020
3673 Clouds 8 1020 82 0 0.74 19 11:42 06.05.2020
3674 Clouds 8 1020 82 0 0.74 19 11:42 06.05.2020
3675 Snow 8 1020 82 0 0.95 27 11:22 06.05.2020
3676 Snow 7 1020 82 0 0.95 27 10:58 06.05.2020
3677 Snow 7 1020 92 0 2.24 14 10:39 06.05.2020
3678 Rain 7 1020 92 0 2.24 14 10:19 06.05.2020
3679 Rain 6 1020 92 0 2.24 14 09:57 06.05.2020
3680 Rain 6 1020 97 0 1.79 5 09:37 06.05.2020
3681 Rain 6 1020 97 0 1.79 5 09:19 06.05.2020
3682 Rain 5 1019 97 0 1.34 16 08:42 06.05.2020
3683 Rain 5 1019 97 0 1.34 16 08:20 06.05.2020
3684 Rain 5 1019 97 0 1.34 16 07:56 06.05.2020
3685 Rain 5 1019 98 0 1.34 355 07:37 06.05.2020
3686 Clouds 5 1019 98 0 1.34 355 07:18 06.05.2020
3687 Clouds 5 1019 98 0 1.34 355 07:18 06.05.2020
3688 Clouds 5 1018 99 0 0.45 340 06:43 06.05.2020
3689 Rain 5 1018 99 0 0.45 340 06:19 06.05.2020
3690 Rain 6 1018 98 0 0.98 22 05:37 06.05.2020
3691 Rain 7 1018 98 0 1.09 7 04:50 06.05.2020
3692 Rain 7 1018 97 0 0.45 18 03:50 06.05.2020
3693 Rain 7 1018 96 0 0.62 352 03:24 06.05.2020
3694 Rain 7 1019 95 0 0.62 352 02:43 06.05.2020
3695 Rain 7 1019 95 0 0.17 32 02:20 06.05.2020
3696 Rain 7 1019 98 0 0.45 12 01:42 06.05.2020
3697 Rain 7 1019 98 0 0.45 12 00:57 06.05.2020
3698 Rain 7 1018 99 0 0.45 24 00:37 06.05.2020
3699 Rain 7 1018 99 0 0.45 24 00:18 06.05.2020
3700 Rain 7 1018 99 0 1.79 1 23:40 05.05.2020
3701 Rain 7 1018 99 0 1.79 1 23:19 05.05.2020
3702 Rain 7 1018 99 0 1.79 1 23:19 05.05.2020
3703 Rain 7 1018 99 0 2.24 10 22:42 05.05.2020
3704 Rain 7 1018 99 0 2.24 10 22:20 05.05.2020
3705 Rain 7 1018 99 0 2.24 10 21:59 05.05.2020
3706 Rain 7 1017 98 0 0.62 82 21:41 05.05.2020
3707 Rain 7 1017 98 0 0.78 111 21:21 05.05.2020
3708 Rain 7 1017 98 0 0.78 111 20:59 05.05.2020
3709 Rain 8 1016 98 0 0.45 297 20:39 05.05.2020
3710 Rain 8 1016 98 0 0.45 297 20:19 05.05.2020
3711 Rain 8 1016 98 0 0.45 297 19:57 05.05.2020
3712 Rain 8 1016 99 0 1.79 304 19:37 05.05.2020
3713 Rain 8 1016 99 0 1.79 304 19:18 05.05.2020
3714 Rain 8 1016 99 0 1.79 304 18:55 05.05.2020
3715 Rain 9 1016 97 0 0.45 305 18:37 05.05.2020
3716 Rain 9 1016 97 0 0.45 305 18:18 05.05.2020
3717 Rain 9 1016 88 0 0.89 70 17:42 05.05.2020
3718 Rain 9 1016 88 0 0.89 70 17:24 05.05.2020
3719 Rain 10 1016 88 0 0.89 70 16:57 05.05.2020
3720 Rain 10 1016 89 0 3.13 173 16:37 05.05.2020
3721 Rain 10 1016 89 0 3.13 173 16:18 05.05.2020
3722 Rain 10 1016 89 0 3.13 173 15:55 05.05.2020
3723 Rain 10 1016 95 0 1.79 143 15:37 05.05.2020
3724 Rain 10 1016 95 0 1.79 143 15:18 05.05.2020
3725 Rain 9 1016 98 0 0.45 341 14:42 05.05.2020
3726 Rain 9 1016 98 0 0.45 341 14:24 05.05.2020
3727 Rain 9 1016 98 0 0.45 341 13:58 05.05.2020
3728 Rain 9 1016 98 0 0.45 341 13:58 05.05.2020
3729 Rain 9 1016 99 0 0.89 337 13:40 05.05.2020
3730 Rain 9 1016 99 0 0.89 337 13:21 05.05.2020
3731 Rain 9 1016 99 0 0.89 337 12:59 05.05.2020
3732 Rain 10 1015 96 0 1.34 360 12:39 05.05.2020
3733 Rain 10 1015 96 0 1.34 360 12:20 05.05.2020
3734 Rain 10 1013 93 0 1.34 307 11:57 05.05.2020
3735 Rain 10 1013 92 0 0.89 328 11:36 05.05.2020
3736 Rain 10 1013 92 0 0.89 294 11:18 05.05.2020
3737 Rain 10 1013 92 0 1.34 318 11:18 05.05.2020
3738 Rain 10 1015 92 0 0.45 181 10:39 05.05.2020
3739 Rain 10 1015 92 0 0.45 181 10:39 05.05.2020
3740 Rain 10 1015 92 0 0.45 181 10:19 05.05.2020
3741 Rain 10 1015 92 0 0.45 181 09:59 05.05.2020
3742 Rain 10 1015 92 0 0.45 181 09:59 05.05.2020
3743 Rain 10 1015 85 0 0.89 26 09:40 05.05.2020
3744 Rain 10 1015 85 0 0.89 26 09:40 05.05.2020
3745 Rain 10 1015 85 0 0.89 26 09:22 05.05.2020
3746 Rain 10 1015 87 0 0.89 13 08:41 05.05.2020
3747 Rain 10 1015 87 0 0.89 13 08:20 05.05.2020
3748 Rain 10 1015 87 0 0.89 13 07:58 05.05.2020
3749 Rain 10 1012 87 0 0.45 343 07:38 05.05.2020
3750 Rain 10 1012 87 0 0.45 328 07:19 05.05.2020
3751 Rain 10 1012 87 0 0.89 346 06:49 05.05.2020
3752 Rain 10 1014 84 0 0.45 24 06:22 05.05.2020
3753 Rain 10 1014 53 0 1.34 51 05:37 05.05.2020
3754 Rain 10 934 77 0 0.86 219 03:35 05.05.2020
3755 Rain 11 935 73 0 0.95 262 01:51 05.05.2020
3756 Rain 11 1016 51 0 1.79 53 00:54 05.05.2020
3757 Rain 12 1016 54 0 0.77 266 00:22 05.05.2020
3758 Rain 11 935 73 0 0.77 266 23:45 04.05.2020
3759 Rain 11 935 73 0 0.77 266 23:45 04.05.2020
3760 Clouds 12 1015 77 10000 2.1 220 23:23 04.05.2020
3761 Clouds 13 1015 67 10000 3.1 30 22:56 04.05.2020
3762 Clouds 12 1014 72 10000 1 0 22:38 04.05.2020
3763 Clouds 13 1014 72 10000 1 0 22:19 04.05.2020
3764 Clouds 12 1014 82 10000 1 0 21:53 04.05.2020
3765 Clouds 14 1014 72 10000 0.5 0 21:33 04.05.2020
3766 Clouds 14 1014 72 10000 0.5 0 21:33 04.05.2020
3767 Rain 14 933 66 0 1.83 219 20:56 04.05.2020
3768 Rain 15 1014 36 0 2.23 200 20:38 04.05.2020
3769 Rain 14 1014 37 0 1.83 219 20:38 04.05.2020
3770 Rain 14 1014 37 0 1.83 219 20:38 04.05.2020
3771 Rain 14 1014 37 0 1.83 219 20:38 04.05.2020
3772 Rain 14 1014 37 0 1.83 219 20:38 04.05.2020
3773 Rain 16 1014 31 0 2.23 200 20:18 04.05.2020
3774 Clouds 16 1014 59 10000 4.1 280 19:42 04.05.2020
3775 Rain 17 1014 24 0 2.13 212 19:21 04.05.2020
3776 Rain 17 1014 24 0 2.13 212 19:21 04.05.2020
3777 Clouds 18 1014 52 10000 4.6 290 18:56 04.05.2020
3778 Clouds 19 1014 52 10000 4.1 300 18:38 04.05.2020
3779 Clouds 19 1014 52 10000 4.1 300 18:18 04.05.2020
3780 Clouds 18 1015 49 10000 2.6 310 17:55 04.05.2020
3781 Rain 21 1015 49 10000 1.5 280 17:37 04.05.2020
3782 Rain 20 1015 23 0 1.79 297 17:18 04.05.2020
3783 Rain 18 1015 24 0 4.02 194 16:42 04.05.2020
3784 Rain 20 912 31 0 2.73 231 16:21 04.05.2020
3785 Rain 20 1014 63 0 3.58 238 15:46 04.05.2020
3786 Rain 20 1014 63 0 3.58 238 15:46 04.05.2020
3787 Rain 18 1014 61 0 4.02 235 15:25 04.05.2020
3788 Rain 20 1014 67 0 3.13 246 14:58 04.05.2020
3789 Rain 17 1017 55 0 0.45 341 14:40 04.05.2020
3790 Rain 17 1017 55 0 0.45 341 14:40 04.05.2020
3791 Rain 17 1017 55 0 0.45 341 14:40 04.05.2020
3792 Rain 17 1017 55 0 0.45 341 14:40 04.05.2020
3793 Rain 17 1017 55 0 0.45 341 14:40 04.05.2020
3794 Rain 16 1017 55 0 0.45 341 14:10 04.05.2020
3795 Rain 16 1017 55 0 0.45 341 14:10 04.05.2020
3796 Rain 16 1017 55 0 0.45 341 14:08 04.05.2020
3797 Rain 16 1017 55 0 0.45 341 14:07 04.05.2020
3798 Rain 16 1017 55 0 0.45 341 14:07 04.05.2020
3799 Rain 15 1016 72 0 2.24 328 12:49 04.05.2020
3800 Rain 15 1016 72 0 2.24 328 12:49 04.05.2020
3801 Rain 15 1016 72 0 2.24 328 12:49 04.05.2020
3802 Rain 15 1016 72 0 2.24 328 12:49 04.05.2020
3803 Rain 15 1016 72 0 2.24 328 12:49 04.05.2020
3804 Rain 14 1016 84 0 1.34 227 12:24 04.05.2020
3805 Rain 14 936 69 0 1.91 242 12:24 04.05.2020
3806 Rain 14 1016 84 0 1.34 227 12:24 04.05.2020
3807 Rain 14 936 69 0 1.91 242 12:24 04.05.2020
3808 Rain 14 1016 84 0 1.34 227 12:24 04.05.2020
3809 Rain 11 1018 74 0 0.45 85 09:33 04.05.2020
3810 Rain 12 1018 74 0 0.45 85 09:09 04.05.2020
3811 Rain 12 1018 74 0 0.45 85 09:02 04.05.2020
3812 Rain 12 1018 74 0 0.45 85 09:02 04.05.2020
3813 Rain 12 1018 74 0 0.45 85 09:02 04.05.2020
3814 Rain 12 1018 74 0 0.45 85 09:02 04.05.2020
3815 Clouds 9 1017 89 0 0.45 143 07:51 04.05.2020
3816 Clouds 9 1017 89 0 0.45 143 07:51 04.05.2020
3817 Clouds 9 1017 89 0 0.45 143 07:51 04.05.2020
3818 Clouds 9 1017 89 0 0.45 143 07:51 04.05.2020
3819 Clouds 9 1017 89 0 0.45 143 07:51 04.05.2020
3820 Clouds 9 1018 88 0 0.89 166 07:26 04.05.2020
3821 Clouds 8 1018 90 0 0.89 153 04:57 04.05.2020
3822 Clouds 9 936 86 0 2.5 176 03:21 04.05.2020
3823 Clouds 9 936 86 0 2.5 176 03:21 04.05.2020
3824 Clouds 9 936 86 0 2.5 176 03:21 04.05.2020
3825 Clouds 8 1018 74 0 2.87 183 02:31 04.05.2020
3826 Rain 9 1018 61 0 2.73 176 00:38 04.05.2020
3827 Rain 10 936 64 0 2.61 161 23:46 03.05.2020
3828 Rain 10 936 63 0 2.85 178 23:25 03.05.2020
3829 Rain 10 936 60 0 2.85 178 22:57 03.05.2020
3830 Rain 10 936 60 0 2.85 178 22:38 03.05.2020
3831 Rain 10 936 60 0 2.85 178 22:38 03.05.2020
3832 Rain 10 936 60 0 2.85 178 22:38 03.05.2020
3833 Rain 11 936 59 0 2.76 199 22:20 03.05.2020
3834 Rain 10 1018 71 0 2.76 199 21:41 03.05.2020
3835 Clouds 11 936 55 0 2.1 186 21:20 03.05.2020
3836 Clouds 12 1017 30 0 2.1 186 20:47 03.05.2020
3837 Clouds 12 936 48 0 1.71 171 20:23 03.05.2020
3838 Clouds 13 936 46 0 1.71 171 19:56 03.05.2020
3839 Clouds 13 1017 53 0 0.89 341 19:37 03.05.2020
3840 Clouds 14 936 41 0 1.39 176 19:18 03.05.2020
3841 Clouds 15 1017 33 0 1.34 307 18:39 03.05.2020
3842 Clouds 15 1017 33 0 1.34 307 18:20 03.05.2020
3843 Clouds 15 1017 33 0 1.34 307 17:54 03.05.2020
3844 Clouds 15 1017 31 0 0.89 4 17:36 03.05.2020
3845 Clouds 15 1017 31 0 0.89 4 17:18 03.05.2020
3846 Clouds 15 1017 32 0 0.45 356 16:40 03.05.2020
3847 Clouds 15 1017 32 0 0.45 356 16:18 03.05.2020
3848 Clouds 15 1017 32 0 0.45 356 15:56 03.05.2020
3849 Clouds 15 1018 37 0 0.89 326 15:37 03.05.2020
3850 Clouds 15 1018 37 0 0.89 326 15:19 03.05.2020
3851 Clouds 15 1018 37 0 0.89 326 14:54 03.05.2020
3852 Clouds 13 1017 35 0 1.34 358 14:36 03.05.2020
3853 Clouds 13 1017 35 0 1.34 358 14:18 03.05.2020
3854 Clouds 13 1019 45 0 1.79 306 13:37 03.05.2020
3855 Clouds 13 1019 45 0 1.79 306 13:37 03.05.2020
3856 Clouds 13 1019 45 0 1.79 306 13:37 03.05.2020
3857 Clouds 12 1018 33 0 1.98 261 12:52 03.05.2020
3858 Clouds 12 1018 33 0 2.38 270 12:27 03.05.2020
3859 Clouds 12 1018 33 0 2.38 270 12:27 03.05.2020
3860 Clouds 12 1018 33 0 2.38 270 11:57 03.05.2020
3861 Clouds 11 1019 56 0 1.34 22 11:39 03.05.2020
3862 Clouds 11 1019 29 0 1.86 269 11:20 03.05.2020
3863 Clouds 10 1019 57 0 0.45 148 10:54 03.05.2020
3864 Clouds 9 1018 67 0 0.45 296 10:24 03.05.2020
3865 Clouds 6 1019 82 0 1.32 281 09:40 03.05.2020
3866 Clouds 6 1019 82 0 1.32 281 09:40 03.05.2020
3867 Clouds 5 1019 82 0 1.1 272 08:58 03.05.2020
3868 Clouds 2 1018 95 0 0.89 123 08:35 03.05.2020
3869 Clouds 2 1018 95 0 0.89 123 08:35 03.05.2020
3870 Clouds 1 1018 96 0 0.45 184 07:42 03.05.2020
3871 Clouds 1 1018 96 0 0.45 184 07:42 03.05.2020
3872 Clouds 1 1018 96 0 0.45 184 07:42 03.05.2020
3873 Clouds 1 1018 96 0 0.45 184 07:42 03.05.2020
3874 Clouds 1 1018 96 0 0.45 184 07:42 03.05.2020
3875 Clouds 0 1017 97 0 0.45 226 06:44 03.05.2020
3876 Clear 1 1017 97 0 0.45 226 05:54 03.05.2020
3877 Clear 1 1017 96 0 2.15 185 05:35 03.05.2020
3878 Clear 2 1016 95 0 2.06 188 04:27 03.05.2020
3879 Clear 2 1016 79 0 2.06 188 03:31 03.05.2020
3880 Clouds 3 1016 93 0 1.76 187 02:31 03.05.2020
3881 Clouds 2 934 87 0 1.76 187 01:50 03.05.2020
3882 Clouds 2 1016 73 0 1.6 198 01:27 03.05.2020
3883 Clouds 3 934 87 0 1.6 198 01:01 03.05.2020
3884 Clouds 3 934 87 0 1.6 198 01:01 03.05.2020
3885 Clouds 3 935 87 0 1.6 198 01:01 03.05.2020
3886 Clouds 4 1016 94 0 1.6 198 00:38 03.05.2020
3887 Clouds 4 1016 94 0 1.26 189 00:20 03.05.2020
3888 Clouds 5 1016 94 0 0.45 211 23:44 02.05.2020
3889 Rain 5 1016 94 0 0.45 211 23:26 02.05.2020
3890 Rain 5 1016 94 0 0.45 211 22:56 02.05.2020
3891 Rain 5 1016 91 0 1.09 207 22:37 02.05.2020
3892 Rain 4 1016 79 0 0.45 180 22:18 02.05.2020
3893 Rain 5 933 83 0 0.72 187 21:40 02.05.2020
3894 Rain 6 933 83 0 0.89 337 21:19 02.05.2020
3895 Rain 5 1014 91 0 0.89 219 20:57 02.05.2020
3896 Rain 5 1014 89 0 0.45 203 20:38 02.05.2020
3897 Rain 5 1014 89 0 0.45 203 20:19 02.05.2020
3898 Rain 5 1014 89 0 0.45 203 19:57 02.05.2020
3899 Rain 6 1012 93 0 2.24 4 19:39 02.05.2020
3900 Rain 7 1012 93 0 2.24 4 19:19 02.05.2020
3901 Rain 7 1012 93 0 2.24 4 18:56 02.05.2020
3902 Rain 8 1011 89 0 2.24 336 18:37 02.05.2020
3903 Rain 9 1010 88 0 2.24 344 18:19 02.05.2020
3904 Rain 10 1010 81 0 1.34 341 17:54 02.05.2020
3905 Rain 9 1011 72 0 1.34 181 17:36 02.05.2020
3906 Rain 11 1010 63 0 3.18 264 17:18 02.05.2020
3907 Rain 7 1006 100 0 2.68 274 16:43 02.05.2020
3908 Rain 11 1011 62 0 1.79 180 16:25 02.05.2020
3909 Rain 12 1009 83 0 3.13 187 15:44 02.05.2020
3910 Rain 12 1010 40 0 2.68 160 15:21 02.05.2020
3911 Rain 11 1011 48 0 2.68 152 14:59 02.05.2020
3912 Rain 11 1011 55 0 2.68 188 14:40 02.05.2020
3913 Rain 11 1012 66 0 1.79 292 14:22 02.05.2020
3914 Rain 10 1012 78 0 0.45 108 13:41 02.05.2020
3915 Clouds 10 1012 78 0 0.45 108 13:23 02.05.2020
3916 Clouds 9 1012 78 0 0.45 108 12:56 02.05.2020
3917 Clouds 8 1011 83 0 0.89 168 12:38 02.05.2020
3918 Rain 7 930 80 0 1.77 227 12:20 02.05.2020
3919 Rain 7 1011 93 0 1.79 235 11:54 02.05.2020
3920 Rain 7 1013 77 0 0.45 112 11:36 02.05.2020
3921 Rain 7 1013 79 0 0.45 112 11:18 02.05.2020
3922 Rain 6 1012 90 0 0.89 189 10:39 02.05.2020
3923 Rain 6 1012 90 0 0.89 189 10:21 02.05.2020
3924 Rain 6 1012 90 0 1.34 224 09:58 02.05.2020
3925 Rain 6 1011 91 0 1.87 264 09:39 02.05.2020
3926 Rain 6 1012 91 0 0.89 187 09:20 02.05.2020
3927 Rain 6 1012 92 0 0.45 186 08:51 02.05.2020
3928 Rain 6 1012 95 0 2.04 229 08:31 02.05.2020
3929 Rain 6 1012 95 0 1.87 243 07:49 02.05.2020
3930 Rain 5 1011 93 0 0.45 245 07:30 02.05.2020
3931 Rain 6 1011 93 0 0.45 245 06:53 02.05.2020
3932 Rain 6 1011 94 0 1.79 208 06:23 02.05.2020
3933 Rain 6 1011 94 0 0.89 185 05:27 02.05.2020
3934 Rain 6 1010 95 0 1.79 165 04:26 02.05.2020
3935 Rain 6 1009 74 0 2.24 181 03:34 02.05.2020
3936 Rain 7 1009 92 0 1.34 139 02:39 02.05.2020
3937 Rain 7 1009 96 0 1.79 147 01:52 02.05.2020
3938 Rain 7 1009 96 0 1.79 147 00:58 02.05.2020
3939 Rain 7 1009 93 0 0.45 172 00:40 02.05.2020
3940 Rain 7 1009 93 0 0.45 172 00:18 02.05.2020
3941 Rain 7 1008 87 0 2.24 147 23:40 01.05.2020
3942 Rain 7 1008 87 0 2.24 147 23:20 01.05.2020
3943 Rain 7 1008 87 0 2.24 147 22:58 01.05.2020
3944 Rain 7 1008 93 0 1.34 232 22:38 01.05.2020
3945 Rain 7 1008 93 0 1.34 232 22:19 01.05.2020
3946 Rain 7 1008 93 0 1.34 232 21:57 01.05.2020
3947 Rain 7 1008 96 0 1.16 141 21:38 01.05.2020
3948 Rain 8 1008 96 0 0.76 239 21:18 01.05.2020
3949 Rain 8 1008 96 0 0.76 239 20:56 01.05.2020
3950 Rain 8 1007 95 0 1.79 331 20:37 01.05.2020
3951 Rain 8 1007 95 0 1.79 331 20:19 01.05.2020
3952 Rain 8 1006 89 0 2.68 1 19:42 01.05.2020
3953 Rain 9 1005 83 0 1.79 351 19:22 01.05.2020
3954 Rain 9 1005 83 0 1.79 351 18:58 01.05.2020
3955 Rain 9 1005 83 0 1.79 351 18:40 01.05.2020
3956 Rain 10 1005 83 0 1.79 351 18:21 01.05.2020
3957 Rain 10 1005 83 0 1.79 351 17:57 01.05.2020
3958 Rain 11 1006 79 0 0.89 330 17:38 01.05.2020
3959 Rain 11 1006 79 0 0.89 330 17:20 01.05.2020
3960 Rain 11 1006 79 0 0.89 330 16:55 01.05.2020
3961 Rain 11 1006 79 0 0.89 330 16:55 01.05.2020
3962 Rain 11 1006 80 0 1.34 195 16:37 01.05.2020
3963 Rain 11 1006 80 0 1.34 195 16:19 01.05.2020
3964 Rain 11 1007 74 0 0.45 185 15:42 01.05.2020
3965 Rain 10 1007 74 0 0.45 185 15:24 01.05.2020
3966 Rain 11 1007 74 0 0.45 185 14:59 01.05.2020
3967 Clouds 12 1006 61 0 2.68 6 14:40 01.05.2020
3968 Rain 12 1006 61 0 2.68 6 14:22 01.05.2020
3969 Rain 12 1004 67 0 1.34 319 13:41 01.05.2020
3970 Clouds 12 1006 36 0 1.79 191 13:22 01.05.2020
3971 Clouds 12 1006 37 0 1.34 279 13:22 01.05.2020
3972 Clouds 12 1005 77 0 2.24 253 12:58 01.05.2020
3973 Clouds 12 1007 66 10000 3.1 30 12:40 01.05.2020
3974 Clouds 12 1007 66 10000 3.1 30 12:19 01.05.2020
3975 Clouds 12 1007 71 10000 1.5 0 11:57 01.05.2020
3976 Clouds 11 1008 71 10000 2.6 0 11:39 01.05.2020
3977 Rain 11 1007 47 0 1.34 178 11:19 01.05.2020
3978 Rain 9 1007 77 0 1.79 327 10:41 01.05.2020
3979 Rain 9 1007 77 0 1.79 327 10:20 01.05.2020
3980 Rain 8 1007 77 0 1.79 327 09:54 01.05.2020
3981 Rain 9 1007 78 0 1.34 342 09:36 01.05.2020
3982 Clouds 8 927 79 0 1.05 171 09:18 01.05.2020
3983 Clouds 7 1009 87 0 1.05 171 08:42 01.05.2020
3984 Clouds 7 1009 87 0 1.36 164 08:24 01.05.2020
3985 Clouds 6 1009 93 0 1.79 217 07:46 01.05.2020
3986 Clouds 6 1009 93 0 1.79 217 07:23 01.05.2020
3987 Clouds 6 1009 93 0 1.79 217 06:56 01.05.2020
3988 Rain 6 1009 92 0 0.45 349 05:39 01.05.2020
3989 Rain 6 1009 92 0 0.45 349 05:19 01.05.2020
3990 Rain 6 1009 93 0 0.45 193 03:34 01.05.2020
3991 Rain 7 1010 84 0 0.89 148 02:48 01.05.2020
3992 Rain 7 1010 84 0 0.89 148 02:29 01.05.2020
3993 Rain 7 1009 53 0 2.24 209 01:36 01.05.2020
3994 Rain 7 1010 71 0 1.34 180 01:18 01.05.2020
3995 Rain 7 1010 93 0 0.89 159 00:38 01.05.2020
3996 Rain 7 1010 93 0 0.89 159 00:20 01.05.2020
3997 Rain 7 1010 93 0 0.89 159 23:55 30.04.2020
3998 Rain 7 1009 91 0 1.34 81 23:37 30.04.2020
3999 Rain 7 1009 91 0 1.34 81 23:19 30.04.2020
4000 Rain 7 1008 91 0 1.36 166 22:41 30.04.2020
4001 Rain 6 927 84 0 2.07 180 22:21 30.04.2020
4002 Rain 6 1008 68 0 2.07 180 21:56 30.04.2020
4003 Rain 7 1009 90 0 3.13 181 21:38 30.04.2020
4004 Rain 7 1009 90 0 3.13 181 21:19 30.04.2020
4005 Rain 7 1009 90 0 3.13 181 20:54 30.04.2020
4006 Rain 7 1009 87 0 4.02 145 20:36 30.04.2020
4007 Rain 7 1009 87 0 4.02 145 20:18 30.04.2020
4008 Rain 8 1009 87 0 1.79 138 19:42 30.04.2020
4009 Rain 8 1009 87 0 1.79 138 19:23 30.04.2020
4010 Rain 8 1009 87 0 1.79 138 18:56 30.04.2020
4011 Rain 9 1009 75 0 0.89 148 18:37 30.04.2020
4012 Rain 9 1009 75 0 0.89 148 18:19 30.04.2020
4013 Rain 9 1009 75 0 0.89 148 17:55 30.04.2020
4014 Rain 9 1008 77 0 1.34 347 17:37 30.04.2020
4015 Rain 9 1008 77 0 1.34 347 17:37 30.04.2020
4016 Rain 10 1008 77 0 1.34 347 17:18 30.04.2020
4017 Rain 10 1008 77 0 1.34 347 16:54 30.04.2020
4018 Rain 11 1008 66 0 0.45 51 16:36 30.04.2020
4019 Rain 11 1008 66 0 0.45 51 16:36 30.04.2020
4020 Clouds 12 1008 66 0 0.45 51 16:18 30.04.2020
4021 Clouds 12 1008 64 0 0.45 298 15:43 30.04.2020
4022 Clouds 12 1008 64 0 0.45 298 15:21 30.04.2020
4023 Clouds 12 1009 63 0 1.34 226 14:42 30.04.2020
4024 Clouds 12 1009 63 0 1.34 226 14:42 30.04.2020
4025 Clouds 12 1009 63 0 1.34 226 14:21 30.04.2020
4026 Clouds 12 1009 63 0 1.34 226 13:58 30.04.2020
4027 Clouds 12 1009 63 0 0.45 248 13:40 30.04.2020
4028 Clouds 12 1009 63 0 0.45 248 13:21 30.04.2020
4029 Clouds 12 1009 63 0 0.45 248 12:58 30.04.2020
4030 Clouds 12 1009 59 0 0.89 236 12:39 30.04.2020
4031 Clouds 12 1009 59 0 0.89 236 12:18 30.04.2020
4032 Clouds 13 1009 56 0 1.39 278 11:38 30.04.2020
4033 Clouds 13 1009 56 0 0.65 258 11:19 30.04.2020
4034 Clouds 13 1009 56 0 0.65 258 11:19 30.04.2020
4035 Clouds 13 1009 56 0 0.65 258 10:57 30.04.2020
4036 Clouds 12 1009 65 0 0.45 308 10:38 30.04.2020
4037 Clouds 12 1009 65 0 0.45 308 10:18 30.04.2020
4038 Clouds 9 1009 79 0 0.45 126 09:44 30.04.2020
4039 Clouds 9 1009 79 0 0.45 126 09:24 30.04.2020
4040 Clouds 9 1009 79 0 0.45 126 08:58 30.04.2020
4041 Clouds 9 1009 79 0 0.45 126 08:58 30.04.2020
4042 Clouds 7 1009 85 0 0.45 336 08:39 30.04.2020
4043 Clouds 7 1009 85 0 0.45 336 08:20 30.04.2020
4044 Clouds 6 1009 92 0 1.77 146 07:43 30.04.2020
4045 Clouds 6 1009 92 0 2.12 153 07:24 30.04.2020
4046 Clouds 6 1010 94 0 0.45 95 06:48 30.04.2020
4047 Clouds 5 1010 90 0 0.45 222 05:49 30.04.2020
4048 Clouds 5 1010 90 0 0.45 222 05:30 30.04.2020
4049 Clouds 5 1011 91 0 0.45 247 04:33 30.04.2020
4050 Clouds 5 1011 91 0 0.45 247 03:53 30.04.2020
4051 Clouds 5 1011 94 0 0.45 231 02:43 30.04.2020
4052 Clouds 6 1011 94 0 0.45 231 02:23 30.04.2020
4053 Clouds 5 1010 54 0 2.62 166 01:35 30.04.2020
4054 Clouds 7 930 82 0 2.65 169 00:42 30.04.2020
4055 Clouds 7 929 82 0 2.56 173 00:19 30.04.2020
4056 Clouds 6 1011 53 0 0.89 211 23:56 29.04.2020
4057 Clouds 7 930 81 0 2.56 173 23:36 29.04.2020
4058 Clouds 7 930 80 0 2.49 172 23:18 29.04.2020
4059 Clouds 7 930 80 0 2.49 172 23:18 29.04.2020
4060 Clouds 8 930 78 0 2.49 172 22:40 29.04.2020
4061 Clouds 8 930 78 0 2.33 174 22:21 29.04.2020
4062 Clouds 9 1011 83 0 2.33 174 21:56 29.04.2020
4063 Clouds 9 1011 88 0 1.34 144 21:36 29.04.2020
4064 Clouds 8 1011 88 0 1.34 144 21:18 29.04.2020
4065 Clouds 10 1011 77 0 0.89 177 20:40 29.04.2020
4066 Clouds 10 1011 77 0 0.89 177 20:20 29.04.2020
4067 Clouds 11 1011 77 0 0.89 177 19:57 29.04.2020
4068 Clouds 11 1011 67 0 2.24 162 19:39 29.04.2020
4069 Clouds 11 1011 67 0 2.24 162 19:18 29.04.2020
4070 Clouds 11 1011 76 0 2.24 214 18:42 29.04.2020
4071 Clouds 11 1011 76 0 2.24 214 18:42 29.04.2020
4072 Clouds 11 1011 76 0 2.24 214 18:22 29.04.2020
4073 Clouds 11 1011 76 0 2.24 214 17:56 29.04.2020
4074 Clouds 12 1010 66 0 2.24 192 17:38 29.04.2020
4075 Rain 11 1010 68 0 3.58 148 17:20 29.04.2020
4076 Rain 10 1010 70 0 1.34 163 16:38 29.04.2020
4077 Rain 10 1010 72 0 1.34 138 16:19 29.04.2020
4078 Rain 10 1010 70 0 1.34 157 15:57 29.04.2020
4079 Rain 10 1010 71 0 2.24 169 15:39 29.04.2020
4080 Clouds 10 1011 55 0 1.79 144 15:20 29.04.2020
4081 Clouds 9 1010 80 0 2.68 148 14:46 29.04.2020
4082 Rain 9 1011 68 0 2.24 149 14:27 29.04.2020
4083 Clouds 9 930 75 0 1.44 216 13:59 29.04.2020
4084 Clouds 9 930 75 0 1.44 216 13:59 29.04.2020
4085 Clouds 8 1011 71 0 3.13 211 13:40 29.04.2020
4086 Rain 8 1011 74 0 2.68 182 13:20 29.04.2020
4087 Rain 8 1011 74 0 2.68 182 13:20 29.04.2020
4088 Rain 8 1011 73 0 3.13 228 12:57 29.04.2020
4089 Rain 7 1012 78 0 0.45 135 12:38 29.04.2020
4090 Rain 7 1011 74 0 2.24 205 12:18 29.04.2020
4091 Rain 7 1012 78 0 0.45 135 12:18 29.04.2020
4092 Rain 7 1011 74 0 1.79 211 11:40 29.04.2020
4093 Rain 7 1012 78 0 0.89 180 11:20 29.04.2020
4094 Rain 7 930 78 0 1.09 252 10:57 29.04.2020
4095 Rain 7 930 83 0 0.89 337 10:37 29.04.2020
4096 Rain 7 930 83 0 1.09 252 10:37 29.04.2020
4097 Rain 7 1009 91 0 0.89 143 10:19 29.04.2020
4098 Rain 7 1009 92 0 0.89 138 09:42 29.04.2020
4099 Rain 7 1009 92 0 0.45 140 09:22 29.04.2020
4100 Rain 7 1009 92 0 0.45 220 08:55 29.04.2020
4101 Rain 7 1009 92 0 0.45 149 08:36 29.04.2020
4102 Rain 7 1009 92 0 0.75 245 08:18 29.04.2020
4103 Rain 7 1008 92 0 1.34 152 07:39 29.04.2020
4104 Rain 7 1008 92 0 0.89 146 07:18 29.04.2020
4105 Rain 7 1008 92 0 0.45 159 06:48 29.04.2020
4106 Rain 7 1008 92 0 0.89 165 06:30 29.04.2020
4107 Rain 7 1008 92 0 0.89 168 05:21 29.04.2020
4108 Rain 7 1008 92 0 0.89 168 05:21 29.04.2020
4109 Rain 7 1008 91 0 0.45 176 04:21 29.04.2020
4110 Rain 7 1008 91 0 1.36 268 03:59 29.04.2020
4111 Rain 8 1007 91 0 0.45 144 02:39 29.04.2020
4112 Rain 9 1007 91 0 1.34 267 01:44 29.04.2020
4113 Rain 9 1007 91 0 0.45 89 01:21 29.04.2020
4114 Rain 9 1007 91 0 0.89 83 00:40 29.04.2020
4115 Rain 9 928 84 0 1.16 218 00:19 29.04.2020
4116 Rain 9 1009 83 0 1.34 292 23:48 28.04.2020
4117 Rain 9 1008 83 0 1.79 210 23:23 28.04.2020
4118 Rain 10 1008 77 0 1.79 257 22:55 28.04.2020
4119 Rain 11 1008 69 0 1.79 160 22:37 28.04.2020
4120 Rain 12 1008 52 0 2.24 226 22:18 28.04.2020
4121 Rain 12 1006 87 0 1.37 264 21:54 28.04.2020
4122 Rain 12 1008 48 0 0.89 159 21:36 28.04.2020
4123 Rain 12 1007 48 0 1.34 214 21:18 28.04.2020
4124 Rain 13 1007 46 0 1.79 208 20:40 28.04.2020
4125 Clouds 11 1007 45 0 1.34 168 20:21 28.04.2020
4126 Clouds 10 1007 77 10000 2.6 290 19:58 28.04.2020
4127 Clouds 13 1007 72 10000 2.6 300 19:40 28.04.2020
4128 Clouds 11 1007 72 10000 2.1 290 19:21 28.04.2020
4129 Clouds 11 1007 72 10000 2.1 290 18:57 28.04.2020
4130 Clouds 13 1007 82 10000 2.1 270 18:38 28.04.2020
4131 Clouds 13 1007 82 10000 2.1 270 18:19 28.04.2020
4132 Clouds 14 1007 77 10000 2.1 310 17:38 28.04.2020
4133 Clouds 15 1007 77 10000 2.6 10 17:20 28.04.2020
4134 Clouds 15 1007 77 10000 2.6 10 16:58 28.04.2020
4135 Rain 13 1008 93 0 0.45 195 16:40 28.04.2020
4136 Rain 13 1008 93 0 0.45 195 16:40 28.04.2020
4137 Rain 13 1008 93 0 0.45 195 16:22 28.04.2020
4138 Rain 12 1008 93 0 0.45 195 15:56 28.04.2020
4139 Rain 14 1007 70 0 2.24 358 15:38 28.04.2020
4140 Rain 14 1007 70 0 2.24 358 15:20 28.04.2020
4141 Rain 14 1007 70 0 2.24 358 14:55 28.04.2020
4142 Rain 14 1008 74 0 0.89 348 14:37 28.04.2020
4143 Rain 14 1008 74 0 0.89 348 14:18 28.04.2020
4144 Rain 14 1008 74 0 0.89 348 13:55 28.04.2020
4145 Rain 14 1008 68 0 1.79 325 13:36 28.04.2020
4146 Rain 15 1008 68 0 1.79 325 13:18 28.04.2020
4147 Rain 15 1005 69 0 2.68 343 12:41 28.04.2020
4148 Rain 15 1009 60 0 0.89 292 12:22 28.04.2020
4149 Rain 15 1009 60 0 0.89 292 11:42 28.04.2020
4150 Clouds 14 1009 59 0 1.34 292 11:22 28.04.2020
4151 Clouds 14 1006 77 0 3.13 281 10:58 28.04.2020
4152 Clouds 15 1009 60 0 0.45 292 10:38 28.04.2020
4153 Clouds 15 1008 62 0 0.45 292 10:18 28.04.2020
4154 Clouds 12 1006 79 0 0.17 357 09:43 28.04.2020
4155 Clouds 11 1006 79 0 0.26 47 09:25 28.04.2020
4156 Clouds 11 1006 69 0 0.45 156 08:55 28.04.2020
4157 Clouds 9 1009 75 0 0.45 101 08:37 28.04.2020
4158 Clouds 9 1009 75 0 0.45 101 08:18 28.04.2020
4159 Clouds 8 1009 76 0 0.78 159 07:41 28.04.2020
4160 Clouds 7 1009 76 0 1.17 164 07:18 28.04.2020
4161 Clouds 7 1009 77 0 1.17 164 06:40 28.04.2020
4162 Clouds 7 1009 77 0 1.37 171 05:51 28.04.2020
4163 Clouds 7 1009 76 0 0.45 97 05:33 28.04.2020
4164 Clouds 8 1009 76 0 0.89 152 04:33 28.04.2020
4165 Clouds 8 1009 76 0 0.89 152 04:33 28.04.2020
4166 Clear 9 1009 73 0 0.89 204 02:38 28.04.2020
4167 Clouds 10 1009 68 0 0.89 108 01:37 28.04.2020
4168 Clouds 10 1009 68 0 0.89 108 01:18 28.04.2020
4169 Clouds 9 1009 72 0 0.45 246 00:31 28.04.2020
4170 Clouds 9 1009 72 0 0.45 246 23:56 27.04.2020
4171 Clouds 10 1006 70 0 0.45 108 23:38 27.04.2020
4172 Clouds 10 928 60 0 2.03 163 23:19 27.04.2020
4173 Clouds 13 1008 45 10000 1.5 200 22:42 27.04.2020
4174 Clouds 11 928 55 0 1.88 155 22:23 27.04.2020
4175 Clouds 14 1008 48 10000 1.5 180 21:57 27.04.2020
4176 Clouds 13 928 49 0 1.88 155 21:39 27.04.2020
4177 Clouds 15 928 47 0 1.36 145 21:19 27.04.2020
4178 Clouds 15 928 47 0 1.36 145 20:56 27.04.2020
4179 Clouds 17 1006 52 0 1.36 145 20:38 27.04.2020
4180 Clouds 17 927 39 0 0.42 94 20:19 27.04.2020
4181 Clouds 18 927 37 0 0.42 94 19:40 27.04.2020
4182 Clouds 19 927 34 0 0.66 2 19:22 27.04.2020
4183 Clouds 19 928 32 0 0.66 2 18:59 27.04.2020
4184 Clouds 20 1006 44 0 1.34 264 18:40 27.04.2020
4185 Clouds 21 1008 14 0 0.89 308 18:20 27.04.2020
4186 Clouds 21 1008 14 0 1.79 297 17:58 27.04.2020
4187 Clouds 20 906 29 0 1.05 338 17:40 27.04.2020
4188 Rain 21 906 28 0 1.51 322 17:19 27.04.2020
4189 Rain 20 907 29 0 1.51 322 16:40 27.04.2020
4190 Rain 20 907 29 0 1.51 322 16:40 27.04.2020
4191 Rain 20 1009 15 0 1.34 177 16:22 27.04.2020
4192 Rain 20 907 29 0 2.14 305 15:57 27.04.2020
4193 Rain 20 1007 45 0 3.13 225 15:38 27.04.2020
4194 Rain 20 1010 15 0 2.24 203 15:19 27.04.2020
4195 Rain 20 1010 17 0 1.34 202 14:58 27.04.2020
4196 Rain 19 1011 29 0 3.13 159 14:40 27.04.2020
4197 Rain 18 1011 29 0 3.13 159 14:19 27.04.2020
4198 Rain 18 1011 29 0 3.13 159 13:55 27.04.2020
4199 Rain 18 1011 32 0 1.34 198 13:36 27.04.2020
4200 Rain 17 1011 32 0 1.34 198 13:18 27.04.2020
4201 Rain 17 1011 20 0 1.34 182 12:42 27.04.2020
4202 Rain 18 1012 35 0 1.79 292 12:20 27.04.2020
4203 Rain 15 1012 55 0 0.45 204 11:42 27.04.2020
4204 Rain 15 1012 55 0 0.45 204 11:22 27.04.2020
4205 Rain 15 1012 55 0 0.45 204 10:58 27.04.2020
4206 Rain 14 1012 70 0 1.34 149 10:39 27.04.2020
4207 -273 0 0 0 0 0 10:21 27.04.2020
4208 Rain 12 1009 74 0 0.45 157 09:44 27.04.2020
4209 Rain 10 1012 68 0 0.45 135 09:21 27.04.2020
4210 Rain 12 1011 46 0 1.34 185 08:59 27.04.2020
4211 Rain 11 1009 90 0 1.34 132 08:41 27.04.2020
4212 Rain 10 1012 98 0 0.89 184 08:23 27.04.2020
4213 Rain 10 1012 98 0 0.89 184 07:44 27.04.2020
4214 Rain 10 1012 98 0 0.89 184 07:22 27.04.2020
4215 Rain 10 1012 98 0 0.89 184 06:56 27.04.2020
4216 Clouds 11 1011 74 0 1.38 178 06:27 27.04.2020
4217 Clouds 11 1005 76 0 1.38 178 05:50 27.04.2020
4218 Clouds 11 1011 57 0 1.38 178 04:50 27.04.2020
4219 Clouds 11 1011 68 0 1.38 178 03:59 27.04.2020
4220 Clouds 11 1011 69 0 1.38 178 03:36 27.04.2020
4221 Rain 11 929 67 0 1.34 168 01:43 27.04.2020
4222 Rain 9 1010 49 0 1.34 201 00:59 27.04.2020
4223 Rain 12 1012 78 0 1.41 194 00:20 27.04.2020
4224 Rain 12 1010 48 0 2.24 180 23:56 26.04.2020
4225 Rain 13 1012 76 0 1.41 194 23:38 26.04.2020
4226 Rain 13 1011 68 0 0.45 292 23:19 26.04.2020
4227 Rain 14 1010 36 0 1.34 189 22:58 26.04.2020
4228 Rain 12 1010 59 10000 1.5 0 22:39 26.04.2020
4229 Rain 11 1010 59 10000 1.5 0 22:20 26.04.2020
4230 Rain 10 1008 100 0 1.41 194 21:57 26.04.2020
4231 Rain 10 928 48 0 1.41 194 21:38 26.04.2020
4232 Rain 14 1010 55 0 1.34 180 21:18 26.04.2020
4233 Rain 14 1010 55 0 1.34 180 21:18 26.04.2020
4234 Rain 14 1010 55 0 1.34 180 21:18 26.04.2020
4235 Rain 14 1010 55 0 1.34 180 21:18 26.04.2020
4236 Rain 13 928 45 0 0.27 15 20:54 26.04.2020
4237 Rain 14 928 42 0 0.27 15 20:36 26.04.2020
4238 Rain 14 928 42 0 0.27 15 20:18 26.04.2020
4239 Rain 15 1008 19 0 0.27 15 19:56 26.04.2020
4240 Clouds 16 1008 39 10000 1.5 280 19:36 26.04.2020
4241 Clouds 17 1008 39 10000 1.5 280 19:18 26.04.2020
4242 Rain 18 1008 32 10000 2.6 290 18:40 26.04.2020
4243 Rain 20 906 28 0 1.65 313 18:21 26.04.2020
4244 Rain 20 1008 32 10000 1 0 17:42 26.04.2020
4245 Rain 19 1008 32 10000 1 0 17:22 26.04.2020
4246 Rain 20 1008 17 0 1.34 208 16:55 26.04.2020
4247 Rain 19 1006 45 0 1.34 355 16:37 26.04.2020
4248 Rain 19 1006 45 0 1.34 355 16:19 26.04.2020
4249 Rain 18 1007 48 0 2.24 341 15:56 26.04.2020
4250 Rain 18 1009 47 0 4.02 8 15:37 26.04.2020
4251 Rain 18 1009 47 0 4.02 8 15:18 26.04.2020
4252 Rain 18 1007 52 0 2.24 331 14:40 26.04.2020
4253 Rain 18 1010 36 0 0.45 270 14:19 26.04.2020
4254 Rain 18 1010 39 0 0.89 292 13:58 26.04.2020
4255 Rain 18 1009 18 0 1.34 226 13:39 26.04.2020
4256 Rain 18 1007 48 0 2.24 280 13:21 26.04.2020
4257 Rain 18 1011 45 0 0.89 292 12:55 26.04.2020
4258 Rain 16 1010 54 0 0.89 291 12:36 26.04.2020
4259 Rain 16 1010 54 0 0.89 291 12:18 26.04.2020
4260 Rain 15 1010 56 0 0.45 28 11:43 26.04.2020
4261 Rain 15 1010 56 0 0.45 28 11:23 26.04.2020
4262 Rain 14 1010 56 0 0.45 28 10:59 26.04.2020
4263 Rain 14 1010 56 0 0.45 28 10:59 26.04.2020
4264 Rain 14 1010 56 0 0.45 28 10:59 26.04.2020
4265 Rain 12 1009 70 0 4.02 6 10:41 26.04.2020
4266 Rain 12 1009 70 0 4.02 6 10:23 26.04.2020
4267 Rain 10 1009 70 0 4.02 6 09:57 26.04.2020
4268 Rain 10 1009 71 0 0.45 60 09:37 26.04.2020
4269 Clouds 9 1009 71 0 0.45 60 09:18 26.04.2020
4270 Clouds 8 1009 82 0 0.45 242 08:41 26.04.2020
4271 Clouds 8 1009 82 0 0.45 242 08:22 26.04.2020
4272 Clouds 8 1009 82 0 0.45 242 07:48 26.04.2020
4273 Clouds 7 1009 82 0 0.45 83 07:23 26.04.2020
4274 Clouds 6 1009 83 0 0.45 102 06:47 26.04.2020
4275 Clear 6 1009 83 0 0.45 102 06:21 26.04.2020
4276 Clear 6 1009 83 0 0.45 102 05:49 26.04.2020
4277 Clear 7 1010 82 0 0.89 164 05:28 26.04.2020
4278 Clear 8 1009 77 0 0.45 171 04:30 26.04.2020
4279 Clear 7 1009 74 0 0.45 291 03:35 26.04.2020
4280 Clear 6 1009 40 0 0.89 44 02:33 26.04.2020
4281 Clear 7 1007 75 0 1.48 169 01:57 26.04.2020
4282 Clear 8 928 60 0 1.48 169 01:36 26.04.2020
4283 Clouds 9 1009 87 10000 2.1 260 00:41 26.04.2020
4284 Clear 9 1009 38 0 1.63 161 00:20 26.04.2020
4285 Clear 9 1009 38 0 1.63 161 00:20 26.04.2020
4286 Clear 9 928 56 0 1.63 161 23:55 25.04.2020
4287 Clear 10 928 55 0 1.63 161 23:36 25.04.2020
4288 Clear 10 1009 34 0 1.79 47 23:18 25.04.2020
4289 Clouds 12 1009 82 10000 2.6 250 22:41 25.04.2020
4290 Clouds 12 1009 82 10000 2.6 250 22:20 25.04.2020
4291 Clouds 12 1008 82 10000 3.1 280 21:58 25.04.2020
4292 Clear 13 928 44 0 1.63 161 21:37 25.04.2020
4293 Rain 14 1009 69 0 1.34 45 21:18 25.04.2020
4294 Rain 15 1008 25 0 1.34 173 20:42 25.04.2020
4295 Rain 15 1008 24 0 1.79 169 20:23 25.04.2020
4296 Rain 16 1008 24 0 1.34 177 19:59 25.04.2020
4297 Rain 16 1008 21 0 0.92 68 19:38 25.04.2020
4298 Rain 17 1008 18 0 0.92 68 19:20 25.04.2020
4299 Clouds 18 1008 48 10000 1.5 230 18:43 25.04.2020
4300 Rain 19 1008 17 0 1.37 343 18:22 25.04.2020
4301 Rain 19 1008 15 0 0.89 290 17:59 25.04.2020
4302 Rain 20 1008 40 10000 0.5 0 17:39 25.04.2020
4303 Rain 19 1009 32 0 1.79 292 17:21 25.04.2020
4304 Rain 20 1008 40 10000 1.5 0 17:21 25.04.2020
4305 Rain 20 1008 40 10000 1.5 0 16:59 25.04.2020
4306 Rain 20 906 28 0 1.37 343 16:41 25.04.2020
4307 Rain 20 1008 15 0 2.68 143 16:21 25.04.2020
4308 Rain 20 1009 17 0 1.34 160 15:55 25.04.2020
4309 Rain 20 1009 17 0 1.34 149 15:36 25.04.2020
4310 Rain 20 1011 36 0 2.24 292 15:18 25.04.2020
4311 Rain 19 907 28 0 1.21 297 14:40 25.04.2020
4312 Rain 19 1010 17 0 1.08 308 14:21 25.04.2020
4313 Rain 18 1007 49 0 0.45 30 13:59 25.04.2020
4314 Rain 18 1007 49 0 0.45 30 13:41 25.04.2020
4315 Rain 19 1011 38 0 0.45 180 13:18 25.04.2020
4316 Rain 18 1011 41 0 0.45 292 12:55 25.04.2020
4317 Rain 17 1011 18 0 1.79 194 12:36 25.04.2020
4318 Rain 17 1011 23 0 1.79 222 12:18 25.04.2020
4319 Rain 17 1011 23 0 2.68 226 11:42 25.04.2020
4320 Rain 14 1009 67 0 0.45 200 11:24 25.04.2020
4321 Rain 14 1009 67 0 0.45 200 10:57 25.04.2020
4322 Rain 13 1012 66 0 0.89 173 10:38 25.04.2020
4323 Rain 12 1012 66 0 0.89 173 10:19 25.04.2020
4324 Rain 11 1012 64 0 1.34 198 09:43 25.04.2020
4325 Rain 11 1012 64 0 1.34 198 09:22 25.04.2020
4326 Rain 11 1012 64 0 1.34 198 08:55 25.04.2020
4327 Rain 10 1011 72 0 0.45 219 08:37 25.04.2020
4328 Rain 10 1011 72 0 0.45 219 08:19 25.04.2020
4329 Rain 9 1011 69 0 1.15 222 07:43 25.04.2020
4330 Rain 10 1011 69 0 1.15 222 07:22 25.04.2020
4331 Rain 9 1011 67 0 0.45 206 06:42 25.04.2020
4332 Rain 9 1011 67 0 0.45 206 06:42 25.04.2020
4333 Rain 9 1011 70 0 0.45 221 05:46 25.04.2020
4334 Rain 10 1011 70 0 0.45 221 05:27 25.04.2020
4335 Rain 9 1012 67 0 0.45 287 04:24 25.04.2020
4336 Rain 10 1012 64 0 0.45 165 02:44 25.04.2020
4337 Clouds 10 1012 64 0 0.45 165 02:19 25.04.2020
4338 Clouds 10 1012 64 0 0.45 165 01:49 25.04.2020
4339 Clouds 10 1013 63 0 0.89 131 01:19 25.04.2020
4340 Clouds 9 1013 62 0 1.96 199 00:46 25.04.2020
4341 Clouds 9 1013 62 0 1.99 184 00:28 25.04.2020
4342 Clouds 11 1012 33 0 1.34 40 23:42 24.04.2020
4343 Clouds 11 1012 30 0 1.99 184 23:21 24.04.2020
4344 Clouds 11 1012 28 0 1.99 184 22:41 24.04.2020
4345 Clouds 12 1012 27 0 1.34 42 22:21 24.04.2020
4346 Clouds 12 931 46 0 1.99 184 21:59 24.04.2020
4347 Clouds 12 931 46 0 1.99 184 21:59 24.04.2020
4348 Clouds 14 1011 54 10000 1 0 21:41 24.04.2020
4349 Clouds 15 1012 17 0 1.34 205 21:23 24.04.2020
4350 Clouds 14 931 41 0 1.34 205 20:59 24.04.2020
4351 Clouds 14 931 41 0 1.34 205 20:59 24.04.2020
4352 Clouds 16 1012 16 0 2.68 200 20:40 24.04.2020
4353 Clouds 16 930 38 0 1.34 205 20:19 24.04.2020
4354 Clouds 17 1011 16 0 2.68 194 19:54 24.04.2020
4355 Clouds 17 930 36 0 0.89 22 19:36 24.04.2020
4356 Clouds 18 930 35 0 1.34 205 19:18 24.04.2020
4357 Clouds 19 930 33 0 1.34 205 18:40 24.04.2020
4358 Clouds 20 1012 15 0 1.79 254 18:22 24.04.2020
4359 Clouds 20 1012 15 0 2.68 205 17:43 24.04.2020
4360 Clouds 20 909 27 0 3.61 277 17:24 24.04.2020
4361 Clouds 20 1012 15 0 3.58 270 16:59 24.04.2020
4362 Clouds 20 1012 15 0 3.58 206 16:41 24.04.2020
4363 Clouds 20 1012 15 0 2.24 258 16:22 24.04.2020
4364 Clouds 20 1012 15 0 3.13 199 15:59 24.04.2020
4365 Clouds 20 1011 43 0 5.36 257 15:38 24.04.2020
4366 Clouds 20 1013 15 0 4.02 219 15:18 24.04.2020
4367 Clouds 19 1013 17 0 1.79 268 14:40 24.04.2020
4368 Clouds 19 1013 17 0 4.02 43 14:20 24.04.2020
4369 Clouds 19 1014 52 10000 2.6 40 13:57 24.04.2020
4370 Clouds 18 1014 18 0 2.24 240 13:38 24.04.2020
4371 Clouds 19 1015 48 10000 2.6 40 13:19 24.04.2020
4372 Clouds 16 1015 41 10000 2.1 310 12:42 24.04.2020
4373 Clouds 16 1015 41 10000 2.1 310 12:23 24.04.2020
4374 Clouds 17 1016 48 10000 1 0 11:58 24.04.2020
4375 Clouds 17 1016 58 10000 1.5 280 11:38 24.04.2020
4376 Clouds 18 1015 20 0 1.79 224 11:19 24.04.2020
4377 Clouds 17 1015 23 0 2.24 216 10:54 24.04.2020
4378 Clouds 17 1013 54 0 3.13 251 10:54 24.04.2020
4379 Clouds 17 1016 38 0 0.45 202 10:36 24.04.2020
4380 Clouds 16 1016 37 0 0.45 157 10:18 24.04.2020
4381 Clouds 13 1015 56 0 0.89 88 09:45 24.04.2020
4382 Clear 13 1015 56 0 0.89 88 09:24 24.04.2020
4383 Clear 12 1015 56 0 0.89 88 08:55 24.04.2020
4384 Clear 9 1016 78 0 0.45 214 08:37 24.04.2020
4385 Clear 8 1016 78 0 0.45 214 08:18 24.04.2020
4386 Clear 7 1016 76 0 1.34 211 07:44 24.04.2020
4387 Clear 6 1016 76 0 1.34 211 07:26 24.04.2020
4388 Clear 6 1016 76 0 1.34 211 06:51 24.04.2020
4389 Clear 6 1016 81 0 0.89 178 06:32 24.04.2020
4390 Clear 5 1016 76 0 0.45 189 05:42 24.04.2020
4391 Clear 7 1016 71 0 0.45 215 04:26 24.04.2020
4392 Clear 7 1017 70 0 0.89 171 02:58 24.04.2020
4393 Clear 7 1017 69 0 1.87 184 02:38 24.04.2020
4394 Clear 6 1017 69 0 1.84 184 01:58 24.04.2020
4395 Clear 7 1017 65 0 1.84 184 00:58 24.04.2020
4396 Clear 9 1017 60 0 0.45 185 00:21 24.04.2020
4397 Clear 9 1017 60 0 0.45 185 23:55 23.04.2020
4398 Clear 9 1017 58 0 0.45 252 23:37 23.04.2020
4399 Clear 9 1017 58 0 0.45 252 23:18 23.04.2020
4400 Clear 9 1017 58 0 0.45 252 22:54 23.04.2020
4401 Clear 9 1017 53 10000 0.5 0 22:36 23.04.2020
4402 Clear 9 1017 53 10000 0.5 0 22:18 23.04.2020
4403 Clear 10 1017 58 10000 0.5 0 21:55 23.04.2020
4404 Clear 11 1017 49 0 0.89 211 21:36 23.04.2020
4405 Rain 11 1017 49 0 0.89 211 21:18 23.04.2020
4406 Rain 15 1016 25 0 0.13 259 20:41 23.04.2020
4407 Rain 15 935 42 0 0.13 259 20:22 23.04.2020
4408 Rain 13 935 40 0 0.13 259 19:57 23.04.2020
4409 Rain 14 935 39 0 0.13 259 19:39 23.04.2020
4410 Rain 14 935 38 0 0.13 259 19:21 23.04.2020
4411 Rain 18 1016 37 10000 2.6 290 18:55 23.04.2020
4412 Rain 19 1016 34 10000 2.1 280 18:36 23.04.2020
4413 Clouds 19 1016 34 10000 2.1 280 18:18 23.04.2020
4414 Clouds 19 1017 23 0 0.89 292 17:40 23.04.2020
4415 Clouds 20 1018 24 0 0.89 292 17:22 23.04.2020
4416 Clouds 20 1016 15 0 1.34 232 16:57 23.04.2020
4417 Clouds 20 914 27 0 1.34 340 16:39 23.04.2020
4418 Clouds 20 1018 21 0 1.34 292 16:19 23.04.2020
4419 Clouds 20 1015 41 0 2.68 272 15:42 23.04.2020
4420 Clear 20 1015 39 0 2.24 245 15:23 23.04.2020
4421 Clear 19 1015 43 0 3.13 312 14:57 23.04.2020
4422 Clear 18 1017 41 0 2.24 309 14:38 23.04.2020
4423 Clear 18 1017 41 0 2.24 309 14:19 23.04.2020
4424 Clear 18 1017 41 0 2.24 309 13:55 23.04.2020
4425 Clear 17 1017 45 0 1.79 310 13:36 23.04.2020
4426 Clear 17 1017 45 0 1.79 310 13:18 23.04.2020
4427 Clear 16 1018 47 0 2.68 322 12:42 23.04.2020
4428 Clear 16 1018 47 0 2.68 322 12:24 23.04.2020
4429 Clear 16 1018 47 0 2.68 322 11:56 23.04.2020
4430 Clear 15 1018 50 0 0.45 12 11:38 23.04.2020
4431 Clear 14 1018 50 0 0.45 12 11:18 23.04.2020
4432 Clear 12 1018 60 0 0.45 62 10:41 23.04.2020
4433 Clear 12 1018 60 0 0.45 62 10:21 23.04.2020
4434 Clear 9 1018 66 0 1.86 332 09:41 23.04.2020
4435 Clear 9 1018 66 0 0.58 239 09:20 23.04.2020
4436 Clear 8 1018 66 0 0.58 239 08:59 23.04.2020
4437 Clear 8 1018 66 0 0.58 239 08:59 23.04.2020
4438 Clear 5 1018 80 0 0.58 239 08:40 23.04.2020
4439 Clear 5 1018 80 0 0.58 239 08:21 23.04.2020
4440 Clear 4 1017 88 0 0.89 216 07:42 23.04.2020
4441 Clear 3 1017 88 0 0.89 216 07:23 23.04.2020
4442 Clear 3 1017 86 0 0.45 73 06:48 23.04.2020
4443 Clear 3 1017 86 0 0.45 73 06:22 23.04.2020
4444 Clear 4 1017 81 0 1.45 192 05:23 23.04.2020
4445 Clear 4 1017 79 0 1.45 192 04:51 23.04.2020
4446 Clear 6 1016 73 0 0.45 173 02:24 23.04.2020
4447 Clear 7 1016 72 0 1.75 175 01:46 23.04.2020
4448 Clear 7 1016 72 0 1.75 175 01:24 23.04.2020
4449 Clear 8 1016 64 0 0.45 239 00:45 23.04.2020
4450 Clear 8 1016 64 0 0.45 239 00:45 23.04.2020
4451 Clear 8 1016 64 0 0.45 239 00:18 23.04.2020
4452 Clear 10 1015 62 10000 0.5 0 23:47 22.04.2020
4453 Clear 10 1015 17 0 4.02 72 23:23 22.04.2020
4454 Clear 12 1015 38 10000 1 0 22:55 22.04.2020
4455 Clear 13 1015 38 10000 1.5 0 22:36 22.04.2020
4456 Clear 11 935 46 0 1.72 163 22:18 22.04.2020
4457 Clear 13 935 44 0 1.72 163 21:55 22.04.2020
4458 Clear 12 1015 17 0 2.24 39 21:55 22.04.2020
4459 Clear 14 1015 17 0 0.89 92 21:36 22.04.2020
4460 Clear 14 934 41 0 0.86 75 21:18 22.04.2020
4461 Clear 15 1013 34 10000 3.6 10 20:43 22.04.2020
4462 Clear 14 1014 16 0 2.24 49 20:19 22.04.2020
4463 Clear 14 1014 16 0 2.68 29 19:57 22.04.2020
4464 Clear 16 1014 15 0 2.24 16 19:38 22.04.2020
4465 Clear 16 1014 15 0 2.24 16 19:38 22.04.2020
4466 Clear 17 1013 15 0 2.24 43 19:18 22.04.2020
4467 Clear 18 1013 15 0 2.68 41 18:58 22.04.2020
4468 Clear 20 910 28 0 0.86 75 18:40 22.04.2020
4469 Clear 20 1013 40 10000 3.1 280 18:21 22.04.2020
4470 Clear 20 1013 14 0 1.79 40 17:44 22.04.2020
4471 Clear 21 1013 14 0 2.24 36 17:26 22.04.2020
4472 Clear 20 910 28 0 2.13 20 16:58 22.04.2020
4473 Clear 20 910 28 0 2.13 20 16:58 22.04.2020
4474 Clear 20 1013 33 0 1.79 343 16:40 22.04.2020
4475 Clear 20 1013 33 0 1.79 343 16:21 22.04.2020
4476 Clear 20 1013 37 0 3.13 333 15:41 22.04.2020
4477 Clear 20 1013 37 0 3.13 333 15:22 22.04.2020
4478 Clear 20 1013 37 0 3.13 333 14:58 22.04.2020
4479 Clear 19 1013 41 0 2.68 306 14:38 22.04.2020
4480 Clear 19 1013 41 0 2.68 306 14:20 22.04.2020
4481 Clear 19 1013 41 0 2.68 306 13:55 22.04.2020
4482 Clear 18 1014 47 0 1.79 288 13:36 22.04.2020
4483 Clear 18 1014 47 0 1.79 288 13:18 22.04.2020
4484 Clear 16 1014 49 0 1.79 356 12:39 22.04.2020
4485 Clear 16 1014 49 0 1.79 356 12:21 22.04.2020
4486 Clear 15 1014 54 0 1.34 77 11:40 22.04.2020
4487 Clear 14 1014 54 0 1.34 77 11:20 22.04.2020
4488 Clear 14 1014 54 0 1.34 77 10:59 22.04.2020
4489 Clear 12 1013 59 0 0.4 335 10:39 22.04.2020
4490 Clear 12 1013 63 0 0.45 290 10:19 22.04.2020
4491 Clear 8 1014 81 0 0.45 76 09:39 22.04.2020
4492 Clear 7 1014 81 0 0.45 76 09:20 22.04.2020
4493 Clear 6 1014 81 0 0.45 76 08:56 22.04.2020
4494 Clear 6 1014 81 0 0.45 76 08:56 22.04.2020
4495 Clear 6 1013 78 0 0.45 327 08:38 22.04.2020
4496 Clear 7 1013 83 0 0.45 294 08:19 22.04.2020
4497 Clear 4 1013 90 0 1.37 172 07:52 22.04.2020
4498 Clear 3 1013 90 0 0.45 165 07:24 22.04.2020
4499 Clear 2 1013 90 0 1.37 172 06:52 22.04.2020
4500 Clear 3 1013 89 0 0.45 295 05:48 22.04.2020
4501 Clear 3 1013 89 0 0.45 295 05:27 22.04.2020
4502 Clear 3 1013 90 0 0.89 151 04:20 22.04.2020
4503 Clouds 5 1013 85 0 2.22 158 02:40 22.04.2020
4504 Clear 7 1013 84 0 0.45 85 01:44 22.04.2020
4505 Clear 7 1013 84 0 0.45 85 01:24 22.04.2020
4506 Clear 8 1013 81 0 2.21 161 00:47 22.04.2020
4507 Clouds 8 1013 81 0 2.1 143 00:22 22.04.2020
4508 Clouds 8 1013 81 0 2.1 143 23:56 21.04.2020
4509 Clouds 9 1012 78 0 0.45 223 23:37 21.04.2020
4510 Clouds 9 1012 78 0 0.45 223 23:18 21.04.2020
4511 Clouds 10 1012 74 0 0.45 215 22:40 21.04.2020
4512 Clouds 11 1012 74 0 0.45 215 22:21 21.04.2020
4513 Clouds 11 1012 74 0 0.45 215 21:58 21.04.2020
4514 Clouds 11 1012 74 0 0.45 215 21:58 21.04.2020
4515 Clouds 12 931 45 0 2.1 143 21:40 21.04.2020
4516 Clouds 13 1010 20 0 4.47 27 21:22 21.04.2020
4517 Clouds 14 1011 52 0 1.34 343 20:42 21.04.2020
4518 Clouds 15 1011 52 0 1.34 343 20:23 21.04.2020
4519 Clouds 16 1011 52 0 1.34 343 19:59 21.04.2020
4520 Clouds 16 1010 49 0 0.89 353 19:40 21.04.2020
4521 Clouds 16 1010 49 0 0.89 353 19:19 21.04.2020
4522 Clouds 17 1010 49 0 0.89 353 19:19 21.04.2020
4523 Clouds 17 1010 49 0 0.89 353 18:56 21.04.2020
4524 Clouds 17 1010 49 0 1.79 16 18:38 21.04.2020
4525 Clouds 17 1010 49 0 1.79 16 18:18 21.04.2020
4526 Clouds 17 1010 49 0 0.89 296 17:41 21.04.2020
4527 Clouds 17 1010 49 0 0.89 296 17:21 21.04.2020
4528 Clouds 17 1010 49 0 0.89 296 16:59 21.04.2020
4529 Clouds 17 1010 54 0 0.45 303 16:38 21.04.2020
4530 Clouds 17 1010 54 0 0.45 303 16:19 21.04.2020
4531 Clouds 17 1010 54 0 0.45 303 15:55 21.04.2020
4532 Clouds 17 1010 54 0 0.45 15 15:37 21.04.2020
4533 Clouds 17 1010 54 0 0.45 15 15:19 21.04.2020
4534 Clouds 16 1010 62 0 1.34 116 14:45 21.04.2020
4535 Clouds 15 1010 62 0 1.34 116 14:25 21.04.2020
4536 Clouds 15 1010 62 0 1.34 116 13:57 21.04.2020
4537 Clouds 16 1009 60 0 0.89 330 13:38 21.04.2020
4538 Clouds 14 1009 63 0 1.34 216 13:18 21.04.2020
4539 Clouds 16 1009 62 0 1.34 278 12:39 21.04.2020
4540 Clouds 15 1009 67 0 0.89 222 12:20 21.04.2020
4541 Clouds 16 929 42 0 0.79 48 11:58 21.04.2020
4542 Clouds 14 929 44 0 4.02 180 11:39 21.04.2020
4543 Clouds 14 1010 30 0 2.24 22 11:19 21.04.2020
4544 Clouds 13 1010 31 0 3.13 47 10:59 21.04.2020
4545 Clouds 10 929 52 0 0.79 48 10:40 21.04.2020
4546 Clouds 9 1008 72 0 0.45 66 10:22 21.04.2020
4547 Clouds 9 1008 72 0 1.34 53 09:58 21.04.2020
4548 Clouds 7 1010 83 0 0.45 17 09:36 21.04.2020
4549 Clouds 7 1010 83 0 0.45 17 09:18 21.04.2020
4550 Clouds 6 1010 90 0 1.31 151 08:43 21.04.2020
4551 Clouds 6 1010 90 0 1.31 151 08:25 21.04.2020
4552 Clouds 6 1010 90 0 1.31 151 08:25 21.04.2020
4553 Clouds 5 1010 90 0 1.31 151 07:52 21.04.2020
4554 Clouds 5 1010 94 0 1.31 151 07:27 21.04.2020
4555 Clouds 5 1010 94 0 1.31 151 06:50 21.04.2020
4556 Clouds 5 1010 94 0 1.31 151 06:50 21.04.2020
4557 Clouds 5 1010 94 0 1.31 151 06:32 21.04.2020
4558 Clouds 5 1010 94 0 1.92 149 05:50 21.04.2020
4559 Clouds 5 1010 93 0 1.92 149 04:57 21.04.2020
4560 Clouds 5 1010 93 0 1.92 149 04:57 21.04.2020
4561 Clouds 6 1010 91 0 1.92 149 03:46 21.04.2020
4562 Clouds 7 1011 91 0 0.45 227 02:41 21.04.2020
4563 Clouds 8 1011 87 0 0.45 247 01:30 21.04.2020
4564 Clouds 9 1011 87 0 2.01 150 00:38 21.04.2020
4565 Clouds 9 1011 87 0 1.95 138 23:58 20.04.2020
4566 Clouds 10 1011 83 0 1.95 138 23:40 20.04.2020
4567 Clouds 10 1011 83 0 1.95 138 23:19 20.04.2020
4568 Clouds 10 1011 83 0 1.95 138 22:54 20.04.2020
4569 Clouds 11 1011 78 0 1.95 138 22:36 20.04.2020
4570 Clouds 11 1011 78 0 1.95 138 22:18 20.04.2020
4571 Clouds 11 1011 78 0 1.95 138 21:54 20.04.2020
4572 Clouds 11 1011 78 0 1.95 138 21:54 20.04.2020
4573 Clouds 12 1011 74 0 0.45 75 21:36 20.04.2020
4574 Rain 12 1011 74 0 0.45 75 21:18 20.04.2020
4575 Rain 14 1010 66 0 0.45 35 20:40 20.04.2020
4576 Rain 14 1010 66 0 0.45 35 20:19 20.04.2020
4577 Rain 14 1010 66 0 0.45 35 19:59 20.04.2020
4578 Rain 14 1010 68 0 1.79 132 19:40 20.04.2020
4579 Rain 14 1010 68 0 1.79 132 19:20 20.04.2020
4580 Rain 14 1010 68 0 1.79 132 18:55 20.04.2020
4581 Rain 15 1010 64 0 0.89 71 18:36 20.04.2020
4582 Rain 15 1010 64 0 0.89 71 18:18 20.04.2020
4583 Rain 15 1010 65 0 0.45 211 17:43 20.04.2020
4584 Rain 15 1010 65 0 0.45 211 17:22 20.04.2020
4585 Rain 15 1010 65 0 0.45 211 16:59 20.04.2020
4586 Rain 15 1011 66 0 0.45 98 16:40 20.04.2020
4587 Rain 15 1011 66 0 0.45 98 16:40 20.04.2020
4588 Rain 15 1011 66 0 0.45 98 16:19 20.04.2020
4589 Rain 14 1011 66 0 0.45 98 15:55 20.04.2020
4590 Rain 13 1011 70 0 0.89 166 15:36 20.04.2020
4591 Rain 13 1011 70 0 0.89 166 15:36 20.04.2020
4592 Rain 13 1011 70 0 0.89 166 15:18 20.04.2020
4593 Rain 13 1011 70 0 0.89 166 15:18 20.04.2020
4594 Rain 13 1011 70 0 0.89 166 15:18 20.04.2020
4595 Rain 13 1011 73 0 2.24 334 14:40 20.04.2020
4596 Rain 12 1011 73 0 2.24 334 14:19 20.04.2020
4597 Rain 11 1011 73 0 2.24 334 13:57 20.04.2020
4598 Rain 11 1011 79 0 1.79 350 13:38 20.04.2020
4599 Rain 11 1011 79 0 1.79 350 13:20 20.04.2020
4600 Rain 10 1011 81 0 0.89 13 12:43 20.04.2020
4601 Clouds 10 1011 81 0 0.89 13 12:22 20.04.2020
4602 Clouds 10 1011 81 0 0.89 13 11:54 20.04.2020
4603 Clouds 9 1009 82 0 2.24 308 11:36 20.04.2020
4604 Clouds 9 1009 83 0 2.24 294 11:18 20.04.2020
4605 Clouds 14 1011 51 0 1.54 46 10:54 20.04.2020
4606 Clouds 8 1011 92 0 0.89 63 10:36 20.04.2020
4607 Clouds 8 1011 92 0 0.89 63 10:18 20.04.2020
4608 Clouds 8 1011 92 0 1.79 4 09:40 20.04.2020
4609 Clouds 8 1011 92 0 1.79 4 09:21 20.04.2020
4610 Clouds 8 1012 93 0 0.45 351 08:43 20.04.2020
4611 Clouds 7 1012 93 0 0.45 351 08:23 20.04.2020
4612 Clouds 7 1012 93 0 0.45 351 07:59 20.04.2020
4613 Clouds 7 1012 94 0 0.45 339 07:40 20.04.2020
4614 Clouds 8 1012 94 0 0.45 339 07:19 20.04.2020
4615 Clouds 8 1012 94 0 0.45 302 06:37 20.04.2020
4616 Rain 8 1012 94 0 0.45 302 05:58 20.04.2020
4617 Rain 10 1012 91 0 1.32 112 04:49 20.04.2020
4618 Clouds 10 1013 65 0 1.32 108 02:49 20.04.2020
4619 Clouds 10 1012 64 0 1.38 112 02:27 20.04.2020
4620 Clouds 11 1012 81 0 0.45 219 01:29 20.04.2020
4621 Clouds 11 1012 80 0 0.45 214 00:45 20.04.2020
4622 Clouds 11 1012 80 0 0.45 214 00:21 20.04.2020
4623 Clouds 11 1012 65 0 1.43 93 23:40 19.04.2020
4624 Clouds 11 1012 65 0 1.43 93 23:21 19.04.2020
4625 Clouds 11 1012 65 0 1.43 93 22:56 19.04.2020
4626 Clouds 11 1012 65 0 1.43 93 22:37 19.04.2020
4627 Clouds 11 1012 65 0 1.43 93 22:19 19.04.2020
4628 Clouds 10 1013 65 0 1.5 111 21:42 19.04.2020
4629 Rain 12 1011 63 0 2.35 62 21:23 19.04.2020
4630 Rain 12 1011 63 0 2.35 62 20:58 19.04.2020
4631 Rain 12 1011 63 0 2.35 62 20:40 19.04.2020
4632 Rain 12 1011 63 0 2.35 62 20:40 19.04.2020
4633 Rain 12 1011 63 0 2.35 62 20:20 19.04.2020
4634 Rain 12 1011 63 0 2.35 62 19:56 19.04.2020
4635 Rain 12 1011 63 0 2.35 62 19:56 19.04.2020
4636 Rain 12 1011 63 0 2.35 62 19:38 19.04.2020
4637 Rain 12 1011 63 0 2.35 62 19:20 19.04.2020
4638 Rain 12 1011 63 0 2.35 62 18:56 19.04.2020
4639 Rain 12 1011 63 0 2.35 62 18:38 19.04.2020
4640 Rain 17 1011 47 0 2.1 45 18:18 19.04.2020
4641 Rain 17 1011 47 0 2.1 45 17:55 19.04.2020
4642 Rain 17 1011 47 0 2.1 45 17:37 19.04.2020
4643 Rain 17 1011 47 0 2.1 45 17:19 19.04.2020
4644 Rain 17 1011 47 0 2.1 45 16:40 19.04.2020
4645 Rain 17 1011 47 0 2.1 45 16:21 19.04.2020
4646 Rain 17 1011 47 0 2.1 45 15:58 19.04.2020
4647 Rain 17 1011 47 0 2.1 45 15:58 19.04.2020
4648 Rain 17 1011 47 0 2.1 45 15:39 19.04.2020
4649 Rain 17 1013 51 0 1.5 30 15:19 19.04.2020
4650 Rain 19 1010 55 0 0.89 339 14:39 19.04.2020
4651 Rain 18 1013 44 0 1.44 22 14:21 19.04.2020
4652 Rain 18 1013 44 0 1.44 22 13:56 19.04.2020
4653 Rain 17 1014 58 0 2.68 316 13:36 19.04.2020
4654 Rain 17 1014 58 0 2.68 316 13:18 19.04.2020
4655 Rain 18 1013 44 0 1.44 22 12:43 19.04.2020
4656 Rain 16 1014 55 0 1.1 0 12:24 19.04.2020
4657 Rain 16 1014 55 0 1.1 0 11:39 19.04.2020
4658 Rain 13 1012 83 0 0.45 143 11:20 19.04.2020
4659 Rain 15 1012 74 0 1.34 297 10:59 19.04.2020
4660 Rain 14 1015 70 0 0.45 58 10:41 19.04.2020
4661 Rain 14 1015 70 0 0.45 58 10:21 19.04.2020
4662 Rain 14 1015 70 0 0.45 58 09:56 19.04.2020
4663 Rain 11 1016 82 0 0.45 66 09:38 19.04.2020
4664 Clouds 11 1016 82 0 0.45 66 09:18 19.04.2020
4665 Clouds 9 1016 95 0 0.45 233 08:40 19.04.2020
4666 Clouds 9 1016 95 0 0.45 233 08:21 19.04.2020
4667 Clouds 9 1016 95 0 0.45 290 07:48 19.04.2020
4668 Clouds 9 1016 95 0 0.45 290 07:25 19.04.2020
4669 Clouds 9 1016 95 0 0.45 290 06:56 19.04.2020
4670 Clouds 10 1016 92 0 0.89 261 06:22 19.04.2020
4671 Clouds 9 1016 61 0 1.33 192 04:57 19.04.2020
4672 Clouds 9 1016 60 0 1.52 185 03:34 19.04.2020
4673 Rain 11 1017 93 0 0.45 175 02:22 19.04.2020
4674 Rain 12 1017 82 0 1.34 311 01:39 19.04.2020
4675 Rain 12 1017 82 0 1.34 311 01:21 19.04.2020
4676 Rain 10 1016 61 0 1.48 173 00:40 19.04.2020
4677 Rain 11 1016 62 0 1.51 197 00:19 19.04.2020
4678 Rain 11 1016 62 0 1.51 197 23:42 18.04.2020
4679 Rain 11 1016 62 0 1.51 197 23:19 18.04.2020
4680 Rain 11 1016 62 0 1.51 197 22:43 18.04.2020
4681 Rain 11 1016 62 0 1.51 197 22:43 18.04.2020
4682 Rain 11 1016 62 0 1.51 197 22:24 18.04.2020
4683 Rain 11 1016 62 0 1.51 197 21:58 18.04.2020
4684 Rain 11 1016 62 0 1.51 197 21:39 18.04.2020
4685 Rain 14 1015 31 0 0.85 222 21:21 18.04.2020
4686 Rain 14 1015 30 0 0.85 222 20:58 18.04.2020
4687 Rain 12 1015 59 0 0.85 222 20:40 18.04.2020
4688 Rain 12 1015 59 0 0.85 222 20:18 18.04.2020
4689 Rain 12 1015 59 0 0.85 222 19:41 18.04.2020
4690 Rain 12 1015 59 0 0.85 222 19:22 18.04.2020
4691 Rain 12 1015 59 0 0.85 222 18:39 18.04.2020
4692 Rain 17 1014 50 0 1.2 310 18:20 18.04.2020
4693 Rain 17 1014 50 0 1.2 310 17:58 18.04.2020
4694 Rain 17 1014 50 0 1.2 310 17:39 18.04.2020
4695 Rain 17 1014 50 0 1.2 310 17:19 18.04.2020
4696 Rain 17 1014 50 0 1.2 310 16:43 18.04.2020
4697 Rain 17 1014 50 0 1.2 310 16:22 18.04.2020
4698 Rain 17 1014 50 0 1.2 310 15:56 18.04.2020
4699 Rain 17 1014 50 0 1.2 310 15:37 18.04.2020
4700 Rain 18 1015 44 0 1.67 309 15:19 18.04.2020
4701 Rain 18 1015 44 0 1.67 309 14:44 18.04.2020
4702 Rain 18 1015 43 0 1.67 314 14:23 18.04.2020
4703 Rain 18 1015 43 0 1.67 314 13:44 18.04.2020
4704 Rain 18 1015 43 0 1.67 314 13:44 18.04.2020
4705 Rain 18 1015 43 0 1.67 314 13:22 18.04.2020
4706 Rain 18 1015 43 0 1.67 314 12:55 18.04.2020
4707 Rain 18 1015 43 0 1.67 314 12:36 18.04.2020
4708 Rain 18 1015 43 0 1.67 314 12:36 18.04.2020
4709 Rain 16 1016 51 0 1.19 302 12:18 18.04.2020
4710 Rain 16 1016 51 0 1.19 302 11:42 18.04.2020
4711 Rain 16 1016 51 0 1.19 302 11:22 18.04.2020
4712 Rain 16 1016 51 0 1.19 302 11:22 18.04.2020
4713 Rain 16 1016 51 0 1.19 302 10:57 18.04.2020
4714 Rain 16 1017 50 0 0.45 97 10:36 18.04.2020
4715 Rain 14 1017 50 0 0.45 97 10:18 18.04.2020
4716 Rain 13 1017 62 0 1.35 310 09:41 18.04.2020
4717 Clouds 12 1017 62 0 1.32 181 09:21 18.04.2020
4718 Clouds 9 1017 77 0 0.45 233 08:43 18.04.2020
4719 Clouds 9 1017 77 0 0.45 233 08:43 18.04.2020
4720 Clouds 9 1017 77 0 0.45 233 08:23 18.04.2020
4721 Clouds 8 1017 77 0 0.45 233 07:51 18.04.2020
4722 Clouds 8 1016 76 0 0.45 140 07:32 18.04.2020
4723 Clouds 8 1016 76 0 0.45 140 06:50 18.04.2020
4724 Clouds 8 1016 75 0 0.89 173 05:50 18.04.2020
4725 Clouds 8 1016 75 0 0.89 173 04:57 18.04.2020
4726 Clouds 8 1016 75 0 1.97 167 04:39 18.04.2020
4727 Clouds 8 1016 75 0 1.97 167 04:18 18.04.2020
4728 Clouds 9 1016 76 0 0.45 199 02:44 18.04.2020
4729 Clouds 9 1016 76 0 0.45 199 02:21 18.04.2020
4730 Clouds 9 1016 76 0 0.45 199 02:21 18.04.2020
4731 Clouds 9 1016 76 0 0.45 199 02:21 18.04.2020
4732 Clouds 9 1016 76 0 0.45 199 02:21 18.04.2020
4733 Clouds 10 1016 76 0 0.45 199 01:51 18.04.2020
4734 Clouds 11 1016 67 0 1.96 165 01:28 18.04.2020
4735 Clouds 10 1017 54 0 1.96 165 00:38 18.04.2020
4736 Rain 10 1016 55 0 1.98 168 00:20 18.04.2020
4737 Rain 11 1014 73 0 0.89 155 23:41 17.04.2020
4738 Rain 10 1016 55 0 1.98 168 23:20 17.04.2020
4739 Rain 10 1016 55 0 1.98 168 23:00 17.04.2020
4740 Rain 10 1016 55 0 1.98 168 22:59 17.04.2020
4741 Rain 10 1016 55 0 1.98 168 22:40 17.04.2020
4742 Rain 10 1016 55 0 1.98 168 22:21 17.04.2020
4743 Rain 10 1016 55 0 1.98 168 21:58 17.04.2020
4744 Rain 11 1017 56 0 1.87 172 21:40 17.04.2020
4745 Rain 12 1015 57 0 0.93 161 21:20 17.04.2020
4746 Rain 12 1015 57 0 0.93 161 20:56 17.04.2020
4747 Rain 12 1015 57 0 0.93 161 20:56 17.04.2020
4748 Rain 12 1015 57 0 0.93 161 20:37 17.04.2020
4749 Rain 12 1015 57 0 0.93 161 20:18 17.04.2020
4750 Rain 12 1015 57 0 0.93 161 19:55 17.04.2020
4751 Rain 12 1015 57 0 0.93 161 19:37 17.04.2020
4752 Rain 12 1015 57 0 0.93 161 19:18 17.04.2020
4753 Rain 21 1014 36 0 1.34 302 18:40 17.04.2020
4754 Clouds 21 1014 36 0 1.34 302 18:20 17.04.2020
4755 Clouds 21 1014 33 0 1.79 315 17:38 17.04.2020
4756 Clouds 21 1014 33 0 1.79 315 17:20 17.04.2020
4757 Clouds 21 1014 33 0 1.79 315 17:20 17.04.2020
4758 Clouds 21 1014 33 0 1.79 315 16:58 17.04.2020
4759 Clouds 22 1014 32 0 3.13 3 16:39 17.04.2020
4760 Clouds 22 1014 32 0 3.13 3 16:21 17.04.2020
4761 Clouds 22 1012 36 0 2.68 350 15:39 17.04.2020
4762 Clouds 22 1013 36 0 1.79 299 15:21 17.04.2020
4763 Clouds 21 1015 31 0 2.24 325 14:42 17.04.2020
4764 Clouds 21 1015 31 0 2.24 325 14:24 17.04.2020
4765 Clouds 21 1015 31 0 2.24 325 13:59 17.04.2020
4766 Clouds 21 1015 31 0 2.24 325 13:59 17.04.2020
4767 Clouds 20 1016 45 10000 1.5 310 13:39 17.04.2020
4768 Clouds 20 1016 45 10000 1.5 310 13:20 17.04.2020
4769 Clouds 19 1017 59 10000 2.1 280 12:48 17.04.2020
4770 Clouds 19 1017 55 10000 2.1 280 12:27 17.04.2020
4771 Clouds 19 1017 62 10000 1.5 280 11:58 17.04.2020
4772 Clouds 18 1017 67 10000 2.1 280 11:38 17.04.2020
4773 Clouds 17 1017 67 10000 2.1 280 11:19 17.04.2020
4774 Clouds 16 1018 76 10000 1.5 300 10:40 17.04.2020
4775 Clouds 16 1018 76 10000 1.5 300 10:20 17.04.2020
4776 Clouds 13 1018 66 10000 1 0 09:55 17.04.2020
4777 Clouds 13 1018 76 10000 1 0 09:36 17.04.2020
4778 Clouds 11 1018 76 10000 1 0 09:18 17.04.2020
4779 Clouds 9 1018 87 10000 1.5 0 08:45 17.04.2020
4780 Clouds 9 1018 87 10000 0.5 0 08:26 17.04.2020
4781 Clouds 8 1018 87 10000 0.5 0 07:54 17.04.2020
4782 Clouds 8 1017 87 10000 0.5 0 07:36 17.04.2020
4783 Clouds 7 1017 87 10000 0.5 0 07:18 17.04.2020
4784 Clouds 7 1017 87 10000 1.5 250 06:28 17.04.2020
4785 Clouds 7 1017 87 10000 1.5 270 05:42 17.04.2020
4786 Clear 7 1017 87 10000 1 210 03:22 17.04.2020
4787 Clear 8 1017 87 10000 0.5 0 02:49 17.04.2020
4788 Clouds 7 1017 76 10000 1 0 01:30 17.04.2020
4789 Clouds 8 1017 76 10000 1.5 240 00:59 17.04.2020
4790 Clear 9 1017 76 10000 1 0 00:20 17.04.2020
4791 Clear 8 1017 71 10000 1 0 23:46 16.04.2020
4792 Clear 9 1017 66 10000 1 0 23:23 16.04.2020
4793 Clear 9 1017 76 10000 1 0 22:58 16.04.2020
4794 Clear 10 1017 76 10000 1 0 22:39 16.04.2020
4795 Clear 11 1017 62 10000 1.5 0 22:20 16.04.2020
4796 Clear 11 1016 58 10000 1.5 0 21:56 16.04.2020
4797 Clear 12 1016 58 10000 1.5 0 21:38 16.04.2020
4798 Clouds 13 1016 62 10000 1 0 21:18 16.04.2020
4799 Clouds 14 1016 62 10000 0.5 0 20:41 16.04.2020
4800 Clouds 16 1016 59 10000 1 220 20:22 16.04.2020
4801 Clouds 18 1016 45 10000 1 220 19:56 16.04.2020
4802 Clouds 19 1016 45 10000 1 220 19:38 16.04.2020
4803 Clouds 19 1016 42 10000 1 0 19:19 16.04.2020
4804 Clouds 20 1016 40 10000 1 0 18:45 16.04.2020
4805 Clouds 20 1017 35 10000 1 0 18:26 16.04.2020
4806 Clouds 20 1017 39 10000 0.5 0 17:58 16.04.2020
4807 Clouds 20 1017 39 10000 0.5 0 17:40 16.04.2020
4808 Clouds 20 1017 20 10000 0.5 0 17:21 16.04.2020
4809 Clouds 20 1018 35 10000 3.1 280 16:44 16.04.2020
4810 Clouds 20 1018 39 10000 3.1 280 16:26 16.04.2020
4811 Clouds 20 1018 48 10000 3.1 280 15:57 16.04.2020
4812 Clouds 20 1018 48 10000 3.1 280 15:39 16.04.2020
4813 Clouds 19 1019 48 10000 2.6 280 15:18 16.04.2020
4814 Clouds 19 1019 45 10000 2.1 310 14:45 16.04.2020
4815 Clouds 19 1019 45 10000 2.1 310 14:45 16.04.2020
4816 Clouds 19 1019 44 10000 1.5 0 14:25 16.04.2020
4817 Clouds 19 1019 51 10000 3.1 280 13:59 16.04.2020
4818 Clouds 18 1019 51 10000 3.1 280 13:41 16.04.2020
4819 Clouds 18 1019 41 10000 1 0 13:22 16.04.2020
4820 Clouds 18 1020 47 10000 1 0 12:58 16.04.2020
4821 Clouds 18 1020 47 10000 1.5 0 12:39 16.04.2020
4822 Clouds 17 1020 47 10000 1.5 0 12:19 16.04.2020
4823 Clouds 16 1020 58 10000 0.5 0 11:57 16.04.2020
4824 Clouds 16 1021 57 10000 2.1 310 11:39 16.04.2020
4825 Clouds 15 1021 57 10000 2.1 310 11:20 16.04.2020
4826 Clouds 15 1021 71 10000 2.1 280 10:55 16.04.2020
4827 Clouds 14 1021 71 10000 2.1 280 10:37 16.04.2020
4828 Clouds 14 1021 76 10000 3.1 290 10:18 16.04.2020
4829 Clouds 11 1020 76 10000 2.6 290 09:39 16.04.2020
4830 Clear 8 1021 76 10000 2.1 320 09:20 16.04.2020
4831 Clear 8 1021 76 10000 1.5 290 08:56 16.04.2020
4832 Clear 6 1021 76 10000 1.5 290 08:36 16.04.2020
4833 Clear 6 1021 87 10000 0.5 0 08:18 16.04.2020
4834 Clear 6 1021 87 10000 0.5 0 08:18 16.04.2020
4835 Clear 4 1021 86 10000 1 0 07:42 16.04.2020
4836 Clear 4 1021 86 10000 1 0 07:20 16.04.2020
4837 Clear 3 1020 86 10000 1 110 06:41 16.04.2020
4838 Clouds 3 1020 93 10000 1 190 06:22 16.04.2020
4839 Clouds 4 1020 86 10000 0.5 0 04:53 16.04.2020
4840 Clouds 5 1020 80 10000 0.5 0 03:28 16.04.2020
4841 Clouds 5 1020 86 10000 1 0 02:59 16.04.2020
4842 Clouds 4 1020 86 10000 1 0 02:38 16.04.2020
4843 Clouds 5 1021 80 10000 1 0 01:29 16.04.2020
4844 Clouds 5 1020 81 10000 1 0 00:54 16.04.2020
4845 Clouds 7 1020 81 10000 1 0 00:21 16.04.2020
4846 Clouds 7 1020 70 10000 1 210 23:54 15.04.2020
4847 Clouds 8 1020 70 10000 1 210 23:36 15.04.2020
4848 Clouds 8 1020 75 10000 1 100 23:18 15.04.2020
4849 Clouds 8 1020 81 10000 1 0 22:38 15.04.2020
4850 Clouds 9 1020 66 10000 0.5 0 22:20 15.04.2020
4851 Clouds 10 1020 61 10000 1 180 21:55 15.04.2020
4852 Clouds 10 1020 61 10000 1 180 21:55 15.04.2020
4853 Clouds 10 1020 61 10000 1 180 21:37 15.04.2020
4854 Clear 10 1020 61 10000 1 0 21:18 15.04.2020
4855 Clear 12 1020 58 10000 1 0 20:54 15.04.2020
4856 Clear 12 1020 62 10000 0.5 0 20:36 15.04.2020
4857 Clear 12 1020 62 10000 0.5 0 20:18 15.04.2020
4858 Clear 16 1020 44 10000 0.5 0 19:40 15.04.2020
4859 Clear 15 1020 44 10000 0.5 0 19:20 15.04.2020
4860 Clear 17 1020 41 10000 0.5 0 18:41 15.04.2020
4861 Clear 17 1021 38 10000 2.1 320 18:23 15.04.2020
4862 Clear 18 1021 38 10000 2.1 320 17:58 15.04.2020
4863 Clear 17 1021 38 10000 2.1 320 17:39 15.04.2020
4864 Clear 18 1021 38 10000 2.1 290 17:20 15.04.2020
4865 Clear 18 1021 38 10000 2.1 290 16:56 15.04.2020
4866 Clear 17 1021 38 10000 2.1 290 16:37 15.04.2020
4867 Clear 17 1022 41 10000 2.6 290 16:37 15.04.2020
4868 Clear 17 1022 41 10000 2.6 290 16:19 15.04.2020
4869 Clear 17 1022 41 10000 2.6 290 15:57 15.04.2020
4870 Clear 16 1022 41 10000 2.6 290 15:38 15.04.2020
4871 Clouds 16 1023 47 10000 3.1 270 15:19 15.04.2020
4872 Clouds 16 1023 54 10000 2.6 280 14:56 15.04.2020
4873 Clear 15 1023 54 10000 2.6 280 14:38 15.04.2020
4874 Clear 15 1023 54 10000 2.6 280 14:20 15.04.2020
4875 Clear 14 1024 53 10000 2.1 280 13:56 15.04.2020
4876 Clear 13 1024 53 10000 2.1 280 13:37 15.04.2020
4877 Clear 13 1024 53 10000 2.1 280 13:18 15.04.2020
4878 Clear 12 1024 61 10000 2.6 280 12:42 15.04.2020
4879 Clear 11 1025 65 10000 2.1 280 12:23 15.04.2020
4880 Clear 10 1025 27 10000 2.1 280 11:58 15.04.2020
4881 Clear 10 1025 27 10000 2.1 280 11:39 15.04.2020
4882 Clear 9 1024 27 10000 3.6 310 11:21 15.04.2020
4883 Clear 7 1024 65 10000 1 0 10:39 15.04.2020
4884 Clear 7 1024 65 10000 1 0 10:21 15.04.2020
4885 Clear 6 1024 27 10000 1.5 0 09:57 15.04.2020
4886 Clear 4 1024 27 10000 1.5 0 09:39 15.04.2020
4887 Clear 3 1024 42 10000 2.1 280 09:21 15.04.2020
4888 Clear 2 1023 69 10000 1 0 08:55 15.04.2020
4889 Clear 1 1023 69 10000 1 0 08:37 15.04.2020
4890 Clear 0 1024 80 10000 0.5 0 08:19 15.04.2020
4891 Clear -1 1024 74 10000 0.5 0 07:49 15.04.2020
4892 Clear -1 1023 42 10000 1 0 07:30 15.04.2020
4893 Clear -2 1022 42 10000 0.5 0 06:33 15.04.2020
4894 Clear -2 1023 58 10000 0.5 0 05:50 15.04.2020
4895 Clear -1 1023 58 10000 1 0 04:49 15.04.2020
4896 Clear -1 1023 80 10000 1.5 0 04:24 15.04.2020
4897 Clear -1 1023 74 10000 1.5 110 03:23 15.04.2020
4898 Clear 0 1023 74 10000 2.1 110 02:52 15.04.2020
4899 Clear 0 1023 80 10000 1 0 01:54 15.04.2020
4900 Clear 0 1023 86 10000 1 220 01:25 15.04.2020
4901 Clear 0 1024 80 10000 1 0 00:51 15.04.2020
4902 Clear 0 1024 69 10000 1 0 00:30 15.04.2020
4903 Clear 1 1024 64 10000 2.1 190 23:57 14.04.2020
4904 Clear 2 1024 64 10000 2.1 190 23:38 14.04.2020
4905 Clear 2 1024 52 10000 1.5 170 23:20 14.04.2020
4906 Clear 2 1024 52 10000 3.1 80 22:58 14.04.2020
4907 Clear 2 1024 52 10000 3.1 80 22:39 14.04.2020
4908 Clear 3 1024 48 10000 2.6 0 22:21 14.04.2020
4909 Clear 2 1024 59 10000 2.6 40 21:57 14.04.2020
4910 Clear 2 1024 59 10000 2.6 40 21:39 14.04.2020
4911 Clear 4 1023 48 10000 4.1 30 21:20 14.04.2020
4912 Clear 4 1023 42 10000 3.6 20 20:58 14.04.2020
4913 Clear 4 1023 42 10000 3.6 20 20:39 14.04.2020
4914 Clear 5 1023 39 10000 3.6 20 20:20 14.04.2020
4915 Clear 6 1022 36 10000 3.1 20 19:41 14.04.2020
4916 Clear 7 1022 39 10000 3.1 20 19:23 14.04.2020
4917 Clear 7 1022 37 10000 2.1 330 18:59 14.04.2020
4918 Clear 8 1022 37 10000 2.1 330 18:40 14.04.2020
4919 Clear 8 1022 37 10000 3.1 290 18:21 14.04.2020
4920 Clear 9 1022 46 10000 3.6 280 17:58 14.04.2020
4921 Clear 8 1022 46 10000 3.6 280 17:38 14.04.2020
4922 Clear 8 1022 45 10000 4.1 280 17:20 14.04.2020
4923 Clear 8 1022 46 10000 4.1 290 16:56 14.04.2020
4924 Clear 8 1022 46 10000 4.1 290 16:38 14.04.2020
4925 Clear 8 1022 39 10000 3.6 290 16:19 14.04.2020
4926 Clear 8 1022 45 10000 3.6 300 15:56 14.04.2020
4927 Clear 8 1022 45 10000 3.6 300 15:37 14.04.2020
4928 Clouds 8 1022 45 10000 3.1 280 15:18 14.04.2020
4929 Clouds 8 1023 49 10000 3.6 300 14:55 14.04.2020
4930 Clouds 8 1023 49 10000 3.6 300 14:55 14.04.2020
4931 Clouds 8 1023 49 10000 3.6 300 14:37 14.04.2020
4932 Clouds 7 1022 52 10000 3.6 290 14:19 14.04.2020
4933 Clouds 7 1023 34 10000 3.6 290 13:43 14.04.2020
4934 Clouds 8 1023 34 10000 3.6 290 13:24 14.04.2020
4935 Clouds 7 1023 48 10000 2.1 0 12:54 14.04.2020
4936 Clouds 7 1023 52 10000 2.1 330 12:36 14.04.2020
4937 Clouds 5 1023 52 10000 2.1 330 12:18 14.04.2020
4938 Clouds 5 1023 56 10000 2.1 0 11:40 14.04.2020
4939 Clouds 5 1023 56 10000 3.6 10 11:20 14.04.2020
4940 Clouds 4 1022 52 10000 3.1 20 10:47 14.04.2020
4941 Clouds 4 1022 56 10000 2.6 360 10:28 14.04.2020
4942 Clouds 3 1022 60 10000 1.5 0 09:59 14.04.2020
4943 Clouds 3 1022 60 10000 1.5 0 09:40 14.04.2020
4944 Clouds 2 1022 64 10000 2.6 340 09:22 14.04.2020
4945 Clouds 2 1021 65 10000 3.1 340 08:44 14.04.2020
4946 Clouds 2 1021 64 10000 2.1 330 08:25 14.04.2020
4947 Clouds 1 1021 64 10000 2.6 330 07:58 14.04.2020
4948 Clouds 1 1020 64 0 1.9 20 07:40 14.04.2020
4949 Clouds 1 1021 69 10000 1.5 320 07:21 14.04.2020
4950 Clouds 2 1021 64 10000 2.1 340 06:35 14.04.2020
4951 Clouds 2 1020 60 10000 3.1 360 05:22 14.04.2020
4952 Rain 4 1019 64 0 1.91 12 03:25 14.04.2020
4953 Clouds 4 1020 65 10000 4.6 20 02:19 14.04.2020
4954 Rain 4 1019 74 10000 2.6 20 01:26 14.04.2020
4955 Rain 4 1019 69 10000 4.6 20 00:49 14.04.2020
4956 Rain 5 1018 75 10000 7.2 20 00:23 14.04.2020
4957 Rain 6 1017 81 10000 4.1 20 23:55 13.04.2020
4958 Rain 6 1018 75 10000 7.2 20 23:36 13.04.2020
4959 Rain 6 1018 75 10000 7.7 10 23:18 13.04.2020
4960 Rain 8 1017 87 10000 5.7 360 22:42 13.04.2020
4961 Rain 8 1017 87 10000 5.7 360 22:42 13.04.2020
4962 Rain 8 1016 87 6000 4.6 340 22:22 13.04.2020
4963 Rain 8 1016 81 10000 5.7 360 21:57 13.04.2020
4964 Rain 10 1015 67 10000 3.6 10 21:39 13.04.2020
4965 Rain 10 1015 76 10000 7.2 10 21:20 13.04.2020
4966 Rain 10 1015 76 10000 6.7 10 20:56 13.04.2020
4967 Rain 10 1015 76 10000 6.7 10 20:56 13.04.2020
4968 Rain 11 1015 76 10000 6.7 10 20:38 13.04.2020
4969 Rain 11 1014 76 10000 5.7 360 20:19 13.04.2020
4970 Rain 12 1014 76 10000 5.7 10 19:54 13.04.2020
4971 Clouds 13 1012 45 10000 1 0 19:36 13.04.2020
4972 Clouds 14 1012 37 10000 0.5 0 19:18 13.04.2020
4973 Clouds 15 1012 42 10000 1 0 18:54 13.04.2020
4974 Rain 16 1013 45 10000 2.1 270 18:36 13.04.2020
4975 Rain 16 1013 45 10000 2.1 270 18:18 13.04.2020
4976 Rain 17 1012 37 10000 3.1 270 17:54 13.04.2020
4977 Rain 17 1012 37 10000 3.1 270 17:36 13.04.2020
4978 Rain 17 1012 39 10000 4.1 280 17:18 13.04.2020
4979 Rain 17 1012 37 10000 1.5 0 16:55 13.04.2020
4980 Rain 18 1012 37 10000 1.5 0 16:36 13.04.2020
4981 Rain 18 1012 37 10000 1.5 0 16:36 13.04.2020
4982 Rain 18 1013 40 10000 2.6 260 16:18 13.04.2020
4983 Rain 18 1013 39 10000 3.1 300 15:43 13.04.2020
4984 Rain 18 1013 42 10000 2.6 270 15:25 13.04.2020
4985 Clouds 19 1013 39 10000 3.1 310 14:56 13.04.2020
4986 Clouds 19 1013 39 10000 3.1 310 14:38 13.04.2020
4987 Rain 18 1014 37 10000 2.6 310 14:20 13.04.2020
4988 Clouds 17 1014 52 10000 1.5 10 13:55 13.04.2020
4989 Clouds 17 1014 52 10000 1.5 10 13:55 13.04.2020
4990 Clouds 17 1014 52 10000 1.5 10 13:55 13.04.2020
4991 Rain 17 1014 45 10000 2.1 10 13:37 13.04.2020
4992 Rain 17 1014 45 10000 2.1 10 13:18 13.04.2020
4993 Rain 16 1015 48 10000 2.1 40 12:57 13.04.2020
4994 Rain 16 1015 48 10000 1.5 0 12:38 13.04.2020
4995 Clouds 17 1015 48 10000 1.5 0 12:19 13.04.2020
4996 Clouds 16 1015 55 10000 1 0 11:43 13.04.2020
4997 Rain 15 1015 63 10000 1.5 0 11:19 13.04.2020
4998 Rain 15 1015 67 10000 0.5 0 10:56 13.04.2020
4999 Rain 15 1015 67 10000 0.5 0 10:38 13.04.2020
5000 Clouds 15 1015 67 10000 1.5 310 10:19 13.04.2020
5001 Rain 14 1015 67 10000 2.1 290 09:55 13.04.2020
5002 Clouds 13 1015 67 10000 2.1 290 09:36 13.04.2020
5003 Clouds 11 1015 71 10000 2.1 330 09:18 13.04.2020
5004 Clouds 11 1015 71 10000 1.5 90 08:42 13.04.2020
5005 Clouds 11 1015 71 10000 1.5 90 08:42 13.04.2020
5006 Clouds 10 1014 76 10000 1 240 08:24 13.04.2020
5007 Clouds 10 1014 76 10000 0.5 0 07:42 13.04.2020
5008 Clouds 10 1014 71 10000 1.5 120 07:24 13.04.2020
5009 Clouds 10 1014 66 10000 0.5 0 06:47 13.04.2020
5010 Clouds 10 1014 58 10000 1.5 0 06:25 13.04.2020
5011 Clouds 11 1014 51 10000 1.5 0 05:38 13.04.2020
5012 Clouds 11 1014 51 10000 3.6 270 05:18 13.04.2020
5013 Clouds 11 1014 51 10000 4.1 120 04:24 13.04.2020
5014 Clouds 11 1014 58 10000 2.6 120 03:49 13.04.2020
5015 -273 0 0 0 0 0 02:59 13.04.2020
5016 Clouds 11 1015 58 10000 2.6 180 02:38 13.04.2020
5017 Clouds 11 1015 71 10000 2.1 280 01:44 13.04.2020
5018 Clouds 11 1015 58 10000 1 0 01:25 13.04.2020
5019 Clouds 13 1015 55 10000 2.6 270 00:43 13.04.2020
5020 Rain 13 1014 62 10000 2.1 270 00:22 13.04.2020
5021 Clouds 13 1014 59 10000 1.5 280 23:49 12.04.2020
5022 Clouds 12 1014 71 10000 2.1 290 23:23 12.04.2020
5023 Rain 13 1014 63 10000 1.5 240 22:59 12.04.2020
5024 Rain 14 1014 63 10000 1.5 240 22:37 12.04.2020
5025 Rain 14 1013 42 10000 1 0 22:19 12.04.2020
5026 Rain 14 1013 42 10000 1 0 22:19 12.04.2020
5027 Clouds 15 1013 39 10000 1.5 160 21:41 12.04.2020
5028 Rain 15 1013 39 10000 1.5 170 21:22 12.04.2020
5029 Rain 15 1013 45 10000 1 0 20:59 12.04.2020
5030 Rain 16 1013 45 10000 1 0 20:40 12.04.2020
5031 Rain 15 1013 59 10000 1 70 20:22 12.04.2020
5032 Rain 18 1013 45 10000 2.1 70 19:56 12.04.2020
5033 Rain 18 1013 45 10000 2.1 70 19:37 12.04.2020
5034 Rain 18 1013 45 10000 2.1 70 19:37 12.04.2020
5035 Clouds 19 1014 40 10000 0.5 0 19:18 12.04.2020
5036 Clouds 19 1014 40 10000 0.5 0 19:18 12.04.2020
5037 Clouds 20 1014 48 10000 2.6 280 18:40 12.04.2020
5038 Clouds 21 1014 35 10000 1.5 290 18:22 12.04.2020
5039 Rain 21 1014 37 10000 1.5 300 17:57 12.04.2020
5040 Rain 21 1014 37 10000 1.5 300 17:38 12.04.2020
5041 Rain 21 1015 28 10000 0.5 0 17:20 12.04.2020
5042 Rain 21 1015 34 10000 1.5 0 16:56 12.04.2020
5043 Rain 21 1015 37 10000 2.1 260 16:37 12.04.2020
5044 Rain 21 1015 37 10000 2.1 260 16:19 12.04.2020
5045 Rain 20 1016 40 10000 2.6 300 15:42 12.04.2020
5046 Rain 20 1016 42 10000 2.1 270 15:23 12.04.2020
5047 Rain 20 1017 52 10000 2.6 280 14:41 12.04.2020
5048 Rain 20 1017 45 10000 3.1 280 14:22 12.04.2020
5049 Rain 20 1018 45 10000 3.1 280 13:58 12.04.2020
5050 Rain 19 1018 51 10000 3.1 280 13:40 12.04.2020
5051 Rain 20 1018 51 10000 3.1 280 13:21 12.04.2020
5052 Rain 19 1019 55 10000 3.1 280 12:47 12.04.2020
5053 Rain 18 1019 55 10000 2.6 270 12:22 12.04.2020
5054 Rain 18 1019 62 10000 2.1 300 11:59 12.04.2020
5055 Rain 18 1019 62 10000 2.1 300 11:59 12.04.2020
5056 Rain 18 1019 62 10000 2.1 300 11:39 12.04.2020
5057 Rain 17 1019 54 10000 1.5 0 11:20 12.04.2020
5058 Rain 17 1020 71 10000 2.6 280 10:57 12.04.2020
5059 Rain 15 1020 71 10000 2.6 280 10:39 12.04.2020
5060 Rain 15 1020 71 10000 2.6 280 10:39 12.04.2020
5061 Clouds 15 1020 76 10000 2.6 280 10:20 12.04.2020
5062 Clouds 13 1020 71 10000 3.1 280 09:58 12.04.2020
5063 Clouds 12 1020 71 10000 3.1 280 09:39 12.04.2020
5064 Clouds 11 1020 81 10000 2.6 290 09:19 12.04.2020
5065 Clouds 10 1020 93 10000 0.5 280 08:50 12.04.2020
5066 Clouds 9 1020 93 10000 1.5 210 08:31 12.04.2020
5067 Clouds 7 1020 93 10000 1 0 07:47 12.04.2020
5068 Clouds 7 1020 93 10000 1 0 07:47 12.04.2020
5069 Clouds 7 1020 93 10000 0.5 0 07:20 12.04.2020
5070 Clouds 7 1020 93 10000 1 0 06:54 12.04.2020
5071 Clouds 7 1020 93 10000 0.5 0 06:30 12.04.2020
5072 Clouds 7 1020 93 10000 1 200 05:49 12.04.2020
5073 Clouds 7 1021 93 10000 1 0 04:44 12.04.2020
5074 Clouds 7 1021 93 10000 1 0 03:30 12.04.2020
5075 Clear 8 1021 81 10000 0.5 0 02:49 12.04.2020
5076 Clear 8 1021 87 10000 1 0 02:29 12.04.2020
5077 Clear 8 1021 81 10000 0.5 0 01:23 12.04.2020
5078 Clear 8 1021 81 10000 0.5 0 00:44 12.04.2020
5079 Clear 9 1021 76 10000 0.5 0 00:21 12.04.2020
5080 Clear 9 1021 71 10000 0.5 0 23:59 11.04.2020
5081 Clear 9 1021 71 10000 0.5 0 23:40 11.04.2020
5082 Clear 10 1021 71 10000 1 0 23:22 11.04.2020
5083 Clear 10 1021 71 10000 1 0 23:22 11.04.2020
5084 Clear 11 1021 62 10000 1.5 0 22:39 11.04.2020
5085 Clear 11 1021 62 10000 1 200 22:20 11.04.2020
5086 Clear 12 1021 58 10000 1 220 21:56 11.04.2020
5087 Clear 12 1021 58 10000 1.5 0 21:37 11.04.2020
5088 Rain 13 1021 58 10000 1.5 0 21:18 11.04.2020
5089 Rain 14 1021 48 10000 0.5 0 20:56 11.04.2020
5090 Rain 15 1021 48 10000 0.5 0 20:38 11.04.2020
5091 Rain 15 1020 54 10000 1 240 20:19 11.04.2020
5092 Rain 15 1020 54 10000 1 240 20:19 11.04.2020
5093 Rain 17 1020 37 10000 1 0 19:57 11.04.2020
5094 Rain 18 1020 37 10000 1 0 19:38 11.04.2020
5095 Rain 19 1020 37 10000 2.6 280 19:18 11.04.2020
5096 Rain 19 1020 34 10000 3.1 280 18:55 11.04.2020
5097 Rain 20 1020 34 10000 3.1 280 18:37 11.04.2020
5098 Clouds 19 1020 30 10000 3.1 280 18:18 11.04.2020
5099 Clouds 19 1021 30 10000 3.1 280 17:57 11.04.2020
5100 Clouds 20 1021 30 10000 3.1 280 17:37 11.04.2020
5101 Clouds 20 1021 32 10000 3.1 270 17:19 11.04.2020
5102 Clouds 20 1021 34 10000 3.1 290 16:42 11.04.2020
5103 Clouds 20 1021 45 10000 2.6 280 16:21 11.04.2020
5104 Clouds 19 1022 40 10000 3.1 270 15:42 11.04.2020
5105 Clear 20 1022 42 10000 3.1 280 15:21 11.04.2020
5106 Clear 19 1022 48 10000 3.1 280 14:59 11.04.2020
5107 Clear 19 1023 52 10000 3.6 280 14:40 11.04.2020
5108 Clear 19 1023 52 10000 3.6 280 14:22 11.04.2020
5109 Clear 19 1023 52 10000 3.6 280 14:22 11.04.2020
5110 Clear 19 1023 51 10000 3.1 280 13:46 11.04.2020
5111 Clear 17 1023 59 10000 3.1 280 13:26 11.04.2020
5112 Clear 18 1024 62 10000 3.1 280 12:59 11.04.2020
5113 Clear 17 1024 62 10000 3.1 280 12:38 11.04.2020
5114 Clear 17 1024 67 10000 2.1 280 12:18 11.04.2020
5115 Clear 17 1024 66 10000 2.1 280 11:54 11.04.2020
5116 Clear 16 1024 66 10000 2.1 280 11:36 11.04.2020
5117 Clear 16 1024 76 10000 2.1 280 11:18 11.04.2020
5118 Clear 14 1024 76 10000 1.5 280 10:41 11.04.2020
5119 Clear 13 1024 71 10000 1.5 0 10:21 11.04.2020
5120 Clear 13 1024 71 10000 1 0 09:57 11.04.2020
5121 Clear 11 1024 71 10000 1 0 09:38 11.04.2020
5122 Clear 10 1024 76 10000 1 0 09:20 11.04.2020
5123 Clear 7 1024 87 10000 1.03 163 08:43 11.04.2020
5124 Clear 7 1023 87 10000 1 0 08:25 11.04.2020
5125 Clear 6 1023 86 10000 1 130 07:49 11.04.2020
5126 Clear 6 1023 93 10000 1 0 07:28 11.04.2020
5127 Clear 6 1023 87 10000 1 0 06:47 11.04.2020
5128 Clear 6 1023 93 10000 1.5 130 05:59 11.04.2020
5129 Clear 6 1023 81 10000 0.5 0 04:34 11.04.2020
5130 Clear 6 1023 81 10000 1 150 03:40 11.04.2020
5131 Clear 7 1023 71 10000 1 220 01:52 11.04.2020
5132 Clear 8 1022 81 10000 1.5 210 01:20 11.04.2020
5133 Clear 8 1022 81 10000 0.5 0 00:44 11.04.2020
5134 Clear 9 1022 66 10000 1 0 00:19 11.04.2020
5135 Clear 9 1022 76 10000 1 0 23:56 10.04.2020
5136 Clear 9 1022 76 10000 1 0 23:37 10.04.2020
5137 Clear 10 1022 62 10000 0.5 0 23:18 10.04.2020
5138 Clear 11 1022 66 10000 1 200 22:43 10.04.2020
5139 Clear 11 1022 66 10000 1 200 22:21 10.04.2020
5140 Clear 12 1022 62 10000 1 0 21:58 10.04.2020
5141 Clear 12 1022 62 10000 1 0 21:39 10.04.2020
5142 Clouds 13 1021 58 10000 1.5 0 21:18 10.04.2020
5143 Clouds 14 1021 51 10000 1.5 190 20:41 10.04.2020
5144 Clouds 16 1021 51 10000 1.5 200 20:23 10.04.2020
5145 Clouds 17 1021 39 10000 1.5 240 19:57 10.04.2020
5146 Clouds 18 1021 34 10000 2.6 270 19:39 10.04.2020
5147 Clouds 18 1021 34 10000 2.6 270 19:19 10.04.2020
5148 Clouds 19 1021 34 10000 2.6 270 18:56 10.04.2020
5149 Clouds 20 1021 34 10000 2.6 270 18:38 10.04.2020
5150 Clouds 20 1021 34 10000 2.6 270 18:38 10.04.2020
5151 Clouds 20 1021 30 10000 3.6 280 18:20 10.04.2020
5152 Clouds 20 1021 32 10000 2.6 280 17:58 10.04.2020
5153 Clouds 21 1021 32 10000 2.6 280 17:39 10.04.2020
5154 Clouds 21 1021 34 10000 3.1 270 17:19 10.04.2020
5155 Clouds 20 1022 42 10000 3.1 280 16:46 10.04.2020
5156 Clouds 20 1022 42 10000 2.6 280 16:24 10.04.2020
5157 Clouds 20 1022 45 10000 2.6 280 15:59 10.04.2020
5158 Clouds 20 1022 45 10000 2.6 280 15:40 10.04.2020
5159 Clear 20 1022 48 10000 3.1 270 15:22 10.04.2020
5160 Clear 20 1023 45 10000 3.6 280 15:00 10.04.2020
5161 Clear 20 1023 45 10000 3.6 280 14:41 10.04.2020
5162 Clear 19 1023 51 10000 3.6 290 14:23 10.04.2020
5163 Clear 20 1023 63 10000 3.6 290 13:57 10.04.2020
5164 Clear 19 1023 63 10000 3.6 290 13:39 10.04.2020
5165 Clear 19 1024 59 10000 3.1 280 13:20 10.04.2020
5166 Clear 18 1024 67 10000 2.6 280 12:43 10.04.2020
5167 Clear 17 1024 66 10000 2.6 280 12:22 10.04.2020
5168 Clear 17 1024 66 10000 2.6 280 11:55 10.04.2020
5169 Clear 16 1024 66 10000 2.6 280 11:36 10.04.2020
5170 Clear 16 1024 66 10000 2.6 280 11:36 10.04.2020
5171 Clear 15 1024 66 10000 2.1 280 11:18 10.04.2020
5172 Clear 14 1024 71 10000 2.1 280 10:42 10.04.2020
5173 Clear 13 1024 76 10000 1.5 280 10:22 10.04.2020
5174 Clear 11 1024 66 10000 1.5 0 09:45 10.04.2020
5175 Clear 8 1024 81 10000 1.5 300 09:25 10.04.2020
5176 Clear 8 1024 93 10000 0.5 0 08:56 10.04.2020
5177 Clear 7 1024 93 10000 0.5 0 08:38 10.04.2020
5178 Clear 7 1024 93 10000 0.5 0 08:38 10.04.2020
5179 Clear 6 1024 93 10000 0.5 140 08:20 10.04.2020
5180 Clear 5 1024 93 10000 0.5 0 07:44 10.04.2020
5181 Clear 5 1023 93 10000 1 0 07:22 10.04.2020
5182 Clear 5 1023 93 10000 1 200 06:45 10.04.2020
5183 Clear 5 1023 93 10000 0.5 0 06:25 10.04.2020
5184 Clear 5 1023 86 10000 1 0 05:38 10.04.2020
5185 Clear 6 1023 87 10000 0.5 0 04:57 10.04.2020
5186 Clear 6 1023 87 10000 1 0 03:41 10.04.2020
5187 Clear 7 1023 87 10000 0.5 200 02:59 10.04.2020
5188 Clear 7 1023 87 10000 0.5 200 02:38 10.04.2020
5189 Clear 8 1023 87 10000 1 0 02:19 10.04.2020
5190 Clear 7 1023 76 10000 0.5 0 01:29 10.04.2020
5191 Clear 7 1023 75 10000 1 210 00:49 10.04.2020
5192 Clear 8 1023 81 10000 0.5 0 00:23 10.04.2020
5193 Clear 9 1023 71 10000 0.5 0 23:44 09.04.2020
5194 Clear 9 1023 76 10000 1 200 23:26 09.04.2020
5195 Clear 9 1023 71 10000 0.5 200 22:59 09.04.2020
5196 Clear 10 1023 66 10000 1 0 22:40 09.04.2020
5197 Clear 11 1023 66 10000 1 0 22:22 09.04.2020
5198 Clear 12 1023 58 10000 1 0 21:43 09.04.2020
5199 Clouds 12 1023 62 10000 1.5 220 21:25 09.04.2020
5200 Clouds 13 1022 58 10000 1 0 20:56 09.04.2020
5201 Clouds 13 1022 58 10000 1 0 20:38 09.04.2020
5202 Clouds 15 1022 51 10000 1 0 20:19 09.04.2020
5203 Clouds 17 1022 42 10000 2.1 290 19:40 09.04.2020
5204 Clouds 17 1022 45 10000 2.6 280 19:22 09.04.2020
5205 Clouds 18 1022 48 10000 3.6 280 18:58 09.04.2020
5206 Clouds 19 1022 48 10000 3.6 280 18:40 09.04.2020
5207 Clouds 19 1022 40 10000 3.6 280 18:18 09.04.2020
5208 Clouds 20 1022 40 10000 3.6 280 17:39 09.04.2020
5209 Clouds 20 1022 42 10000 3.6 280 17:21 09.04.2020
5210 Clouds 20 1023 40 10000 2.6 280 16:41 09.04.2020
5211 Clouds 20 1023 39 10000 2.6 280 16:20 09.04.2020
5212 Clouds 20 1023 45 10000 3.1 280 15:57 09.04.2020
5213 Clouds 19 1023 45 10000 3.1 280 15:39 09.04.2020
5214 Rain 19 1023 45 10000 3.1 280 15:20 09.04.2020
5215 Rain 19 1024 42 10000 2.6 280 14:59 09.04.2020
5216 Rain 18 1024 48 10000 2.1 270 14:38 09.04.2020
5217 Rain 18 1024 48 10000 2.1 270 14:20 09.04.2020
5218 Rain 18 1024 51 10000 2.1 280 13:42 09.04.2020
5219 Rain 17 1024 47 10000 2.1 320 13:24 09.04.2020
5220 Rain 17 1025 51 10000 1.5 0 12:59 09.04.2020
5221 Rain 16 1025 51 10000 1.5 0 12:38 09.04.2020
5222 Rain 16 1025 58 10000 1.5 0 12:20 09.04.2020
5223 Rain 15 1025 71 10000 1 0 11:44 09.04.2020
5224 Rain 14 1025 71 10000 1 0 11:20 09.04.2020
5225 Rain 13 1025 81 10000 2.1 290 10:59 09.04.2020
5226 Rain 13 1025 81 10000 2.1 290 10:41 09.04.2020
5227 Rain 11 1025 81 10000 2.1 290 10:22 09.04.2020
5228 Clouds 11 1025 81 10000 2.1 290 09:57 09.04.2020
5229 Clouds 10 1025 81 10000 2.1 290 09:39 09.04.2020
5230 Clouds 9 1024 81 10000 1 0 09:20 09.04.2020
5231 Clouds 8 1024 81 10000 1 60 08:44 09.04.2020
5232 Clouds 8 1024 81 10000 1 60 08:44 09.04.2020
5233 Clouds 7 1024 93 10000 1 70 08:24 09.04.2020
5234 Clouds 7 1024 81 10000 0.65 143 07:57 09.04.2020
5235 Clouds 6 1023 81 10000 1 0 07:28 09.04.2020
5236 Clouds 6 1023 87 10000 0.5 0 06:57 09.04.2020
5237 Clouds 6 1023 81 10000 0.82 168 06:25 09.04.2020
5238 Clouds 6 1023 87 10000 0.5 0 05:43 09.04.2020
5239 Clouds 6 1023 87 10000 0.5 120 04:26 09.04.2020
5240 Clouds 6 1023 87 10000 0.5 120 04:26 09.04.2020
5241 Clear 7 1023 70 10000 1.5 210 02:32 09.04.2020
5242 Clear 7 1023 66 10000 1.5 120 01:43 09.04.2020
5243 Clear 7 1023 87 10000 2.1 90 01:24 09.04.2020
5244 Clear 8 1023 66 10000 0.5 0 00:43 09.04.2020
5245 Clear 9 1023 66 10000 3.1 250 00:20 09.04.2020
5246 Clear 9 1023 66 10000 3.1 250 00:20 09.04.2020
5247 Clear 8 1023 71 10000 1 0 23:59 08.04.2020
5248 Clear 9 1023 71 10000 1 0 23:41 08.04.2020
5249 Clear 9 1023 62 10000 2.6 130 23:21 08.04.2020
5250 Clear 9 1023 66 10000 2.6 150 22:44 08.04.2020
5251 Clear 10 1023 41 10000 1 0 22:24 08.04.2020
5252 Clear 11 1023 38 10000 1 0 21:57 08.04.2020
5253 Clouds 13 1023 39 10000 1.5 0 21:38 08.04.2020
5254 Rain 13 1023 39 10000 1.5 0 21:19 08.04.2020
5255 Rain 13 1023 39 10000 1.5 0 20:58 08.04.2020
5256 Rain 14 1022 48 10000 1 170 20:38 08.04.2020
5257 Rain 15 1022 48 10000 1 170 20:20 08.04.2020
5258 Rain 17 1022 42 10000 1 170 19:55 08.04.2020
5259 Rain 18 1022 42 10000 1 170 19:36 08.04.2020
5260 Rain 18 1022 26 10000 0.5 0 19:18 08.04.2020
5261 Rain 20 1023 28 10000 0.5 0 18:41 08.04.2020
5262 Clouds 20 1023 30 10000 1.5 280 18:23 08.04.2020
5263 Clouds 20 1023 30 10000 1.5 280 17:44 08.04.2020
5264 Clouds 20 1023 30 10000 1.5 0 17:22 08.04.2020
5265 Clouds 20 1023 30 10000 1.5 0 16:59 08.04.2020
5266 Clouds 20 1023 30 10000 1.5 0 16:41 08.04.2020
5267 Clouds 20 1024 28 10000 2.1 320 16:22 08.04.2020
5268 Clouds 20 1024 45 10000 1 0 15:55 08.04.2020
5269 Clouds 20 1024 45 10000 1 0 15:36 08.04.2020
5270 Clouds 19 1025 45 10000 1.5 50 15:18 08.04.2020
5271 Clouds 19 1025 45 10000 1.5 50 14:42 08.04.2020
5272 Clouds 18 1025 45 10000 1.5 0 14:23 08.04.2020
5273 Clouds 18 1025 36 10000 1.5 0 13:45 08.04.2020
5274 Clouds 18 1026 41 10000 1.5 70 13:22 08.04.2020
5275 Clouds 18 1026 48 10000 1 0 12:59 08.04.2020
5276 Clouds 17 1026 48 10000 1 0 12:41 08.04.2020
5277 Clear 16 1026 47 10000 1.5 290 12:18 08.04.2020
5278 Clear 15 1027 54 10000 1.5 290 11:54 08.04.2020
5279 Clear 16 1027 54 10000 1.5 290 11:36 08.04.2020
5280 Clear 16 1027 58 10000 1.5 310 11:18 08.04.2020
5281 Clear 15 1027 71 10000 1 0 10:54 08.04.2020
5282 Clear 14 1027 76 10000 0.5 0 10:36 08.04.2020
5283 Clear 13 1027 76 10000 0.5 0 10:18 08.04.2020
5284 Clear 12 1027 81 10000 0.5 0 09:42 08.04.2020
5285 Clear 8 1027 81 10000 0.5 0 09:19 08.04.2020
5286 Clear 8 1027 87 10000 0.5 0 08:58 08.04.2020
5287 Clear 8 1027 87 10000 0.5 0 08:58 08.04.2020
5288 Clear 7 1027 87 10000 0.5 0 08:40 08.04.2020
5289 Clear 7 1026 81 10000 1.81 178 08:21 08.04.2020
5290 Clear 5 1026 86 10000 0.5 0 07:43 08.04.2020
5291 Clear 5 1026 86 10000 0.5 0 07:22 08.04.2020
5292 Clear 5 1026 93 10000 1.5 110 06:33 08.04.2020
5293 Clear 6 1026 93 10000 1 0 05:22 08.04.2020
5294 Clear 6 1026 86 10000 1 0 02:51 08.04.2020
5295 Clear 6 1026 87 10000 1 0 02:22 08.04.2020
5296 Clear 7 1026 81 10000 1 0 01:56 08.04.2020
5297 Clear 7 1026 75 10000 1 0 01:28 08.04.2020
5298 Clear 8 1026 70 10000 0.5 0 00:49 08.04.2020
5299 Clear 9 1026 70 10000 1.5 0 00:31 08.04.2020
5300 Clear 9 1026 75 10000 0.5 0 23:57 07.04.2020
5301 Clear 10 1026 75 10000 0.5 0 23:38 07.04.2020
5302 Clear 10 1025 66 10000 0.5 0 23:19 07.04.2020
5303 Clear 10 1025 62 10000 1 0 22:56 07.04.2020
5304 Clear 11 1025 62 10000 1 0 22:38 07.04.2020
5305 Clear 13 1025 62 10000 1.5 250 22:18 07.04.2020
5306 Clear 12 1026 62 10000 1.5 0 21:42 07.04.2020
5307 Clouds 14 1025 47 10000 1 0 21:22 07.04.2020
5308 Clouds 15 1025 36 10000 1 0 20:59 07.04.2020
5309 Clouds 15 1025 36 10000 2.1 40 20:41 07.04.2020
5310 Clouds 15 1025 36 10000 2.1 40 20:21 07.04.2020
5311 Clouds 16 1025 34 10000 3.1 30 19:57 07.04.2020
5312 Clouds 17 1025 37 10000 2.6 20 19:38 07.04.2020
5313 Clouds 17 1025 37 10000 2.6 20 19:38 07.04.2020
5314 Clouds 18 1025 37 10000 2.6 20 19:20 07.04.2020
5315 Clouds 18 1025 34 10000 2.6 10 18:58 07.04.2020
5316 Clouds 20 1025 34 10000 2.6 10 18:40 07.04.2020
5317 Clouds 20 1025 37 10000 2.1 290 18:20 07.04.2020
5318 Clouds 19 1025 37 10000 2.1 280 17:47 07.04.2020
5319 Clouds 20 1025 37 10000 2.1 280 17:24 07.04.2020
5320 Clouds 20 1025 37 10000 2.1 280 16:55 07.04.2020
5321 Clouds 20 1026 37 10000 2.6 270 16:37 07.04.2020
5322 Clouds 20 1026 48 10000 3.1 280 16:19 07.04.2020
5323 Clouds 20 1027 52 10000 3.1 290 15:42 07.04.2020
5324 Clear 19 1027 52 10000 3.1 290 15:24 07.04.2020
5325 Clouds 19 1027 51 10000 3.1 280 14:42 07.04.2020
5326 Clear 18 1027 45 10000 2.6 290 14:23 07.04.2020
5327 Clouds 18 1028 59 10000 3.1 280 13:57 07.04.2020
5328 Clouds 17 1028 59 10000 3.1 280 13:39 07.04.2020
5329 Clouds 18 1028 54 10000 3.6 290 13:19 07.04.2020
5330 Clouds 18 1029 58 10000 3.6 290 12:56 07.04.2020
5331 Clouds 17 1029 58 10000 3.6 290 12:37 07.04.2020
5332 Clear 15 1029 62 10000 3.1 280 12:18 07.04.2020
5333 Clear 14 1029 71 10000 2.6 280 11:44 07.04.2020
5334 Clear 14 1029 66 10000 2.6 280 11:26 07.04.2020
5335 Clear 14 1029 76 10000 1 0 10:59 07.04.2020
5336 Clear 13 1030 81 10000 1.5 330 10:38 07.04.2020
5337 Clear 13 1030 81 10000 1.5 330 10:19 07.04.2020
5338 Clear 11 1029 76 10000 1 0 09:46 07.04.2020
5339 Clear 7 1030 76 10000 0.5 0 09:20 07.04.2020
5340 Clear 7 1030 87 10000 0.5 0 08:57 07.04.2020
5341 Clear 6 1030 87 10000 0.5 0 08:38 07.04.2020
5342 Clear 5 1029 81 10000 0.5 0 08:19 07.04.2020
5343 Clear 4 1029 86 10000 0.5 130 07:43 07.04.2020
5344 Clear 4 1029 93 10000 0.5 190 07:25 07.04.2020
5345 Clear 4 1028 86 10000 0.5 0 06:51 07.04.2020
5346 Clear 4 1028 86 10000 1 0 06:23 07.04.2020
5347 Clear 5 1028 87 10000 2.1 250 05:43 07.04.2020
5348 Clear 5 1028 81 10000 1.5 0 05:22 07.04.2020
5349 Clear 5 1027 86 10000 2.6 100 03:32 07.04.2020
5350 Clear 6 1027 81 10000 1 220 02:59 07.04.2020
5351 Clear 5 1027 75 10000 1 0 01:58 07.04.2020
5352 Clear 6 1026 75 10000 1 0 01:32 07.04.2020
5353 Clear 8 1026 65 10000 0.5 0 00:29 07.04.2020
5354 Clear 7 1026 70 10000 1 160 23:57 06.04.2020
5355 Clear 8 1026 70 10000 1 160 23:38 06.04.2020
5356 Clear 8 1026 57 10000 0.5 0 23:20 06.04.2020
5357 Clear 9 1025 62 10000 1.5 0 22:41 06.04.2020
5358 Clear 9 1025 54 10000 1 0 22:22 06.04.2020
5359 Clear 10 1025 47 10000 1 0 21:58 06.04.2020
5360 Clear 10 1025 47 10000 1 0 21:39 06.04.2020
5361 Clouds 11 1024 41 10000 2.6 150 21:19 06.04.2020
5362 Clouds 12 1024 62 10000 1.5 0 20:55 06.04.2020
5363 Clouds 12 1024 62 10000 1.5 0 20:55 06.04.2020
5364 Clouds 13 1024 62 10000 1.5 0 20:37 06.04.2020
5365 Clouds 14 1024 58 10000 1.5 80 20:18 06.04.2020
5366 Clouds 16 1023 44 10000 1.5 250 19:41 06.04.2020
5367 Clouds 18 1023 39 10000 2.6 290 19:23 06.04.2020
5368 Clouds 18 1023 34 10000 3.1 280 18:59 06.04.2020
5369 Clouds 18 1023 34 10000 3.1 280 18:39 06.04.2020
5370 Clouds 19 1023 34 10000 3.6 280 18:21 06.04.2020
5371 Clouds 19 1023 36 10000 3.6 280 17:42 06.04.2020
5372 Clouds 19 1023 36 10000 3.6 290 17:20 06.04.2020
5373 Clouds 19 1023 34 10000 3.6 280 16:50 06.04.2020
5374 Clouds 19 1023 34 10000 2.6 280 16:32 06.04.2020
5375 Clouds 19 1023 34 10000 2.6 280 16:32 06.04.2020
5376 Clouds 19 1023 34 10000 2.6 280 16:00 06.04.2020
5377 Clear 18 1024 38 10000 2.6 280 14:44 06.04.2020
5378 Clear 18 1024 38 10000 2.6 280 14:44 06.04.2020
5379 Clear 18 1024 38 10000 2.6 280 14:44 06.04.2020
5380 Clear 18 1024 38 10000 2.6 280 14:44 06.04.2020
5381 Clear 18 1024 38 10000 2.6 280 14:44 06.04.2020
5382 Clear 17 1024 58 10000 2.6 280 13:43 06.04.2020
5383 Clear 17 1024 58 10000 2.6 280 13:43 06.04.2020
5384 Clear 17 1024 50 10000 2.1 290 13:20 06.04.2020
5385 Clear 17 1024 50 10000 2.1 290 13:20 06.04.2020
5386 Clear 17 1024 50 10000 2.1 290 13:20 06.04.2020
5387 Clear 17 1024 50 10000 2.1 290 13:20 06.04.2020
5388 Clear 15 1024 66 10000 2.6 290 12:26 06.04.2020
5389 Clear 16 1024 66 10000 2.6 290 12:25 06.04.2020
5390 Clear 16 1024 66 10000 2.6 290 12:25 06.04.2020
5391 Clear 16 1024 66 10000 2.6 290 12:25 06.04.2020
5392 Clear 15 1024 62 10000 2.6 300 11:55 06.04.2020
5393 Clear 15 1024 62 10000 2.6 300 11:33 06.04.2020
5394 Clear 15 1024 62 10000 2.6 300 11:33 06.04.2020
5395 Clear 15 1024 62 10000 2.6 300 11:33 06.04.2020
5396 Clear 13 1024 76 10000 2.6 300 10:52 06.04.2020
5397 Clear 13 1024 76 10000 2.6 300 10:52 06.04.2020
5398 Clear 13 1024 76 10000 2.6 300 10:52 06.04.2020
5399 Clear 13 1024 76 10000 2.6 300 10:52 06.04.2020
5400 Clear 13 1024 76 10000 2.6 300 10:52 06.04.2020
5401 Clear 12 1024 76 10000 2.1 340 10:22 06.04.2020
5402 Clear 12 1024 76 10000 2.1 340 10:22 06.04.2020
5403 Clear 11 1024 70 10000 1.5 10 09:51 06.04.2020
5404 Clear 9 1024 70 10000 1.5 10 09:23 06.04.2020
5405 Clear 5 1023 81 10000 1 0 08:55 06.04.2020
5406 Clear 4 1023 87 10000 1 0 08:33 06.04.2020
5407 Clear 3 1023 86 10000 1 0 07:51 06.04.2020
5408 Clear 3 1023 86 10000 1 0 07:51 06.04.2020
5409 Clear 3 1023 86 10000 1 0 07:51 06.04.2020
5410 Clear 3 1023 86 10000 1 0 07:51 06.04.2020
5411 Clear 2 1022 93 10000 1 210 06:52 06.04.2020
5412 Clear 2 1022 93 10000 1 210 06:52 06.04.2020
5413 Clear 2 1022 93 10000 1 210 06:25 06.04.2020
5414 Clear 2 1021 50 10000 1.5 120 04:32 06.04.2020
5415 Clear 3 1020 48 10000 0.5 0 03:18 06.04.2020
5416 Clear 3 1020 93 10000 1 0 02:44 06.04.2020
5417 Clear 4 1020 86 10000 1 0 01:47 06.04.2020
5418 Clear 5 1020 48 10000 1.5 90 00:46 06.04.2020
5419 Clear 5 1020 48 10000 1.5 90 00:46 06.04.2020
5420 Clear 6 1020 70 10000 1 0 00:24 06.04.2020
5421 Clear 6 1019 75 10000 1 0 23:44 05.04.2020
5422 Clear 6 1019 75 10000 1 0 23:26 05.04.2020
5423 Clear 7 1019 75 10000 0.5 0 22:56 05.04.2020
5424 Clear 7 1019 70 10000 1 0 22:38 05.04.2020
5425 Clear 7 1019 70 10000 1 0 22:38 05.04.2020
5426 Clear 7 1019 70 10000 1 0 22:38 05.04.2020
5427 Clear 7 1019 70 10000 1 0 22:38 05.04.2020
5428 Clear 9 1019 61 10000 0.5 0 22:18 05.04.2020
5429 Clear 10 1019 61 10000 1 0 21:46 05.04.2020
5430 Clear 11 1019 61 10000 1 0 21:26 05.04.2020
5431 Clear 10 1019 61 10000 0.5 0 21:03 05.04.2020
5432 Clear 10 1019 61 10000 0.5 0 21:00 05.04.2020
5433 Clear 10 1019 61 10000 0.5 0 21:00 05.04.2020
5434 Clear 11 1019 61 10000 0.5 0 21:00 05.04.2020
5435 Clear 11 1019 61 10000 0.5 0 21:00 05.04.2020
5436 Clear 12 1019 47 10000 2.1 290 20:20 05.04.2020
5437 Clear 12 1019 47 10000 2.1 290 20:20 05.04.2020
5438 Clear 13 1019 47 10000 2.6 280 19:38 05.04.2020
5439 Clear 15 1019 44 10000 2.6 280 19:20 05.04.2020
5440 Clear 16 1019 42 10000 3.1 280 18:44 05.04.2020
5441 Clear 16 1019 42 10000 3.1 280 18:44 05.04.2020
5442 Clear 16 1019 42 10000 3.1 280 18:44 05.04.2020
5443 Clear 16 1019 42 10000 3.1 280 18:44 05.04.2020
5444 Clear 16 1019 42 10000 3.1 280 18:44 05.04.2020
5445 Clear 17 1019 39 10000 3.1 280 17:57 05.04.2020
5446 Clear 17 1019 39 10000 3.1 280 17:39 05.04.2020
5447 Clear 17 1020 45 10000 3.6 280 17:19 05.04.2020
5448 Clear 17 1020 45 10000 3.6 280 17:19 05.04.2020
5449 Clear 17 1020 45 10000 3.6 280 17:19 05.04.2020
5450 Clear 17 1020 41 10000 2.6 270 16:20 05.04.2020
5451 Clear 17 1021 41 10000 2.6 270 15:52 05.04.2020
5452 Clear 17 1021 41 10000 2.6 270 15:33 05.04.2020
5453 Clear 17 1022 44 10000 3.1 270 14:50 05.04.2020
5454 Clear 16 1022 44 10000 3.1 270 14:26 05.04.2020
5455 Clear 15 1022 54 10000 3.6 270 13:43 05.04.2020
5456 Clear 14 1023 66 10000 3.6 280 12:54 05.04.2020
5457 Clear 14 1023 66 10000 3.6 280 12:54 05.04.2020
5458 Clear 14 1023 66 10000 3.6 280 12:54 05.04.2020
5459 Clear 14 1023 66 10000 3.6 280 12:54 05.04.2020
5460 Clear 14 1023 66 10000 3.6 280 12:54 05.04.2020
5461 Clear 12 1023 70 10000 2.6 280 11:43 05.04.2020
5462 Clear 11 1023 70 10000 2.6 280 11:21 05.04.2020
5463 Clear 11 1023 70 10000 2.6 280 11:21 05.04.2020
5464 Clear 10 1023 70 10000 2.6 280 10:59 05.04.2020
5465 Clear 9 1023 70 10000 2.1 280 10:40 05.04.2020
5466 Clear 9 1023 70 10000 2.1 280 10:40 05.04.2020
5467 Clear 9 1023 70 10000 2.1 280 10:40 05.04.2020
5468 Clear 9 1023 70 10000 2.1 280 10:40 05.04.2020
5469 Clear 9 1023 70 10000 2.1 280 10:40 05.04.2020
5470 Clear 9 1023 70 10000 2.1 290 10:18 05.04.2020
5471 Clear 6 1023 75 10000 1.5 290 09:43 05.04.2020
5472 Clear 5 1023 75 10000 1.5 290 09:24 05.04.2020
5473 Clear 5 1023 75 10000 1.5 290 09:24 05.04.2020
5474 Clear 1 1023 49 10000 1 0 07:41 05.04.2020
5475 Clear 1 1022 56 10000 1 210 04:36 05.04.2020
5476 Clear 1 1022 86 10000 1 0 03:32 05.04.2020
5477 Clear 2 1022 55 10000 1 0 02:52 05.04.2020
5478 Clear 3 1022 86 10000 0.5 0 01:48 05.04.2020
5479 Clear 3 1022 86 10000 0.5 0 01:28 05.04.2020
5480 Clear 3 1022 86 10000 0.5 0 01:28 05.04.2020
5481 Clear 4 1022 80 10000 1 0 00:44 05.04.2020
5482 Clear 4 1022 80 10000 0.5 0 00:21 05.04.2020
5483 Clear 5 1022 75 10000 1 280 23:55 04.04.2020
5484 Clear 5 1022 75 10000 1 280 23:37 04.04.2020
5485 Clear 5 1022 75 10000 1.5 240 23:19 04.04.2020
5486 Clear 5 1022 70 10000 2.1 230 22:40 04.04.2020
5487 Clear 6 1022 65 10000 0.5 0 22:21 04.04.2020
5488 Clear 7 1022 65 10000 0.5 0 21:59 04.04.2020
5489 Clear 7 1022 61 10000 1 220 21:40 04.04.2020
5490 Clouds 8 1022 61 10000 0.5 0 21:19 04.04.2020
5491 Clear 8 1022 61 10000 0.5 0 20:59 04.04.2020
5492 Clear 9 1021 57 10000 1.5 220 20:40 04.04.2020
5493 Clear 10 1021 46 10000 1 0 20:21 04.04.2020
5494 Clear 10 1021 50 10000 2.6 290 19:57 04.04.2020
5495 Clear 11 1021 50 10000 2.6 290 19:37 04.04.2020
5496 Clear 12 1021 43 10000 3.1 280 19:19 04.04.2020
5497 Clear 12 1021 41 10000 3.1 280 18:56 04.04.2020
5498 Clear 13 1021 41 10000 3.1 280 18:37 04.04.2020
5499 Clear 14 1021 38 10000 3.6 280 18:19 04.04.2020
5500 Clear 13 1021 38 10000 3.1 270 17:41 04.04.2020
5501 Clear 14 1021 38 10000 3.6 280 17:21 04.04.2020
5502 Clear 14 1021 38 10000 3.6 280 16:59 04.04.2020
5503 Clear 14 1021 38 10000 3.6 270 16:41 04.04.2020
5504 Clear 14 1021 37 10000 4.1 270 16:22 04.04.2020
5505 Clear 14 1021 44 10000 3.6 280 15:55 04.04.2020
5506 Clear 14 1021 44 10000 3.6 280 15:36 04.04.2020
5507 Clear 14 1021 47 10000 4.1 280 15:18 04.04.2020
5508 Clear 14 1022 50 10000 3.6 270 14:42 04.04.2020
5509 Clear 13 1022 50 10000 3.6 280 14:22 04.04.2020
5510 Clear 13 1022 58 10000 3.6 290 13:56 04.04.2020
5511 Clear 12 1022 58 10000 3.6 290 13:37 04.04.2020
5512 Clear 12 1022 53 10000 1.5 0 13:19 04.04.2020
5513 Clear 11 1022 53 10000 1.5 0 12:44 04.04.2020
5514 Clear 11 1023 66 10000 2.6 270 12:24 04.04.2020
5515 Clear 10 1023 66 10000 2.6 270 11:59 04.04.2020
5516 Clear 9 1023 70 10000 2.1 300 11:38 04.04.2020
5517 Clear 9 1023 70 10000 1 0 11:19 04.04.2020
5518 Clear 8 1023 70 10000 1 0 10:56 04.04.2020
5519 Clear 7 1023 75 10000 1.5 290 10:37 04.04.2020
5520 Clear 7 1023 75 10000 1.5 290 10:19 04.04.2020
5521 Clear 6 1022 86 10000 0.5 0 09:54 04.04.2020
5522 Clear 5 1022 86 10000 0.5 0 09:36 04.04.2020
5523 Clear 2 1022 86 10000 0.5 0 09:18 04.04.2020
5524 Clear 2 1022 58 10000 1 100 08:41 04.04.2020
5525 Clear 1 1022 58 10000 1 100 08:20 04.04.2020
5526 Clear 0 1021 58 10000 1 110 07:44 04.04.2020
5527 Clear -1 1021 58 10000 0.5 0 07:26 04.04.2020
5528 Clear 0 1021 58 10000 1 90 06:51 04.04.2020
5529 Clear 0 1021 86 10000 0.5 0 06:19 04.04.2020
5530 Clear 0 1020 65 10000 1 0 05:42 04.04.2020
5531 Clear 0 1021 86 10000 0.5 0 05:23 04.04.2020
5532 Clear 1 1020 65 10000 1 210 04:30 04.04.2020
5533 Clear 1 1020 86 10000 1 220 03:49 04.04.2020
5534 Clouds 2 1020 62 10000 1.5 0 02:51 04.04.2020
5535 Clouds 2 1020 64 10000 1.5 0 02:32 04.04.2020
5536 Clouds 2 1020 69 10000 1.5 240 01:53 04.04.2020
5537 Clouds 2 1020 64 10000 2.1 240 01:25 04.04.2020
5538 Clouds 2 1020 80 10000 2.1 170 00:48 04.04.2020
5539 Clouds 3 1020 75 10000 1.5 310 00:29 04.04.2020
5540 Clouds 4 1020 75 10000 1 0 23:40 03.04.2020
5541 Clouds 4 1020 58 10000 1 0 23:21 03.04.2020
5542 Clouds 4 1020 58 10000 1 0 22:58 03.04.2020
5543 Clouds 4 1019 58 10000 1.5 220 22:39 03.04.2020
5544 Clouds 5 1019 65 10000 2.1 210 22:18 03.04.2020
5545 Clouds 6 1018 61 10000 1.5 0 21:44 03.04.2020
5546 Clouds 6 1018 61 10000 1.5 0 21:25 03.04.2020
5547 Clouds 7 1017 56 10000 2.1 190 20:57 03.04.2020
5548 Clouds 7 1017 56 10000 2.1 190 20:37 03.04.2020
5549 Clouds 7 1017 61 10000 1 0 20:19 03.04.2020
5550 Clouds 8 1017 61 10000 1 0 19:57 03.04.2020
5551 Clouds 9 1017 37 10000 0.5 0 19:39 03.04.2020
5552 Clouds 10 1017 34 10000 1.5 0 19:21 03.04.2020
5553 Clouds 10 1017 34 10000 1.5 0 18:59 03.04.2020
5554 Clouds 11 1016 37 10000 1.5 0 18:41 03.04.2020
5555 Clouds 11 1016 46 10000 1.5 0 18:22 03.04.2020
5556 Clouds 11 1016 42 10000 1.5 0 17:55 03.04.2020
5557 Clouds 11 1016 42 10000 1.5 0 17:36 03.04.2020
5558 Clouds 11 1016 46 10000 2.1 310 17:18 03.04.2020
5559 Clouds 12 1016 42 10000 2.1 300 16:43 03.04.2020
5560 Clouds 11 1016 42 10000 2.6 340 16:21 03.04.2020
5561 Clouds 11 1016 42 10000 2.6 340 15:58 03.04.2020
5562 Clouds 11 1016 43 10000 2.6 340 15:39 03.04.2020
5563 Clouds 11 1016 40 10000 2.6 350 15:20 03.04.2020
5564 Clouds 12 1015 39 10000 6.2 310 14:55 03.04.2020
5565 Clouds 11 1017 46 10000 2.6 330 14:37 03.04.2020
5566 Clouds 11 1017 46 10000 2.6 330 14:19 03.04.2020
5567 Clouds 10 1017 46 10000 2.6 330 13:42 03.04.2020
5568 Clouds 10 1017 45 10000 3.1 320 13:24 03.04.2020
5569 Clouds 9 1017 49 10000 2.6 300 12:45 03.04.2020
5570 Clouds 8 1017 49 10000 3.1 300 12:21 03.04.2020
5571 Clouds 8 1017 52 10000 2.1 310 11:57 03.04.2020
5572 Clouds 7 1017 52 10000 2.1 310 11:39 03.04.2020
5573 Clouds 7 1017 61 10000 2.1 300 11:21 03.04.2020
5574 Clouds 7 1017 61 10000 2.1 300 11:21 03.04.2020
5575 Clouds 8 1017 61 10000 2.1 300 10:59 03.04.2020
5576 Clouds 6 1017 65 10000 2.1 290 10:39 03.04.2020
5577 Clouds 6 1016 51 10000 2.1 290 10:20 03.04.2020
5578 Clouds 6 1016 51 10000 2.1 290 10:20 03.04.2020
5579 Clouds 6 1016 51 10000 2.1 290 09:59 03.04.2020
5580 Clouds 6 1016 70 10000 2.1 320 09:40 03.04.2020
5581 Clouds 4 1016 70 10000 1.5 310 09:21 03.04.2020
5582 Clouds 4 1016 70 10000 1.5 310 09:21 03.04.2020
5583 Clouds 4 1016 70 10000 1.5 310 09:21 03.04.2020
5584 Clouds 3 1016 75 10000 1 270 08:56 03.04.2020
5585 Clouds 3 1016 75 10000 1 270 08:37 03.04.2020
5586 Snow 2 1015 69 10000 1 0 08:19 03.04.2020
5587 Clouds 1 1015 69 10000 0.5 0 07:46 03.04.2020
5588 Clouds 1 1015 69 10000 0.5 0 07:46 03.04.2020
5589 Clouds 1 1015 69 10000 0.5 0 07:28 03.04.2020
5590 Clouds 2 1014 74 10000 1.5 0 06:40 03.04.2020
5591 Clouds 2 1014 69 10000 1 0 06:22 03.04.2020
5592 Clouds 2 1014 69 10000 0.5 0 05:39 03.04.2020
5593 Clouds 1 1013 80 10000 0.5 0 03:42 03.04.2020
5594 Clouds 3 1013 62 10000 1 0 02:55 03.04.2020
5595 Clouds 2 1013 69 10000 1 0 02:18 03.04.2020
5596 Clouds 2 1013 62 10000 1 0 01:20 03.04.2020
5597 Clouds 2 1013 62 10000 1 0 01:20 03.04.2020
5598 Clouds 2 1012 69 10000 1.5 0 00:34 03.04.2020
5599 Clouds 3 1012 56 10000 1 0 23:58 02.04.2020
5600 Clouds 3 1012 48 10000 2.1 250 23:39 02.04.2020
5601 Clouds 3 1012 48 10000 2.1 250 23:39 02.04.2020
5602 Clouds 4 1011 69 10000 1.5 200 23:21 02.04.2020
5603 Clouds 5 1012 65 10000 2.1 280 22:43 02.04.2020
5604 Clouds 5 1012 65 10000 2.1 280 22:25 02.04.2020
5605 Clouds 5 1011 57 10000 1.5 0 21:59 02.04.2020
5606 Clouds 5 1011 57 10000 1 210 21:38 02.04.2020
5607 Clear 7 1011 65 10000 1 220 21:19 02.04.2020
5608 Clear 7 1011 65 10000 1 220 20:55 02.04.2020
5609 Clear 7 1010 57 10000 1.5 190 20:37 02.04.2020
5610 Clear 8 1010 53 10000 1 190 20:19 02.04.2020
5611 Clear 9 1010 56 10000 1.5 140 19:43 02.04.2020
5612 Clear 11 1010 50 10000 1.5 90 19:21 02.04.2020
5613 Clear 11 1010 50 10000 1.5 90 18:58 02.04.2020
5614 Clear 12 1010 50 10000 1.5 90 18:39 02.04.2020
5615 Clear 12 1010 43 10000 1 0 18:20 02.04.2020
5616 Clear 12 1010 43 10000 1.5 10 17:55 02.04.2020
5617 Clear 12 1010 43 10000 1.5 10 17:37 02.04.2020
5618 Clear 12 1010 43 10000 2.1 340 17:18 02.04.2020
5619 Clear 12 1010 40 10000 2.6 300 16:55 02.04.2020
5620 Clear 12 1010 40 10000 2.6 300 16:36 02.04.2020
5621 Clear 12 1011 40 10000 2.6 300 16:18 02.04.2020
5622 Clear 12 1011 37 10000 1.5 0 15:42 02.04.2020
5623 Clear 11 1011 37 10000 1.5 0 15:20 02.04.2020
5624 Clear 12 1011 37 10000 1.5 0 14:58 02.04.2020
5625 Clear 11 1012 43 10000 2.1 290 14:39 02.04.2020
5626 Clear 11 1012 42 10000 2.6 300 14:19 02.04.2020
5627 Clear 11 1012 45 10000 2.6 300 13:55 02.04.2020
5628 Clear 11 1012 45 10000 2.6 300 13:37 02.04.2020
5629 Clear 11 1012 45 10000 2.6 300 13:37 02.04.2020
5630 Clear 10 1013 52 10000 2.6 280 13:19 02.04.2020
5631 Clear 10 1013 65 10000 3.6 280 12:46 02.04.2020
5632 Clear 9 1013 75 10000 2.1 280 12:20 02.04.2020
5633 Clear 9 1013 75 10000 2.1 280 12:20 02.04.2020
5634 Clear 9 1013 75 10000 2.1 280 11:58 02.04.2020
5635 Clear 8 1013 75 10000 2.1 280 11:39 02.04.2020
5636 Clear 8 1013 75 10000 2.1 280 11:39 02.04.2020
5637 Clear 7 1014 80 10000 2.1 310 11:20 02.04.2020
5638 Clear 7 1014 80 10000 2.1 310 10:57 02.04.2020
5639 Clear 6 1014 80 10000 2.1 300 10:39 02.04.2020
5640 Clear 5 1014 80 10000 1.5 270 10:21 02.04.2020
5641 Clear 4 1014 80 10000 1.5 270 09:59 02.04.2020
5642 Clear 3 1014 80 10000 0.5 0 09:41 02.04.2020
5643 Clear 1 1014 86 10000 0.5 130 09:21 02.04.2020
5644 Clear 0 1014 61 10000 2.1 80 08:48 02.04.2020
5645 Clear -1 1014 61 10000 2.1 80 08:28 02.04.2020
5646 Clear -2 1014 86 10000 1 200 07:59 02.04.2020
5647 Clear -2 1014 92 10000 1 200 07:40 02.04.2020
5648 Clear -3 1014 86 10000 0.5 0 07:19 02.04.2020
5649 Clear -2 1014 92 10000 0.5 0 06:25 02.04.2020
5650 Clear -2 1014 68 10000 1 110 05:46 02.04.2020
5651 Clear -2 1014 92 10000 1 0 04:58 02.04.2020
5652 Clear -1 1015 68 10000 1 0 02:21 02.04.2020
5653 Clear -1 1015 68 10000 1 0 01:27 02.04.2020
5654 Clear -1 1015 68 10000 1.5 270 00:41 02.04.2020
5655 Clear 0 1015 68 10000 1 220 00:19 02.04.2020
5656 Clear -1 1015 74 10000 0.5 0 23:39 01.04.2020
5657 Clear 0 1015 74 10000 1 0 23:19 01.04.2020
5658 Clear 1 1015 74 10000 1 0 22:56 01.04.2020
5659 Clear 2 1015 69 10000 1 0 22:38 01.04.2020
5660 Clear 1 1015 69 10000 1.5 120 22:19 01.04.2020
5661 Clear 2 1015 74 10000 1 210 21:41 01.04.2020
5662 Clear 3 1015 69 10000 0.5 0 21:19 01.04.2020
5663 Clear 4 1015 69 10000 0.5 0 20:56 01.04.2020
5664 Clear 4 1015 69 10000 1.5 210 20:38 01.04.2020
5665 Clear 5 1015 56 10000 1 280 20:19 01.04.2020
5666 Clear 6 1015 56 10000 1 280 19:57 01.04.2020
5667 Clear 6 1015 56 10000 1 280 19:57 01.04.2020
5668 Clear 7 1015 56 10000 1.5 290 19:38 01.04.2020
5669 Clear 8 1015 39 10000 2.1 330 19:19 01.04.2020
5670 Clear 9 1015 39 10000 2.6 270 18:42 01.04.2020
5671 Clear 10 1015 36 10000 2.6 280 18:22 01.04.2020
5672 Clear 10 1016 39 10000 2.6 280 17:57 01.04.2020
5673 Clear 9 1016 39 10000 2.6 280 17:37 01.04.2020
5674 Clear 9 1016 31 10000 3.1 280 17:19 01.04.2020
5675 Clear 9 1016 31 10000 3.1 280 16:56 01.04.2020
5676 Clear 9 1016 31 10000 3.6 280 16:38 01.04.2020
5677 Clear 9 1017 31 10000 3.1 280 16:20 01.04.2020
5678 Clear 9 1018 42 10000 2.6 280 15:43 01.04.2020
5679 Clear 9 1018 42 10000 2.6 280 15:24 01.04.2020
5680 Clear 9 1018 42 10000 2.6 280 14:59 01.04.2020
5681 Clear 8 1018 45 10000 3.1 290 14:40 01.04.2020
5682 Clear 8 1018 45 10000 3.1 290 14:40 01.04.2020
5683 Clear 7 1018 45 10000 3.1 290 14:21 01.04.2020
5684 Clear 7 1018 45 10000 3.1 290 13:59 01.04.2020
5685 Clear 7 1019 56 10000 3.6 280 13:39 01.04.2020
5686 Clear 7 1019 60 10000 3.1 280 13:20 01.04.2020
5687 Clear 7 1019 60 10000 3.1 280 12:57 01.04.2020
5688 Clear 6 1020 60 10000 3.1 310 12:37 01.04.2020
5689 Clear 5 1020 64 10000 3.1 320 12:19 01.04.2020
5690 Clear 5 1020 64 10000 3.1 320 11:56 01.04.2020
5691 Clear 4 1020 64 10000 3.1 320 11:37 01.04.2020
5692 Clear 4 1020 64 10000 3.1 320 11:37 01.04.2020
5693 Clear 4 1020 64 10000 3.1 320 11:37 01.04.2020
5694 Clear 3 1020 69 10000 3.6 280 11:18 01.04.2020
5695 Clear 2 1020 69 10000 3.6 280 10:38 01.04.2020
5696 Clear 1 1020 74 10000 3.1 280 10:20 01.04.2020
5697 Clear 1 1020 74 10000 3.1 280 09:58 01.04.2020
5698 Clear 0 1020 74 10000 2.6 270 09:39 01.04.2020
5699 Clear -3 1020 69 10000 2.6 260 09:19 01.04.2020
5700 Clear -3 1020 86 10000 0.5 0 08:44 01.04.2020
5701 Clear -4 1020 86 10000 0.5 0 08:19 01.04.2020
5702 Clear -4 1020 86 10000 0.5 0 07:56 01.04.2020
5703 Clear -5 1020 85 10000 0.5 0 07:38 01.04.2020
5704 Clear -5 1020 85 10000 1.5 100 07:18 01.04.2020
5705 Clear -4 1020 68 10000 0.5 0 06:39 01.04.2020
5706 Clear -4 1021 92 10000 0.5 0 06:20 01.04.2020
5707 Clear -4 1021 92 10000 1 0 04:55 01.04.2020
5708 Clear -3 1021 86 10000 1 0 03:36 01.04.2020
5709 Clouds -3 1021 79 10000 1.5 0 02:59 01.04.2020
5710 Clear -2 1022 86 10000 1 90 02:24 01.04.2020
5711 Clear -2 1022 82 10000 1 0 01:46 01.04.2020
5712 Clear -2 1023 82 10000 1.5 190 01:23 01.04.2020
5713 Clear -2 1023 80 10000 1.5 200 00:47 01.04.2020
5714 Clear -1 1023 74 10000 1.5 210 00:21 01.04.2020
5715 Clouds -1 1023 84 10000 0.5 0 23:49 31.03.2020
5716 Clouds -1 1023 84 10000 0.5 0 23:49 31.03.2020
5717 Clouds -1 1023 84 10000 0.5 0 23:29 31.03.2020
5718 Clouds 0 1024 64 10000 1.5 220 22:59 31.03.2020
5719 Clouds -1 1024 64 10000 1.5 220 22:38 31.03.2020
5720 Clouds -1 1024 64 10000 0.5 0 22:20 31.03.2020
5721 Clouds -1 1024 51 10000 1.5 0 21:57 31.03.2020
5722 Clouds 0 1024 51 10000 1.5 0 21:39 31.03.2020
5723 Clear 1 1024 51 10000 2.6 40 21:20 31.03.2020
5724 Clouds 1 1024 51 10000 2.6 40 20:56 31.03.2020
5725 Clouds 2 1024 48 10000 3.1 30 20:37 31.03.2020
5726 Clouds 2 1024 48 10000 3.1 30 20:18 31.03.2020
5727 Clouds 2 1024 48 10000 3.1 30 20:18 31.03.2020
5728 Clouds 3 1024 45 10000 4.1 20 19:54 31.03.2020
5729 Clouds 3 1023 38 10000 3.1 20 19:36 31.03.2020
5730 Clouds 3 1023 38 10000 3.1 20 19:18 31.03.2020
5731 Clouds 3 1023 44 10000 2.6 50 18:41 31.03.2020
5732 Clear 4 1023 33 10000 4.1 10 18:19 31.03.2020
5733 Clear 4 1023 30 10000 4.1 30 17:56 31.03.2020
5734 Clear 5 1023 30 10000 4.1 30 17:37 31.03.2020
5735 Clear 5 1023 36 10000 4.1 20 17:19 31.03.2020
5736 Clear 4 1023 39 10000 4.6 10 16:41 31.03.2020
5737 Clear 5 1023 28 10000 4.6 10 16:20 31.03.2020
5738 Clear 5 1023 28 10000 4.6 10 15:58 31.03.2020
5739 Clear 4 1023 30 10000 4.6 20 15:40 31.03.2020
5740 Clear 5 1023 30 10000 4.6 10 15:22 31.03.2020
5741 Clear 4 1023 30 10000 4.6 10 14:58 31.03.2020
5742 Clear 5 1023 39 10000 3.6 340 14:40 31.03.2020
5743 Clear 5 1023 52 10000 2.6 300 14:21 31.03.2020
5744 Clear 5 1024 48 10000 3.1 280 13:43 31.03.2020
5745 Clear 4 1024 48 10000 2.6 310 13:20 31.03.2020
5746 Clear 5 1024 44 10000 2.6 20 12:59 31.03.2020
5747 Clear 4 1024 44 10000 2.6 20 12:40 31.03.2020
5748 Clear 3 1024 48 10000 1 0 12:19 31.03.2020
5749 Clear 3 1024 48 10000 1 0 12:19 31.03.2020
5750 Clear 3 1024 59 10000 2.6 280 11:41 31.03.2020
5751 Clear 2 1024 64 10000 1.5 0 11:20 31.03.2020
5752 Clear 1 1025 64 10000 1 0 10:59 31.03.2020
5753 Clear 1 1025 64 10000 1 0 10:41 31.03.2020
5754 Clear 0 1025 69 10000 1 0 10:22 31.03.2020
5755 Clear 0 1025 69 10000 1 0 09:59 31.03.2020
5756 Clear -1 1025 51 10000 1.5 0 09:41 31.03.2020
5757 Clear -2 1024 80 10000 1.5 100 09:22 31.03.2020
5758 Clear -3 1024 80 10000 1.5 100 08:57 31.03.2020
5759 Clear -4 1024 79 10000 1.5 100 08:38 31.03.2020
5760 Clear -4 1023 79 10000 2.1 140 08:19 31.03.2020
5761 Clear -4 1023 79 10000 2.1 140 08:19 31.03.2020
5762 Clear -4 1023 79 10000 1.5 0 07:56 31.03.2020
5763 Clear -5 1023 79 10000 1.5 0 07:38 31.03.2020
5764 Clear -5 1023 92 10000 2.1 110 07:19 31.03.2020
5765 Clear -6 1023 85 10000 1.5 0 06:46 31.03.2020
5766 Clear -5 1023 86 10000 1.5 0 06:20 31.03.2020
5767 Clear -5 1023 79 10000 1 0 05:39 31.03.2020
5768 Clear -5 1023 92 10000 1.5 220 03:34 31.03.2020
5769 Clouds -4 1023 79 10000 0.5 0 01:59 31.03.2020
5770 Clouds -4 1023 79 10000 1.5 220 01:40 31.03.2020
5771 Clouds -3 1023 79 10000 0.5 0 00:47 31.03.2020
5772 Clouds -3 1023 74 10000 1 0 00:25 31.03.2020
5773 Clouds -2 1023 86 10000 1 0 23:42 30.03.2020
5774 Clouds -2 1023 68 10000 2.1 160 23:20 30.03.2020
5775 Clouds -2 1023 68 10000 2.1 160 22:59 30.03.2020
5776 Clouds -2 1023 68 10000 1 0 22:41 30.03.2020
5777 Clouds -2 1023 74 10000 1.5 0 22:22 30.03.2020
5778 Clouds -1 1023 74 10000 1.5 0 21:58 30.03.2020
5779 Clouds -1 1023 74 10000 1.5 0 21:39 30.03.2020
5780 Snow -1 1023 76 10000 0.5 0 21:21 30.03.2020
5781 Snow -1 1023 76 10000 0.5 0 20:59 30.03.2020
5782 Snow 0 1023 59 10000 3.1 80 20:39 30.03.2020
5783 Snow 0 1023 55 10000 4.1 70 20:21 30.03.2020
5784 Snow 0 1023 55 10000 4.1 70 19:58 30.03.2020
5785 Clouds 1 1023 55 10000 4.1 70 19:39 30.03.2020
5786 Clouds 1 1022 55 10000 5.7 70 19:21 30.03.2020
5787 Clouds 1 1022 59 10000 5.1 50 18:56 30.03.2020
5788 Clouds 1 1022 59 10000 5.1 50 18:36 30.03.2020
5789 Clouds 1 1022 64 10000 5.1 30 18:18 30.03.2020
5790 Clouds 2 1022 60 10000 6.2 30 17:55 30.03.2020
5791 Clouds 2 1022 60 10000 6.2 30 17:36 30.03.2020
5792 Clouds 1 1022 60 10000 5.1 30 17:18 30.03.2020
5793 Clouds 2 1022 64 10000 4.1 10 16:41 30.03.2020
5794 Clouds 1 1022 64 10000 4.1 10 16:21 30.03.2020
5795 Clouds 1 1022 64 10000 4.1 10 16:21 30.03.2020
5796 Clouds 2 1022 64 10000 4.1 40 15:56 30.03.2020
5797 Snow 1 1022 64 10000 4.1 40 15:38 30.03.2020
5798 Snow 1 1022 64 10000 4.1 40 15:20 30.03.2020
5799 Snow 1 1022 64 10000 4.1 40 14:58 30.03.2020
5800 Clouds 1 1022 64 10000 4.1 40 14:37 30.03.2020
5801 Clouds 1 1022 69 10000 5.7 40 14:19 30.03.2020
5802 Clouds 1 1022 69 10000 5.1 30 13:57 30.03.2020
5803 Clouds 0 1022 69 10000 5.1 30 13:38 30.03.2020
5804 Clouds 1 1022 69 10000 6.2 40 13:19 30.03.2020
5805 Clouds 0 1022 74 10000 6.7 30 12:45 30.03.2020
5806 Snow 0 1022 74 10000 5.7 30 12:21 30.03.2020
5807 Snow 0 1022 74 10000 5.7 30 12:21 30.03.2020
5808 Snow 0 1022 69 10000 5.7 30 11:58 30.03.2020
5809 Snow 0 1022 69 10000 5.7 30 11:40 30.03.2020
5810 Clouds 0 1022 74 10000 6.7 40 11:21 30.03.2020
5811 Clouds -1 1022 74 10000 6.2 30 10:55 30.03.2020
5812 Clouds -1 1022 74 10000 6.2 30 10:36 30.03.2020
5813 Clouds -1 1022 74 10000 6.2 30 10:18 30.03.2020
5814 Clouds -1 1022 74 10000 6.2 30 09:40 30.03.2020
5815 Clouds -1 1022 74 10000 5.7 40 09:19 30.03.2020
5816 Clouds -1 1021 74 10000 5.1 30 08:48 30.03.2020
5817 Clouds -1 1021 74 10000 5.1 30 08:28 30.03.2020
5818 Clouds -1 1021 74 10000 5.7 30 07:58 30.03.2020
5819 Clouds -1 1021 74 10000 5.7 30 07:39 30.03.2020
5820 Clouds -1 1021 80 10000 5.1 30 07:20 30.03.2020
5821 Clouds -1 1021 80 10000 5.1 30 06:39 30.03.2020
5822 Clouds 0 1021 80 10000 6.2 30 06:19 30.03.2020
5823 Clouds 0 1021 80 10000 5.7 30 05:39 30.03.2020
5824 Clouds 0 1021 69 10000 5.7 20 04:28 30.03.2020
5825 Clouds 1 1021 86 10000 4.6 30 03:52 30.03.2020
5826 Drizzle 1 1021 86 10000 4.1 20 02:44 30.03.2020
5827 Clouds 1 1021 86 10000 3.6 20 01:54 30.03.2020
5828 Drizzle 1 1021 86 10000 3.6 10 00:56 30.03.2020
5829 Drizzle 1 1021 93 10000 3.6 20 00:25 30.03.2020
5830 Drizzle 1 1021 93 10000 3.6 20 00:25 30.03.2020
5831 Rain 1 1021 93 10000 3.1 270 23:55 29.03.2020
5832 Rain 1 1021 93 10000 3.1 270 23:36 29.03.2020
5833 Rain 1 1021 93 10000 2.6 250 23:18 29.03.2020
5834 Rain 1 1021 93 4600 4.1 290 22:39 29.03.2020
5835 Rain 1 1021 93 4600 4.1 290 22:39 29.03.2020
5836 Clouds 1 1021 93 7000 3.6 270 22:20 29.03.2020
5837 Rain 2 1020 93 7000 2.6 290 21:59 29.03.2020
5838 Rain 2 1020 93 7000 2.6 290 21:37 29.03.2020
5839 Rain 1 1020 93 9000 2.6 290 21:19 29.03.2020
5840 Rain 2 1020 93 10000 3.6 300 20:55 29.03.2020
5841 Rain 2 1020 93 10000 3.6 300 20:37 29.03.2020
5842 Rain 2 1019 93 10000 4.1 290 20:18 29.03.2020
5843 Rain 1 1019 93 10000 4.6 290 19:55 29.03.2020
5844 Rain 2 1019 93 10000 4.6 290 19:37 29.03.2020
5845 Rain 2 1019 93 10000 3.6 310 19:18 29.03.2020
5846 Rain 2 1019 86 10000 3.1 310 18:55 29.03.2020
5847 Rain 2 1019 86 10000 3.1 310 18:36 29.03.2020
5848 Rain 2 1019 93 10000 3.6 310 18:18 29.03.2020
5849 Rain 3 1018 93 9000 3.1 340 17:42 29.03.2020
5850 Rain 3 1018 93 8000 3.1 340 17:23 29.03.2020
5851 Rain 3 1018 86 6000 3.1 340 16:59 29.03.2020
5852 Rain 3 1018 86 6000 3.1 340 16:40 29.03.2020
5853 Rain 4 1018 86 5000 3.1 320 16:21 29.03.2020
5854 Rain 4 1018 86 8000 4.1 330 15:58 29.03.2020
5855 Rain 4 1018 86 8000 4.1 330 15:40 29.03.2020
5856 Rain 4 1018 86 8000 5.1 330 15:20 29.03.2020
5857 Rain 4 1018 86 8000 5.1 330 14:56 29.03.2020
5858 Drizzle 4 1017 81 10000 5.1 320 14:37 29.03.2020
5859 Rain 5 1017 81 10000 5.7 330 14:19 29.03.2020
5860 Clouds 5 1017 70 10000 5.1 330 13:55 29.03.2020
5861 Clouds 5 1017 70 10000 5.1 330 13:37 29.03.2020
5862 Clouds 5 1017 65 10000 5.7 310 13:18 29.03.2020
5863 Clouds 5 1017 70 10000 4.1 270 12:54 29.03.2020
5864 Clouds 5 1017 70 10000 4.1 270 12:54 29.03.2020
5865 Clouds 6 1017 70 10000 4.1 270 12:36 29.03.2020
5866 Clouds 6 1017 65 10000 3.6 310 12:18 29.03.2020
5867 Clouds 6 1017 65 10000 4.1 300 11:38 29.03.2020
5868 Clouds 5 1017 70 10000 5.1 310 11:20 29.03.2020
5869 Rain 5 1017 70 10000 4.6 280 10:40 29.03.2020
5870 Clouds 5 1017 75 10000 4.1 290 10:21 29.03.2020
5871 Clouds 5 1017 75 10000 4.1 290 09:59 29.03.2020
5872 Clouds 5 1017 81 10000 2.6 280 09:38 29.03.2020
5873 Clouds 4 1017 81 10000 4.1 270 09:19 29.03.2020
5874 Clouds 4 1016 75 10000 3.1 280 08:45 29.03.2020
5875 Clouds 4 1016 75 10000 3.1 260 08:27 29.03.2020
5876 Clouds 3 1016 80 10000 3.6 270 07:48 29.03.2020
5877 Clouds 3 1016 100 10000 1 0 07:24 29.03.2020
5878 Clouds 3 1016 93 7000 0.5 0 06:55 29.03.2020
5879 Clouds 2 1016 93 9000 0.5 0 04:57 29.03.2020
5880 Clouds 2 1016 59 10000 1.5 260 03:41 29.03.2020
5881 Clouds 3 1016 59 10000 1.5 0 03:22 29.03.2020
5882 Clouds 3 1017 93 9000 1 0 01:44 29.03.2020
5883 Clouds 4 1017 93 9000 1 0 01:23 29.03.2020
5884 Clouds 3 1016 86 10000 1 0 00:48 29.03.2020
5885 Clouds 4 1016 86 8000 2.6 100 00:28 29.03.2020
5886 Clouds 4 1017 86 10000 0.5 0 23:41 28.03.2020
5887 Clouds 4 1017 86 10000 2.1 130 23:23 28.03.2020
5888 Clouds 4 1017 86 10000 2.1 130 23:23 28.03.2020
5889 Clouds 5 1016 86 9000 1 0 22:54 28.03.2020
5890 Clouds 5 1016 86 9000 1 0 22:36 28.03.2020
5891 Clouds 5 1017 87 10000 1 0 22:18 28.03.2020
5892 Clouds 5 1016 87 10000 1 0 21:40 28.03.2020
5893 Clouds 5 1016 87 10000 1 0 21:40 28.03.2020
5894 Clouds 6 1016 81 10000 1 180 21:21 28.03.2020
5895 Clouds 6 1016 81 10000 1 180 20:58 28.03.2020
5896 Clouds 7 1016 81 10000 1 0 20:38 28.03.2020
5897 Rain 7 1016 87 10000 1 0 20:20 28.03.2020
5898 Rain 7 1015 75 10000 0.5 130 19:56 28.03.2020
5899 Rain 8 1015 75 10000 0.5 130 19:36 28.03.2020
5900 Rain 9 1015 66 10000 0.5 170 19:18 28.03.2020
5901 Rain 9 1015 66 10000 0.5 0 18:42 28.03.2020
5902 Rain 11 1015 71 10000 1.5 350 18:22 28.03.2020
5903 Rain 12 1015 47 10000 2.1 280 17:56 28.03.2020
5904 Rain 14 1015 47 10000 2.1 280 17:36 28.03.2020
5905 Rain 14 1015 47 10000 2.6 280 17:18 28.03.2020
5906 Rain 13 1015 41 10000 2.6 260 16:42 28.03.2020
5907 Rain 14 1015 44 10000 2.1 260 16:20 28.03.2020
5908 Rain 14 1015 50 10000 2.6 270 15:55 28.03.2020
5909 Rain 13 1015 50 10000 2.6 270 15:37 28.03.2020
5910 Rain 13 1015 56 10000 2.1 290 15:18 28.03.2020
5911 Rain 13 1016 54 10000 2.6 280 14:42 28.03.2020
5912 Rain 13 1016 58 10000 2.1 280 14:22 28.03.2020
5913 Clouds 13 1016 61 10000 3.1 300 13:46 28.03.2020
5914 Rain 12 1016 61 10000 3.1 300 13:26 28.03.2020
5915 Rain 12 1017 66 10000 2.1 290 12:57 28.03.2020
5916 Rain 12 1017 66 10000 2.1 290 12:37 28.03.2020
5917 Rain 11 1017 61 10000 2.1 0 12:18 28.03.2020
5918 Rain 10 1017 66 10000 2.1 10 11:42 28.03.2020
5919 Clouds 10 1017 66 10000 2.1 10 11:21 28.03.2020
5920 Clouds 9 1017 70 10000 1 0 10:41 28.03.2020
5921 Clouds 9 1017 75 10000 1 0 10:22 28.03.2020
5922 Clouds 9 1017 75 10000 1 0 09:59 28.03.2020
5923 Clouds 8 1017 81 10000 1 0 09:39 28.03.2020
5924 Clouds 7 1017 81 10000 1 0 09:20 28.03.2020
5925 Clouds 6 1017 86 10000 2.1 90 08:42 28.03.2020
5926 Clouds 3 1017 86 8000 0.5 0 08:23 28.03.2020
5927 Clouds 2 1017 61 8000 0.5 0 07:49 28.03.2020
5928 Clouds 1 1017 61 6000 1 220 07:31 28.03.2020
5929 Clouds 1 1016 61 5000 0.5 0 06:41 28.03.2020
5930 Clouds 1 1016 61 6000 2.1 110 06:18 28.03.2020
5931 Clouds 1 1016 61 5000 1 0 05:23 28.03.2020
5932 Clouds 1 1016 60 5000 0.5 170 04:43 28.03.2020
5933 Clouds 2 1016 60 5000 1 60 04:20 28.03.2020
5934 Clouds 2 1015 60 9000 0.5 0 02:33 28.03.2020
5935 Clouds 3 1015 60 9000 0.5 220 01:45 28.03.2020
5936 Clouds 3 1015 60 9000 1 0 01:20 28.03.2020
5937 Clouds 3 1015 93 10000 1 160 00:47 28.03.2020
5938 Clouds 3 1015 86 10000 1 200 00:20 28.03.2020
5939 Clouds 3 1015 60 10000 2.1 210 23:43 27.03.2020
5940 Clouds 4 1015 86 10000 1.5 210 23:23 27.03.2020
5941 Clouds 4 1015 86 10000 1 230 22:56 27.03.2020
5942 Clouds 4 1015 86 10000 1 230 22:38 27.03.2020
5943 Clouds 5 1015 93 10000 1 220 22:20 27.03.2020
5944 Clouds 4 1015 93 10000 1 220 21:55 27.03.2020
5945 Clouds 5 1015 86 10000 0.5 0 21:37 27.03.2020
5946 Clouds 5 1015 86 10000 0.5 0 21:19 27.03.2020
5947 Clouds 5 1015 75 10000 1.5 110 20:42 27.03.2020
5948 Clouds 6 1015 80 10000 0.5 0 20:21 27.03.2020
5949 Clouds 6 1015 80 10000 0.5 0 19:59 27.03.2020
5950 Clouds 7 1014 75 10000 0.5 0 19:40 27.03.2020
5951 Clouds 8 1014 70 10000 1.5 100 19:21 27.03.2020
5952 Clouds 8 1014 70 10000 1.5 100 18:56 27.03.2020
5953 Clouds 7 1014 70 10000 1.5 70 18:38 27.03.2020
5954 Clouds 10 1014 61 10000 1.5 70 18:19 27.03.2020
5955 Clouds 9 1013 65 10000 2.6 80 17:40 27.03.2020
5956 Clouds 12 1013 53 10000 2.6 280 17:20 27.03.2020
5957 Clouds 12 1013 53 10000 2.6 270 16:45 27.03.2020
5958 Clouds 12 1013 43 10000 3.1 260 16:27 27.03.2020
5959 Clouds 12 1013 43 10000 3.1 260 15:57 27.03.2020
5960 Clouds 12 1013 43 10000 4.1 280 15:39 27.03.2020
5961 Clouds 11 1012 43 0 1.34 306 15:21 27.03.2020
5962 Clouds 11 1012 43 0 1.34 306 14:45 27.03.2020
5963 Clouds 11 1012 41 0 0.89 312 14:24 27.03.2020
5964 Clouds 11 1012 41 0 0.89 312 13:56 27.03.2020
5965 Clouds 11 1012 40 0 0.89 337 13:37 27.03.2020
5966 Clouds 11 1012 40 0 0.89 337 13:18 27.03.2020
5967 Clouds 11 1012 40 0 0.89 337 12:45 27.03.2020
5968 Clouds 10 1013 40 0 1.34 24 12:20 27.03.2020
5969 Clouds 10 1013 40 0 1.34 24 11:59 27.03.2020
5970 Clouds 10 1013 40 0 1.34 24 11:59 27.03.2020
5971 Clouds 10 1013 40 0 1.34 24 11:59 27.03.2020
5972 Clouds 10 1013 40 0 1.34 24 11:40 27.03.2020
5973 Clouds 8 1013 44 0 0.43 303 11:22 27.03.2020
5974 Clouds 8 1013 44 0 0.43 303 10:54 27.03.2020
5975 Clouds 6 1012 55 0 0.45 320 10:36 27.03.2020
5976 Clouds 5 1012 55 0 0.45 320 10:18 27.03.2020
5977 Clouds 5 1012 55 0 0.45 320 09:54 27.03.2020
5978 Clouds 1 1012 70 0 0.43 303 09:36 27.03.2020
5979 Clouds 1 1012 70 0 0.43 303 09:18 27.03.2020
5980 Clouds 1 1012 70 0 0.43 303 08:54 27.03.2020
5981 Clouds -2 1012 78 0 0.43 303 08:36 27.03.2020
5982 Clouds -2 1012 78 0 1.44 184 08:18 27.03.2020
5983 Clear -2 1012 78 0 1.51 181 07:41 27.03.2020
5984 Clear -3 1012 83 0 0.45 167 07:21 27.03.2020
5985 Clear -4 1012 83 0 0.45 167 06:41 27.03.2020
5986 Clear -4 1012 81 0 0.45 224 05:57 27.03.2020
5987 Clear -3 1012 82 0 0.45 198 03:34 27.03.2020
5988 Clouds -3 1012 79 0 0.45 174 01:56 27.03.2020
5989 Clouds -3 1012 78 0 0.89 161 01:19 27.03.2020
5990 Clouds -3 1012 78 0 0.89 161 00:43 27.03.2020
5991 Clouds -2 1012 76 0 0.45 131 00:19 27.03.2020
5992 Clouds -1 1012 76 0 1.78 172 23:40 26.03.2020
5993 Clouds -1 1012 76 0 1.94 167 23:18 26.03.2020
5994 Clouds -1 1012 76 0 1.94 167 22:57 26.03.2020
5995 Clouds -1 1013 72 0 1.94 167 22:36 26.03.2020
5996 Clouds -1 1013 72 0 1.94 167 22:18 26.03.2020
5997 Clouds -1 1013 72 0 1.94 167 21:40 26.03.2020
5998 Clouds -1 1013 65 0 0.45 171 21:21 26.03.2020
5999 Clouds 0 1013 65 0 0.45 171 20:59 26.03.2020
6000 Clouds 0 1013 65 0 1.94 167 20:39 26.03.2020
6001 Clouds 0 1013 65 0 1.94 167 20:21 26.03.2020
6002 Clouds 0 1013 65 0 1.06 123 19:58 26.03.2020
6003 Clouds 1 1013 56 0 1.06 123 19:39 26.03.2020
6004 Clouds 2 1013 56 0 1.06 123 19:21 26.03.2020
6005 Clouds 2 1013 56 0 1.06 123 18:58 26.03.2020
6006 Clouds 2 1013 56 0 1.06 123 18:40 26.03.2020
6007 Clouds 3 1013 51 0 1.06 123 18:21 26.03.2020
6008 Clouds 3 1013 51 0 1.06 123 17:44 26.03.2020
6009 Clouds 3 1013 51 0 1.06 123 17:44 26.03.2020
6010 Clouds 3 1013 51 0 0.89 314 17:20 26.03.2020
6011 Clouds 3 1013 51 0 0.89 314 16:57 26.03.2020
6012 Clouds 3 1013 52 0 0.89 16 16:38 26.03.2020
6013 Clouds 3 1013 52 0 0.89 16 16:18 26.03.2020
6014 Clouds 3 1013 52 0 0.89 16 15:54 26.03.2020
6015 Clouds 2 1014 52 0 1.83 20 15:36 26.03.2020
6016 Clouds 2 1014 52 0 1.83 20 15:18 26.03.2020
6017 Clouds 2 1014 52 0 1.83 20 14:42 26.03.2020
6018 Clouds 2 1016 58 0 0.89 287 14:24 26.03.2020
6019 Clouds 2 1017 58 0 3.13 322 13:54 26.03.2020
6020 Clouds 2 1017 58 0 1.34 303 13:36 26.03.2020
6021 Clouds 8 1014 36 0 1.69 12 13:18 26.03.2020
6022 Clouds 7 1014 36 0 1.97 12 12:38 26.03.2020
6023 Clouds 7 1014 36 0 1.97 12 12:38 26.03.2020
6024 Clouds 7 1014 36 0 1.97 12 12:20 26.03.2020
6025 Clouds 7 1014 36 0 1.97 12 11:46 26.03.2020
6026 Clear 1 1013 64 0 0.89 19 11:22 26.03.2020
6027 Clear 1 1013 64 0 0.89 19 10:57 26.03.2020
6028 Clear 0 1013 62 0 0.89 44 10:38 26.03.2020
6029 Clear 0 1013 62 0 0.89 44 10:19 26.03.2020
6030 Clear -1 1013 62 0 0.89 44 09:44 26.03.2020
6031 Clear -2 1013 70 0 0.43 28 09:21 26.03.2020
6032 Clear -2 1013 70 0 0.43 28 08:56 26.03.2020
6033 Clear -4 1013 78 0 0.45 61 08:37 26.03.2020
6034 Clear -5 1013 78 0 0.45 61 08:19 26.03.2020
6035 Clear -5 1013 78 0 0.45 61 07:44 26.03.2020
6036 Clear -6 1013 82 0 0.45 145 07:22 26.03.2020
6037 Clear -6 1013 82 0 0.45 145 06:56 26.03.2020
6038 Clear -6 1012 85 0 0.45 242 05:59 26.03.2020
6039 Clear -5 1012 81 0 2.53 157 04:49 26.03.2020
6040 Clear -5 1012 79 0 0.45 244 03:44 26.03.2020
6041 Clear -5 1012 78 0 2.53 157 02:55 26.03.2020
6042 Clouds -4 1020 77 0 2.44 159 01:50 26.03.2020
6043 Clouds -3 1013 72 0 0.45 158 00:55 26.03.2020
6044 Clouds -4 1019 76 0 2.38 160 00:22 26.03.2020
6045 Clouds -4 1019 76 0 2.38 160 23:41 25.03.2020
6046 Clouds -4 1020 77 0 1.83 142 23:21 25.03.2020
6047 Clouds -4 1020 77 0 1.83 142 22:41 25.03.2020
6048 Clouds -4 1020 77 0 1.83 142 22:21 25.03.2020
6049 Clouds -4 1020 77 0 1.83 142 21:56 25.03.2020
6050 Clouds -4 1020 77 0 1.83 142 21:38 25.03.2020
6051 Clouds -4 1020 77 0 1.83 142 21:38 25.03.2020
6052 Clouds -4 1020 77 0 1.83 142 21:19 25.03.2020
6053 Clouds -4 1020 77 0 1.83 142 20:55 25.03.2020
6054 Clouds -4 1020 77 0 1.83 142 20:37 25.03.2020
6055 Snow -2 1018 70 0 2.02 66 20:18 25.03.2020
6056 Snow 2 1017 56 0 3.13 38 19:43 25.03.2020
6057 Snow 2 1014 51 0 2.24 344 19:23 25.03.2020
6058 Snow 2 1014 51 0 2.24 344 18:57 25.03.2020
6059 Snow 2 1014 51 0 2.24 344 18:57 25.03.2020
6060 Snow 2 1014 51 0 2.24 344 18:39 25.03.2020
6061 Snow 3 1014 47 0 4.02 302 18:21 25.03.2020
6062 Snow 3 1014 47 0 4.02 302 17:55 25.03.2020
6063 Snow 4 1014 41 0 4.02 301 17:37 25.03.2020
6064 Snow 4 1014 41 0 4.02 301 17:18 25.03.2020
6065 Snow 4 1014 41 0 4.02 301 16:43 25.03.2020
6066 Snow 5 1014 42 0 2.68 314 16:23 25.03.2020
6067 Snow 5 1014 42 0 2.68 314 15:57 25.03.2020
6068 Snow 4 1014 43 0 3.58 328 15:38 25.03.2020
6069 Snow 4 1014 43 0 3.58 328 15:19 25.03.2020
6070 Snow 4 1014 43 0 3.58 328 14:42 25.03.2020
6071 Snow 4 1015 40 0 0.45 342 14:21 25.03.2020
6072 Clear 5 1015 40 0 0.45 342 13:46 25.03.2020
6073 Clear 4 1016 42 0 3.58 349 13:26 25.03.2020
6074 Clear 4 1016 42 0 3.58 349 12:57 25.03.2020
6075 Clear 4 1016 47 0 0.89 316 12:37 25.03.2020
6076 Clear 4 1016 47 0 0.89 316 12:19 25.03.2020
6077 Clear 3 1016 47 0 0.89 316 11:43 25.03.2020
6078 Clear 3 1017 52 0 2.89 27 11:22 25.03.2020
6079 Clear 2 1017 52 0 1.35 33 10:59 25.03.2020
6080 Clear 2 1017 52 0 1.35 33 10:41 25.03.2020
6081 Clear 0 1018 62 0 1.35 33 10:19 25.03.2020
6082 Clear 0 1018 62 0 1.35 33 09:59 25.03.2020
6083 Clear 0 1018 62 0 1.35 33 09:40 25.03.2020
6084 Clear -2 1018 70 0 1.34 56 09:22 25.03.2020
6085 Clear -2 1018 70 0 1.34 56 08:54 25.03.2020
6086 Clear -4 1019 79 0 0.45 167 08:36 25.03.2020
6087 Clear -5 1019 79 0 0.45 167 08:18 25.03.2020
6088 Clear -5 1019 82 0 0.45 339 07:39 25.03.2020
6089 Clear -6 1019 82 0 0.45 339 07:19 25.03.2020
6090 Clear -6 1019 82 0 0.45 339 06:46 25.03.2020
6091 Clear -6 1019 83 0 0.45 243 06:25 25.03.2020
6092 Clear -6 1019 83 0 0.45 243 05:50 25.03.2020
6093 Clear -6 1020 80 0 0.45 173 04:59 25.03.2020
6094 Clear -6 1020 80 0 0.45 142 04:36 25.03.2020
6095 Clear -4 1024 82 0 1.88 143 03:34 25.03.2020
6096 Clear -4 1021 77 0 0.45 224 01:56 25.03.2020
6097 Clear -5 1027 77 0 2.2 139 01:20 25.03.2020
6098 Clear -4 1027 76 0 2.24 140 00:43 25.03.2020
6099 Clear -4 1027 76 0 2.24 140 00:19 25.03.2020
6100 Clear -4 1027 76 0 2.24 140 23:42 24.03.2020
6101 Clear -4 1027 76 0 2.24 140 23:22 24.03.2020
6102 Clear -4 1028 77 0 2.08 124 22:55 24.03.2020
6103 Clear -4 1028 77 0 2.08 124 22:37 24.03.2020
6104 Clear -4 1028 77 0 2.08 124 22:37 24.03.2020
6105 Clear -4 1028 77 0 2.08 124 22:37 24.03.2020
6106 Clear -4 1028 77 0 2.08 124 22:19 24.03.2020
6107 Clear -4 1028 77 0 2.08 124 21:54 24.03.2020
6108 Clear -4 1028 77 0 2.08 124 21:36 24.03.2020
6109 Clear -4 1028 77 0 2.08 124 21:36 24.03.2020
6110 Clear -4 1028 77 0 2.08 124 21:18 24.03.2020
6111 Clear -4 1028 77 0 2.08 124 20:41 24.03.2020
6112 Clear -4 1028 77 0 2.04 123 20:23 24.03.2020
6113 Clear -3 1026 70 0 2.27 78 19:54 24.03.2020
6114 Clear 1 1025 56 0 3.13 22 19:36 24.03.2020
6115 Clear 1 1026 56 0 4.02 28 19:18 24.03.2020
6116 Clear -3 1026 70 0 2.27 78 18:54 24.03.2020
6117 Clear 3 1021 44 0 4.02 293 18:36 24.03.2020
6118 Clear 3 1021 44 0 4.02 293 18:36 24.03.2020
6119 Clear 3 1021 44 0 4.02 293 18:18 24.03.2020
6120 Clear 3 1021 44 0 4.02 293 17:41 24.03.2020
6121 Clear 4 1021 40 0 4.02 309 17:22 24.03.2020
6122 Clear 5 1024 42 10000 6.2 20 16:57 24.03.2020
6123 Clear 5 1024 42 10000 6.2 20 16:39 24.03.2020
6124 Clouds 5 1025 43 10000 9.3 90 16:20 24.03.2020
6125 Clear 5 1025 39 10000 5.7 40 15:44 24.03.2020
6126 Clear 6 1025 39 10000 5.7 40 15:25 24.03.2020
6127 Clear 5 1025 36 10000 5.7 50 14:57 24.03.2020
6128 Clear 5 1025 36 10000 5.7 50 14:39 24.03.2020
6129 Clear 5 1022 40 0 4.47 307 14:18 24.03.2020
6130 Clear 5 1022 40 0 4.47 307 13:42 24.03.2020
6131 Clear 4 1022 38 0 3.13 309 13:22 24.03.2020
6132 Clear 4 1022 38 0 3.13 309 12:47 24.03.2020
6133 Clear 3 1023 41 0 1.34 327 12:28 24.03.2020
6134 Clear 3 1023 41 0 1.34 327 11:58 24.03.2020
6135 Clear 2 1024 45 0 0.89 10 11:39 24.03.2020
6136 Clear 2 1027 40 10000 2.1 0 11:19 24.03.2020
6137 Clear 2 1027 50 10000 1.5 0 10:42 24.03.2020
6138 Clear 1 1027 50 10000 1.5 0 10:19 24.03.2020
6139 Clear 1 1027 50 10000 1.5 0 09:55 24.03.2020
6140 Clear 0 1027 55 10000 1.5 0 09:37 24.03.2020
6141 Clear 0 1027 50 10000 1 0 09:19 24.03.2020
6142 Clear -1 1027 28 10000 1 0 08:38 24.03.2020
6143 Clear -2 1027 63 10000 1.5 90 08:20 24.03.2020
6144 Clear -3 1027 63 10000 2.6 90 07:47 24.03.2020
6145 Clear -4 1027 68 10000 4.6 60 07:23 24.03.2020
6146 Clear -5 1027 79 10000 1 0 06:42 24.03.2020
6147 Clear -5 1027 73 10000 1 180 06:23 24.03.2020
6148 Clear -4 1027 85 10000 1.5 0 04:57 24.03.2020
6149 Clear -4 1027 73 10000 1 0 03:46 24.03.2020
6150 Clear -3 1027 73 10000 1.5 220 02:45 24.03.2020
6151 Clear -3 1028 68 10000 1 0 01:38 24.03.2020
6152 Clear -2 1028 63 10000 1 0 00:42 24.03.2020
6153 Clear -2 1028 62 10000 2.1 70 00:22 24.03.2020
6154 Clear -2 1028 55 10000 1.5 0 23:39 23.03.2020
6155 Clear -1 1028 50 10000 2.6 80 23:21 23.03.2020
6156 Clear -1 1028 47 10000 3.6 60 22:45 23.03.2020
6157 Clear -1 1029 50 10000 3.6 70 22:24 23.03.2020
6158 Clear -1 1028 47 10000 4.6 40 21:58 23.03.2020
6159 Clear -1 1028 47 10000 5.1 40 21:40 23.03.2020
6160 Clear 0 1028 47 10000 5.7 50 21:20 23.03.2020
6161 Clear 0 1029 46 10000 4.6 60 20:56 23.03.2020
6162 Clear 0 1028 44 10000 6.7 50 20:38 23.03.2020
6163 Clear 0 1028 44 10000 6.2 50 20:19 23.03.2020
6164 Clear 1 1027 41 10000 6.2 40 19:44 23.03.2020
6165 Clear 1 1027 38 10000 6.7 40 19:24 23.03.2020
6166 Clear 1 1027 38 10000 5.7 40 18:56 23.03.2020
6167 Clear 2 1028 40 10000 7.7 50 18:38 23.03.2020
6168 Clear 3 1026 38 10000 6.2 40 18:20 23.03.2020
6169 Clear 4 1026 38 10000 5.7 40 17:42 23.03.2020
6170 Clear 4 1026 39 10000 6.2 30 17:21 23.03.2020
6171 Clear 5 1026 39 10000 5.1 30 16:56 23.03.2020
6172 Clear 5 1026 39 10000 5.1 30 16:38 23.03.2020
6173 Clear 5 1026 39 10000 5.1 30 16:19 23.03.2020
6174 Clear 6 1026 36 10000 5.7 40 15:41 23.03.2020
6175 Clear 6 1026 39 10000 5.1 30 15:19 23.03.2020
6176 Clear 5 1027 39 10000 5.7 20 14:38 23.03.2020
6177 Clear 6 1027 42 10000 5.7 10 14:20 23.03.2020
6178 Clear 6 1028 29 10000 8.2 50 13:58 23.03.2020
6179 Clear 5 1027 45 10000 3.6 20 13:40 23.03.2020
6180 Clear 5 1027 45 10000 3.6 20 13:40 23.03.2020
6181 -273 0 0 0 0 0 13:20 23.03.2020
6182 Clear 5 1027 52 10000 2.6 0 12:44 23.03.2020
6183 Clear 4 1028 56 10000 3.6 270 12:25 23.03.2020
6184 Clear 4 1028 37 10000 6.7 70 11:59 23.03.2020
6185 Clear 4 1028 37 10000 6.7 70 11:59 23.03.2020
6186 Clear 3 1028 55 10000 2.1 260 11:39 23.03.2020
6187 Clear 3 1028 64 10000 2.6 290 11:19 23.03.2020
6188 Clear 2 1028 59 10000 1.5 0 10:57 23.03.2020
6189 Clear 2 1028 59 10000 1.5 0 10:37 23.03.2020
6190 Clear 1 1028 59 10000 2.1 240 10:19 23.03.2020
6191 Clear 0 1028 31 10000 2.1 310 09:44 23.03.2020
6192 Clear -1 1028 64 10000 1 0 09:21 23.03.2020
6193 Clear -1 1029 58 10000 6.7 60 08:56 23.03.2020
6194 Clear -2 1028 31 10000 2.1 360 08:36 23.03.2020
6195 Clear -3 1028 62 10000 1.5 50 08:18 23.03.2020
6196 Clear -4 1028 80 10000 0.5 0 07:42 23.03.2020
6197 Clear -4 1028 79 10000 1.5 40 07:21 23.03.2020
6198 Clear -4 1027 86 10000 1 0 06:49 23.03.2020
6199 Clear -4 1027 86 10000 0.5 0 05:51 23.03.2020
6200 Clear -4 1027 79 10000 0.5 0 04:58 23.03.2020
6201 Clear -3 1027 80 10000 3.1 40 03:26 23.03.2020
6202 Clouds -2 1027 84 10000 0.5 0 01:50 23.03.2020
6203 Clear -2 1029 63 10000 9.3 60 00:58 23.03.2020
6204 Clear -2 1027 64 10000 3.6 60 00:36 23.03.2020
6205 Clear -1 1027 64 10000 4.6 50 23:47 22.03.2020
6206 Clear -1 1027 64 10000 4.6 50 23:47 22.03.2020
6207 Clouds -1 1027 59 10000 5.1 50 23:25 22.03.2020
6208 Clouds -1 1026 59 10000 5.7 40 22:45 22.03.2020
6209 Clear 0 1026 59 10000 6.2 40 22:24 22.03.2020
6210 Clear 0 1026 59 10000 6.2 40 21:56 22.03.2020
6211 Clear 0 1026 59 10000 5.1 40 21:37 22.03.2020
6212 Clear 0 1026 59 10000 6.7 40 21:19 22.03.2020
6213 Clear 0 1027 90 10000 7.2 60 20:46 22.03.2020
6214 Clear 1 1025 55 10000 5.7 50 20:25 22.03.2020
6215 Clear 2 1027 86 10000 6.7 60 19:58 22.03.2020
6216 Clear 2 1025 55 10000 6.7 50 19:40 22.03.2020
6217 Clear 2 1024 56 10000 6.7 40 19:20 22.03.2020
6218 Clear 2 1024 60 10000 6.2 40 18:59 22.03.2020
6219 Clear 3 1024 60 10000 6.2 40 18:41 22.03.2020
6220 Clear 3 1024 60 10000 6.2 40 18:41 22.03.2020
6221 Clear 3 1023 60 10000 6.2 40 18:22 22.03.2020
6222 Clear 3 1023 60 10000 6.2 40 18:22 22.03.2020
6223 Clear 4 1023 56 10000 5.7 30 17:59 22.03.2020
6224 Clear 4 1023 56 10000 5.7 30 17:39 22.03.2020
6225 Clear 5 1023 59 10000 6.2 40 17:20 22.03.2020
6226 Clear 5 1023 59 10000 6.2 40 16:58 22.03.2020
6227 Clear 5 1023 59 10000 6.2 40 16:58 22.03.2020
6228 Clear 5 1023 56 10000 6.7 50 16:39 22.03.2020
6229 Clear 5 1023 61 10000 5.7 50 16:21 22.03.2020
6230 Clear 5 1023 61 10000 5.7 50 15:56 22.03.2020
6231 Clear 5 1022 61 10000 7.2 50 15:38 22.03.2020
6232 Clouds 5 1023 65 10000 5.1 40 14:46 22.03.2020
6233 Clouds 5 1023 65 10000 5.1 30 14:19 22.03.2020
6234 Clouds 5 1023 65 10000 4.6 40 13:55 22.03.2020
6235 Clouds 5 1023 65 10000 4.6 40 13:37 22.03.2020
6236 Clouds 5 1023 70 10000 5.1 30 13:18 22.03.2020
6237 Clouds 4 1023 70 10000 4.1 30 12:43 22.03.2020
6238 Clouds 4 1023 70 10000 4.6 30 12:20 22.03.2020
6239 Clouds 3 1023 75 10000 4.6 20 11:55 22.03.2020
6240 Clouds 3 1023 75 10000 4.6 20 11:36 22.03.2020
6241 Clouds 3 1022 64 10000 5.1 40 11:18 22.03.2020
6242 Clouds 2 1022 80 10000 5.1 40 10:42 22.03.2020
6243 Clouds 2 1022 78 10000 5.1 40 10:23 22.03.2020
6244 Clouds 1 1022 78 10000 5.1 40 09:47 22.03.2020
6245 Clouds 1 1022 78 10000 5.1 40 09:28 22.03.2020
6246 Clouds 1 1021 80 10000 4.6 40 08:53 22.03.2020
6247 Clouds 1 1021 80 10000 4.6 40 08:53 22.03.2020
6248 Clouds 1 1021 80 10000 4.6 40 08:33 22.03.2020
6249 Clouds 1 1020 80 10000 4.1 40 07:59 22.03.2020
6250 Clouds 1 1020 80 10000 4.1 40 07:41 22.03.2020
6251 Clouds 1 1020 80 10000 4.6 30 06:48 22.03.2020
6252 Clouds 1 1019 80 10000 3.6 40 05:52 22.03.2020
6253 Clouds 2 1019 80 10000 4.6 30 04:39 22.03.2020
6254 Clouds 2 1019 80 10000 4.6 30 02:34 22.03.2020
6255 Clouds 2 1019 80 10000 3.6 50 00:51 22.03.2020
6256 Clouds 2 1019 80 10000 3.6 50 00:32 22.03.2020
6257 Clouds 2 1019 80 10000 4.1 40 23:47 21.03.2020
6258 Clouds 3 1019 81 10000 4.6 50 23:23 21.03.2020
6259 Clouds 3 1020 97 10000 7.7 60 22:59 21.03.2020
6260 Clouds 3 1019 81 10000 5.1 40 22:38 21.03.2020
6261 Clouds 3 1019 81 10000 4.1 20 22:20 21.03.2020
6262 Clouds 3 1020 97 10000 6.7 60 21:59 21.03.2020
6263 Clouds 3 1019 81 10000 2.6 340 21:39 21.03.2020
6264 Clouds 3 1019 87 10000 1.5 0 21:20 21.03.2020
6265 -273 0 0 0 0 0 21:20 21.03.2020
6266 Clouds 3 1018 93 10000 3.1 240 20:44 21.03.2020
6267 Clouds 3 1020 97 10000 7.2 50 20:22 21.03.2020
6268 Clouds 3 1019 97 10000 7.7 50 19:56 21.03.2020
6269 Clouds 3 1018 93 10000 4.1 240 19:38 21.03.2020
6270 Drizzle 3 1018 93 10000 4.1 250 19:19 21.03.2020
6271 Clouds 3 1018 87 10000 3.1 300 18:54 21.03.2020
6272 Clouds 4 1018 87 10000 3.1 300 18:36 21.03.2020
6273 Clouds 4 1018 87 10000 3.6 300 18:18 21.03.2020
6274 Clouds 4 1018 87 10000 3.6 310 17:42 21.03.2020
6275 Clouds 4 1017 87 10000 3.6 320 17:22 21.03.2020
6276 Clouds 5 1017 81 10000 4.1 330 16:43 21.03.2020
6277 Clouds 5 1017 81 10000 4.1 330 16:43 21.03.2020
6278 Clouds 5 1017 81 10000 4.1 340 16:24 21.03.2020
6279 Clouds 5 1017 81 10000 4.1 340 16:24 21.03.2020
6280 Clouds 5 1017 81 10000 4.1 340 15:59 21.03.2020
6281 Clouds 5 1017 87 10000 3.6 330 15:40 21.03.2020
6282 Clouds 6 1018 93 10000 6.7 50 15:22 21.03.2020
6283 Clouds 6 1018 93 10000 6.2 50 14:57 21.03.2020
6284 Clouds 6 1017 81 10000 3.1 340 14:39 21.03.2020
6285 Clouds 6 1017 81 10000 3.1 340 14:20 21.03.2020
6286 Clouds 6 1017 81 10000 3.1 340 13:58 21.03.2020
6287 Clouds 6 1017 87 10000 3.1 320 13:39 21.03.2020
6288 Clouds 7 1017 87 10000 3.1 330 13:21 21.03.2020
6289 Clouds 6 1017 87 10000 3.1 330 12:57 21.03.2020
6290 Clouds 6 1018 87 10000 3.6 320 12:37 21.03.2020
6291 Clouds 6 1018 87 10000 1.5 320 12:19 21.03.2020
6292 Clouds 6 1018 87 10000 1.5 0 11:55 21.03.2020
6293 Clouds 6 1018 87 10000 1.5 0 11:37 21.03.2020
6294 Clouds 6 1018 87 10000 1.5 0 11:18 21.03.2020
6295 Clouds 6 1018 87 10000 2.1 0 10:56 21.03.2020
6296 Clouds 6 1018 87 10000 2.1 0 10:38 21.03.2020
6297 Clouds 6 1018 93 10000 2.1 340 10:18 21.03.2020
6298 Clouds 6 1018 93 10000 4.1 10 09:40 21.03.2020
6299 Clouds 7 1018 93 6000 1 0 09:21 21.03.2020
6300 Clouds 7 1018 93 6000 1 0 08:58 21.03.2020
6301 Clouds 7 1018 93 6000 1 0 08:39 21.03.2020
6302 Rain 7 1018 100 3900 4.1 20 08:21 21.03.2020
6303 Clouds 7 1018 100 6000 0.5 0 07:39 21.03.2020
6304 Mist 7 1018 100 4800 2.1 260 07:20 21.03.2020
6305 Clouds 7 1018 93 7000 1.5 60 06:45 21.03.2020
6306 Clouds 7 1018 93 7000 1.5 270 06:26 21.03.2020
6307 Clouds 7 1018 100 6000 3.1 280 05:41 21.03.2020
6308 Clouds 8 1018 93 8000 2.1 280 04:34 21.03.2020
6309 Clouds 8 1018 100 8000 2.6 100 02:39 21.03.2020
6310 Rain 8 1019 100 6000 1.5 140 01:54 21.03.2020
6311 Rain 8 1019 93 10000 1.5 350 01:28 21.03.2020
6312 Rain 9 1019 81 10000 1.5 0 00:43 21.03.2020
6313 Rain 9 1019 81 10000 1.5 0 00:43 21.03.2020
6314 Rain 9 1019 87 10000 1.5 330 00:24 21.03.2020
6315 Rain 9 1019 81 10000 2.6 280 23:45 20.03.2020
6316 Rain 9 1019 93 10000 2.1 220 23:22 20.03.2020
6317 Rain 9 1019 87 10000 1.5 0 22:44 20.03.2020
6318 Rain 9 1019 76 10000 3.1 90 22:25 20.03.2020
6319 Clouds 10 1019 87 10000 1 0 21:59 20.03.2020
6320 Rain 10 1018 87 10000 2.1 200 21:41 20.03.2020
6321 Rain 10 1019 87 7000 2.1 180 21:20 20.03.2020
6322 Rain 10 1019 87 7000 2.1 180 20:59 20.03.2020
6323 Rain 10 1019 87 10000 2.6 210 20:41 20.03.2020
6324 Thunderstorm 11 1019 76 4000 4.1 280 20:20 20.03.2020
6325 Thunderstorm 12 1018 62 10000 4.6 300 19:48 20.03.2020
6326 Thunderstorm 12 1017 58 10000 5.7 350 19:22 20.03.2020
6327 Thunderstorm 12 1017 58 10000 5.7 350 19:22 20.03.2020
6328 Clouds 12 1018 58 10000 3.6 270 18:58 20.03.2020
6329 Clouds 12 1018 58 10000 4.1 260 18:39 20.03.2020
6330 Clouds 14 1018 62 10000 5.1 270 18:20 20.03.2020
6331 Clouds 14 1018 58 10000 3.6 260 17:56 20.03.2020
6332 Rain 14 1017 51 10000 2.6 320 17:38 20.03.2020
6333 Rain 16 1017 54 10000 2.6 270 17:19 20.03.2020
6334 Clouds 16 1018 55 10000 2.1 260 16:42 20.03.2020
6335 Clouds 17 1018 59 10000 2.1 290 16:21 20.03.2020
6336 Clouds 17 1018 59 10000 2.6 280 15:55 20.03.2020
6337 Clouds 17 1018 59 10000 2.6 280 15:37 20.03.2020
6338 Clouds 17 1018 59 10000 2.6 280 15:37 20.03.2020
6339 Clouds 17 1018 51 10000 2.1 280 15:18 20.03.2020
6340 Rain 17 1019 51 10000 2.1 270 14:42 20.03.2020
6341 Rain 17 1019 55 10000 2.1 280 14:21 20.03.2020
6342 Rain 16 1020 71 10000 2.1 270 13:50 20.03.2020
6343 Rain 16 1020 71 10000 2.1 270 13:49 20.03.2020
6344 Rain 16 1020 71 10000 2.1 270 13:25 20.03.2020
6345 Rain 16 1020 71 10000 2.1 320 12:58 20.03.2020
6346 Rain 16 1020 51 10000 1 0 12:38 20.03.2020
6347 Rain 16 1020 71 10000 1 0 12:20 20.03.2020
6348 Rain 14 1021 76 10000 2.1 300 11:39 20.03.2020
6349 Rain 14 1020 54 10000 2.1 240 11:21 20.03.2020
6350 Clouds 14 1021 76 10000 1 0 10:56 20.03.2020
6351 Clouds 13 1021 76 10000 1 0 10:38 20.03.2020
6352 Clouds 12 1021 81 10000 1.5 300 10:18 20.03.2020
6353 Clouds 12 1021 81 10000 1.5 300 10:18 20.03.2020
6354 Clouds 11 1021 81 10000 1 0 09:45 20.03.2020
6355 Clouds 10 1021 87 10000 1.5 280 09:21 20.03.2020
6356 Clouds 9 1021 87 10000 1.5 280 08:57 20.03.2020
6357 Clouds 8 1021 87 10000 1 0 08:38 20.03.2020
6358 Clear 6 1021 100 6000 2.42 170 08:18 20.03.2020
6359 Clear 5 1021 93 6000 0.5 0 07:39 20.03.2020
6360 Clear 5 1021 93 5000 0.5 0 07:21 20.03.2020
6361 Clear 4 1021 93 7000 0.5 0 06:42 20.03.2020
6362 Clear 4 1021 93 8000 1 230 06:18 20.03.2020
6363 Clear 5 1021 93 8000 1 110 04:38 20.03.2020
6364 Clear 6 1021 93 10000 1 210 02:50 20.03.2020
6365 Clear 7 1021 93 10000 0.5 0 01:50 20.03.2020
6366 Clear 7 1021 87 10000 1 90 00:41 20.03.2020
6367 Clear 7 1021 81 10000 1 0 23:59 19.03.2020
6368 Clear 8 1021 81 10000 1 0 23:40 19.03.2020
6369 Clear 8 1021 81 10000 2.1 260 23:22 19.03.2020
6370 Clear 9 1021 76 10000 1.5 260 22:40 19.03.2020
6371 Clear 9 1021 81 10000 0.5 0 22:22 19.03.2020
6372 Clear 10 1022 66 10000 2.6 80 21:58 19.03.2020
6373 Clear 10 1021 75 10000 1.5 100 21:38 19.03.2020
6374 Clear 10 1021 76 10000 1 0 21:18 19.03.2020
6375 Clear 10 1022 81 10000 1 170 20:43 19.03.2020
6376 Clear 10 1022 81 10000 1 170 20:43 19.03.2020
6377 Clear 11 1022 81 10000 1 90 20:25 19.03.2020
6378 Clouds 11 1022 76 10000 1 0 19:59 19.03.2020
6379 Clouds 12 1021 76 10000 1.5 110 19:38 19.03.2020
6380 Clouds 12 1021 81 10000 1.5 80 19:20 19.03.2020
6381 Clouds 13 1022 66 10000 2.1 80 18:57 19.03.2020
6382 Clouds 13 1021 71 10000 1 90 18:57 19.03.2020
6383 Clouds 14 1021 71 10000 1 90 18:38 19.03.2020
6384 Clouds 15 1021 51 10000 1 290 18:20 19.03.2020
6385 Clouds 16 1021 55 10000 1.5 290 17:43 19.03.2020
6386 Clouds 17 1022 55 10000 1.5 290 17:20 19.03.2020
6387 Clouds 17 1022 51 10000 2.1 280 16:57 19.03.2020
6388 Clouds 17 1022 51 10000 2.1 280 16:39 19.03.2020
6389 Clouds 17 1022 55 10000 2.1 280 16:20 19.03.2020
6390 Clouds 18 1022 59 10000 3.1 280 15:41 19.03.2020
6391 Clouds 18 1023 55 10000 3.6 280 15:22 19.03.2020
6392 Clouds 18 1023 58 10000 3.1 280 14:43 19.03.2020
6393 Clear 17 1023 58 10000 2.6 280 14:21 19.03.2020
6394 Clear 16 1024 66 10000 3.1 280 13:42 19.03.2020
6395 Clear 17 1024 71 10000 2.6 290 13:21 19.03.2020
6396 Clear 17 1024 71 10000 2.6 290 13:21 19.03.2020
6397 Clear 16 1024 71 10000 3.1 290 12:58 19.03.2020
6398 Clear 16 1024 71 10000 3.1 290 12:40 19.03.2020
6399 Clear 15 1025 76 10000 2.6 280 12:21 19.03.2020
6400 Clear 15 1025 71 10000 2.6 280 11:43 19.03.2020
6401 Clear 14 1025 81 10000 2.1 300 11:24 19.03.2020
6402 Clear 14 1025 81 10000 2.1 300 10:58 19.03.2020
6403 Clear 13 1025 81 10000 2.1 300 10:38 19.03.2020
6404 Clear 12 1025 87 10000 1.5 0 10:19 19.03.2020
6405 Clear 12 1025 66 10000 1.5 230 09:55 19.03.2020
6406 Clear 11 1025 81 10000 1.5 0 09:37 19.03.2020
6407 Clear 10 1025 87 10000 1.5 290 09:18 19.03.2020
6408 Clear 8 1025 87 10000 1.5 290 08:41 19.03.2020
6409 Clear 6 1025 100 7000 1 0 08:20 19.03.2020
6410 Clear 4 1025 93 10000 1 0 07:44 19.03.2020
6411 Clear 4 1024 93 10000 2.1 160 07:25 19.03.2020
6412 Clear 4 1025 93 7000 0.5 280 06:35 19.03.2020
6413 Fog 4 1024 100 9000 2.6 260 05:48 19.03.2020
6414 Clear 4 1025 93 10000 1 0 04:54 19.03.2020
6415 Clear 4 1025 93 10000 1 0 04:34 19.03.2020
6416 Clear 5 1025 93 10000 0.5 0 02:49 19.03.2020
6417 Clear 6 1025 86 10000 1 0 01:21 19.03.2020
6418 Clear 6 1025 87 10000 1 70 00:28 19.03.2020
6419 Clear 7 1025 87 10000 0.5 140 23:48 18.03.2020
6420 Clear 6 1025 87 10000 1.5 50 23:29 18.03.2020
6421 Clear 8 1025 87 10000 0.5 0 22:56 18.03.2020
6422 Clear 8 1025 87 10000 0.5 0 22:38 18.03.2020
6423 Clear 8 1025 81 10000 2.36 170 22:20 18.03.2020
6424 Clear 8 1025 81 10000 1 230 21:41 18.03.2020
6425 Clear 9 1025 81 10000 0.5 0 21:21 18.03.2020
6426 Clear 9 1026 81 10000 2.6 80 20:57 18.03.2020
6427 Clear 10 1025 76 10000 1 0 20:39 18.03.2020
6428 Clouds 11 1025 66 10000 1 160 20:20 18.03.2020
6429 Clouds 11 1025 66 10000 1 160 19:56 18.03.2020
6430 Clouds 11 1025 66 10000 1 160 19:56 18.03.2020
6431 Clouds 11 1025 66 10000 2.6 140 19:36 18.03.2020
6432 Clouds 12 1025 76 10000 0.5 0 19:18 18.03.2020
6433 Clouds 13 1025 76 10000 0.5 0 18:41 18.03.2020
6434 Clouds 15 1025 51 10000 3.1 270 18:20 18.03.2020
6435 Clouds 16 1025 51 10000 3.1 270 17:57 18.03.2020
6436 Clouds 16 1025 51 10000 3.1 270 17:57 18.03.2020
6437 Clouds 16 1025 51 10000 3.1 270 17:39 18.03.2020
6438 Clouds 17 1025 55 10000 3.1 280 17:21 18.03.2020
6439 Clouds 16 1025 55 10000 3.1 280 16:54 18.03.2020
6440 Clouds 16 1025 55 10000 3.1 280 16:36 18.03.2020
6441 Clouds 17 1026 44 10000 3.6 40 16:18 18.03.2020
6442 Clouds 16 1026 55 10000 2.1 280 15:44 18.03.2020
6443 Clouds 16 1026 62 10000 3.1 290 15:20 18.03.2020
6444 Clouds 16 1026 62 10000 3.1 290 14:45 18.03.2020
6445 Clouds 17 1028 67 10000 2.6 280 14:22 18.03.2020
6446 Clouds 16 1028 67 10000 2.6 280 13:56 18.03.2020
6447 Clouds 16 1028 76 10000 2.6 280 13:36 18.03.2020
6448 Clouds 16 1028 76 10000 2.6 280 13:18 18.03.2020
6449 Clouds 15 1028 76 10000 2.1 290 12:41 18.03.2020
6450 Clouds 15 1029 76 10000 2.1 290 12:19 18.03.2020
6451 Clouds 14 1029 76 10000 2.1 290 11:39 18.03.2020
6452 Clouds 13 1030 81 10000 2.6 280 11:21 18.03.2020
6453 Clouds 12 1030 81 10000 2.6 280 10:58 18.03.2020
6454 Clouds 12 1030 81 10000 2.6 280 10:39 18.03.2020
6455 Clouds 11 1030 87 10000 1.5 280 10:20 18.03.2020
6456 Clouds 10 1030 87 10000 1.5 280 09:43 18.03.2020
6457 Clouds 9 1029 76 10000 1 0 09:25 18.03.2020
6458 Clouds 8 1030 87 9000 2.1 290 08:57 18.03.2020
6459 Clouds 6 1030 100 9000 1.5 290 08:39 18.03.2020
6460 Clouds 6 1030 100 9000 1.5 290 08:39 18.03.2020
6461 Clouds 5 1030 100 9000 0.5 0 08:20 18.03.2020
6462 Clouds 4 1030 100 8000 1 270 07:46 18.03.2020
6463 Clouds 4 1030 100 7000 1.5 0 07:28 18.03.2020
6464 Clouds 3 1029 93 6000 1.5 240 06:44 18.03.2020
6465 Clouds 4 1029 93 6000 1.5 230 06:22 18.03.2020
6466 Clouds 4 1029 100 8000 1 0 05:35 18.03.2020
6467 Clear 4 1029 93 10000 1.5 70 04:27 18.03.2020
6468 Clear 4 1030 93 7000 0.5 0 02:48 18.03.2020
6469 Clouds 5 1030 93 10000 1 220 01:48 18.03.2020
6470 Clouds 5 1030 93 10000 0.5 0 01:27 18.03.2020
6471 Clouds 6 1030 87 0 1 230 00:25 18.03.2020
6472 Clouds 6 1030 93 10000 1 0 23:50 17.03.2020
6473 Clouds 7 1030 76 0 1.5 280 23:28 17.03.2020
6474 Clouds 8 1031 81 10000 0.5 0 22:59 17.03.2020
6475 Clouds 7 1031 81 10000 0.5 0 22:40 17.03.2020
6476 Clouds 8 1030 87 10000 1 230 22:22 17.03.2020
6477 Clouds 8 1030 87 10000 1 0 21:40 17.03.2020
6478 Clouds 9 1030 81 10000 1 130 21:21 17.03.2020
6479 Clouds 10 1030 81 10000 1.5 110 20:41 17.03.2020
6480 Clouds 10 1030 81 10000 2.1 160 20:22 17.03.2020
6481 Clouds 11 1030 71 10000 0.5 0 19:59 17.03.2020
6482 Clouds 11 1030 71 10000 1 0 19:40 17.03.2020
6483 Clouds 12 1030 58 10000 1.5 190 19:18 17.03.2020
6484 Clouds 12 1029 62 10000 1 200 18:56 17.03.2020
6485 Clouds 12 1029 62 10000 1 200 18:37 17.03.2020
6486 Rain 13 1029 54 10000 1 0 18:19 17.03.2020
6487 Rain 13 1030 54 10000 1 0 17:40 17.03.2020
6488 Clouds 14 1030 54 10000 1 0 17:22 17.03.2020
6489 Clouds 14 1030 50 10000 1 0 16:55 17.03.2020
6490 Clouds 14 1030 50 10000 1 0 16:37 17.03.2020
6491 Clouds 14 1030 50 10000 1 0 16:18 17.03.2020
6492 Clouds 14 1030 54 10000 1 0 15:43 17.03.2020
6493 Clouds 14 1030 54 10000 1.5 340 15:21 17.03.2020
6494 Clouds 14 1030 54 10000 1.5 340 14:42 17.03.2020
6495 Clouds 13 1030 58 10000 0.5 0 14:21 17.03.2020
6496 Clouds 13 1030 50 10000 4.1 280 13:44 17.03.2020
6497 Clouds 13 1031 62 10000 2.1 280 13:26 17.03.2020
6498 Clouds 13 1030 58 10000 2.6 270 12:58 17.03.2020
6499 Clouds 13 1031 62 10000 2.1 310 12:40 17.03.2020
6500 Clouds 13 1031 62 10000 2.1 310 12:22 17.03.2020
6501 Clouds 12 1031 66 10000 2.1 270 11:46 17.03.2020
6502 Clouds 12 1031 66 10000 2.1 270 11:46 17.03.2020
6503 Clouds 12 1031 62 10000 2.1 300 11:28 17.03.2020
6504 Clouds 12 1031 71 10000 2.1 310 10:58 17.03.2020
6505 Clouds 12 1031 71 10000 2.1 310 10:38 17.03.2020
6506 Clouds 11 1031 76 10000 2.1 280 10:20 17.03.2020
6507 Clouds 10 1031 76 10000 2.1 280 09:57 17.03.2020
6508 Clouds 10 1031 87 10000 3.1 270 09:39 17.03.2020
6509 Clouds 9 1031 87 10000 3.1 290 09:18 17.03.2020
6510 Clouds 8 1030 81 10000 1.5 60 08:43 17.03.2020
6511 Clouds 6 1030 93 10000 2.1 110 08:21 17.03.2020
6512 Clouds 5 1030 93 10000 1 110 07:50 17.03.2020
6513 Clouds 5 1029 75 10000 2.6 190 07:26 17.03.2020
6514 Clouds 5 1029 70 10000 2.6 210 06:58 17.03.2020
6515 Clouds 5 1028 75 10000 2.6 210 06:33 17.03.2020
6516 Clouds 5 1028 93 10000 2.12 192 05:46 17.03.2020
6517 Clouds 5 1027 93 10000 1 300 03:40 17.03.2020
6518 Clouds 5 1027 86 10000 1.5 100 02:45 17.03.2020
6519 Clouds 4 1027 86 10000 1.5 90 01:42 17.03.2020
6520 Clouds 5 1026 93 10000 3.6 200 01:24 17.03.2020
6521 Clouds 6 1026 87 10000 1.5 240 00:25 17.03.2020
6522 Clouds 6 1025 75 10000 2.6 250 23:45 16.03.2020
6523 Clouds 6 1025 87 10000 2.1 250 23:23 16.03.2020
6524 Clouds 7 1025 71 10000 1.5 0 22:40 16.03.2020
6525 Clouds 7 1025 70 10000 0.5 0 22:22 16.03.2020
6526 Clouds 7 1024 81 10000 1.5 150 21:55 16.03.2020
6527 Clouds 7 1024 81 10000 1.5 150 21:36 16.03.2020
6528 Clouds 8 1024 81 10000 1 0 21:18 16.03.2020
6529 Clouds 8 1024 81 10000 1 200 20:43 16.03.2020
6530 Clouds 9 1023 81 10000 1 0 20:24 16.03.2020
6531 Clouds 10 1023 70 10000 0.5 0 19:56 16.03.2020
6532 Clouds 10 1023 76 10000 0.5 0 19:37 16.03.2020
6533 Clouds 11 1022 66 10000 1.5 90 19:18 16.03.2020
6534 Clouds 12 1022 58 10000 1 0 18:41 16.03.2020
6535 Clouds 13 1022 62 10000 2.1 70 18:20 16.03.2020
6536 Clouds 15 1021 47 10000 2.1 300 17:46 16.03.2020
6537 Clouds 15 1021 44 10000 3.6 280 17:26 16.03.2020
6538 Clouds 15 1021 44 10000 3.6 70 16:58 16.03.2020
6539 Clouds 15 1021 44 10000 3.6 280 16:40 16.03.2020
6540 Clouds 15 1021 52 10000 3.6 90 16:22 16.03.2020
6541 Clouds 16 1021 47 10000 3.6 290 15:43 16.03.2020
6542 Clouds 16 1021 47 10000 3.6 290 15:24 16.03.2020
6543 Clouds 15 1021 58 10000 3.6 280 14:48 16.03.2020
6544 Clouds 15 1021 50 10000 2.6 290 14:24 16.03.2020
6545 Clouds 14 1021 41 10000 3.1 80 13:53 16.03.2020
6546 Clouds 14 1021 50 10000 2.1 290 13:29 16.03.2020
6547 Clear 14 1021 54 10000 2.1 290 12:58 16.03.2020
6548 Clear 14 1021 70 10000 2.6 280 12:40 16.03.2020
6549 Clear 13 1021 70 10000 2.6 280 12:20 16.03.2020
6550 Clear 13 1021 70 10000 2.6 280 12:20 16.03.2020
6551 Clear 13 1021 66 10000 2.1 300 11:44 16.03.2020
6552 Clear 12 1021 70 10000 2.1 300 11:26 16.03.2020
6553 Clear 12 1020 50 10000 1.5 180 10:45 16.03.2020
6554 Clear 11 1020 50 10000 1.5 180 10:25 16.03.2020
6555 Clear 10 1020 53 10000 1.5 210 09:59 16.03.2020
6556 Clear 9 1021 81 10000 1.5 280 09:38 16.03.2020
6557 Clear 8 1020 81 10000 1.5 280 09:19 16.03.2020
6558 Clear 6 1020 80 10000 0.5 0 08:43 16.03.2020
6559 Clear 4 1019 40 10000 1 0 08:23 16.03.2020
6560 Clear 2 1019 51 10000 1 200 07:43 16.03.2020
6561 Clear 1 1019 100 10000 0.5 0 07:21 16.03.2020
6562 Clear 1 1018 51 10000 0.5 0 06:41 16.03.2020
6563 Clear 1 1018 51 10000 1 0 06:22 16.03.2020
6564 Clouds 1 1017 92 10000 1.5 170 04:26 16.03.2020
6565 Clouds 2 1016 93 10000 1 210 01:46 16.03.2020
6566 Clouds 3 1016 86 10000 1 0 00:45 16.03.2020
6567 Clouds 2 1016 80 10000 3.75 164 00:26 16.03.2020
6568 Clouds 3 1016 81 10000 3.1 280 23:40 15.03.2020
6569 Clouds 3 1016 80 10000 2.6 260 23:19 15.03.2020
6570 Clouds 4 1016 75 10000 1 0 22:42 15.03.2020
6571 Clouds 4 1016 86 10000 2.1 130 22:20 15.03.2020
6572 Clouds 5 1016 81 10000 1.5 0 21:39 15.03.2020
6573 Clouds 5 1016 86 10000 1 0 21:21 15.03.2020
6574 Clouds 5 1016 86 10000 1 0 20:55 15.03.2020
6575 Clouds 5 1016 75 10000 1 0 20:36 15.03.2020
6576 Clear 7 1016 75 10000 1 0 20:18 15.03.2020
6577 Clear 7 1016 70 10000 2.1 130 19:55 15.03.2020
6578 Clear 8 1016 66 10000 1 140 19:37 15.03.2020
6579 Clear 9 1016 66 10000 1.5 0 19:18 15.03.2020
6580 Clear 10 1015 54 10000 2.1 120 18:41 15.03.2020
6581 Clear 11 1015 54 10000 2.1 120 18:23 15.03.2020
6582 Clear 12 1015 35 10000 3.1 210 17:57 15.03.2020
6583 Clear 13 1016 78 10000 1 0 17:38 15.03.2020
6584 Clear 14 1016 54 10000 1 0 17:19 15.03.2020
6585 Clear 13 1016 50 10000 1.5 70 16:44 15.03.2020
6586 Clear 13 1016 50 10000 1.5 70 16:44 15.03.2020
6587 Clear 14 1016 50 10000 1.5 70 16:26 15.03.2020
6588 Clear 14 1016 50 10000 1.5 70 15:59 15.03.2020
6589 Clear 14 1016 50 10000 1 0 15:41 15.03.2020
6590 Clear 14 1017 53 10000 1 0 15:20 15.03.2020
6591 Clear 13 1017 57 10000 2.1 310 14:46 15.03.2020
6592 Clear 13 1016 35 10000 1.5 310 14:25 15.03.2020
6593 Clouds 13 1017 57 10000 2.1 310 13:59 15.03.2020
6594 Clouds 12 1018 57 10000 2.1 300 13:38 15.03.2020
6595 Clouds 12 1018 66 10000 2.6 290 13:20 15.03.2020
6596 Clouds 11 1018 70 10000 3.1 300 12:44 15.03.2020
6597 Clouds 11 1018 70 10000 3.1 280 12:26 15.03.2020
6598 Clouds 10 1018 70 10000 2.6 290 11:56 15.03.2020
6599 Clouds 10 1018 70 10000 2.6 290 11:38 15.03.2020
6600 Clouds 9 1018 75 10000 4.1 280 11:20 15.03.2020
6601 Clouds 9 1018 75 10000 4.1 280 10:55 15.03.2020
6602 Clouds 9 1018 75 10000 4.1 280 10:36 15.03.2020
6603 Clouds 7 1019 80 10000 2.6 290 10:18 15.03.2020
6604 Clouds 5 1019 75 10000 2.6 290 09:39 15.03.2020
6605 Clouds 4 1019 86 10000 3.6 290 09:20 15.03.2020
6606 Clouds 4 1019 86 10000 3.6 290 09:20 15.03.2020
6607 Clouds 2 1019 86 10000 2.6 290 08:42 15.03.2020
6608 Clear 1 1019 86 10000 2.1 270 08:20 15.03.2020
6609 -273 0 0 0 0 0 07:51 15.03.2020
6610 Clear 0 1020 100 10000 0.5 80 07:23 15.03.2020
6611 Clear -1 1020 76 10000 1 0 06:49 15.03.2020
6612 Clear -1 1021 92 10000 1 0 05:50 15.03.2020
6613 Clear 0 1021 84 10000 1.5 210 05:18 15.03.2020
6614 Clear 0 1021 92 10000 1 0 04:41 15.03.2020
6615 Clear 0 1021 84 10000 1 0 04:23 15.03.2020
6616 Clear 0 1021 84 10000 1 0 03:30 15.03.2020
6617 Clear 1 1022 86 10000 1.5 130 02:37 15.03.2020
6618 Clouds 2 1022 89 10000 1 0 01:20 15.03.2020
6619 Clouds 3 1022 80 10000 1.5 0 00:42 15.03.2020
6620 Clouds 3 1022 74 10000 1 0 00:21 15.03.2020
6621 Clouds 3 1022 87 10000 2.1 100 23:42 14.03.2020
6622 Clouds 4 1023 87 10000 1.5 0 23:21 14.03.2020
6623 Snow 4 1022 86 10000 1.53 175 22:58 14.03.2020
6624 Clouds 4 1023 70 10000 1.5 140 22:40 14.03.2020
6625 Snow 4 1022 86 10000 0.5 210 22:22 14.03.2020
6626 Clouds 4 1023 65 10000 1 0 21:56 14.03.2020
6627 Clouds 4 1023 65 10000 1 0 21:36 14.03.2020
6628 Clouds 4 1022 94 10000 1.5 0 21:18 14.03.2020
6629 Clouds 4 1022 94 10000 1.5 0 20:58 14.03.2020
6630 Clouds 4 1022 75 10000 1.5 0 20:39 14.03.2020
6631 Clouds 5 1022 61 10000 1 0 20:18 14.03.2020
6632 Clouds 5 1022 61 10000 3.1 120 19:42 14.03.2020
6633 Snow 5 1022 86 10000 1.5 100 19:24 14.03.2020
6634 Clouds 6 1021 52 10000 1 0 18:41 14.03.2020
6635 Clouds 6 1021 39 10000 1.5 260 18:22 14.03.2020
6636 Clouds 6 1021 45 10000 1.5 260 17:55 14.03.2020
6637 Clouds 6 1021 45 10000 1.5 260 17:37 14.03.2020
6638 Clouds 7 1020 57 10000 2.1 280 17:18 14.03.2020
6639 Clouds 7 1020 65 10000 2.1 280 16:40 14.03.2020
6640 Clouds 7 1020 93 10000 1.5 260 16:21 14.03.2020
6641 Clouds 8 1020 49 10000 3.1 50 15:52 14.03.2020
6642 Clouds 8 1020 45 10000 1.5 250 15:25 14.03.2020
6643 Clouds 8 1020 45 10000 1.5 250 14:46 14.03.2020
6644 Clouds 8 1021 82 10000 1.5 310 14:23 14.03.2020
6645 Clouds 8 1021 82 10000 1.5 310 13:57 14.03.2020
6646 Clouds 8 1021 82 10000 1.5 310 13:39 14.03.2020
6647 Clouds 8 1021 70 10000 1.5 280 13:20 14.03.2020
6648 Clouds 8 1021 80 10000 1 0 12:46 14.03.2020
6649 Clouds 7 1021 70 10000 1.5 280 12:27 14.03.2020
6650 Clouds 7 1021 80 10000 2.6 280 11:56 14.03.2020
6651 Clouds 7 1021 80 10000 2.6 280 11:56 14.03.2020
6652 Clouds 7 1021 80 10000 2.6 280 11:38 14.03.2020
6653 Clouds 6 1021 67 10000 2.6 280 11:19 14.03.2020
6654 Clouds 6 1021 80 10000 2.6 280 10:42 14.03.2020
6655 Clouds 6 1021 80 10000 2.6 280 10:42 14.03.2020
6656 Clouds 5 1021 80 10000 2.6 280 10:23 14.03.2020
6657 Clouds 4 1020 86 10000 3.1 280 09:47 14.03.2020
6658 Clouds 3 1020 86 10000 3.1 280 09:24 14.03.2020
6659 Clouds 1 1020 93 10000 0.5 0 08:51 14.03.2020
6660 Clouds 1 1019 67 10000 0.49 315 08:29 14.03.2020
6661 Clouds 0 1020 88 10000 1 190 07:55 14.03.2020
6662 Clouds 0 1020 88 10000 0.5 0 07:37 14.03.2020
6663 Clouds 0 1020 86 10000 0.5 0 07:19 14.03.2020
6664 Clouds 0 1020 88 10000 0.5 0 06:40 14.03.2020
6665 Clouds 0 1020 88 10000 1 100 05:24 14.03.2020
6666 Clouds 0 1020 86 10000 2.1 80 03:46 14.03.2020
6667 Clouds 0 1020 92 10000 1.5 20 03:24 14.03.2020
6668 Clouds 0 1021 87 10000 0.5 0 02:22 14.03.2020
6669 Clear 0 1022 80 10000 0.5 0 00:46 14.03.2020
6670 Clear 1 1022 90 10000 2.1 110 23:46 13.03.2020
6671 Clear 1 1022 74 10000 1.5 0 23:28 13.03.2020
6672 Clear 1 1022 80 10000 0.5 0 22:49 13.03.2020
6673 Clear 2 1022 80 10000 0.5 0 22:26 13.03.2020
6674 Clear 2 1021 80 10000 2.6 100 21:44 13.03.2020
6675 Clear 3 1021 91 10000 1.5 0 21:22 13.03.2020
6676 Clear 3 1021 91 10000 1.5 0 20:59 13.03.2020
6677 Clear 4 1021 56 10000 1.5 0 20:40 13.03.2020
6678 Clear 4 1021 56 10000 2.6 190 20:20 13.03.2020
6679 Clouds 5 1021 56 10000 0.5 0 19:48 13.03.2020
6680 Clouds 6 1020 56 10000 2.1 260 19:30 13.03.2020
6681 Clouds 6 1021 52 10000 2.1 200 18:49 13.03.2020
6682 Clouds 7 1021 49 10000 2.6 210 18:31 13.03.2020
6683 Clouds 8 1021 93 10000 3.1 240 17:57 13.03.2020
6684 Clouds 8 1021 93 10000 3.1 240 17:38 13.03.2020
6685 Clouds 9 1021 40 10000 3.1 240 17:20 13.03.2020
6686 Clouds 9 1021 43 10000 3.1 240 16:42 13.03.2020
6687 Clouds 9 1021 46 10000 2.6 250 16:24 13.03.2020
6688 Clouds 9 1022 46 10000 3.6 250 15:56 13.03.2020
6689 Clouds 9 1022 46 10000 3.6 250 15:37 13.03.2020
6690 Clouds 10 1022 46 10000 3.1 210 15:19 13.03.2020
6691 Clouds 9 1022 73 10000 4.6 240 14:41 13.03.2020
6692 Clouds 9 1020 53 10000 8.2 230 14:22 13.03.2020
6693 Clouds 9 1022 77 10000 4.6 240 14:22 13.03.2020
6694 Clouds 9 1022 77 10000 4.6 240 13:57 13.03.2020
6695 Clouds 8 1022 49 10000 4.1 240 13:38 13.03.2020
6696 Clouds 8 1022 49 10000 4.1 240 13:19 13.03.2020
6697 Clouds 7 1023 61 10000 3.1 220 12:40 13.03.2020
6698 Clouds 7 1023 75 10000 4.6 240 12:22 13.03.2020
6699 Clouds 7 1020 45 10000 8.7 240 11:59 13.03.2020
6700 Clouds 6 1023 75 10000 4.6 240 11:41 13.03.2020
6701 Clouds 6 1023 75 10000 4.6 240 11:41 13.03.2020
6702 Clouds 6 1022 61 10000 3.6 250 11:22 13.03.2020
6703 Clouds 5 1022 61 10000 4.1 240 10:48 13.03.2020
6704 Snow 5 1020 75 10000 5.7 240 10:28 13.03.2020
6705 Snow 5 1020 95 10000 8.2 270 09:57 13.03.2020
6706 Snow 5 1020 95 10000 8.2 270 09:57 13.03.2020
6707 Rain 5 1020 95 2000 10.3 320 09:39 13.03.2020
6708 Clouds 5 1021 65 10000 5.7 240 09:20 13.03.2020
6709 Drizzle 5 1021 70 10000 4.6 250 08:45 13.03.2020
6710 Drizzle 5 1021 70 10000 4.6 250 08:22 13.03.2020
6711 Drizzle 5 1020 87 5000 3.1 240 07:49 13.03.2020
6712 Drizzle 5 1020 87 5000 3.1 240 07:28 13.03.2020
6713 Drizzle 5 1019 75 10000 4.6 230 06:47 13.03.2020
6714 Clouds 5 1018 86 10000 5.1 230 06:28 13.03.2020
6715 Drizzle 5 1017 93 8000 5.1 280 05:53 13.03.2020
6716 Drizzle 5 1017 86 6000 7.7 300 05:20 13.03.2020
6717 Drizzle 6 1019 75 10000 4.6 240 04:37 13.03.2020
6718 Clouds 6 1018 70 10000 4.1 250 03:31 13.03.2020
6719 Clouds 8 1018 71 10000 4.6 260 01:45 13.03.2020
6720 Clouds 8 1017 71 10000 5.7 250 01:18 13.03.2020
6721 Rain 9 1017 76 10000 4.1 260 00:47 13.03.2020
6722 Clouds 9 1017 71 10000 5.1 260 00:23 13.03.2020
6723 Clouds 10 1017 81 10000 3.1 280 23:47 12.03.2020
6724 Clouds 10 1016 76 10000 2.1 280 23:26 12.03.2020
6725 Clouds 11 1016 81 10000 0.5 0 22:55 12.03.2020
6726 Clouds 11 1016 81 10000 0.5 0 22:37 12.03.2020
6727 Clouds 11 1016 76 10000 1.5 40 22:19 12.03.2020
6728 Clouds 11 1016 87 10000 1 120 21:42 12.03.2020
6729 Clouds 11 1015 66 10000 7.2 230 21:24 12.03.2020
6730 Clouds 11 1016 66 10000 3.1 280 20:56 12.03.2020
6731 Clouds 11 1016 66 10000 3.1 280 20:37 12.03.2020
6732 Clouds 11 1016 76 10000 1 0 20:18 12.03.2020
6733 Clouds 12 1016 76 10000 1 140 19:39 12.03.2020
6734 Clouds 12 1016 76 10000 1 140 19:39 12.03.2020
6735 Clouds 12 1015 76 10000 0.5 0 19:20 12.03.2020
6736 Clouds 12 1015 76 10000 0.5 0 19:20 12.03.2020
6737 Clouds 12 1015 76 10000 1 0 18:43 12.03.2020
6738 Clouds 12 1015 82 10000 0.5 0 18:23 12.03.2020
6739 Clouds 13 1015 82 10000 1 0 17:56 12.03.2020
6740 Clouds 13 1015 82 10000 1 0 17:37 12.03.2020
6741 Clouds 13 1015 82 10000 1.5 0 17:18 12.03.2020
6742 Clouds 14 1015 71 10000 1 0 16:43 12.03.2020
6743 Clouds 14 1015 71 10000 1.5 0 16:24 12.03.2020
6744 Clouds 14 1014 67 10000 8.2 240 15:59 12.03.2020
6745 Clouds 14 1015 71 10000 1.5 0 15:39 12.03.2020
6746 Clouds 14 1016 81 10000 1 0 15:21 12.03.2020
6747 Clouds 14 1016 76 10000 1 0 14:38 12.03.2020
6748 Clouds 14 1016 76 10000 1 0 14:38 12.03.2020
6749 Clouds 14 1016 71 10000 2.1 70 14:19 12.03.2020
6750 Clouds 14 1016 71 10000 2.1 70 13:40 12.03.2020
6751 Clouds 14 1017 71 10000 2.6 60 13:22 12.03.2020
6752 Clouds 13 1017 71 10000 1.5 30 12:55 12.03.2020
6753 Clouds 13 1017 71 10000 1.5 30 12:37 12.03.2020
6754 Clouds 13 1017 66 10000 1.5 30 12:18 12.03.2020
6755 Clouds 13 1017 67 10000 1.5 70 11:56 12.03.2020
6756 Clouds 13 1017 67 10000 1.5 70 11:37 12.03.2020
6757 Clouds 13 1017 62 10000 1.5 70 11:18 12.03.2020
6758 Clouds 12 1018 67 10000 2.1 90 10:44 12.03.2020
6759 Clouds 11 1016 71 10000 9.3 240 10:26 12.03.2020
6760 Clouds 11 1018 76 10000 0.5 0 09:59 12.03.2020
6761 Clouds 11 1018 76 10000 0.5 0 09:41 12.03.2020
6762 Clouds 10 1016 76 10000 10.8 230 09:23 12.03.2020
6763 Clouds 9 1017 87 10000 1.5 100 08:39 12.03.2020
6764 Clouds 9 1017 87 10000 0.5 0 08:19 12.03.2020
6765 Clouds 9 1017 81 10000 0.5 0 07:48 12.03.2020
6766 Clouds 8 1016 81 10000 1 0 07:23 12.03.2020
6767 Clouds 7 1016 66 10000 1 0 06:33 12.03.2020
6768 Clouds 7 1015 76 10000 6.2 220 05:36 12.03.2020
6769 Clouds 7 1018 76 10000 2.6 140 03:45 12.03.2020
6770 Clouds 8 1018 66 10000 2.1 230 02:19 12.03.2020
6771 Clear 8 1017 93 10000 4.6 210 01:24 12.03.2020
6772 Clouds 8 1019 71 10000 1.5 0 00:42 12.03.2020
6773 Clouds 8 1018 87 10000 3.1 200 23:59 11.03.2020
6774 Clouds 9 1019 87 10000 1 0 23:37 11.03.2020
6775 Clouds 9 1019 87 10000 1 140 23:18 11.03.2020
6776 Clouds 9 1020 87 10000 1.5 120 22:41 11.03.2020
6777 Clouds 10 1019 76 10000 5.1 230 22:23 11.03.2020
6778 Clouds 10 1019 81 10000 4.6 230 21:58 11.03.2020
6779 Clouds 10 1020 71 10000 1 240 21:39 11.03.2020
6780 Clouds 10 1020 62 10000 1.5 250 21:21 11.03.2020
6781 Clouds 10 1020 62 10000 1.5 250 20:57 11.03.2020
6782 Clouds 10 1020 62 10000 1.5 250 20:57 11.03.2020
6783 Clouds 11 1020 62 10000 1.5 250 20:37 11.03.2020
6784 Clouds 10 1020 58 10000 2.1 200 20:19 11.03.2020
6785 Clouds 11 1020 58 10000 2.1 200 19:42 11.03.2020
6786 Clouds 13 1020 55 10000 3.6 220 19:24 11.03.2020
6787 Clouds 13 1020 55 10000 3.6 220 18:57 11.03.2020
6788 Clouds 13 1020 55 10000 3.6 220 18:38 11.03.2020
6789 Clouds 13 1020 55 10000 3.1 230 18:19 11.03.2020
6790 Clouds 13 1020 55 10000 3.1 220 17:55 11.03.2020
6791 Clouds 14 1019 71 10000 7.2 230 17:37 11.03.2020
6792 Clouds 14 1020 55 10000 3.6 230 17:18 11.03.2020
6793 Clouds 14 1020 55 10000 3.6 230 16:43 11.03.2020
6794 Clouds 14 1020 51 10000 3.6 240 16:20 11.03.2020
6795 Clouds 14 1020 55 10000 3.6 240 15:43 11.03.2020
6796 Clouds 14 1020 55 10000 5.7 210 15:23 11.03.2020
6797 Clouds 14 1020 59 10000 5.7 210 14:54 11.03.2020
6798 Clouds 13 1020 59 10000 5.7 210 14:36 11.03.2020
6799 Clouds 13 1020 59 10000 5.7 210 14:36 11.03.2020
6800 Clouds 13 1021 62 10000 6.2 270 14:18 11.03.202